<?xml version="1.0" encoding="UTF-8" standalone="no" ?>
<gpx xmlns="http://www.topografix.com/GPX/1/1" xmlns:xsi="http://www.w3.org/2001/XMLSchema-instance" xsi:schemaLocation="http://www.topografix.com/GPX/1/1 http://www.topografix.com/GPX/1/1/gpx.xsd" version="1.1" creator="VisuGPX - https://www.visugpx.com">
  <metadata>
    <name>Sortie Val de Consolation</name>
    <desc><![CDATA[conso]]></desc>
  </metadata>
  <trk>
    <name><![CDATA[Sortie Val de Consolation_1]]></name>
    <trkseg>
      <trkpt lat="47.16057" lon="6.72012">
        <ele>924</ele>
        <time>2014-05-10T13:49:07.10</time>
      </trkpt>
      <trkpt lat="47.16061" lon="6.72006">
        <ele>930</ele>
        <time>2014-05-10T13:49:07.18</time>
      </trkpt>
      <trkpt lat="47.16067" lon="6.71999">
        <ele>930</ele>
        <time>2014-05-10T13:49:11.18</time>
      </trkpt>
      <trkpt lat="47.16069" lon="6.72003">
        <ele>924</ele>
        <time>2014-05-10T13:49:18.17</time>
      </trkpt>
      <trkpt lat="47.16074" lon="6.72015">
        <ele>924</ele>
        <time>2014-05-10T13:49:21.15</time>
      </trkpt>
      <trkpt lat="47.16078" lon="6.72024">
        <ele>924</ele>
        <time>2014-05-10T13:49:23.15</time>
      </trkpt>
      <trkpt lat="47.16082" lon="6.72034">
        <ele>924</ele>
        <time>2014-05-10T13:49:25.14</time>
      </trkpt>
      <trkpt lat="47.16087" lon="6.72047">
        <ele>922</ele>
        <time>2014-05-10T13:49:28.15</time>
      </trkpt>
      <trkpt lat="47.16089" lon="6.72058">
        <ele>924</ele>
        <time>2014-05-10T13:49:30.17</time>
      </trkpt>
      <trkpt lat="47.16085" lon="6.72066">
        <ele>922</ele>
        <time>2014-05-10T13:49:32.16</time>
      </trkpt>
      <trkpt lat="47.16079" lon="6.72074">
        <ele>922</ele>
        <time>2014-05-10T13:49:34.18</time>
      </trkpt>
      <trkpt lat="47.16072" lon="6.7208">
        <ele>926</ele>
        <time>2014-05-10T13:49:36.15</time>
      </trkpt>
      <trkpt lat="47.16066" lon="6.72087">
        <ele>925</ele>
        <time>2014-05-10T13:49:38.15</time>
      </trkpt>
      <trkpt lat="47.16059" lon="6.72094">
        <ele>926</ele>
        <time>2014-05-10T13:49:40.18</time>
      </trkpt>
      <trkpt lat="47.16053" lon="6.721">
        <ele>926</ele>
        <time>2014-05-10T13:49:42.14</time>
      </trkpt>
      <trkpt lat="47.16045" lon="6.72109">
        <ele>928</ele>
        <time>2014-05-10T13:49:45.14</time>
      </trkpt>
      <trkpt lat="47.16037" lon="6.72115">
        <ele>927</ele>
        <time>2014-05-10T13:49:48.15</time>
      </trkpt>
      <trkpt lat="47.16029" lon="6.72107">
        <ele>928</ele>
        <time>2014-05-10T13:49:51.16</time>
      </trkpt>
      <trkpt lat="47.16024" lon="6.72096">
        <ele>927</ele>
        <time>2014-05-10T13:49:53.16</time>
      </trkpt>
      <trkpt lat="47.1602" lon="6.72085">
        <ele>927</ele>
        <time>2014-05-10T13:49:55.15</time>
      </trkpt>
      <trkpt lat="47.16015" lon="6.72074">
        <ele>927</ele>
        <time>2014-05-10T13:49:57.16</time>
      </trkpt>
      <trkpt lat="47.1601" lon="6.72064">
        <ele>928</ele>
        <time>2014-05-10T13:49:59.15</time>
      </trkpt>
      <trkpt lat="47.16004" lon="6.72054">
        <ele>928</ele>
        <time>2014-05-10T13:50:01.16</time>
      </trkpt>
      <trkpt lat="47.15999" lon="6.72045">
        <ele>928</ele>
        <time>2014-05-10T13:50:03.17</time>
      </trkpt>
      <trkpt lat="47.15993" lon="6.72036">
        <ele>928</ele>
        <time>2014-05-10T13:50:05.15</time>
      </trkpt>
      <trkpt lat="47.15988" lon="6.72027">
        <ele>927</ele>
        <time>2014-05-10T13:50:07.15</time>
      </trkpt>
      <trkpt lat="47.15982" lon="6.72018">
        <ele>928</ele>
        <time>2014-05-10T13:50:09.15</time>
      </trkpt>
      <trkpt lat="47.15976" lon="6.7201">
        <ele>929</ele>
        <time>2014-05-10T13:50:11.16</time>
      </trkpt>
      <trkpt lat="47.1597" lon="6.72003">
        <ele>929</ele>
        <time>2014-05-10T13:50:13.16</time>
      </trkpt>
      <trkpt lat="47.15961" lon="6.71995">
        <ele>929</ele>
        <time>2014-05-10T13:50:16.15</time>
      </trkpt>
      <trkpt lat="47.15953" lon="6.7199">
        <ele>932</ele>
        <time>2014-05-10T13:50:19.18</time>
      </trkpt>
      <trkpt lat="47.15944" lon="6.71989">
        <ele>934</ele>
        <time>2014-05-10T13:50:22.16</time>
      </trkpt>
      <trkpt lat="47.15934" lon="6.71992">
        <ele>934</ele>
        <time>2014-05-10T13:50:25.14</time>
      </trkpt>
      <trkpt lat="47.15926" lon="6.71998">
        <ele>935</ele>
        <time>2014-05-10T13:50:27.15</time>
      </trkpt>
      <trkpt lat="47.1592" lon="6.72008">
        <ele>937</ele>
        <time>2014-05-10T13:50:29.20</time>
      </trkpt>
      <trkpt lat="47.15914" lon="6.72019">
        <ele>936</ele>
        <time>2014-05-10T13:50:31.15</time>
      </trkpt>
      <trkpt lat="47.15906" lon="6.7203">
        <ele>936</ele>
        <time>2014-05-10T13:50:33.14</time>
      </trkpt>
      <trkpt lat="47.15898" lon="6.7204">
        <ele>937</ele>
        <time>2014-05-10T13:50:35.17</time>
      </trkpt>
      <trkpt lat="47.15893" lon="6.72051">
        <ele>935</ele>
        <time>2014-05-10T13:50:37.15</time>
      </trkpt>
      <trkpt lat="47.15886" lon="6.72063">
        <ele>936</ele>
        <time>2014-05-10T13:50:39.15</time>
      </trkpt>
      <trkpt lat="47.15879" lon="6.72074">
        <ele>937</ele>
        <time>2014-05-10T13:50:41.16</time>
      </trkpt>
      <trkpt lat="47.15873" lon="6.72085">
        <ele>939</ele>
        <time>2014-05-10T13:50:43.15</time>
      </trkpt>
      <trkpt lat="47.15865" lon="6.72094">
        <ele>937</ele>
        <time>2014-05-10T13:50:45.26</time>
      </trkpt>
      <trkpt lat="47.15858" lon="6.72104">
        <ele>935</ele>
        <time>2014-05-10T13:50:47.27</time>
      </trkpt>
      <trkpt lat="47.15852" lon="6.72115">
        <ele>934</ele>
        <time>2014-05-10T13:50:49.19</time>
      </trkpt>
      <trkpt lat="47.15846" lon="6.72126">
        <ele>933</ele>
        <time>2014-05-10T13:50:51.17</time>
      </trkpt>
      <trkpt lat="47.1584" lon="6.72138">
        <ele>932</ele>
        <time>2014-05-10T13:50:53.16</time>
      </trkpt>
      <trkpt lat="47.15833" lon="6.72149">
        <ele>931</ele>
        <time>2014-05-10T13:50:55.17</time>
      </trkpt>
      <trkpt lat="47.15826" lon="6.72162">
        <ele>932</ele>
        <time>2014-05-10T13:50:57.18</time>
      </trkpt>
      <trkpt lat="47.15818" lon="6.72174">
        <ele>931</ele>
        <time>2014-05-10T13:50:59.15</time>
      </trkpt>
      <trkpt lat="47.15811" lon="6.72186">
        <ele>930</ele>
        <time>2014-05-10T13:51:01.16</time>
      </trkpt>
      <trkpt lat="47.15806" lon="6.72194">
        <ele>930</ele>
        <time>2014-05-10T13:51:03.16</time>
      </trkpt>
      <trkpt lat="47.15803" lon="6.72199">
        <ele>926</ele>
        <time>2014-05-10T13:51:10.20</time>
      </trkpt>
      <trkpt lat="47.15803" lon="6.72212">
        <ele>934</ele>
        <time>2014-05-10T13:51:17.13</time>
      </trkpt>
      <trkpt lat="47.15809" lon="6.72222">
        <ele>930</ele>
        <time>2014-05-10T13:51:19.18</time>
      </trkpt>
      <trkpt lat="47.15815" lon="6.72233">
        <ele>928</ele>
        <time>2014-05-10T13:51:21.31</time>
      </trkpt>
      <trkpt lat="47.15823" lon="6.72244">
        <ele>926</ele>
        <time>2014-05-10T13:51:23.29</time>
      </trkpt>
      <trkpt lat="47.15831" lon="6.72256">
        <ele>927</ele>
        <time>2014-05-10T13:51:25.17</time>
      </trkpt>
      <trkpt lat="47.1584" lon="6.72268">
        <ele>926</ele>
        <time>2014-05-10T13:51:27.17</time>
      </trkpt>
      <trkpt lat="47.15849" lon="6.72282">
        <ele>925</ele>
        <time>2014-05-10T13:51:29.16</time>
      </trkpt>
      <trkpt lat="47.15858" lon="6.72295">
        <ele>925</ele>
        <time>2014-05-10T13:51:31.18</time>
      </trkpt>
      <trkpt lat="47.15869" lon="6.72309">
        <ele>927</ele>
        <time>2014-05-10T13:51:33.15</time>
      </trkpt>
      <trkpt lat="47.15878" lon="6.72322">
        <ele>926</ele>
        <time>2014-05-10T13:51:35.18</time>
      </trkpt>
      <trkpt lat="47.15889" lon="6.72336">
        <ele>925</ele>
        <time>2014-05-10T13:51:37.18</time>
      </trkpt>
      <trkpt lat="47.15894" lon="6.72344">
        <ele>926</ele>
        <time>2014-05-10T13:51:38.16</time>
      </trkpt>
      <trkpt lat="47.159" lon="6.72352">
        <ele>927</ele>
        <time>2014-05-10T13:51:39.16</time>
      </trkpt>
      <trkpt lat="47.15906" lon="6.72359">
        <ele>928</ele>
        <time>2014-05-10T13:51:40.16</time>
      </trkpt>
      <trkpt lat="47.15912" lon="6.72367">
        <ele>926</ele>
        <time>2014-05-10T13:51:41.17</time>
      </trkpt>
      <trkpt lat="47.15917" lon="6.72375">
        <ele>925</ele>
        <time>2014-05-10T13:51:42.16</time>
      </trkpt>
      <trkpt lat="47.15924" lon="6.72383">
        <ele>924</ele>
        <time>2014-05-10T13:51:43.16</time>
      </trkpt>
      <trkpt lat="47.15929" lon="6.7239">
        <ele>922</ele>
        <time>2014-05-10T13:51:44.15</time>
      </trkpt>
      <trkpt lat="47.15935" lon="6.72399">
        <ele>923</ele>
        <time>2014-05-10T13:51:45.17</time>
      </trkpt>
      <trkpt lat="47.15942" lon="6.72407">
        <ele>924</ele>
        <time>2014-05-10T13:51:46.16</time>
      </trkpt>
      <trkpt lat="47.15948" lon="6.72416">
        <ele>925</ele>
        <time>2014-05-10T13:51:47.16</time>
      </trkpt>
      <trkpt lat="47.15954" lon="6.72424">
        <ele>925</ele>
        <time>2014-05-10T13:51:48.16</time>
      </trkpt>
      <trkpt lat="47.15961" lon="6.72432">
        <ele>925</ele>
        <time>2014-05-10T13:51:49.18</time>
      </trkpt>
      <trkpt lat="47.15967" lon="6.72441">
        <ele>925</ele>
        <time>2014-05-10T13:51:50.15</time>
      </trkpt>
      <trkpt lat="47.15974" lon="6.7245">
        <ele>924</ele>
        <time>2014-05-10T13:51:51.17</time>
      </trkpt>
      <trkpt lat="47.15981" lon="6.72458">
        <ele>924</ele>
        <time>2014-05-10T13:51:52.16</time>
      </trkpt>
      <trkpt lat="47.15987" lon="6.72467">
        <ele>923</ele>
        <time>2014-05-10T13:51:53.17</time>
      </trkpt>
      <trkpt lat="47.15994" lon="6.72476">
        <ele>922</ele>
        <time>2014-05-10T13:51:54.17</time>
      </trkpt>
      <trkpt lat="47.16" lon="6.72485">
        <ele>922</ele>
        <time>2014-05-10T13:51:55.14</time>
      </trkpt>
      <trkpt lat="47.16007" lon="6.72493">
        <ele>922</ele>
        <time>2014-05-10T13:51:56.15</time>
      </trkpt>
      <trkpt lat="47.16014" lon="6.72502">
        <ele>921</ele>
        <time>2014-05-10T13:51:57.15</time>
      </trkpt>
      <trkpt lat="47.1602" lon="6.72511">
        <ele>921</ele>
        <time>2014-05-10T13:51:58.16</time>
      </trkpt>
      <trkpt lat="47.16027" lon="6.7252">
        <ele>921</ele>
        <time>2014-05-10T13:51:59.15</time>
      </trkpt>
      <trkpt lat="47.16033" lon="6.72528">
        <ele>921</ele>
        <time>2014-05-10T13:52:00.16</time>
      </trkpt>
      <trkpt lat="47.16039" lon="6.72537">
        <ele>922</ele>
        <time>2014-05-10T13:52:01.21</time>
      </trkpt>
      <trkpt lat="47.16046" lon="6.72545">
        <ele>923</ele>
        <time>2014-05-10T13:52:02.15</time>
      </trkpt>
      <trkpt lat="47.16052" lon="6.72553">
        <ele>924</ele>
        <time>2014-05-10T13:52:03.17</time>
      </trkpt>
      <trkpt lat="47.16058" lon="6.72561">
        <ele>925</ele>
        <time>2014-05-10T13:52:04.16</time>
      </trkpt>
      <trkpt lat="47.16064" lon="6.72569">
        <ele>925</ele>
        <time>2014-05-10T13:52:05.15</time>
      </trkpt>
      <trkpt lat="47.16069" lon="6.72577">
        <ele>925</ele>
        <time>2014-05-10T13:52:06.33</time>
      </trkpt>
      <trkpt lat="47.16075" lon="6.72585">
        <ele>925</ele>
        <time>2014-05-10T13:52:07.25</time>
      </trkpt>
      <trkpt lat="47.16081" lon="6.72593">
        <ele>925</ele>
        <time>2014-05-10T13:52:08.20</time>
      </trkpt>
      <trkpt lat="47.16087" lon="6.726">
        <ele>925</ele>
        <time>2014-05-10T13:52:09.16</time>
      </trkpt>
      <trkpt lat="47.16093" lon="6.72608">
        <ele>925</ele>
        <time>2014-05-10T13:52:10.17</time>
      </trkpt>
      <trkpt lat="47.16099" lon="6.72615">
        <ele>925</ele>
        <time>2014-05-10T13:52:11.17</time>
      </trkpt>
      <trkpt lat="47.16105" lon="6.72622">
        <ele>925</ele>
        <time>2014-05-10T13:52:12.22</time>
      </trkpt>
      <trkpt lat="47.16111" lon="6.7263">
        <ele>925</ele>
        <time>2014-05-10T13:52:14.66</time>
      </trkpt>
      <trkpt lat="47.16117" lon="6.72638">
        <ele>925</ele>
        <time>2014-05-10T13:52:14.81</time>
      </trkpt>
      <trkpt lat="47.16122" lon="6.72646">
        <ele>926</ele>
        <time>2014-05-10T13:52:15.28</time>
      </trkpt>
      <trkpt lat="47.16128" lon="6.72653">
        <ele>925</ele>
        <time>2014-05-10T13:52:16.13</time>
      </trkpt>
      <trkpt lat="47.16138" lon="6.72668">
        <ele>925</ele>
        <time>2014-05-10T13:52:18.17</time>
      </trkpt>
      <trkpt lat="47.16149" lon="6.72682">
        <ele>925</ele>
        <time>2014-05-10T13:52:20.16</time>
      </trkpt>
      <trkpt lat="47.16158" lon="6.72697">
        <ele>926</ele>
        <time>2014-05-10T13:52:22.15</time>
      </trkpt>
      <trkpt lat="47.16168" lon="6.72712">
        <ele>926</ele>
        <time>2014-05-10T13:52:24.16</time>
      </trkpt>
      <trkpt lat="47.16177" lon="6.72728">
        <ele>927</ele>
        <time>2014-05-10T13:52:26.13</time>
      </trkpt>
      <trkpt lat="47.16186" lon="6.72745">
        <ele>929</ele>
        <time>2014-05-10T13:52:28.21</time>
      </trkpt>
      <trkpt lat="47.16194" lon="6.72762">
        <ele>930</ele>
        <time>2014-05-10T13:52:30.16</time>
      </trkpt>
      <trkpt lat="47.16201" lon="6.72776">
        <ele>930</ele>
        <time>2014-05-10T13:52:32.13</time>
      </trkpt>
      <trkpt lat="47.16209" lon="6.7279">
        <ele>932</ele>
        <time>2014-05-10T13:52:34.14</time>
      </trkpt>
      <trkpt lat="47.16217" lon="6.72805">
        <ele>929</ele>
        <time>2014-05-10T13:52:36.14</time>
      </trkpt>
      <trkpt lat="47.16223" lon="6.72819">
        <ele>926</ele>
        <time>2014-05-10T13:52:38.15</time>
      </trkpt>
      <trkpt lat="47.1623" lon="6.72833">
        <ele>924</ele>
        <time>2014-05-10T13:52:40.15</time>
      </trkpt>
      <trkpt lat="47.16232" lon="6.72849">
        <ele>923</ele>
        <time>2014-05-10T13:52:42.14</time>
      </trkpt>
      <trkpt lat="47.1623" lon="6.72865">
        <ele>926</ele>
        <time>2014-05-10T13:52:44.13</time>
      </trkpt>
      <trkpt lat="47.16227" lon="6.72878">
        <ele>925</ele>
        <time>2014-05-10T13:52:46.16</time>
      </trkpt>
      <trkpt lat="47.16222" lon="6.72887">
        <ele>924</ele>
        <time>2014-05-10T13:52:48.16</time>
      </trkpt>
      <trkpt lat="47.16228" lon="6.729">
        <ele>922</ele>
        <time>2014-05-10T13:52:51.13</time>
      </trkpt>
      <trkpt lat="47.16238" lon="6.72911">
        <ele>921</ele>
        <time>2014-05-10T13:52:53.16</time>
      </trkpt>
      <trkpt lat="47.16246" lon="6.72917">
        <ele>929</ele>
        <time>2014-05-10T13:52:55.14</time>
      </trkpt>
      <trkpt lat="47.16253" lon="6.72917">
        <ele>932</ele>
        <time>2014-05-10T13:52:57.17</time>
      </trkpt>
      <trkpt lat="47.16263" lon="6.7291">
        <ele>931</ele>
        <time>2014-05-10T13:52:59.16</time>
      </trkpt>
      <trkpt lat="47.16267" lon="6.72898">
        <ele>930</ele>
        <time>2014-05-10T13:53:01.15</time>
      </trkpt>
      <trkpt lat="47.16261" lon="6.72888">
        <ele>927</ele>
        <time>2014-05-10T13:53:04.15</time>
      </trkpt>
      <trkpt lat="47.16258" lon="6.72887">
        <ele>927</ele>
        <time>2014-05-10T13:53:11.16</time>
      </trkpt>
      <trkpt lat="47.16254" lon="6.72884">
        <ele>931</ele>
        <time>2014-05-10T13:53:12.19</time>
      </trkpt>
      <trkpt lat="47.16258" lon="6.72897">
        <ele>931</ele>
        <time>2014-05-10T13:53:14.20</time>
      </trkpt>
      <trkpt lat="47.16262" lon="6.72899">
        <ele>926</ele>
        <time>2014-05-10T13:53:21.15</time>
      </trkpt>
      <trkpt lat="47.16253" lon="6.72887">
        <ele>932</ele>
        <time>2014-05-10T13:53:23.11</time>
      </trkpt>
      <trkpt lat="47.16254" lon="6.72882">
        <ele>926</ele>
        <time>2014-05-10T13:53:30.98</time>
      </trkpt>
      <trkpt lat="47.16263" lon="6.72889">
        <ele>926</ele>
        <time>2014-05-10T13:53:37.88</time>
      </trkpt>
      <trkpt lat="47.16268" lon="6.72892">
        <ele>923</ele>
        <time>2014-05-10T13:53:44.58</time>
      </trkpt>
      <trkpt lat="47.1627" lon="6.72889">
        <ele>928</ele>
        <time>2014-05-10T13:53:51.11</time>
      </trkpt>
      <trkpt lat="47.16277" lon="6.72907">
        <ele>886</ele>
        <time>2014-05-10T13:53:53.98</time>
      </trkpt>
      <trkpt lat="47.16278" lon="6.72913">
        <ele>882</ele>
        <time>2014-05-10T13:54:00.78</time>
      </trkpt>
      <trkpt lat="47.16278" lon="6.72908">
        <ele>937</ele>
        <time>2014-05-10T13:54:07.11</time>
      </trkpt>
      <trkpt lat="47.16278" lon="6.72904">
        <ele>944</ele>
        <time>2014-05-10T13:54:10.10</time>
      </trkpt>
      <trkpt lat="47.16278" lon="6.72911">
        <ele>943</ele>
        <time>2014-05-10T13:54:12.12</time>
      </trkpt>
      <trkpt lat="47.1628" lon="6.72913">
        <ele>940</ele>
        <time>2014-05-10T13:54:18.10</time>
      </trkpt>
      <trkpt lat="47.16277" lon="6.72914">
        <ele>964</ele>
        <time>2014-05-10T13:54:22.12</time>
      </trkpt>
      <trkpt lat="47.16275" lon="6.72914">
        <ele>959</ele>
        <time>2014-05-10T13:54:29.12</time>
      </trkpt>
      <trkpt lat="47.16276" lon="6.7291">
        <ele>939</ele>
        <time>2014-05-10T13:54:32.11</time>
      </trkpt>
      <trkpt lat="47.16277" lon="6.72908">
        <ele>939</ele>
        <time>2014-05-10T13:54:34.12</time>
      </trkpt>
      <trkpt lat="47.16275" lon="6.72909">
        <ele>959</ele>
        <time>2014-05-10T13:54:37.14</time>
      </trkpt>
      <trkpt lat="47.16279" lon="6.72895">
        <ele>925</ele>
        <time>2014-05-10T13:54:38.14</time>
      </trkpt>
      <trkpt lat="47.16288" lon="6.7289">
        <ele>915</ele>
        <time>2014-05-10T13:54:41.10</time>
      </trkpt>
      <trkpt lat="47.16299" lon="6.72889">
        <ele>910</ele>
        <time>2014-05-10T13:54:44.98</time>
      </trkpt>
      <trkpt lat="47.16308" lon="6.72891">
        <ele>916</ele>
        <time>2014-05-10T13:54:47.11</time>
      </trkpt>
      <trkpt lat="47.16316" lon="6.72894">
        <ele>923</ele>
        <time>2014-05-10T13:54:50.78</time>
      </trkpt>
      <trkpt lat="47.16326" lon="6.72898">
        <ele>925</ele>
        <time>2014-05-10T13:54:53.10</time>
      </trkpt>
      <trkpt lat="47.16334" lon="6.72901">
        <ele>925</ele>
        <time>2014-05-10T13:54:55.78</time>
      </trkpt>
      <trkpt lat="47.16342" lon="6.72904">
        <ele>926</ele>
        <time>2014-05-10T13:54:57.88</time>
      </trkpt>
      <trkpt lat="47.16349" lon="6.72907">
        <ele>927</ele>
        <time>2014-05-10T13:54:59.98</time>
      </trkpt>
      <trkpt lat="47.16357" lon="6.72911">
        <ele>927</ele>
        <time>2014-05-10T13:55:01.88</time>
      </trkpt>
      <trkpt lat="47.16366" lon="6.72913">
        <ele>930</ele>
        <time>2014-05-10T13:55:04.88</time>
      </trkpt>
      <trkpt lat="47.16373" lon="6.72905">
        <ele>933</ele>
        <time>2014-05-10T13:55:06.88</time>
      </trkpt>
      <trkpt lat="47.16379" lon="6.72896">
        <ele>934</ele>
        <time>2014-05-10T13:55:08.88</time>
      </trkpt>
      <trkpt lat="47.16385" lon="6.72886">
        <ele>932</ele>
        <time>2014-05-10T13:55:10.88</time>
      </trkpt>
      <trkpt lat="47.16391" lon="6.72875">
        <ele>931</ele>
        <time>2014-05-10T13:55:12.88</time>
      </trkpt>
      <trkpt lat="47.16398" lon="6.72863">
        <ele>930</ele>
        <time>2014-05-10T13:55:14.10</time>
      </trkpt>
      <trkpt lat="47.16405" lon="6.72852">
        <ele>930</ele>
        <time>2014-05-10T13:55:16.11</time>
      </trkpt>
      <trkpt lat="47.16413" lon="6.72841">
        <ele>930</ele>
        <time>2014-05-10T13:55:18.10</time>
      </trkpt>
      <trkpt lat="47.1642" lon="6.72829">
        <ele>929</ele>
        <time>2014-05-10T13:55:20.98</time>
      </trkpt>
      <trkpt lat="47.16428" lon="6.72816">
        <ele>926</ele>
        <time>2014-05-10T13:55:22.78</time>
      </trkpt>
      <trkpt lat="47.16436" lon="6.72802">
        <ele>924</ele>
        <time>2014-05-10T13:55:24.15</time>
      </trkpt>
      <trkpt lat="47.16444" lon="6.72789">
        <ele>922</ele>
        <time>2014-05-10T13:55:26.98</time>
      </trkpt>
      <trkpt lat="47.16451" lon="6.72776">
        <ele>924</ele>
        <time>2014-05-10T13:55:28.10</time>
      </trkpt>
      <trkpt lat="47.16458" lon="6.72765">
        <ele>924</ele>
        <time>2014-05-10T13:55:30.98</time>
      </trkpt>
      <trkpt lat="47.16465" lon="6.72753">
        <ele>926</ele>
        <time>2014-05-10T13:55:32.12</time>
      </trkpt>
      <trkpt lat="47.16471" lon="6.72742">
        <ele>928</ele>
        <time>2014-05-10T13:55:34.10</time>
      </trkpt>
      <trkpt lat="47.16477" lon="6.72728">
        <ele>927</ele>
        <time>2014-05-10T13:55:36.13</time>
      </trkpt>
      <trkpt lat="47.16486" lon="6.72719">
        <ele>926</ele>
        <time>2014-05-10T13:55:38.11</time>
      </trkpt>
      <trkpt lat="47.16497" lon="6.72712">
        <ele>923</ele>
        <time>2014-05-10T13:55:40.98</time>
      </trkpt>
      <trkpt lat="47.16507" lon="6.72702">
        <ele>922</ele>
        <time>2014-05-10T13:55:42.98</time>
      </trkpt>
      <trkpt lat="47.16515" lon="6.7269">
        <ele>921</ele>
        <time>2014-05-10T13:55:44.10</time>
      </trkpt>
      <trkpt lat="47.16523" lon="6.72678">
        <ele>921</ele>
        <time>2014-05-10T13:55:46.78</time>
      </trkpt>
      <trkpt lat="47.1653" lon="6.72665">
        <ele>921</ele>
        <time>2014-05-10T13:55:48.10</time>
      </trkpt>
      <trkpt lat="47.16537" lon="6.7265">
        <ele>921</ele>
        <time>2014-05-10T13:55:50.10</time>
      </trkpt>
      <trkpt lat="47.16544" lon="6.72635">
        <ele>921</ele>
        <time>2014-05-10T13:55:52.12</time>
      </trkpt>
      <trkpt lat="47.16553" lon="6.72622">
        <ele>921</ele>
        <time>2014-05-10T13:55:54.25</time>
      </trkpt>
      <trkpt lat="47.1656" lon="6.72609">
        <ele>922</ele>
        <time>2014-05-10T13:55:56.10</time>
      </trkpt>
      <trkpt lat="47.16568" lon="6.72596">
        <ele>922</ele>
        <time>2014-05-10T13:55:58.98</time>
      </trkpt>
      <trkpt lat="47.16575" lon="6.72584">
        <ele>921</ele>
        <time>2014-05-10T13:56:00.10</time>
      </trkpt>
      <trkpt lat="47.16583" lon="6.72572">
        <ele>920</ele>
        <time>2014-05-10T13:56:02.11</time>
      </trkpt>
      <trkpt lat="47.1659" lon="6.72561">
        <ele>920</ele>
        <time>2014-05-10T13:56:04.12</time>
      </trkpt>
      <trkpt lat="47.16598" lon="6.72549">
        <ele>921</ele>
        <time>2014-05-10T13:56:06.98</time>
      </trkpt>
      <trkpt lat="47.16605" lon="6.72538">
        <ele>922</ele>
        <time>2014-05-10T13:56:08.88</time>
      </trkpt>
      <trkpt lat="47.16612" lon="6.72527">
        <ele>921</ele>
        <time>2014-05-10T13:56:10.88</time>
      </trkpt>
      <trkpt lat="47.16619" lon="6.72514">
        <ele>920</ele>
        <time>2014-05-10T13:56:12.98</time>
      </trkpt>
      <trkpt lat="47.16625" lon="6.72502">
        <ele>919</ele>
        <time>2014-05-10T13:56:14.12</time>
      </trkpt>
      <trkpt lat="47.16631" lon="6.72489">
        <ele>919</ele>
        <time>2014-05-10T13:56:16.98</time>
      </trkpt>
      <trkpt lat="47.16636" lon="6.72477">
        <ele>921</ele>
        <time>2014-05-10T13:56:18.10</time>
      </trkpt>
      <trkpt lat="47.16641" lon="6.72465">
        <ele>924</ele>
        <time>2014-05-10T13:56:20.98</time>
      </trkpt>
      <trkpt lat="47.16646" lon="6.72452">
        <ele>928</ele>
        <time>2014-05-10T13:56:22.11</time>
      </trkpt>
      <trkpt lat="47.16651" lon="6.72439">
        <ele>927</ele>
        <time>2014-05-10T13:56:24.13</time>
      </trkpt>
      <trkpt lat="47.16655" lon="6.72422">
        <ele>926</ele>
        <time>2014-05-10T13:56:26.98</time>
      </trkpt>
      <trkpt lat="47.16658" lon="6.72407">
        <ele>926</ele>
        <time>2014-05-10T13:56:28.12</time>
      </trkpt>
      <trkpt lat="47.1666" lon="6.7239">
        <ele>927</ele>
        <time>2014-05-10T13:56:30.10</time>
      </trkpt>
      <trkpt lat="47.16663" lon="6.72376">
        <ele>929</ele>
        <time>2014-05-10T13:56:32.98</time>
      </trkpt>
      <trkpt lat="47.16665" lon="6.72363">
        <ele>930</ele>
        <time>2014-05-10T13:56:34.12</time>
      </trkpt>
      <trkpt lat="47.16667" lon="6.72349">
        <ele>931</ele>
        <time>2014-05-10T13:56:36.98</time>
      </trkpt>
      <trkpt lat="47.1667" lon="6.72338">
        <ele>933</ele>
        <time>2014-05-10T13:56:38.11</time>
      </trkpt>
      <trkpt lat="47.16673" lon="6.72325">
        <ele>930</ele>
        <time>2014-05-10T13:56:40.12</time>
      </trkpt>
      <trkpt lat="47.16678" lon="6.72316">
        <ele>929</ele>
        <time>2014-05-10T13:56:42.88</time>
      </trkpt>
      <trkpt lat="47.16684" lon="6.7231">
        <ele>927</ele>
        <time>2014-05-10T13:56:44.12</time>
      </trkpt>
      <trkpt lat="47.16692" lon="6.72304">
        <ele>926</ele>
        <time>2014-05-10T13:56:46.98</time>
      </trkpt>
      <trkpt lat="47.16699" lon="6.72298">
        <ele>926</ele>
        <time>2014-05-10T13:56:48.98</time>
      </trkpt>
      <trkpt lat="47.16707" lon="6.72293">
        <ele>925</ele>
        <time>2014-05-10T13:56:50.98</time>
      </trkpt>
      <trkpt lat="47.16715" lon="6.72288">
        <ele>924</ele>
        <time>2014-05-10T13:56:52.98</time>
      </trkpt>
      <trkpt lat="47.16722" lon="6.72284">
        <ele>925</ele>
        <time>2014-05-10T13:56:54.13</time>
      </trkpt>
      <trkpt lat="47.16731" lon="6.72279">
        <ele>924</ele>
        <time>2014-05-10T13:56:56.11</time>
      </trkpt>
      <trkpt lat="47.16741" lon="6.72274">
        <ele>924</ele>
        <time>2014-05-10T13:56:58.98</time>
      </trkpt>
      <trkpt lat="47.1675" lon="6.7227">
        <ele>925</ele>
        <time>2014-05-10T13:57:00.98</time>
      </trkpt>
      <trkpt lat="47.16762" lon="6.72265">
        <ele>924</ele>
        <time>2014-05-10T13:57:02.11</time>
      </trkpt>
      <trkpt lat="47.16773" lon="6.72262">
        <ele>923</ele>
        <time>2014-05-10T13:57:04.10</time>
      </trkpt>
      <trkpt lat="47.16785" lon="6.72258">
        <ele>923</ele>
        <time>2014-05-10T13:57:06.98</time>
      </trkpt>
      <trkpt lat="47.16796" lon="6.72254">
        <ele>923</ele>
        <time>2014-05-10T13:57:08.88</time>
      </trkpt>
      <trkpt lat="47.16808" lon="6.72248">
        <ele>922</ele>
        <time>2014-05-10T13:57:10.11</time>
      </trkpt>
      <trkpt lat="47.16819" lon="6.7224">
        <ele>921</ele>
        <time>2014-05-10T13:57:12.88</time>
      </trkpt>
      <trkpt lat="47.16829" lon="6.72232">
        <ele>920</ele>
        <time>2014-05-10T13:57:14.98</time>
      </trkpt>
      <trkpt lat="47.16837" lon="6.72223">
        <ele>920</ele>
        <time>2014-05-10T13:57:16.12</time>
      </trkpt>
      <trkpt lat="47.16843" lon="6.72215">
        <ele>919</ele>
        <time>2014-05-10T13:57:18.98</time>
      </trkpt>
      <trkpt lat="47.1685" lon="6.72207">
        <ele>915</ele>
        <time>2014-05-10T13:57:20.10</time>
      </trkpt>
      <trkpt lat="47.16857" lon="6.72201">
        <ele>915</ele>
        <time>2014-05-10T13:57:22.11</time>
      </trkpt>
      <trkpt lat="47.16863" lon="6.72194">
        <ele>920</ele>
        <time>2014-05-10T13:57:24.10</time>
      </trkpt>
      <trkpt lat="47.16871" lon="6.72186">
        <ele>920</ele>
        <time>2014-05-10T13:57:26.10</time>
      </trkpt>
      <trkpt lat="47.16879" lon="6.72179">
        <ele>922</ele>
        <time>2014-05-10T13:57:28.10</time>
      </trkpt>
      <trkpt lat="47.16887" lon="6.72173">
        <ele>923</ele>
        <time>2014-05-10T13:57:30.98</time>
      </trkpt>
      <trkpt lat="47.16896" lon="6.72167">
        <ele>924</ele>
        <time>2014-05-10T13:57:32.12</time>
      </trkpt>
      <trkpt lat="47.16906" lon="6.72162">
        <ele>924</ele>
        <time>2014-05-10T13:57:34.98</time>
      </trkpt>
      <trkpt lat="47.16915" lon="6.72158">
        <ele>924</ele>
        <time>2014-05-10T13:57:36.10</time>
      </trkpt>
      <trkpt lat="47.16925" lon="6.72154">
        <ele>924</ele>
        <time>2014-05-10T13:57:38.13</time>
      </trkpt>
      <trkpt lat="47.16935" lon="6.72151">
        <ele>925</ele>
        <time>2014-05-10T13:57:40.10</time>
      </trkpt>
      <trkpt lat="47.16945" lon="6.72148">
        <ele>925</ele>
        <time>2014-05-10T13:57:42.98</time>
      </trkpt>
      <trkpt lat="47.16955" lon="6.72146">
        <ele>926</ele>
        <time>2014-05-10T13:57:44.10</time>
      </trkpt>
      <trkpt lat="47.16966" lon="6.72144">
        <ele>925</ele>
        <time>2014-05-10T13:57:46.12</time>
      </trkpt>
      <trkpt lat="47.16976" lon="6.72142">
        <ele>925</ele>
        <time>2014-05-10T13:57:48.12</time>
      </trkpt>
      <trkpt lat="47.16985" lon="6.72142">
        <ele>925</ele>
        <time>2014-05-10T13:57:50.12</time>
      </trkpt>
      <trkpt lat="47.16995" lon="6.7214">
        <ele>925</ele>
        <time>2014-05-10T13:57:52.10</time>
      </trkpt>
      <trkpt lat="47.17005" lon="6.72139">
        <ele>926</ele>
        <time>2014-05-10T13:57:54.10</time>
      </trkpt>
      <trkpt lat="47.17016" lon="6.72139">
        <ele>925</ele>
        <time>2014-05-10T13:57:56.10</time>
      </trkpt>
      <trkpt lat="47.17027" lon="6.72138">
        <ele>924</ele>
        <time>2014-05-10T13:57:58.12</time>
      </trkpt>
      <trkpt lat="47.17037" lon="6.72136">
        <ele>924</ele>
        <time>2014-05-10T13:58:00.19</time>
      </trkpt>
      <trkpt lat="47.17046" lon="6.72135">
        <ele>925</ele>
        <time>2014-05-10T13:58:02.12</time>
      </trkpt>
      <trkpt lat="47.17056" lon="6.72135">
        <ele>924</ele>
        <time>2014-05-10T13:58:04.13</time>
      </trkpt>
      <trkpt lat="47.17067" lon="6.72134">
        <ele>923</ele>
        <time>2014-05-10T13:58:06.11</time>
      </trkpt>
      <trkpt lat="47.17078" lon="6.72132">
        <ele>922</ele>
        <time>2014-05-10T13:58:08.12</time>
      </trkpt>
      <trkpt lat="47.17089" lon="6.72129">
        <ele>920</ele>
        <time>2014-05-10T13:58:10.12</time>
      </trkpt>
      <trkpt lat="47.17101" lon="6.72126">
        <ele>920</ele>
        <time>2014-05-10T13:58:12.12</time>
      </trkpt>
      <trkpt lat="47.17112" lon="6.72122">
        <ele>920</ele>
        <time>2014-05-10T13:58:14.11</time>
      </trkpt>
      <trkpt lat="47.17123" lon="6.7212">
        <ele>919</ele>
        <time>2014-05-10T13:58:16.10</time>
      </trkpt>
      <trkpt lat="47.17136" lon="6.72117">
        <ele>919</ele>
        <time>2014-05-10T13:58:18.11</time>
      </trkpt>
      <trkpt lat="47.17147" lon="6.72115">
        <ele>919</ele>
        <time>2014-05-10T13:58:20.12</time>
      </trkpt>
      <trkpt lat="47.17159" lon="6.72113">
        <ele>920</ele>
        <time>2014-05-10T13:58:22.11</time>
      </trkpt>
      <trkpt lat="47.17171" lon="6.72112">
        <ele>917</ele>
        <time>2014-05-10T13:58:24.98</time>
      </trkpt>
      <trkpt lat="47.17182" lon="6.7211">
        <ele>915</ele>
        <time>2014-05-10T13:58:26.88</time>
      </trkpt>
      <trkpt lat="47.17195" lon="6.72109">
        <ele>914</ele>
        <time>2014-05-10T13:58:28.98</time>
      </trkpt>
      <trkpt lat="47.17206" lon="6.72108">
        <ele>915</ele>
        <time>2014-05-10T13:58:30.13</time>
      </trkpt>
      <trkpt lat="47.17217" lon="6.72107">
        <ele>916</ele>
        <time>2014-05-10T13:58:32.88</time>
      </trkpt>
      <trkpt lat="47.17228" lon="6.72107">
        <ele>916</ele>
        <time>2014-05-10T13:58:34.98</time>
      </trkpt>
      <trkpt lat="47.17238" lon="6.72106">
        <ele>918</ele>
        <time>2014-05-10T13:58:36.88</time>
      </trkpt>
      <trkpt lat="47.17248" lon="6.72106">
        <ele>915</ele>
        <time>2014-05-10T13:58:38.88</time>
      </trkpt>
      <trkpt lat="47.17259" lon="6.72105">
        <ele>915</ele>
        <time>2014-05-10T13:58:40.78</time>
      </trkpt>
      <trkpt lat="47.1727" lon="6.72104">
        <ele>916</ele>
        <time>2014-05-10T13:58:42.88</time>
      </trkpt>
      <trkpt lat="47.17279" lon="6.72104">
        <ele>916</ele>
        <time>2014-05-10T13:58:44.98</time>
      </trkpt>
      <trkpt lat="47.17288" lon="6.72104">
        <ele>917</ele>
        <time>2014-05-10T13:58:46.11</time>
      </trkpt>
      <trkpt lat="47.17296" lon="6.72105">
        <ele>917</ele>
        <time>2014-05-10T13:58:48.98</time>
      </trkpt>
      <trkpt lat="47.17304" lon="6.72106">
        <ele>920</ele>
        <time>2014-05-10T13:58:50.88</time>
      </trkpt>
      <trkpt lat="47.17311" lon="6.72107">
        <ele>920</ele>
        <time>2014-05-10T13:58:52.88</time>
      </trkpt>
      <trkpt lat="47.17322" lon="6.72109">
        <ele>922</ele>
        <time>2014-05-10T13:58:55.98</time>
      </trkpt>
      <trkpt lat="47.17332" lon="6.72112">
        <ele>922</ele>
        <time>2014-05-10T13:58:58.88</time>
      </trkpt>
      <trkpt lat="47.17339" lon="6.72114">
        <ele>922</ele>
        <time>2014-05-10T13:59:00.11</time>
      </trkpt>
      <trkpt lat="47.17349" lon="6.72116">
        <ele>921</ele>
        <time>2014-05-10T13:59:03.88</time>
      </trkpt>
      <trkpt lat="47.17357" lon="6.72118">
        <ele>920</ele>
        <time>2014-05-10T13:59:05.78</time>
      </trkpt>
      <trkpt lat="47.17365" lon="6.7212">
        <ele>921</ele>
        <time>2014-05-10T13:59:07.98</time>
      </trkpt>
      <trkpt lat="47.17373" lon="6.72123">
        <ele>921</ele>
        <time>2014-05-10T13:59:09.98</time>
      </trkpt>
      <trkpt lat="47.17381" lon="6.72124">
        <ele>920</ele>
        <time>2014-05-10T13:59:11.88</time>
      </trkpt>
      <trkpt lat="47.17389" lon="6.72127">
        <ele>920</ele>
        <time>2014-05-10T13:59:13.10</time>
      </trkpt>
      <trkpt lat="47.17396" lon="6.72131">
        <ele>918</ele>
        <time>2014-05-10T13:59:15.88</time>
      </trkpt>
      <trkpt lat="47.17403" lon="6.72132">
        <ele>922</ele>
        <time>2014-05-10T13:59:17.78</time>
      </trkpt>
      <trkpt lat="47.1741" lon="6.72129">
        <ele>921</ele>
        <time>2014-05-10T13:59:19.12</time>
      </trkpt>
      <trkpt lat="47.17419" lon="6.72126">
        <ele>918</ele>
        <time>2014-05-10T13:59:22.11</time>
      </trkpt>
      <trkpt lat="47.17426" lon="6.72123">
        <ele>920</ele>
        <time>2014-05-10T13:59:26.12</time>
      </trkpt>
      <trkpt lat="47.1743" lon="6.72122">
        <ele>921</ele>
        <time>2014-05-10T13:59:33.98</time>
      </trkpt>
      <trkpt lat="47.17438" lon="6.7212">
        <ele>919</ele>
        <time>2014-05-10T13:59:37.15</time>
      </trkpt>
      <trkpt lat="47.17446" lon="6.72118">
        <ele>919</ele>
        <time>2014-05-10T13:59:39.12</time>
      </trkpt>
      <trkpt lat="47.17454" lon="6.72117">
        <ele>917</ele>
        <time>2014-05-10T13:59:41.13</time>
      </trkpt>
      <trkpt lat="47.17465" lon="6.72115">
        <ele>918</ele>
        <time>2014-05-10T13:59:43.13</time>
      </trkpt>
      <trkpt lat="47.17476" lon="6.72113">
        <ele>919</ele>
        <time>2014-05-10T13:59:45.10</time>
      </trkpt>
      <trkpt lat="47.17487" lon="6.7211">
        <ele>920</ele>
        <time>2014-05-10T13:59:47.14</time>
      </trkpt>
      <trkpt lat="47.17498" lon="6.72108">
        <ele>922</ele>
        <time>2014-05-10T13:59:49.14</time>
      </trkpt>
      <trkpt lat="47.1751" lon="6.72107">
        <ele>923</ele>
        <time>2014-05-10T13:59:51.10</time>
      </trkpt>
      <trkpt lat="47.17518" lon="6.72106">
        <ele>924</ele>
        <time>2014-05-10T13:59:52.13</time>
      </trkpt>
      <trkpt lat="47.17527" lon="6.72105">
        <ele>924</ele>
        <time>2014-05-10T13:59:53.98</time>
      </trkpt>
      <trkpt lat="47.17535" lon="6.72103">
        <ele>923</ele>
        <time>2014-05-10T13:59:54.10</time>
      </trkpt>
      <trkpt lat="47.17543" lon="6.72101">
        <ele>919</ele>
        <time>2014-05-10T13:59:55.11</time>
      </trkpt>
      <trkpt lat="47.17551" lon="6.721">
        <ele>919</ele>
        <time>2014-05-10T13:59:56.11</time>
      </trkpt>
      <trkpt lat="47.17562" lon="6.72097">
        <ele>917</ele>
        <time>2014-05-10T13:59:58.11</time>
      </trkpt>
      <trkpt lat="47.17573" lon="6.72094">
        <ele>917</ele>
        <time>2014-05-10T14:00:00.11</time>
      </trkpt>
      <trkpt lat="47.17584" lon="6.72092">
        <ele>916</ele>
        <time>2014-05-10T14:00:02.12</time>
      </trkpt>
      <trkpt lat="47.17594" lon="6.72092">
        <ele>915</ele>
        <time>2014-05-10T14:00:04.11</time>
      </trkpt>
      <trkpt lat="47.17603" lon="6.72094">
        <ele>911</ele>
        <time>2014-05-10T14:00:06.15</time>
      </trkpt>
      <trkpt lat="47.17612" lon="6.72095">
        <ele>913</ele>
        <time>2014-05-10T14:00:08.12</time>
      </trkpt>
      <trkpt lat="47.17623" lon="6.72094">
        <ele>913</ele>
        <time>2014-05-10T14:00:10.13</time>
      </trkpt>
      <trkpt lat="47.17634" lon="6.72093">
        <ele>912</ele>
        <time>2014-05-10T14:00:12.11</time>
      </trkpt>
      <trkpt lat="47.17645" lon="6.72092">
        <ele>916</ele>
        <time>2014-05-10T14:00:14.13</time>
      </trkpt>
      <trkpt lat="47.17655" lon="6.72089">
        <ele>912</ele>
        <time>2014-05-10T14:00:16.12</time>
      </trkpt>
      <trkpt lat="47.17663" lon="6.72085">
        <ele>909</ele>
        <time>2014-05-10T14:00:18.11</time>
      </trkpt>
      <trkpt lat="47.17673" lon="6.72082">
        <ele>910</ele>
        <time>2014-05-10T14:00:20.14</time>
      </trkpt>
      <trkpt lat="47.17684" lon="6.72079">
        <ele>917</ele>
        <time>2014-05-10T14:00:22.11</time>
      </trkpt>
      <trkpt lat="47.17696" lon="6.72077">
        <ele>922</ele>
        <time>2014-05-10T14:00:24.12</time>
      </trkpt>
      <trkpt lat="47.17707" lon="6.72074">
        <ele>919</ele>
        <time>2014-05-10T14:00:26.14</time>
      </trkpt>
      <trkpt lat="47.17718" lon="6.72071">
        <ele>918</ele>
        <time>2014-05-10T14:00:28.13</time>
      </trkpt>
      <trkpt lat="47.17726" lon="6.72066">
        <ele>922</ele>
        <time>2014-05-10T14:00:30.11</time>
      </trkpt>
      <trkpt lat="47.17727" lon="6.72053">
        <ele>921</ele>
        <time>2014-05-10T14:00:34.17</time>
      </trkpt>
      <trkpt lat="47.17724" lon="6.7204">
        <ele>925</ele>
        <time>2014-05-10T14:00:37.14</time>
      </trkpt>
      <trkpt lat="47.17723" lon="6.72028">
        <ele>930</ele>
        <time>2014-05-10T14:00:39.12</time>
      </trkpt>
      <trkpt lat="47.1772" lon="6.72018">
        <ele>934</ele>
        <time>2014-05-10T14:00:41.15</time>
      </trkpt>
      <trkpt lat="47.17713" lon="6.72005">
        <ele>933</ele>
        <time>2014-05-10T14:00:44.14</time>
      </trkpt>
      <trkpt lat="47.17707" lon="6.71994">
        <ele>935</ele>
        <time>2014-05-10T14:00:46.13</time>
      </trkpt>
      <trkpt lat="47.177" lon="6.71982">
        <ele>938</ele>
        <time>2014-05-10T14:00:48.15</time>
      </trkpt>
      <trkpt lat="47.17695" lon="6.7197">
        <ele>941</ele>
        <time>2014-05-10T14:00:50.12</time>
      </trkpt>
      <trkpt lat="47.17689" lon="6.71959">
        <ele>940</ele>
        <time>2014-05-10T14:00:52.16</time>
      </trkpt>
      <trkpt lat="47.17685" lon="6.7195">
        <ele>941</ele>
        <time>2014-05-10T14:00:54.12</time>
      </trkpt>
      <trkpt lat="47.17681" lon="6.71939">
        <ele>940</ele>
        <time>2014-05-10T14:00:56.12</time>
      </trkpt>
      <trkpt lat="47.17675" lon="6.71929">
        <ele>938</ele>
        <time>2014-05-10T14:00:58.11</time>
      </trkpt>
      <trkpt lat="47.1767" lon="6.71919">
        <ele>940</ele>
        <time>2014-05-10T14:01:00.13</time>
      </trkpt>
      <trkpt lat="47.17666" lon="6.71909">
        <ele>940</ele>
        <time>2014-05-10T14:01:02.15</time>
      </trkpt>
      <trkpt lat="47.17662" lon="6.71899">
        <ele>937</ele>
        <time>2014-05-10T14:01:04.13</time>
      </trkpt>
      <trkpt lat="47.17657" lon="6.7189">
        <ele>936</ele>
        <time>2014-05-10T14:01:06.12</time>
      </trkpt>
      <trkpt lat="47.17651" lon="6.7188">
        <ele>939</ele>
        <time>2014-05-10T14:01:09.15</time>
      </trkpt>
      <trkpt lat="47.17645" lon="6.71868">
        <ele>947</ele>
        <time>2014-05-10T14:01:12.13</time>
      </trkpt>
      <trkpt lat="47.17642" lon="6.71858">
        <ele>949</ele>
        <time>2014-05-10T14:01:14.11</time>
      </trkpt>
      <trkpt lat="47.17637" lon="6.71849">
        <ele>949</ele>
        <time>2014-05-10T14:01:16.13</time>
      </trkpt>
      <trkpt lat="47.1763" lon="6.71839">
        <ele>952</ele>
        <time>2014-05-10T14:01:18.12</time>
      </trkpt>
      <trkpt lat="47.17626" lon="6.71829">
        <ele>954</ele>
        <time>2014-05-10T14:01:20.13</time>
      </trkpt>
      <trkpt lat="47.17622" lon="6.71818">
        <ele>957</ele>
        <time>2014-05-10T14:01:23.15</time>
      </trkpt>
      <trkpt lat="47.17618" lon="6.71804">
        <ele>955</ele>
        <time>2014-05-10T14:01:26.17</time>
      </trkpt>
      <trkpt lat="47.17612" lon="6.71792">
        <ele>956</ele>
        <time>2014-05-10T14:01:29.16</time>
      </trkpt>
      <trkpt lat="47.17609" lon="6.71782">
        <ele>957</ele>
        <time>2014-05-10T14:01:31.16</time>
      </trkpt>
      <trkpt lat="47.17603" lon="6.71769">
        <ele>958</ele>
        <time>2014-05-10T14:01:34.12</time>
      </trkpt>
      <trkpt lat="47.17598" lon="6.71757">
        <ele>954</ele>
        <time>2014-05-10T14:01:37.14</time>
      </trkpt>
      <trkpt lat="47.17591" lon="6.71747">
        <ele>959</ele>
        <time>2014-05-10T14:01:40.15</time>
      </trkpt>
      <trkpt lat="47.17589" lon="6.71736">
        <ele>959</ele>
        <time>2014-05-10T14:01:42.13</time>
      </trkpt>
      <trkpt lat="47.17587" lon="6.71721">
        <ele>961</ele>
        <time>2014-05-10T14:01:45.14</time>
      </trkpt>
      <trkpt lat="47.17587" lon="6.71709">
        <ele>960</ele>
        <time>2014-05-10T14:01:47.16</time>
      </trkpt>
      <trkpt lat="47.17589" lon="6.71699">
        <ele>959</ele>
        <time>2014-05-10T14:01:49.14</time>
      </trkpt>
      <trkpt lat="47.17592" lon="6.71688">
        <ele>959</ele>
        <time>2014-05-10T14:01:51.13</time>
      </trkpt>
      <trkpt lat="47.17594" lon="6.71677">
        <ele>959</ele>
        <time>2014-05-10T14:01:53.15</time>
      </trkpt>
      <trkpt lat="47.17598" lon="6.71667">
        <ele>954</ele>
        <time>2014-05-10T14:01:55.13</time>
      </trkpt>
      <trkpt lat="47.17602" lon="6.71653">
        <ele>948</ele>
        <time>2014-05-10T14:01:58.21</time>
      </trkpt>
      <trkpt lat="47.17607" lon="6.71641">
        <ele>943</ele>
        <time>2014-05-10T14:02:01.16</time>
      </trkpt>
      <trkpt lat="47.17613" lon="6.71632">
        <ele>945</ele>
        <time>2014-05-10T14:02:04.16</time>
      </trkpt>
      <trkpt lat="47.17619" lon="6.71622">
        <ele>948</ele>
        <time>2014-05-10T14:02:07.18</time>
      </trkpt>
      <trkpt lat="47.17628" lon="6.71612">
        <ele>951</ele>
        <time>2014-05-10T14:02:10.17</time>
      </trkpt>
      <trkpt lat="47.17636" lon="6.71604">
        <ele>948</ele>
        <time>2014-05-10T14:02:12.16</time>
      </trkpt>
      <trkpt lat="47.17645" lon="6.71596">
        <ele>947</ele>
        <time>2014-05-10T14:02:14.25</time>
      </trkpt>
      <trkpt lat="47.17655" lon="6.71587">
        <ele>948</ele>
        <time>2014-05-10T14:02:16.13</time>
      </trkpt>
      <trkpt lat="47.17667" lon="6.71577">
        <ele>950</ele>
        <time>2014-05-10T14:02:18.15</time>
      </trkpt>
      <trkpt lat="47.17679" lon="6.71568">
        <ele>947</ele>
        <time>2014-05-10T14:02:20.16</time>
      </trkpt>
      <trkpt lat="47.1769" lon="6.71559">
        <ele>946</ele>
        <time>2014-05-10T14:02:22.13</time>
      </trkpt>
      <trkpt lat="47.17702" lon="6.71549">
        <ele>948</ele>
        <time>2014-05-10T14:02:24.13</time>
      </trkpt>
      <trkpt lat="47.17712" lon="6.71537">
        <ele>946</ele>
        <time>2014-05-10T14:02:26.16</time>
      </trkpt>
      <trkpt lat="47.17723" lon="6.71524">
        <ele>944</ele>
        <time>2014-05-10T14:02:28.12</time>
      </trkpt>
      <trkpt lat="47.17734" lon="6.7151">
        <ele>945</ele>
        <time>2014-05-10T14:02:30.10</time>
      </trkpt>
      <trkpt lat="47.17737" lon="6.71501">
        <ele>943</ele>
        <time>2014-05-10T14:02:31.12</time>
      </trkpt>
      <trkpt lat="47.17745" lon="6.71484">
        <ele>943</ele>
        <time>2014-05-10T14:02:33.98</time>
      </trkpt>
      <trkpt lat="47.17749" lon="6.71475">
        <ele>946</ele>
        <time>2014-05-10T14:02:34.11</time>
      </trkpt>
      <trkpt lat="47.17753" lon="6.71466">
        <ele>946</ele>
        <time>2014-05-10T14:02:35.12</time>
      </trkpt>
      <trkpt lat="47.17759" lon="6.71448">
        <ele>944</ele>
        <time>2014-05-10T14:02:37.10</time>
      </trkpt>
      <trkpt lat="47.17762" lon="6.71439">
        <ele>943</ele>
        <time>2014-05-10T14:02:38.11</time>
      </trkpt>
      <trkpt lat="47.17766" lon="6.71429">
        <ele>945</ele>
        <time>2014-05-10T14:02:39.10</time>
      </trkpt>
      <trkpt lat="47.17771" lon="6.7141">
        <ele>941</ele>
        <time>2014-05-10T14:02:41.11</time>
      </trkpt>
      <trkpt lat="47.17776" lon="6.71392">
        <ele>943</ele>
        <time>2014-05-10T14:02:43.13</time>
      </trkpt>
      <trkpt lat="47.1778" lon="6.71375">
        <ele>943</ele>
        <time>2014-05-10T14:02:45.11</time>
      </trkpt>
      <trkpt lat="47.17783" lon="6.71358">
        <ele>940</ele>
        <time>2014-05-10T14:02:47.13</time>
      </trkpt>
      <trkpt lat="47.17786" lon="6.71341">
        <ele>939</ele>
        <time>2014-05-10T14:02:49.12</time>
      </trkpt>
      <trkpt lat="47.17787" lon="6.71324">
        <ele>942</ele>
        <time>2014-05-10T14:02:51.12</time>
      </trkpt>
      <trkpt lat="47.17788" lon="6.71307">
        <ele>942</ele>
        <time>2014-05-10T14:02:53.12</time>
      </trkpt>
      <trkpt lat="47.17788" lon="6.71292">
        <ele>940</ele>
        <time>2014-05-10T14:02:55.13</time>
      </trkpt>
      <trkpt lat="47.17787" lon="6.71277">
        <ele>942</ele>
        <time>2014-05-10T14:02:57.12</time>
      </trkpt>
      <trkpt lat="47.17787" lon="6.71261">
        <ele>940</ele>
        <time>2014-05-10T14:02:59.12</time>
      </trkpt>
      <trkpt lat="47.17786" lon="6.71245">
        <ele>941</ele>
        <time>2014-05-10T14:03:01.11</time>
      </trkpt>
      <trkpt lat="47.17785" lon="6.71231">
        <ele>941</ele>
        <time>2014-05-10T14:03:03.13</time>
      </trkpt>
      <trkpt lat="47.17783" lon="6.71215">
        <ele>939</ele>
        <time>2014-05-10T14:03:05.12</time>
      </trkpt>
      <trkpt lat="47.17782" lon="6.71198">
        <ele>938</ele>
        <time>2014-05-10T14:03:07.11</time>
      </trkpt>
      <trkpt lat="47.17781" lon="6.71182">
        <ele>938</ele>
        <time>2014-05-10T14:03:09.16</time>
      </trkpt>
      <trkpt lat="47.17781" lon="6.71167">
        <ele>938</ele>
        <time>2014-05-10T14:03:11.11</time>
      </trkpt>
      <trkpt lat="47.1778" lon="6.71151">
        <ele>938</ele>
        <time>2014-05-10T14:03:13.12</time>
      </trkpt>
      <trkpt lat="47.1778" lon="6.71138">
        <ele>940</ele>
        <time>2014-05-10T14:03:15.11</time>
      </trkpt>
      <trkpt lat="47.17779" lon="6.71123">
        <ele>937</ele>
        <time>2014-05-10T14:03:17.12</time>
      </trkpt>
      <trkpt lat="47.17778" lon="6.71108">
        <ele>936</ele>
        <time>2014-05-10T14:03:19.14</time>
      </trkpt>
      <trkpt lat="47.17776" lon="6.71095">
        <ele>937</ele>
        <time>2014-05-10T14:03:21.14</time>
      </trkpt>
      <trkpt lat="47.17775" lon="6.71083">
        <ele>939</ele>
        <time>2014-05-10T14:03:23.11</time>
      </trkpt>
      <trkpt lat="47.17773" lon="6.71069">
        <ele>937</ele>
        <time>2014-05-10T14:03:25.11</time>
      </trkpt>
      <trkpt lat="47.1777" lon="6.71057">
        <ele>939</ele>
        <time>2014-05-10T14:03:27.12</time>
      </trkpt>
      <trkpt lat="47.17767" lon="6.71043">
        <ele>940</ele>
        <time>2014-05-10T14:03:29.12</time>
      </trkpt>
      <trkpt lat="47.17765" lon="6.7103">
        <ele>941</ele>
        <time>2014-05-10T14:03:31.11</time>
      </trkpt>
      <trkpt lat="47.17763" lon="6.71017">
        <ele>940</ele>
        <time>2014-05-10T14:03:33.15</time>
      </trkpt>
      <trkpt lat="47.1776" lon="6.71005">
        <ele>941</ele>
        <time>2014-05-10T14:03:35.12</time>
      </trkpt>
      <trkpt lat="47.17757" lon="6.70992">
        <ele>943</ele>
        <time>2014-05-10T14:03:37.10</time>
      </trkpt>
      <trkpt lat="47.17752" lon="6.70979">
        <ele>943</ele>
        <time>2014-05-10T14:03:39.16</time>
      </trkpt>
      <trkpt lat="47.17748" lon="6.70968">
        <ele>947</ele>
        <time>2014-05-10T14:03:41.13</time>
      </trkpt>
      <trkpt lat="47.17743" lon="6.70955">
        <ele>945</ele>
        <time>2014-05-10T14:03:43.11</time>
      </trkpt>
      <trkpt lat="47.17738" lon="6.70942">
        <ele>943</ele>
        <time>2014-05-10T14:03:45.12</time>
      </trkpt>
      <trkpt lat="47.17733" lon="6.70928">
        <ele>942</ele>
        <time>2014-05-10T14:03:47.14</time>
      </trkpt>
      <trkpt lat="47.17728" lon="6.70914">
        <ele>945</ele>
        <time>2014-05-10T14:03:49.15</time>
      </trkpt>
      <trkpt lat="47.17727" lon="6.709">
        <ele>946</ele>
        <time>2014-05-10T14:03:51.11</time>
      </trkpt>
      <trkpt lat="47.17728" lon="6.70885">
        <ele>945</ele>
        <time>2014-05-10T14:03:53.12</time>
      </trkpt>
      <trkpt lat="47.17728" lon="6.70871">
        <ele>945</ele>
        <time>2014-05-10T14:03:55.15</time>
      </trkpt>
      <trkpt lat="47.1773" lon="6.70856">
        <ele>944</ele>
        <time>2014-05-10T14:03:57.13</time>
      </trkpt>
      <trkpt lat="47.17732" lon="6.7084">
        <ele>945</ele>
        <time>2014-05-10T14:03:59.15</time>
      </trkpt>
      <trkpt lat="47.17734" lon="6.70824">
        <ele>949</ele>
        <time>2014-05-10T14:04:01.11</time>
      </trkpt>
      <trkpt lat="47.17734" lon="6.70809">
        <ele>948</ele>
        <time>2014-05-10T14:04:03.11</time>
      </trkpt>
      <trkpt lat="47.17733" lon="6.70794">
        <ele>943</ele>
        <time>2014-05-10T14:04:05.13</time>
      </trkpt>
      <trkpt lat="47.1773" lon="6.7078">
        <ele>941</ele>
        <time>2014-05-10T14:04:08.12</time>
      </trkpt>
      <trkpt lat="47.17727" lon="6.7077">
        <ele>938</ele>
        <time>2014-05-10T14:04:10.13</time>
      </trkpt>
      <trkpt lat="47.1772" lon="6.70763">
        <ele>934</ele>
        <time>2014-05-10T14:04:12.13</time>
      </trkpt>
      <trkpt lat="47.17713" lon="6.70755">
        <ele>934</ele>
        <time>2014-05-10T14:04:15.14</time>
      </trkpt>
      <trkpt lat="47.17708" lon="6.70747">
        <ele>939</ele>
        <time>2014-05-10T14:04:17.13</time>
      </trkpt>
      <trkpt lat="47.17701" lon="6.7074">
        <ele>934</ele>
        <time>2014-05-10T14:04:19.13</time>
      </trkpt>
      <trkpt lat="47.17693" lon="6.7073">
        <ele>933</ele>
        <time>2014-05-10T14:04:21.14</time>
      </trkpt>
      <trkpt lat="47.17686" lon="6.70722">
        <ele>935</ele>
        <time>2014-05-10T14:04:23.13</time>
      </trkpt>
      <trkpt lat="47.17679" lon="6.70715">
        <ele>937</ele>
        <time>2014-05-10T14:04:25.13</time>
      </trkpt>
      <trkpt lat="47.17672" lon="6.70707">
        <ele>937</ele>
        <time>2014-05-10T14:04:27.11</time>
      </trkpt>
      <trkpt lat="47.17664" lon="6.70701">
        <ele>930</ele>
        <time>2014-05-10T14:04:30.11</time>
      </trkpt>
      <trkpt lat="47.17655" lon="6.70693">
        <ele>934</ele>
        <time>2014-05-10T14:04:33.13</time>
      </trkpt>
      <trkpt lat="47.17647" lon="6.70686">
        <ele>931</ele>
        <time>2014-05-10T14:04:35.14</time>
      </trkpt>
      <trkpt lat="47.17639" lon="6.70678">
        <ele>933</ele>
        <time>2014-05-10T14:04:37.11</time>
      </trkpt>
      <trkpt lat="47.17631" lon="6.70671">
        <ele>936</ele>
        <time>2014-05-10T14:04:40.12</time>
      </trkpt>
      <trkpt lat="47.17619" lon="6.70659">
        <ele>936</ele>
        <time>2014-05-10T14:04:45.17</time>
      </trkpt>
      <trkpt lat="47.17607" lon="6.70634">
        <ele>944</ele>
        <time>2014-05-10T14:04:50.11</time>
      </trkpt>
      <trkpt lat="47.17607" lon="6.70621">
        <ele>948</ele>
        <time>2014-05-10T14:04:54.11</time>
      </trkpt>
      <trkpt lat="47.17611" lon="6.70612">
        <ele>948</ele>
        <time>2014-05-10T14:04:58.14</time>
      </trkpt>
      <trkpt lat="47.17619" lon="6.70605">
        <ele>953</ele>
        <time>2014-05-10T14:05:05.15</time>
      </trkpt>
      <trkpt lat="47.17628" lon="6.70594">
        <ele>946</ele>
        <time>2014-05-10T14:05:10.16</time>
      </trkpt>
      <trkpt lat="47.17637" lon="6.70583">
        <ele>938</ele>
        <time>2014-05-10T14:05:15.13</time>
      </trkpt>
      <trkpt lat="47.17644" lon="6.70573">
        <ele>941</ele>
        <time>2014-05-10T14:05:17.13</time>
      </trkpt>
      <trkpt lat="47.17652" lon="6.70564">
        <ele>928</ele>
        <time>2014-05-10T14:05:22.15</time>
      </trkpt>
      <trkpt lat="47.17651" lon="6.70549">
        <ele>937</ele>
        <time>2014-05-10T14:05:29.17</time>
      </trkpt>
      <trkpt lat="47.17648" lon="6.70537">
        <ele>945</ele>
        <time>2014-05-10T14:05:34.12</time>
      </trkpt>
      <trkpt lat="47.17647" lon="6.70517">
        <ele>953</ele>
        <time>2014-05-10T14:05:40.13</time>
      </trkpt>
      <trkpt lat="47.17645" lon="6.70502">
        <ele>958</ele>
        <time>2014-05-10T14:05:45.15</time>
      </trkpt>
      <trkpt lat="47.17645" lon="6.70492">
        <ele>960</ele>
        <time>2014-05-10T14:05:48.14</time>
      </trkpt>
      <trkpt lat="47.17643" lon="6.70481">
        <ele>964</ele>
        <time>2014-05-10T14:05:51.12</time>
      </trkpt>
      <trkpt lat="47.1764" lon="6.70467">
        <ele>962</ele>
        <time>2014-05-10T14:05:55.14</time>
      </trkpt>
      <trkpt lat="47.17638" lon="6.70457">
        <ele>965</ele>
        <time>2014-05-10T14:06:02.14</time>
      </trkpt>
      <trkpt lat="47.17636" lon="6.70443">
        <ele>971</ele>
        <time>2014-05-10T14:06:04.12</time>
      </trkpt>
      <trkpt lat="47.17633" lon="6.70428">
        <ele>969</ele>
        <time>2014-05-10T14:06:09.12</time>
      </trkpt>
      <trkpt lat="47.1763" lon="6.70417">
        <ele>973</ele>
        <time>2014-05-10T14:06:12.16</time>
      </trkpt>
      <trkpt lat="47.17627" lon="6.70406">
        <ele>976</ele>
        <time>2014-05-10T14:06:16.14</time>
      </trkpt>
      <trkpt lat="47.17624" lon="6.70395">
        <ele>982</ele>
        <time>2014-05-10T14:06:19.11</time>
      </trkpt>
      <trkpt lat="47.17624" lon="6.70384">
        <ele>986</ele>
        <time>2014-05-10T14:06:22.31</time>
      </trkpt>
      <trkpt lat="47.17622" lon="6.70373">
        <ele>982</ele>
        <time>2014-05-10T14:06:25.11</time>
      </trkpt>
      <trkpt lat="47.1762" lon="6.7036">
        <ele>982</ele>
        <time>2014-05-10T14:06:28.13</time>
      </trkpt>
      <trkpt lat="47.17618" lon="6.70346">
        <ele>984</ele>
        <time>2014-05-10T14:06:31.12</time>
      </trkpt>
      <trkpt lat="47.17615" lon="6.70332">
        <ele>988</ele>
        <time>2014-05-10T14:06:34.16</time>
      </trkpt>
      <trkpt lat="47.17611" lon="6.70321">
        <ele>985</ele>
        <time>2014-05-10T14:06:37.20</time>
      </trkpt>
      <trkpt lat="47.17606" lon="6.70304">
        <ele>990</ele>
        <time>2014-05-10T14:06:41.14</time>
      </trkpt>
      <trkpt lat="47.17604" lon="6.7029">
        <ele>990</ele>
        <time>2014-05-10T14:06:44.15</time>
      </trkpt>
      <trkpt lat="47.17603" lon="6.70279">
        <ele>988</ele>
        <time>2014-05-10T14:06:46.14</time>
      </trkpt>
      <trkpt lat="47.176" lon="6.70264">
        <ele>989</ele>
        <time>2014-05-10T14:06:49.14</time>
      </trkpt>
      <trkpt lat="47.17599" lon="6.70251">
        <ele>988</ele>
        <time>2014-05-10T14:06:51.14</time>
      </trkpt>
      <trkpt lat="47.17599" lon="6.7024">
        <ele>982</ele>
        <time>2014-05-10T14:06:53.13</time>
      </trkpt>
      <trkpt lat="47.17597" lon="6.70228">
        <ele>982</ele>
        <time>2014-05-10T14:06:55.13</time>
      </trkpt>
      <trkpt lat="47.17596" lon="6.70214">
        <ele>976</ele>
        <time>2014-05-10T14:06:57.13</time>
      </trkpt>
      <trkpt lat="47.17596" lon="6.70203">
        <ele>976</ele>
        <time>2014-05-10T14:06:59.14</time>
      </trkpt>
      <trkpt lat="47.17596" lon="6.70187">
        <ele>973</ele>
        <time>2014-05-10T14:07:01.13</time>
      </trkpt>
      <trkpt lat="47.17596" lon="6.70172">
        <ele>966</ele>
        <time>2014-05-10T14:07:03.14</time>
      </trkpt>
      <trkpt lat="47.17597" lon="6.70158">
        <ele>962</ele>
        <time>2014-05-10T14:07:05.15</time>
      </trkpt>
      <trkpt lat="47.17598" lon="6.70144">
        <ele>963</ele>
        <time>2014-05-10T14:07:07.14</time>
      </trkpt>
      <trkpt lat="47.176" lon="6.70127">
        <ele>965</ele>
        <time>2014-05-10T14:07:09.15</time>
      </trkpt>
      <trkpt lat="47.17599" lon="6.70107">
        <ele>958</ele>
        <time>2014-05-10T14:07:11.16</time>
      </trkpt>
      <trkpt lat="47.17599" lon="6.70084">
        <ele>957</ele>
        <time>2014-05-10T14:07:13.14</time>
      </trkpt>
      <trkpt lat="47.176" lon="6.70073">
        <ele>958</ele>
        <time>2014-05-10T14:07:14.12</time>
      </trkpt>
      <trkpt lat="47.176" lon="6.7006">
        <ele>956</ele>
        <time>2014-05-10T14:07:15.12</time>
      </trkpt>
      <trkpt lat="47.17599" lon="6.70047">
        <ele>956</ele>
        <time>2014-05-10T14:07:16.13</time>
      </trkpt>
      <trkpt lat="47.17599" lon="6.70034">
        <ele>952</ele>
        <time>2014-05-10T14:07:17.14</time>
      </trkpt>
      <trkpt lat="47.17598" lon="6.70022">
        <ele>950</ele>
        <time>2014-05-10T14:07:18.15</time>
      </trkpt>
      <trkpt lat="47.17598" lon="6.7001">
        <ele>949</ele>
        <time>2014-05-10T14:07:19.13</time>
      </trkpt>
      <trkpt lat="47.17597" lon="6.69998">
        <ele>948</ele>
        <time>2014-05-10T14:07:20.12</time>
      </trkpt>
      <trkpt lat="47.17596" lon="6.69987">
        <ele>950</ele>
        <time>2014-05-10T14:07:21.13</time>
      </trkpt>
      <trkpt lat="47.17596" lon="6.69976">
        <ele>949</ele>
        <time>2014-05-10T14:07:22.13</time>
      </trkpt>
      <trkpt lat="47.17595" lon="6.69965">
        <ele>950</ele>
        <time>2014-05-10T14:07:23.14</time>
      </trkpt>
      <trkpt lat="47.17595" lon="6.69954">
        <ele>950</ele>
        <time>2014-05-10T14:07:24.15</time>
      </trkpt>
      <trkpt lat="47.17593" lon="6.69933">
        <ele>946</ele>
        <time>2014-05-10T14:07:26.16</time>
      </trkpt>
      <trkpt lat="47.17593" lon="6.69922">
        <ele>945</ele>
        <time>2014-05-10T14:07:27.14</time>
      </trkpt>
      <trkpt lat="47.17592" lon="6.69901">
        <ele>945</ele>
        <time>2014-05-10T14:07:29.12</time>
      </trkpt>
      <trkpt lat="47.17591" lon="6.6989">
        <ele>943</ele>
        <time>2014-05-10T14:07:30.17</time>
      </trkpt>
      <trkpt lat="47.17591" lon="6.69871">
        <ele>941</ele>
        <time>2014-05-10T14:07:32.12</time>
      </trkpt>
      <trkpt lat="47.17591" lon="6.69852">
        <ele>943</ele>
        <time>2014-05-10T14:07:34.15</time>
      </trkpt>
      <trkpt lat="47.17591" lon="6.69835">
        <ele>943</ele>
        <time>2014-05-10T14:07:36.12</time>
      </trkpt>
      <trkpt lat="47.17591" lon="6.69819">
        <ele>948</ele>
        <time>2014-05-10T14:07:38.13</time>
      </trkpt>
      <trkpt lat="47.17591" lon="6.69803">
        <ele>948</ele>
        <time>2014-05-10T14:07:40.14</time>
      </trkpt>
      <trkpt lat="47.1759" lon="6.69786">
        <ele>948</ele>
        <time>2014-05-10T14:07:42.13</time>
      </trkpt>
      <trkpt lat="47.17589" lon="6.69771">
        <ele>948</ele>
        <time>2014-05-10T14:07:44.14</time>
      </trkpt>
      <trkpt lat="47.17587" lon="6.69755">
        <ele>944</ele>
        <time>2014-05-10T14:07:46.11</time>
      </trkpt>
      <trkpt lat="47.17586" lon="6.69737">
        <ele>949</ele>
        <time>2014-05-10T14:07:48.13</time>
      </trkpt>
      <trkpt lat="47.17584" lon="6.69719">
        <ele>950</ele>
        <time>2014-05-10T14:07:50.13</time>
      </trkpt>
      <trkpt lat="47.17583" lon="6.69702">
        <ele>950</ele>
        <time>2014-05-10T14:07:52.10</time>
      </trkpt>
      <trkpt lat="47.17582" lon="6.69682">
        <ele>952</ele>
        <time>2014-05-10T14:07:54.12</time>
      </trkpt>
      <trkpt lat="47.1758" lon="6.69663">
        <ele>952</ele>
        <time>2014-05-10T14:07:56.12</time>
      </trkpt>
      <trkpt lat="47.17579" lon="6.69645">
        <ele>950</ele>
        <time>2014-05-10T14:07:58.10</time>
      </trkpt>
      <trkpt lat="47.17578" lon="6.69624">
        <ele>951</ele>
        <time>2014-05-10T14:08:00.13</time>
      </trkpt>
      <trkpt lat="47.17577" lon="6.69604">
        <ele>953</ele>
        <time>2014-05-10T14:08:02.14</time>
      </trkpt>
      <trkpt lat="47.17577" lon="6.69584">
        <ele>953</ele>
        <time>2014-05-10T14:08:04.10</time>
      </trkpt>
      <trkpt lat="47.17576" lon="6.69572">
        <ele>953</ele>
        <time>2014-05-10T14:08:05.12</time>
      </trkpt>
      <trkpt lat="47.17576" lon="6.69554">
        <ele>953</ele>
        <time>2014-05-10T14:08:07.11</time>
      </trkpt>
      <trkpt lat="47.17574" lon="6.69535">
        <ele>953</ele>
        <time>2014-05-10T14:08:09.13</time>
      </trkpt>
      <trkpt lat="47.17572" lon="6.69516">
        <ele>954</ele>
        <time>2014-05-10T14:08:11.10</time>
      </trkpt>
      <trkpt lat="47.17571" lon="6.69506">
        <ele>953</ele>
        <time>2014-05-10T14:08:12.11</time>
      </trkpt>
      <trkpt lat="47.17569" lon="6.69488">
        <ele>955</ele>
        <time>2014-05-10T14:08:14.14</time>
      </trkpt>
      <trkpt lat="47.17568" lon="6.69467">
        <ele>952</ele>
        <time>2014-05-10T14:08:16.15</time>
      </trkpt>
      <trkpt lat="47.17567" lon="6.69454">
        <ele>953</ele>
        <time>2014-05-10T14:08:17.14</time>
      </trkpt>
      <trkpt lat="47.17567" lon="6.69441">
        <ele>951</ele>
        <time>2014-05-10T14:08:18.11</time>
      </trkpt>
      <trkpt lat="47.17566" lon="6.69429">
        <ele>951</ele>
        <time>2014-05-10T14:08:19.10</time>
      </trkpt>
      <trkpt lat="47.17566" lon="6.69418">
        <ele>952</ele>
        <time>2014-05-10T14:08:20.11</time>
      </trkpt>
      <trkpt lat="47.17566" lon="6.69397">
        <ele>951</ele>
        <time>2014-05-10T14:08:22.10</time>
      </trkpt>
      <trkpt lat="47.17566" lon="6.69386">
        <ele>958</ele>
        <time>2014-05-10T14:08:23.12</time>
      </trkpt>
      <trkpt lat="47.17565" lon="6.69375">
        <ele>953</ele>
        <time>2014-05-10T14:08:24.11</time>
      </trkpt>
      <trkpt lat="47.17565" lon="6.69362">
        <ele>954</ele>
        <time>2014-05-10T14:08:25.14</time>
      </trkpt>
      <trkpt lat="47.17565" lon="6.6935">
        <ele>955</ele>
        <time>2014-05-10T14:08:26.10</time>
      </trkpt>
      <trkpt lat="47.17565" lon="6.69338">
        <ele>955</ele>
        <time>2014-05-10T14:08:27.14</time>
      </trkpt>
      <trkpt lat="47.17565" lon="6.69327">
        <ele>951</ele>
        <time>2014-05-10T14:08:28.11</time>
      </trkpt>
      <trkpt lat="47.17564" lon="6.69315">
        <ele>948</ele>
        <time>2014-05-10T14:08:29.98</time>
      </trkpt>
      <trkpt lat="47.17564" lon="6.69304">
        <ele>950</ele>
        <time>2014-05-10T14:08:30.11</time>
      </trkpt>
      <trkpt lat="47.17564" lon="6.69281">
        <ele>940</ele>
        <time>2014-05-10T14:08:32.11</time>
      </trkpt>
      <trkpt lat="47.17564" lon="6.69262">
        <ele>938</ele>
        <time>2014-05-10T14:08:34.10</time>
      </trkpt>
      <trkpt lat="47.17565" lon="6.69242">
        <ele>936</ele>
        <time>2014-05-10T14:08:36.12</time>
      </trkpt>
      <trkpt lat="47.17565" lon="6.69224">
        <ele>941</ele>
        <time>2014-05-10T14:08:38.10</time>
      </trkpt>
      <trkpt lat="47.17565" lon="6.69213">
        <ele>945</ele>
        <time>2014-05-10T14:08:39.10</time>
      </trkpt>
      <trkpt lat="47.17566" lon="6.69194">
        <ele>948</ele>
        <time>2014-05-10T14:08:41.11</time>
      </trkpt>
      <trkpt lat="47.17566" lon="6.69182">
        <ele>951</ele>
        <time>2014-05-10T14:08:42.12</time>
      </trkpt>
      <trkpt lat="47.17567" lon="6.69169">
        <ele>944</ele>
        <time>2014-05-10T14:08:43.12</time>
      </trkpt>
      <trkpt lat="47.17566" lon="6.69156">
        <ele>945</ele>
        <time>2014-05-10T14:08:44.15</time>
      </trkpt>
      <trkpt lat="47.17566" lon="6.69142">
        <ele>941</ele>
        <time>2014-05-10T14:08:45.15</time>
      </trkpt>
      <trkpt lat="47.17565" lon="6.69128">
        <ele>937</ele>
        <time>2014-05-10T14:08:46.11</time>
      </trkpt>
      <trkpt lat="47.17564" lon="6.69112">
        <ele>930</ele>
        <time>2014-05-10T14:08:47.11</time>
      </trkpt>
      <trkpt lat="47.17563" lon="6.69098">
        <ele>928</ele>
        <time>2014-05-10T14:08:48.13</time>
      </trkpt>
      <trkpt lat="47.17563" lon="6.69084">
        <ele>926</ele>
        <time>2014-05-10T14:08:49.14</time>
      </trkpt>
      <trkpt lat="47.17562" lon="6.69071">
        <ele>926</ele>
        <time>2014-05-10T14:08:50.12</time>
      </trkpt>
      <trkpt lat="47.17562" lon="6.69058">
        <ele>925</ele>
        <time>2014-05-10T14:08:51.15</time>
      </trkpt>
      <trkpt lat="47.17562" lon="6.69045">
        <ele>926</ele>
        <time>2014-05-10T14:08:52.26</time>
      </trkpt>
      <trkpt lat="47.17562" lon="6.69032">
        <ele>925</ele>
        <time>2014-05-10T14:08:53.12</time>
      </trkpt>
      <trkpt lat="47.17562" lon="6.69021">
        <ele>927</ele>
        <time>2014-05-10T14:08:54.13</time>
      </trkpt>
      <trkpt lat="47.17561" lon="6.6901">
        <ele>929</ele>
        <time>2014-05-10T14:08:55.14</time>
      </trkpt>
      <trkpt lat="47.1756" lon="6.68997">
        <ele>930</ele>
        <time>2014-05-10T14:08:56.13</time>
      </trkpt>
      <trkpt lat="47.17559" lon="6.68987">
        <ele>927</ele>
        <time>2014-05-10T14:08:57.14</time>
      </trkpt>
      <trkpt lat="47.17559" lon="6.68976">
        <ele>927</ele>
        <time>2014-05-10T14:08:58.13</time>
      </trkpt>
      <trkpt lat="47.17559" lon="6.68965">
        <ele>925</ele>
        <time>2014-05-10T14:08:59.11</time>
      </trkpt>
      <trkpt lat="47.17558" lon="6.68943">
        <ele>929</ele>
        <time>2014-05-10T14:09:01.12</time>
      </trkpt>
      <trkpt lat="47.17557" lon="6.68932">
        <ele>929</ele>
        <time>2014-05-10T14:09:02.14</time>
      </trkpt>
      <trkpt lat="47.17557" lon="6.68921">
        <ele>931</ele>
        <time>2014-05-10T14:09:03.12</time>
      </trkpt>
      <trkpt lat="47.17556" lon="6.68911">
        <ele>936</ele>
        <time>2014-05-10T14:09:04.11</time>
      </trkpt>
      <trkpt lat="47.17555" lon="6.68892">
        <ele>935</ele>
        <time>2014-05-10T14:09:06.15</time>
      </trkpt>
      <trkpt lat="47.17554" lon="6.68876">
        <ele>927</ele>
        <time>2014-05-10T14:09:08.14</time>
      </trkpt>
      <trkpt lat="47.17553" lon="6.68857">
        <ele>928</ele>
        <time>2014-05-10T14:09:10.18</time>
      </trkpt>
      <trkpt lat="47.17552" lon="6.68847">
        <ele>930</ele>
        <time>2014-05-10T14:09:11.13</time>
      </trkpt>
      <trkpt lat="47.1755" lon="6.68827">
        <ele>934</ele>
        <time>2014-05-10T14:09:13.21</time>
      </trkpt>
      <trkpt lat="47.17549" lon="6.68816">
        <ele>933</ele>
        <time>2014-05-10T14:09:14.11</time>
      </trkpt>
      <trkpt lat="47.17548" lon="6.68796">
        <ele>934</ele>
        <time>2014-05-10T14:09:16.15</time>
      </trkpt>
      <trkpt lat="47.17548" lon="6.68776">
        <ele>930</ele>
        <time>2014-05-10T14:09:18.12</time>
      </trkpt>
      <trkpt lat="47.17548" lon="6.68755">
        <ele>928</ele>
        <time>2014-05-10T14:09:20.14</time>
      </trkpt>
      <trkpt lat="47.17548" lon="6.68734">
        <ele>927</ele>
        <time>2014-05-10T14:09:22.11</time>
      </trkpt>
      <trkpt lat="47.17548" lon="6.68723">
        <ele>925</ele>
        <time>2014-05-10T14:09:23.13</time>
      </trkpt>
      <trkpt lat="47.17548" lon="6.68713">
        <ele>926</ele>
        <time>2014-05-10T14:09:24.13</time>
      </trkpt>
      <trkpt lat="47.17547" lon="6.68692">
        <ele>922</ele>
        <time>2014-05-10T14:09:26.12</time>
      </trkpt>
      <trkpt lat="47.17546" lon="6.6867">
        <ele>920</ele>
        <time>2014-05-10T14:09:28.12</time>
      </trkpt>
      <trkpt lat="47.17546" lon="6.6865">
        <ele>918</ele>
        <time>2014-05-10T14:09:30.10</time>
      </trkpt>
      <trkpt lat="47.17545" lon="6.68631">
        <ele>916</ele>
        <time>2014-05-10T14:09:32.14</time>
      </trkpt>
      <trkpt lat="47.17545" lon="6.68611">
        <ele>914</ele>
        <time>2014-05-10T14:09:34.11</time>
      </trkpt>
      <trkpt lat="47.17543" lon="6.68593">
        <ele>914</ele>
        <time>2014-05-10T14:09:36.12</time>
      </trkpt>
      <trkpt lat="47.17542" lon="6.68577">
        <ele>914</ele>
        <time>2014-05-10T14:09:38.14</time>
      </trkpt>
      <trkpt lat="47.17541" lon="6.68559">
        <ele>912</ele>
        <time>2014-05-10T14:09:40.13</time>
      </trkpt>
      <trkpt lat="47.1754" lon="6.68542">
        <ele>913</ele>
        <time>2014-05-10T14:09:42.15</time>
      </trkpt>
      <trkpt lat="47.1754" lon="6.68527">
        <ele>916</ele>
        <time>2014-05-10T14:09:44.11</time>
      </trkpt>
      <trkpt lat="47.1754" lon="6.6851">
        <ele>916</ele>
        <time>2014-05-10T14:09:46.11</time>
      </trkpt>
      <trkpt lat="47.1754" lon="6.68493">
        <ele>915</ele>
        <time>2014-05-10T14:09:48.10</time>
      </trkpt>
      <trkpt lat="47.17539" lon="6.68473">
        <ele>913</ele>
        <time>2014-05-10T14:09:50.10</time>
      </trkpt>
      <trkpt lat="47.17539" lon="6.68462">
        <ele>912</ele>
        <time>2014-05-10T14:09:51.31</time>
      </trkpt>
      <trkpt lat="47.17538" lon="6.68442">
        <ele>912</ele>
        <time>2014-05-10T14:09:53.23</time>
      </trkpt>
      <trkpt lat="47.17537" lon="6.68422">
        <ele>912</ele>
        <time>2014-05-10T14:09:55.25</time>
      </trkpt>
      <trkpt lat="47.17536" lon="6.68402">
        <ele>910</ele>
        <time>2014-05-10T14:09:57.20</time>
      </trkpt>
      <trkpt lat="47.17536" lon="6.68382">
        <ele>909</ele>
        <time>2014-05-10T14:09:59.14</time>
      </trkpt>
      <trkpt lat="47.17535" lon="6.68363">
        <ele>911</ele>
        <time>2014-05-10T14:10:01.21</time>
      </trkpt>
      <trkpt lat="47.17535" lon="6.68344">
        <ele>912</ele>
        <time>2014-05-10T14:10:03.41</time>
      </trkpt>
      <trkpt lat="47.17534" lon="6.68326">
        <ele>912</ele>
        <time>2014-05-10T14:10:05.17</time>
      </trkpt>
      <trkpt lat="47.17533" lon="6.68308">
        <ele>911</ele>
        <time>2014-05-10T14:10:07.14</time>
      </trkpt>
      <trkpt lat="47.17531" lon="6.6829">
        <ele>910</ele>
        <time>2014-05-10T14:10:09.28</time>
      </trkpt>
      <trkpt lat="47.17531" lon="6.68272">
        <ele>910</ele>
        <time>2014-05-10T14:10:11.23</time>
      </trkpt>
      <trkpt lat="47.1753" lon="6.68255">
        <ele>910</ele>
        <time>2014-05-10T14:10:13.16</time>
      </trkpt>
      <trkpt lat="47.17529" lon="6.68237">
        <ele>909</ele>
        <time>2014-05-10T14:10:15.17</time>
      </trkpt>
      <trkpt lat="47.17527" lon="6.68219">
        <ele>908</ele>
        <time>2014-05-10T14:10:17.11</time>
      </trkpt>
      <trkpt lat="47.17524" lon="6.68199">
        <ele>906</ele>
        <time>2014-05-10T14:10:19.12</time>
      </trkpt>
      <trkpt lat="47.17522" lon="6.68188">
        <ele>905</ele>
        <time>2014-05-10T14:10:20.12</time>
      </trkpt>
      <trkpt lat="47.17517" lon="6.68168">
        <ele>902</ele>
        <time>2014-05-10T14:10:22.14</time>
      </trkpt>
      <trkpt lat="47.17515" lon="6.68158">
        <ele>902</ele>
        <time>2014-05-10T14:10:23.12</time>
      </trkpt>
      <trkpt lat="47.17512" lon="6.68147">
        <ele>901</ele>
        <time>2014-05-10T14:10:24.14</time>
      </trkpt>
      <trkpt lat="47.17509" lon="6.68137">
        <ele>900</ele>
        <time>2014-05-10T14:10:25.13</time>
      </trkpt>
      <trkpt lat="47.17506" lon="6.68116">
        <ele>901</ele>
        <time>2014-05-10T14:10:27.12</time>
      </trkpt>
      <trkpt lat="47.17504" lon="6.68104">
        <ele>901</ele>
        <time>2014-05-10T14:10:28.12</time>
      </trkpt>
      <trkpt lat="47.175" lon="6.68095">
        <ele>901</ele>
        <time>2014-05-10T14:10:29.12</time>
      </trkpt>
      <trkpt lat="47.17495" lon="6.68085">
        <ele>900</ele>
        <time>2014-05-10T14:10:30.12</time>
      </trkpt>
      <trkpt lat="47.1749" lon="6.68076">
        <ele>901</ele>
        <time>2014-05-10T14:10:31.18</time>
      </trkpt>
      <trkpt lat="47.17484" lon="6.68067">
        <ele>900</ele>
        <time>2014-05-10T14:10:32.18</time>
      </trkpt>
      <trkpt lat="47.17478" lon="6.68057">
        <ele>899</ele>
        <time>2014-05-10T14:10:33.13</time>
      </trkpt>
      <trkpt lat="47.17472" lon="6.68047">
        <ele>898</ele>
        <time>2014-05-10T14:10:34.12</time>
      </trkpt>
      <trkpt lat="47.17466" lon="6.68038">
        <ele>898</ele>
        <time>2014-05-10T14:10:35.13</time>
      </trkpt>
      <trkpt lat="47.1746" lon="6.68028">
        <ele>897</ele>
        <time>2014-05-10T14:10:36.11</time>
      </trkpt>
      <trkpt lat="47.17454" lon="6.6802">
        <ele>898</ele>
        <time>2014-05-10T14:10:37.12</time>
      </trkpt>
      <trkpt lat="47.17448" lon="6.6801">
        <ele>897</ele>
        <time>2014-05-10T14:10:38.30</time>
      </trkpt>
      <trkpt lat="47.17443" lon="6.68002">
        <ele>897</ele>
        <time>2014-05-10T14:10:39.14</time>
      </trkpt>
      <trkpt lat="47.17438" lon="6.67993">
        <ele>897</ele>
        <time>2014-05-10T14:10:40.15</time>
      </trkpt>
      <trkpt lat="47.17432" lon="6.67983">
        <ele>897</ele>
        <time>2014-05-10T14:10:41.19</time>
      </trkpt>
      <trkpt lat="47.17427" lon="6.67974">
        <ele>897</ele>
        <time>2014-05-10T14:10:42.15</time>
      </trkpt>
      <trkpt lat="47.17421" lon="6.67965">
        <ele>896</ele>
        <time>2014-05-10T14:10:43.14</time>
      </trkpt>
      <trkpt lat="47.17416" lon="6.67956">
        <ele>896</ele>
        <time>2014-05-10T14:10:44.13</time>
      </trkpt>
      <trkpt lat="47.1741" lon="6.67947">
        <ele>896</ele>
        <time>2014-05-10T14:10:45.15</time>
      </trkpt>
      <trkpt lat="47.17404" lon="6.67937">
        <ele>896</ele>
        <time>2014-05-10T14:10:46.16</time>
      </trkpt>
      <trkpt lat="47.17399" lon="6.67928">
        <ele>896</ele>
        <time>2014-05-10T14:10:47.15</time>
      </trkpt>
      <trkpt lat="47.17393" lon="6.67918">
        <ele>896</ele>
        <time>2014-05-10T14:10:48.12</time>
      </trkpt>
      <trkpt lat="47.17388" lon="6.67909">
        <ele>896</ele>
        <time>2014-05-10T14:10:49.12</time>
      </trkpt>
      <trkpt lat="47.17382" lon="6.679">
        <ele>896</ele>
        <time>2014-05-10T14:10:50.13</time>
      </trkpt>
      <trkpt lat="47.17377" lon="6.6789">
        <ele>895</ele>
        <time>2014-05-10T14:10:51.13</time>
      </trkpt>
      <trkpt lat="47.17371" lon="6.67881">
        <ele>894</ele>
        <time>2014-05-10T14:10:52.14</time>
      </trkpt>
      <trkpt lat="47.17365" lon="6.67871">
        <ele>894</ele>
        <time>2014-05-10T14:10:53.12</time>
      </trkpt>
      <trkpt lat="47.1736" lon="6.67861">
        <ele>893</ele>
        <time>2014-05-10T14:10:54.12</time>
      </trkpt>
      <trkpt lat="47.17355" lon="6.67852">
        <ele>893</ele>
        <time>2014-05-10T14:10:55.14</time>
      </trkpt>
      <trkpt lat="47.1735" lon="6.67843">
        <ele>893</ele>
        <time>2014-05-10T14:10:56.15</time>
      </trkpt>
      <trkpt lat="47.17346" lon="6.67833">
        <ele>893</ele>
        <time>2014-05-10T14:10:57.12</time>
      </trkpt>
      <trkpt lat="47.17341" lon="6.67823">
        <ele>892</ele>
        <time>2014-05-10T14:10:58.12</time>
      </trkpt>
      <trkpt lat="47.17337" lon="6.67813">
        <ele>892</ele>
        <time>2014-05-10T14:10:59.12</time>
      </trkpt>
      <trkpt lat="47.1733" lon="6.67794">
        <ele>894</ele>
        <time>2014-05-10T14:11:01.13</time>
      </trkpt>
      <trkpt lat="47.17327" lon="6.67783">
        <ele>893</ele>
        <time>2014-05-10T14:11:02.11</time>
      </trkpt>
      <trkpt lat="47.17324" lon="6.67773">
        <ele>892</ele>
        <time>2014-05-10T14:11:03.12</time>
      </trkpt>
      <trkpt lat="47.17321" lon="6.67763">
        <ele>892</ele>
        <time>2014-05-10T14:11:04.12</time>
      </trkpt>
      <trkpt lat="47.17317" lon="6.67742">
        <ele>893</ele>
        <time>2014-05-10T14:11:06.12</time>
      </trkpt>
      <trkpt lat="47.17316" lon="6.67731">
        <ele>893</ele>
        <time>2014-05-10T14:11:07.14</time>
      </trkpt>
      <trkpt lat="47.17314" lon="6.6772">
        <ele>893</ele>
        <time>2014-05-10T14:11:08.11</time>
      </trkpt>
      <trkpt lat="47.17313" lon="6.67707">
        <ele>893</ele>
        <time>2014-05-10T14:11:09.11</time>
      </trkpt>
      <trkpt lat="47.17311" lon="6.67695">
        <ele>893</ele>
        <time>2014-05-10T14:11:10.12</time>
      </trkpt>
      <trkpt lat="47.17311" lon="6.67683">
        <ele>892</ele>
        <time>2014-05-10T14:11:11.14</time>
      </trkpt>
      <trkpt lat="47.17311" lon="6.6767">
        <ele>892</ele>
        <time>2014-05-10T14:11:12.12</time>
      </trkpt>
      <trkpt lat="47.17311" lon="6.67658">
        <ele>892</ele>
        <time>2014-05-10T14:11:13.11</time>
      </trkpt>
      <trkpt lat="47.17311" lon="6.67646">
        <ele>891</ele>
        <time>2014-05-10T14:11:14.11</time>
      </trkpt>
      <trkpt lat="47.17313" lon="6.67634">
        <ele>890</ele>
        <time>2014-05-10T14:11:15.13</time>
      </trkpt>
      <trkpt lat="47.17313" lon="6.67623">
        <ele>889</ele>
        <time>2014-05-10T14:11:16.15</time>
      </trkpt>
      <trkpt lat="47.17315" lon="6.67603">
        <ele>889</ele>
        <time>2014-05-10T14:11:18.17</time>
      </trkpt>
      <trkpt lat="47.1732" lon="6.67585">
        <ele>888</ele>
        <time>2014-05-10T14:11:20.12</time>
      </trkpt>
      <trkpt lat="47.17327" lon="6.67568">
        <ele>887</ele>
        <time>2014-05-10T14:11:22.14</time>
      </trkpt>
      <trkpt lat="47.17333" lon="6.67552">
        <ele>887</ele>
        <time>2014-05-10T14:11:24.17</time>
      </trkpt>
      <trkpt lat="47.17341" lon="6.67536">
        <ele>887</ele>
        <time>2014-05-10T14:11:26.13</time>
      </trkpt>
      <trkpt lat="47.17348" lon="6.67518">
        <ele>885</ele>
        <time>2014-05-10T14:11:28.19</time>
      </trkpt>
      <trkpt lat="47.17355" lon="6.67501">
        <ele>886</ele>
        <time>2014-05-10T14:11:30.12</time>
      </trkpt>
      <trkpt lat="47.1736" lon="6.67482">
        <ele>887</ele>
        <time>2014-05-10T14:11:32.13</time>
      </trkpt>
      <trkpt lat="47.1736" lon="6.6747">
        <ele>887</ele>
        <time>2014-05-10T14:11:33.14</time>
      </trkpt>
      <trkpt lat="47.17359" lon="6.6745">
        <ele>887</ele>
        <time>2014-05-10T14:11:35.14</time>
      </trkpt>
      <trkpt lat="47.17356" lon="6.67429">
        <ele>886</ele>
        <time>2014-05-10T14:11:37.15</time>
      </trkpt>
      <trkpt lat="47.17354" lon="6.67419">
        <ele>885</ele>
        <time>2014-05-10T14:11:38.13</time>
      </trkpt>
      <trkpt lat="47.17351" lon="6.67409">
        <ele>884</ele>
        <time>2014-05-10T14:11:39.13</time>
      </trkpt>
      <trkpt lat="47.17344" lon="6.67392">
        <ele>884</ele>
        <time>2014-05-10T14:11:41.15</time>
      </trkpt>
      <trkpt lat="47.1734" lon="6.67382">
        <ele>883</ele>
        <time>2014-05-10T14:11:42.12</time>
      </trkpt>
      <trkpt lat="47.17337" lon="6.67373">
        <ele>881</ele>
        <time>2014-05-10T14:11:43.11</time>
      </trkpt>
      <trkpt lat="47.17332" lon="6.67364">
        <ele>880</ele>
        <time>2014-05-10T14:11:44.12</time>
      </trkpt>
      <trkpt lat="47.17325" lon="6.67348">
        <ele>882</ele>
        <time>2014-05-10T14:11:46.13</time>
      </trkpt>
      <trkpt lat="47.17319" lon="6.67332">
        <ele>882</ele>
        <time>2014-05-10T14:11:48.14</time>
      </trkpt>
      <trkpt lat="47.17312" lon="6.67317">
        <ele>883</ele>
        <time>2014-05-10T14:11:50.11</time>
      </trkpt>
      <trkpt lat="47.17306" lon="6.67299">
        <ele>883</ele>
        <time>2014-05-10T14:11:52.11</time>
      </trkpt>
      <trkpt lat="47.173" lon="6.67282">
        <ele>882</ele>
        <time>2014-05-10T14:11:54.14</time>
      </trkpt>
      <trkpt lat="47.17297" lon="6.67263">
        <ele>881</ele>
        <time>2014-05-10T14:11:56.18</time>
      </trkpt>
      <trkpt lat="47.17296" lon="6.67252">
        <ele>879</ele>
        <time>2014-05-10T14:11:57.11</time>
      </trkpt>
      <trkpt lat="47.17299" lon="6.67232">
        <ele>879</ele>
        <time>2014-05-10T14:11:59.14</time>
      </trkpt>
      <trkpt lat="47.17304" lon="6.67212">
        <ele>879</ele>
        <time>2014-05-10T14:12:01.16</time>
      </trkpt>
      <trkpt lat="47.17308" lon="6.67202">
        <ele>878</ele>
        <time>2014-05-10T14:12:02.14</time>
      </trkpt>
      <trkpt lat="47.17311" lon="6.67193">
        <ele>877</ele>
        <time>2014-05-10T14:12:03.16</time>
      </trkpt>
      <trkpt lat="47.17316" lon="6.67183">
        <ele>877</ele>
        <time>2014-05-10T14:12:04.14</time>
      </trkpt>
      <trkpt lat="47.1732" lon="6.67175">
        <ele>877</ele>
        <time>2014-05-10T14:12:05.13</time>
      </trkpt>
      <trkpt lat="47.17327" lon="6.67158">
        <ele>877</ele>
        <time>2014-05-10T14:12:07.19</time>
      </trkpt>
      <trkpt lat="47.1733" lon="6.6714">
        <ele>879</ele>
        <time>2014-05-10T14:12:09.14</time>
      </trkpt>
      <trkpt lat="47.17331" lon="6.6712">
        <ele>880</ele>
        <time>2014-05-10T14:12:11.14</time>
      </trkpt>
      <trkpt lat="47.1733" lon="6.671">
        <ele>881</ele>
        <time>2014-05-10T14:12:13.12</time>
      </trkpt>
      <trkpt lat="47.17325" lon="6.6708">
        <ele>882</ele>
        <time>2014-05-10T14:12:15.16</time>
      </trkpt>
      <trkpt lat="47.17319" lon="6.67061">
        <ele>882</ele>
        <time>2014-05-10T14:12:17.12</time>
      </trkpt>
      <trkpt lat="47.17314" lon="6.67042">
        <ele>880</ele>
        <time>2014-05-10T14:12:19.14</time>
      </trkpt>
      <trkpt lat="47.17309" lon="6.67023">
        <ele>882</ele>
        <time>2014-05-10T14:12:21.14</time>
      </trkpt>
      <trkpt lat="47.17303" lon="6.67005">
        <ele>880</ele>
        <time>2014-05-10T14:12:23.14</time>
      </trkpt>
      <trkpt lat="47.17299" lon="6.66995">
        <ele>880</ele>
        <time>2014-05-10T14:12:24.14</time>
      </trkpt>
      <trkpt lat="47.17292" lon="6.66977">
        <ele>881</ele>
        <time>2014-05-10T14:12:26.15</time>
      </trkpt>
      <trkpt lat="47.17287" lon="6.66967">
        <ele>882</ele>
        <time>2014-05-10T14:12:27.12</time>
      </trkpt>
      <trkpt lat="47.17282" lon="6.66958">
        <ele>881</ele>
        <time>2014-05-10T14:12:28.14</time>
      </trkpt>
      <trkpt lat="47.17278" lon="6.66949">
        <ele>882</ele>
        <time>2014-05-10T14:12:29.13</time>
      </trkpt>
      <trkpt lat="47.17272" lon="6.66941">
        <ele>880</ele>
        <time>2014-05-10T14:12:30.13</time>
      </trkpt>
      <trkpt lat="47.17267" lon="6.66933">
        <ele>880</ele>
        <time>2014-05-10T14:12:31.13</time>
      </trkpt>
      <trkpt lat="47.17262" lon="6.66925">
        <ele>881</ele>
        <time>2014-05-10T14:12:32.14</time>
      </trkpt>
      <trkpt lat="47.17257" lon="6.66918">
        <ele>877</ele>
        <time>2014-05-10T14:12:33.16</time>
      </trkpt>
      <trkpt lat="47.17251" lon="6.6691">
        <ele>878</ele>
        <time>2014-05-10T14:12:34.13</time>
      </trkpt>
      <trkpt lat="47.17247" lon="6.66902">
        <ele>876</ele>
        <time>2014-05-10T14:12:35.12</time>
      </trkpt>
      <trkpt lat="47.17236" lon="6.66888">
        <ele>877</ele>
        <time>2014-05-10T14:12:37.13</time>
      </trkpt>
      <trkpt lat="47.1723" lon="6.6688">
        <ele>879</ele>
        <time>2014-05-10T14:12:38.13</time>
      </trkpt>
      <trkpt lat="47.17225" lon="6.66872">
        <ele>879</ele>
        <time>2014-05-10T14:12:39.14</time>
      </trkpt>
      <trkpt lat="47.1722" lon="6.66865">
        <ele>879</ele>
        <time>2014-05-10T14:12:40.17</time>
      </trkpt>
      <trkpt lat="47.17215" lon="6.66857">
        <ele>879</ele>
        <time>2014-05-10T14:12:41.15</time>
      </trkpt>
      <trkpt lat="47.17209" lon="6.66849">
        <ele>881</ele>
        <time>2014-05-10T14:12:42.13</time>
      </trkpt>
      <trkpt lat="47.17204" lon="6.6684">
        <ele>878</ele>
        <time>2014-05-10T14:12:43.14</time>
      </trkpt>
      <trkpt lat="47.17198" lon="6.66832">
        <ele>880</ele>
        <time>2014-05-10T14:12:44.12</time>
      </trkpt>
      <trkpt lat="47.17193" lon="6.66822">
        <ele>878</ele>
        <time>2014-05-10T14:12:45.12</time>
      </trkpt>
      <trkpt lat="47.17188" lon="6.66813">
        <ele>876</ele>
        <time>2014-05-10T14:12:46.12</time>
      </trkpt>
      <trkpt lat="47.17183" lon="6.66804">
        <ele>873</ele>
        <time>2014-05-10T14:12:47.13</time>
      </trkpt>
      <trkpt lat="47.17174" lon="6.66787">
        <ele>872</ele>
        <time>2014-05-10T14:12:49.13</time>
      </trkpt>
      <trkpt lat="47.17169" lon="6.66779">
        <ele>874</ele>
        <time>2014-05-10T14:12:50.14</time>
      </trkpt>
      <trkpt lat="47.17161" lon="6.66764">
        <ele>874</ele>
        <time>2014-05-10T14:12:52.13</time>
      </trkpt>
      <trkpt lat="47.17152" lon="6.6675">
        <ele>874</ele>
        <time>2014-05-10T14:12:54.13</time>
      </trkpt>
      <trkpt lat="47.17144" lon="6.66735">
        <ele>874</ele>
        <time>2014-05-10T14:12:56.10</time>
      </trkpt>
      <trkpt lat="47.17135" lon="6.66719">
        <ele>871</ele>
        <time>2014-05-10T14:12:58.15</time>
      </trkpt>
      <trkpt lat="47.17126" lon="6.66706">
        <ele>872</ele>
        <time>2014-05-10T14:13:00.10</time>
      </trkpt>
      <trkpt lat="47.17118" lon="6.66693">
        <ele>871</ele>
        <time>2014-05-10T14:13:02.11</time>
      </trkpt>
      <trkpt lat="47.17111" lon="6.66681">
        <ele>872</ele>
        <time>2014-05-10T14:13:04.10</time>
      </trkpt>
      <trkpt lat="47.17105" lon="6.6667">
        <ele>874</ele>
        <time>2014-05-10T14:13:06.12</time>
      </trkpt>
      <trkpt lat="47.17098" lon="6.66656">
        <ele>874</ele>
        <time>2014-05-10T14:13:08.12</time>
      </trkpt>
      <trkpt lat="47.17092" lon="6.66641">
        <ele>874</ele>
        <time>2014-05-10T14:13:10.13</time>
      </trkpt>
      <trkpt lat="47.17086" lon="6.66624">
        <ele>873</ele>
        <time>2014-05-10T14:13:12.12</time>
      </trkpt>
      <trkpt lat="47.17081" lon="6.66607">
        <ele>872</ele>
        <time>2014-05-10T14:13:14.13</time>
      </trkpt>
      <trkpt lat="47.17076" lon="6.66591">
        <ele>871</ele>
        <time>2014-05-10T14:13:16.12</time>
      </trkpt>
      <trkpt lat="47.17072" lon="6.66574">
        <ele>872</ele>
        <time>2014-05-10T14:13:18.12</time>
      </trkpt>
      <trkpt lat="47.17068" lon="6.66557">
        <ele>871</ele>
        <time>2014-05-10T14:13:20.12</time>
      </trkpt>
      <trkpt lat="47.17064" lon="6.66538">
        <ele>870</ele>
        <time>2014-05-10T14:13:22.13</time>
      </trkpt>
      <trkpt lat="47.1706" lon="6.6652">
        <ele>870</ele>
        <time>2014-05-10T14:13:24.10</time>
      </trkpt>
      <trkpt lat="47.17056" lon="6.66501">
        <ele>870</ele>
        <time>2014-05-10T14:13:26.11</time>
      </trkpt>
      <trkpt lat="47.17052" lon="6.66483">
        <ele>868</ele>
        <time>2014-05-10T14:13:28.12</time>
      </trkpt>
      <trkpt lat="47.17048" lon="6.66465">
        <ele>868</ele>
        <time>2014-05-10T14:13:30.12</time>
      </trkpt>
      <trkpt lat="47.17043" lon="6.66447">
        <ele>868</ele>
        <time>2014-05-10T14:13:32.10</time>
      </trkpt>
      <trkpt lat="47.17038" lon="6.6643">
        <ele>868</ele>
        <time>2014-05-10T14:13:34.12</time>
      </trkpt>
      <trkpt lat="47.17033" lon="6.66414">
        <ele>868</ele>
        <time>2014-05-10T14:13:36.11</time>
      </trkpt>
      <trkpt lat="47.17026" lon="6.66398">
        <ele>870</ele>
        <time>2014-05-10T14:13:38.10</time>
      </trkpt>
      <trkpt lat="47.17024" lon="6.66385">
        <ele>870</ele>
        <time>2014-05-10T14:13:40.14</time>
      </trkpt>
      <trkpt lat="47.17029" lon="6.66376">
        <ele>869</ele>
        <time>2014-05-10T14:13:42.14</time>
      </trkpt>
      <trkpt lat="47.17037" lon="6.66365">
        <ele>868</ele>
        <time>2014-05-10T14:13:44.10</time>
      </trkpt>
      <trkpt lat="47.17045" lon="6.66353">
        <ele>867</ele>
        <time>2014-05-10T14:13:46.11</time>
      </trkpt>
      <trkpt lat="47.17054" lon="6.6634">
        <ele>865</ele>
        <time>2014-05-10T14:13:48.11</time>
      </trkpt>
      <trkpt lat="47.17063" lon="6.66328">
        <ele>863</ele>
        <time>2014-05-10T14:13:50.15</time>
      </trkpt>
      <trkpt lat="47.17072" lon="6.66317">
        <ele>864</ele>
        <time>2014-05-10T14:13:52.11</time>
      </trkpt>
      <trkpt lat="47.17082" lon="6.66305">
        <ele>863</ele>
        <time>2014-05-10T14:13:54.21</time>
      </trkpt>
      <trkpt lat="47.17094" lon="6.66293">
        <ele>861</ele>
        <time>2014-05-10T14:13:56.11</time>
      </trkpt>
      <trkpt lat="47.17105" lon="6.66279">
        <ele>862</ele>
        <time>2014-05-10T14:13:58.13</time>
      </trkpt>
      <trkpt lat="47.1711" lon="6.66271">
        <ele>862</ele>
        <time>2014-05-10T14:13:59.19</time>
      </trkpt>
      <trkpt lat="47.17114" lon="6.66263">
        <ele>862</ele>
        <time>2014-05-10T14:14:00.12</time>
      </trkpt>
      <trkpt lat="47.17123" lon="6.66248">
        <ele>862</ele>
        <time>2014-05-10T14:14:02.13</time>
      </trkpt>
      <trkpt lat="47.17127" lon="6.66239">
        <ele>865</ele>
        <time>2014-05-10T14:14:03.13</time>
      </trkpt>
      <trkpt lat="47.17134" lon="6.66221">
        <ele>866</ele>
        <time>2014-05-10T14:14:05.11</time>
      </trkpt>
      <trkpt lat="47.17142" lon="6.66208">
        <ele>866</ele>
        <time>2014-05-10T14:14:07.11</time>
      </trkpt>
      <trkpt lat="47.17151" lon="6.66206">
        <ele>861</ele>
        <time>2014-05-10T14:14:09.11</time>
      </trkpt>
      <trkpt lat="47.1716" lon="6.66212">
        <ele>862</ele>
        <time>2014-05-10T14:14:11.13</time>
      </trkpt>
      <trkpt lat="47.1717" lon="6.66225">
        <ele>861</ele>
        <time>2014-05-10T14:14:13.13</time>
      </trkpt>
      <trkpt lat="47.17175" lon="6.66233">
        <ele>860</ele>
        <time>2014-05-10T14:14:14.10</time>
      </trkpt>
      <trkpt lat="47.1718" lon="6.66241">
        <ele>861</ele>
        <time>2014-05-10T14:14:15.11</time>
      </trkpt>
      <trkpt lat="47.17185" lon="6.66249">
        <ele>860</ele>
        <time>2014-05-10T14:14:16.14</time>
      </trkpt>
      <trkpt lat="47.1719" lon="6.66256">
        <ele>860</ele>
        <time>2014-05-10T14:14:17.15</time>
      </trkpt>
      <trkpt lat="47.17204" lon="6.66262">
        <ele>859</ele>
        <time>2014-05-10T14:14:19.11</time>
      </trkpt>
      <trkpt lat="47.17212" lon="6.66262">
        <ele>858</ele>
        <time>2014-05-10T14:14:20.10</time>
      </trkpt>
      <trkpt lat="47.1722" lon="6.66261">
        <ele>857</ele>
        <time>2014-05-10T14:14:21.12</time>
      </trkpt>
      <trkpt lat="47.1723" lon="6.6626">
        <ele>856</ele>
        <time>2014-05-10T14:14:22.12</time>
      </trkpt>
      <trkpt lat="47.1724" lon="6.66258">
        <ele>856</ele>
        <time>2014-05-10T14:14:23.12</time>
      </trkpt>
      <trkpt lat="47.17249" lon="6.66251">
        <ele>855</ele>
        <time>2014-05-10T14:14:24.14</time>
      </trkpt>
      <trkpt lat="47.17256" lon="6.66242">
        <ele>854</ele>
        <time>2014-05-10T14:14:25.12</time>
      </trkpt>
      <trkpt lat="47.17263" lon="6.66232">
        <ele>853</ele>
        <time>2014-05-10T14:14:26.12</time>
      </trkpt>
      <trkpt lat="47.17269" lon="6.66222">
        <ele>851</ele>
        <time>2014-05-10T14:14:27.13</time>
      </trkpt>
      <trkpt lat="47.17275" lon="6.66211">
        <ele>851</ele>
        <time>2014-05-10T14:14:28.11</time>
      </trkpt>
      <trkpt lat="47.17281" lon="6.66201">
        <ele>850</ele>
        <time>2014-05-10T14:14:29.12</time>
      </trkpt>
      <trkpt lat="47.17288" lon="6.66197">
        <ele>850</ele>
        <time>2014-05-10T14:14:30.11</time>
      </trkpt>
      <trkpt lat="47.17296" lon="6.66193">
        <ele>850</ele>
        <time>2014-05-10T14:14:31.11</time>
      </trkpt>
      <trkpt lat="47.17304" lon="6.66187">
        <ele>850</ele>
        <time>2014-05-10T14:14:32.15</time>
      </trkpt>
      <trkpt lat="47.17309" lon="6.66177">
        <ele>850</ele>
        <time>2014-05-10T14:14:33.13</time>
      </trkpt>
      <trkpt lat="47.17315" lon="6.66168">
        <ele>849</ele>
        <time>2014-05-10T14:14:34.11</time>
      </trkpt>
      <trkpt lat="47.1732" lon="6.66159">
        <ele>849</ele>
        <time>2014-05-10T14:14:35.14</time>
      </trkpt>
      <trkpt lat="47.17326" lon="6.66149">
        <ele>849</ele>
        <time>2014-05-10T14:14:36.13</time>
      </trkpt>
      <trkpt lat="47.17332" lon="6.6614">
        <ele>848</ele>
        <time>2014-05-10T14:14:37.11</time>
      </trkpt>
      <trkpt lat="47.17338" lon="6.66132">
        <ele>849</ele>
        <time>2014-05-10T14:14:38.12</time>
      </trkpt>
      <trkpt lat="47.17345" lon="6.66127">
        <ele>848</ele>
        <time>2014-05-10T14:14:39.11</time>
      </trkpt>
      <trkpt lat="47.17351" lon="6.66121">
        <ele>848</ele>
        <time>2014-05-10T14:14:40.15</time>
      </trkpt>
      <trkpt lat="47.17358" lon="6.66117">
        <ele>847</ele>
        <time>2014-05-10T14:14:41.11</time>
      </trkpt>
      <trkpt lat="47.17365" lon="6.66112">
        <ele>848</ele>
        <time>2014-05-10T14:14:42.11</time>
      </trkpt>
      <trkpt lat="47.17372" lon="6.66108">
        <ele>848</ele>
        <time>2014-05-10T14:14:43.14</time>
      </trkpt>
      <trkpt lat="47.17379" lon="6.66105">
        <ele>848</ele>
        <time>2014-05-10T14:14:44.11</time>
      </trkpt>
      <trkpt lat="47.17393" lon="6.661">
        <ele>849</ele>
        <time>2014-05-10T14:14:46.13</time>
      </trkpt>
      <trkpt lat="47.174" lon="6.66098">
        <ele>849</ele>
        <time>2014-05-10T14:14:47.10</time>
      </trkpt>
      <trkpt lat="47.17415" lon="6.66094">
        <ele>850</ele>
        <time>2014-05-10T14:14:49.15</time>
      </trkpt>
      <trkpt lat="47.17422" lon="6.66092">
        <ele>849</ele>
        <time>2014-05-10T14:14:50.11</time>
      </trkpt>
      <trkpt lat="47.17435" lon="6.66088">
        <ele>849</ele>
        <time>2014-05-10T14:14:52.12</time>
      </trkpt>
      <trkpt lat="47.17448" lon="6.66084">
        <ele>849</ele>
        <time>2014-05-10T14:14:54.13</time>
      </trkpt>
      <trkpt lat="47.17459" lon="6.66082">
        <ele>850</ele>
        <time>2014-05-10T14:14:56.12</time>
      </trkpt>
      <trkpt lat="47.17471" lon="6.66085">
        <ele>850</ele>
        <time>2014-05-10T14:14:58.11</time>
      </trkpt>
      <trkpt lat="47.1748" lon="6.6609">
        <ele>852</ele>
        <time>2014-05-10T14:15:00.11</time>
      </trkpt>
      <trkpt lat="47.1749" lon="6.66095">
        <ele>853</ele>
        <time>2014-05-10T14:15:02.12</time>
      </trkpt>
      <trkpt lat="47.17499" lon="6.66101">
        <ele>852</ele>
        <time>2014-05-10T14:15:04.14</time>
      </trkpt>
      <trkpt lat="47.17507" lon="6.66105">
        <ele>851</ele>
        <time>2014-05-10T14:15:06.12</time>
      </trkpt>
      <trkpt lat="47.17514" lon="6.66109">
        <ele>852</ele>
        <time>2014-05-10T14:15:08.12</time>
      </trkpt>
      <trkpt lat="47.17523" lon="6.66114">
        <ele>852</ele>
        <time>2014-05-10T14:15:10.12</time>
      </trkpt>
      <trkpt lat="47.17531" lon="6.66118">
        <ele>852</ele>
        <time>2014-05-10T14:15:12.12</time>
      </trkpt>
      <trkpt lat="47.17539" lon="6.66122">
        <ele>853</ele>
        <time>2014-05-10T14:15:14.15</time>
      </trkpt>
      <trkpt lat="47.17548" lon="6.66122">
        <ele>853</ele>
        <time>2014-05-10T14:15:16.11</time>
      </trkpt>
      <trkpt lat="47.17555" lon="6.66119">
        <ele>853</ele>
        <time>2014-05-10T14:15:18.11</time>
      </trkpt>
      <trkpt lat="47.17561" lon="6.66112">
        <ele>854</ele>
        <time>2014-05-10T14:15:20.13</time>
      </trkpt>
      <trkpt lat="47.17566" lon="6.66098">
        <ele>857</ele>
        <time>2014-05-10T14:15:23.11</time>
      </trkpt>
      <trkpt lat="47.17563" lon="6.66083">
        <ele>857</ele>
        <time>2014-05-10T14:15:26.11</time>
      </trkpt>
      <trkpt lat="47.17558" lon="6.66074">
        <ele>858</ele>
        <time>2014-05-10T14:15:28.10</time>
      </trkpt>
      <trkpt lat="47.1755" lon="6.66064">
        <ele>858</ele>
        <time>2014-05-10T14:15:31.13</time>
      </trkpt>
      <trkpt lat="47.17542" lon="6.66054">
        <ele>858</ele>
        <time>2014-05-10T14:15:34.14</time>
      </trkpt>
      <trkpt lat="47.17534" lon="6.66045">
        <ele>859</ele>
        <time>2014-05-10T14:15:37.12</time>
      </trkpt>
      <trkpt lat="47.17528" lon="6.66037">
        <ele>859</ele>
        <time>2014-05-10T14:15:39.12</time>
      </trkpt>
      <trkpt lat="47.17523" lon="6.66029">
        <ele>858</ele>
        <time>2014-05-10T14:15:41.12</time>
      </trkpt>
      <trkpt lat="47.17517" lon="6.66016">
        <ele>859</ele>
        <time>2014-05-10T14:15:44.15</time>
      </trkpt>
      <trkpt lat="47.17511" lon="6.66003">
        <ele>859</ele>
        <time>2014-05-10T14:15:47.13</time>
      </trkpt>
      <trkpt lat="47.17507" lon="6.65993">
        <ele>859</ele>
        <time>2014-05-10T14:15:49.11</time>
      </trkpt>
      <trkpt lat="47.17503" lon="6.65983">
        <ele>859</ele>
        <time>2014-05-10T14:15:51.16</time>
      </trkpt>
      <trkpt lat="47.17498" lon="6.65969">
        <ele>858</ele>
        <time>2014-05-10T14:15:54.13</time>
      </trkpt>
      <trkpt lat="47.17494" lon="6.65957">
        <ele>864</ele>
        <time>2014-05-10T14:15:57.12</time>
      </trkpt>
      <trkpt lat="47.17491" lon="6.65947">
        <ele>863</ele>
        <time>2014-05-10T14:15:59.11</time>
      </trkpt>
      <trkpt lat="47.17489" lon="6.65935">
        <ele>862</ele>
        <time>2014-05-10T14:16:01.11</time>
      </trkpt>
      <trkpt lat="47.17488" lon="6.65923">
        <ele>863</ele>
        <time>2014-05-10T14:16:03.11</time>
      </trkpt>
      <trkpt lat="47.17487" lon="6.65912">
        <ele>864</ele>
        <time>2014-05-10T14:16:05.12</time>
      </trkpt>
      <trkpt lat="47.17486" lon="6.65899">
        <ele>866</ele>
        <time>2014-05-10T14:16:08.14</time>
      </trkpt>
      <trkpt lat="47.17485" lon="6.65884">
        <ele>863</ele>
        <time>2014-05-10T14:16:11.14</time>
      </trkpt>
      <trkpt lat="47.17484" lon="6.65872">
        <ele>865</ele>
        <time>2014-05-10T14:16:13.12</time>
      </trkpt>
      <trkpt lat="47.17483" lon="6.65858">
        <ele>871</ele>
        <time>2014-05-10T14:16:16.12</time>
      </trkpt>
      <trkpt lat="47.17483" lon="6.65843">
        <ele>871</ele>
        <time>2014-05-10T14:16:19.16</time>
      </trkpt>
      <trkpt lat="47.17482" lon="6.65828">
        <ele>873</ele>
        <time>2014-05-10T14:16:22.13</time>
      </trkpt>
      <trkpt lat="47.17482" lon="6.65817">
        <ele>876</ele>
        <time>2014-05-10T14:16:24.13</time>
      </trkpt>
      <trkpt lat="47.17483" lon="6.65801">
        <ele>873</ele>
        <time>2014-05-10T14:16:27.12</time>
      </trkpt>
      <trkpt lat="47.17484" lon="6.65789">
        <ele>874</ele>
        <time>2014-05-10T14:16:29.12</time>
      </trkpt>
      <trkpt lat="47.17485" lon="6.65778">
        <ele>874</ele>
        <time>2014-05-10T14:16:31.12</time>
      </trkpt>
      <trkpt lat="47.17486" lon="6.65762">
        <ele>877</ele>
        <time>2014-05-10T14:16:34.16</time>
      </trkpt>
      <trkpt lat="47.17488" lon="6.6575">
        <ele>873</ele>
        <time>2014-05-10T14:16:36.13</time>
      </trkpt>
      <trkpt lat="47.1749" lon="6.6574">
        <ele>872</ele>
        <time>2014-05-10T14:16:38.12</time>
      </trkpt>
      <trkpt lat="47.17491" lon="6.65725">
        <ele>871</ele>
        <time>2014-05-10T14:16:41.13</time>
      </trkpt>
      <trkpt lat="47.17493" lon="6.65715">
        <ele>876</ele>
        <time>2014-05-10T14:16:43.14</time>
      </trkpt>
      <trkpt lat="47.17494" lon="6.65701">
        <ele>876</ele>
        <time>2014-05-10T14:16:45.13</time>
      </trkpt>
      <trkpt lat="47.17495" lon="6.65689">
        <ele>875</ele>
        <time>2014-05-10T14:16:47.13</time>
      </trkpt>
      <trkpt lat="47.17497" lon="6.65675">
        <ele>873</ele>
        <time>2014-05-10T14:16:49.13</time>
      </trkpt>
      <trkpt lat="47.17498" lon="6.65661">
        <ele>872</ele>
        <time>2014-05-10T14:16:51.14</time>
      </trkpt>
      <trkpt lat="47.17499" lon="6.65646">
        <ele>872</ele>
        <time>2014-05-10T14:16:53.12</time>
      </trkpt>
      <trkpt lat="47.175" lon="6.65631">
        <ele>872</ele>
        <time>2014-05-10T14:16:55.12</time>
      </trkpt>
      <trkpt lat="47.175" lon="6.65615">
        <ele>874</ele>
        <time>2014-05-10T14:16:57.14</time>
      </trkpt>
      <trkpt lat="47.17501" lon="6.656">
        <ele>875</ele>
        <time>2014-05-10T14:16:59.12</time>
      </trkpt>
      <trkpt lat="47.17503" lon="6.65584">
        <ele>874</ele>
        <time>2014-05-10T14:17:01.12</time>
      </trkpt>
      <trkpt lat="47.17504" lon="6.65569">
        <ele>872</ele>
        <time>2014-05-10T14:17:03.12</time>
      </trkpt>
      <trkpt lat="47.17505" lon="6.65553">
        <ele>869</ele>
        <time>2014-05-10T14:17:05.12</time>
      </trkpt>
      <trkpt lat="47.17505" lon="6.65536">
        <ele>868</ele>
        <time>2014-05-10T14:17:07.15</time>
      </trkpt>
      <trkpt lat="47.17504" lon="6.65521">
        <ele>868</ele>
        <time>2014-05-10T14:17:09.11</time>
      </trkpt>
      <trkpt lat="47.17504" lon="6.65506">
        <ele>871</ele>
        <time>2014-05-10T14:17:11.11</time>
      </trkpt>
      <trkpt lat="47.17503" lon="6.65491">
        <ele>868</ele>
        <time>2014-05-10T14:17:13.14</time>
      </trkpt>
      <trkpt lat="47.17501" lon="6.65478">
        <ele>867</ele>
        <time>2014-05-10T14:17:15.12</time>
      </trkpt>
      <trkpt lat="47.175" lon="6.65466">
        <ele>869</ele>
        <time>2014-05-10T14:17:17.14</time>
      </trkpt>
      <trkpt lat="47.17499" lon="6.65455">
        <ele>871</ele>
        <time>2014-05-10T14:17:19.13</time>
      </trkpt>
      <trkpt lat="47.17495" lon="6.65443">
        <ele>867</ele>
        <time>2014-05-10T14:17:21.16</time>
      </trkpt>
      <trkpt lat="47.17486" lon="6.65437">
        <ele>866</ele>
        <time>2014-05-10T14:17:23.17</time>
      </trkpt>
      <trkpt lat="47.17475" lon="6.65433">
        <ele>863</ele>
        <time>2014-05-10T14:17:25.14</time>
      </trkpt>
      <trkpt lat="47.17461" lon="6.65431">
        <ele>862</ele>
        <time>2014-05-10T14:17:27.12</time>
      </trkpt>
      <trkpt lat="47.17447" lon="6.6543">
        <ele>861</ele>
        <time>2014-05-10T14:17:29.14</time>
      </trkpt>
      <trkpt lat="47.17434" lon="6.65423">
        <ele>858</ele>
        <time>2014-05-10T14:17:31.13</time>
      </trkpt>
      <trkpt lat="47.17428" lon="6.65416">
        <ele>859</ele>
        <time>2014-05-10T14:17:32.15</time>
      </trkpt>
      <trkpt lat="47.17423" lon="6.65407">
        <ele>859</ele>
        <time>2014-05-10T14:17:33.15</time>
      </trkpt>
      <trkpt lat="47.17419" lon="6.65397">
        <ele>859</ele>
        <time>2014-05-10T14:17:34.16</time>
      </trkpt>
      <trkpt lat="47.17415" lon="6.65385">
        <ele>858</ele>
        <time>2014-05-10T14:17:35.13</time>
      </trkpt>
      <trkpt lat="47.17412" lon="6.65373">
        <ele>858</ele>
        <time>2014-05-10T14:17:36.12</time>
      </trkpt>
      <trkpt lat="47.17409" lon="6.65362">
        <ele>855</ele>
        <time>2014-05-10T14:17:37.16</time>
      </trkpt>
      <trkpt lat="47.17406" lon="6.65351">
        <ele>854</ele>
        <time>2014-05-10T14:17:38.12</time>
      </trkpt>
      <trkpt lat="47.17403" lon="6.6534">
        <ele>855</ele>
        <time>2014-05-10T14:17:39.17</time>
      </trkpt>
      <trkpt lat="47.174" lon="6.65328">
        <ele>855</ele>
        <time>2014-05-10T14:17:40.14</time>
      </trkpt>
      <trkpt lat="47.17396" lon="6.65317">
        <ele>853</ele>
        <time>2014-05-10T14:17:41.12</time>
      </trkpt>
      <trkpt lat="47.17393" lon="6.65305">
        <ele>854</ele>
        <time>2014-05-10T14:17:42.11</time>
      </trkpt>
      <trkpt lat="47.17391" lon="6.65295">
        <ele>854</ele>
        <time>2014-05-10T14:17:43.14</time>
      </trkpt>
      <trkpt lat="47.17389" lon="6.65285">
        <ele>854</ele>
        <time>2014-05-10T14:17:44.13</time>
      </trkpt>
      <trkpt lat="47.17387" lon="6.65274">
        <ele>853</ele>
        <time>2014-05-10T14:17:45.14</time>
      </trkpt>
      <trkpt lat="47.17385" lon="6.65264">
        <ele>853</ele>
        <time>2014-05-10T14:17:46.13</time>
      </trkpt>
      <trkpt lat="47.17382" lon="6.65254">
        <ele>853</ele>
        <time>2014-05-10T14:17:47.15</time>
      </trkpt>
      <trkpt lat="47.17379" lon="6.65242">
        <ele>852</ele>
        <time>2014-05-10T14:17:48.14</time>
      </trkpt>
      <trkpt lat="47.17377" lon="6.6523">
        <ele>852</ele>
        <time>2014-05-10T14:17:49.11</time>
      </trkpt>
      <trkpt lat="47.17375" lon="6.65218">
        <ele>852</ele>
        <time>2014-05-10T14:17:50.12</time>
      </trkpt>
      <trkpt lat="47.17372" lon="6.65205">
        <ele>851</ele>
        <time>2014-05-10T14:17:51.12</time>
      </trkpt>
      <trkpt lat="47.17372" lon="6.65192">
        <ele>851</ele>
        <time>2014-05-10T14:17:52.14</time>
      </trkpt>
      <trkpt lat="47.17371" lon="6.65178">
        <ele>850</ele>
        <time>2014-05-10T14:17:53.14</time>
      </trkpt>
      <trkpt lat="47.17371" lon="6.65164">
        <ele>850</ele>
        <time>2014-05-10T14:17:54.12</time>
      </trkpt>
      <trkpt lat="47.17371" lon="6.65148">
        <ele>846</ele>
        <time>2014-05-10T14:17:55.16</time>
      </trkpt>
      <trkpt lat="47.17372" lon="6.65133">
        <ele>848</ele>
        <time>2014-05-10T14:17:56.14</time>
      </trkpt>
      <trkpt lat="47.17372" lon="6.65118">
        <ele>847</ele>
        <time>2014-05-10T14:17:57.15</time>
      </trkpt>
      <trkpt lat="47.17373" lon="6.65105">
        <ele>846</ele>
        <time>2014-05-10T14:17:58.15</time>
      </trkpt>
      <trkpt lat="47.17373" lon="6.6509">
        <ele>844</ele>
        <time>2014-05-10T14:17:59.12</time>
      </trkpt>
      <trkpt lat="47.17373" lon="6.65075">
        <ele>843</ele>
        <time>2014-05-10T14:18:00.12</time>
      </trkpt>
      <trkpt lat="47.17372" lon="6.65061">
        <ele>842</ele>
        <time>2014-05-10T14:18:01.13</time>
      </trkpt>
      <trkpt lat="47.1737" lon="6.65047">
        <ele>842</ele>
        <time>2014-05-10T14:18:02.12</time>
      </trkpt>
      <trkpt lat="47.17368" lon="6.65032">
        <ele>840</ele>
        <time>2014-05-10T14:18:03.17</time>
      </trkpt>
      <trkpt lat="47.17365" lon="6.65017">
        <ele>841</ele>
        <time>2014-05-10T14:18:04.15</time>
      </trkpt>
      <trkpt lat="47.17363" lon="6.65003">
        <ele>841</ele>
        <time>2014-05-10T14:18:05.15</time>
      </trkpt>
      <trkpt lat="47.17362" lon="6.64988">
        <ele>837</ele>
        <time>2014-05-10T14:18:06.15</time>
      </trkpt>
      <trkpt lat="47.17362" lon="6.64973">
        <ele>837</ele>
        <time>2014-05-10T14:18:07.19</time>
      </trkpt>
      <trkpt lat="47.17364" lon="6.64958">
        <ele>837</ele>
        <time>2014-05-10T14:18:08.15</time>
      </trkpt>
      <trkpt lat="47.17368" lon="6.64945">
        <ele>837</ele>
        <time>2014-05-10T14:18:09.12</time>
      </trkpt>
      <trkpt lat="47.17372" lon="6.64931">
        <ele>838</ele>
        <time>2014-05-10T14:18:10.14</time>
      </trkpt>
      <trkpt lat="47.17379" lon="6.64918">
        <ele>837</ele>
        <time>2014-05-10T14:18:11.14</time>
      </trkpt>
      <trkpt lat="47.17387" lon="6.64905">
        <ele>836</ele>
        <time>2014-05-10T14:18:12.98</time>
      </trkpt>
      <trkpt lat="47.17393" lon="6.64893">
        <ele>836</ele>
        <time>2014-05-10T14:18:13.11</time>
      </trkpt>
      <trkpt lat="47.17399" lon="6.64881">
        <ele>835</ele>
        <time>2014-05-10T14:18:14.12</time>
      </trkpt>
      <trkpt lat="47.17402" lon="6.64866">
        <ele>833</ele>
        <time>2014-05-10T14:18:15.11</time>
      </trkpt>
      <trkpt lat="47.17405" lon="6.64852">
        <ele>833</ele>
        <time>2014-05-10T14:18:16.11</time>
      </trkpt>
      <trkpt lat="47.17408" lon="6.64838">
        <ele>833</ele>
        <time>2014-05-10T14:18:17.12</time>
      </trkpt>
      <trkpt lat="47.17412" lon="6.64824">
        <ele>831</ele>
        <time>2014-05-10T14:18:18.15</time>
      </trkpt>
      <trkpt lat="47.17415" lon="6.64811">
        <ele>831</ele>
        <time>2014-05-10T14:18:19.12</time>
      </trkpt>
      <trkpt lat="47.17419" lon="6.64797">
        <ele>830</ele>
        <time>2014-05-10T14:18:20.11</time>
      </trkpt>
      <trkpt lat="47.17424" lon="6.64784">
        <ele>830</ele>
        <time>2014-05-10T14:18:21.98</time>
      </trkpt>
      <trkpt lat="47.17429" lon="6.64771">
        <ele>829</ele>
        <time>2014-05-10T14:18:22.13</time>
      </trkpt>
      <trkpt lat="47.17437" lon="6.64761">
        <ele>829</ele>
        <time>2014-05-10T14:18:23.11</time>
      </trkpt>
      <trkpt lat="47.17445" lon="6.64752">
        <ele>827</ele>
        <time>2014-05-10T14:18:24.11</time>
      </trkpt>
      <trkpt lat="47.17453" lon="6.64743">
        <ele>828</ele>
        <time>2014-05-10T14:18:25.11</time>
      </trkpt>
      <trkpt lat="47.1746" lon="6.64735">
        <ele>828</ele>
        <time>2014-05-10T14:18:26.13</time>
      </trkpt>
      <trkpt lat="47.17467" lon="6.64726">
        <ele>828</ele>
        <time>2014-05-10T14:18:27.10</time>
      </trkpt>
      <trkpt lat="47.17472" lon="6.64718">
        <ele>828</ele>
        <time>2014-05-10T14:18:28.12</time>
      </trkpt>
      <trkpt lat="47.17476" lon="6.64706">
        <ele>828</ele>
        <time>2014-05-10T14:18:29.11</time>
      </trkpt>
      <trkpt lat="47.17479" lon="6.64694">
        <ele>829</ele>
        <time>2014-05-10T14:18:30.11</time>
      </trkpt>
      <trkpt lat="47.17482" lon="6.64683">
        <ele>829</ele>
        <time>2014-05-10T14:18:31.10</time>
      </trkpt>
      <trkpt lat="47.17487" lon="6.64666">
        <ele>830</ele>
        <time>2014-05-10T14:18:33.12</time>
      </trkpt>
      <trkpt lat="47.1749" lon="6.64652">
        <ele>829</ele>
        <time>2014-05-10T14:18:35.12</time>
      </trkpt>
      <trkpt lat="47.17489" lon="6.64638">
        <ele>829</ele>
        <time>2014-05-10T14:18:37.13</time>
      </trkpt>
      <trkpt lat="47.17492" lon="6.64622">
        <ele>828</ele>
        <time>2014-05-10T14:18:39.10</time>
      </trkpt>
      <trkpt lat="47.17495" lon="6.64612">
        <ele>826</ele>
        <time>2014-05-10T14:18:40.11</time>
      </trkpt>
      <trkpt lat="47.17498" lon="6.64596">
        <ele>829</ele>
        <time>2014-05-10T14:18:42.11</time>
      </trkpt>
      <trkpt lat="47.17501" lon="6.64579">
        <ele>832</ele>
        <time>2014-05-10T14:18:44.13</time>
      </trkpt>
      <trkpt lat="47.17505" lon="6.64564">
        <ele>834</ele>
        <time>2014-05-10T14:18:46.12</time>
      </trkpt>
      <trkpt lat="47.1751" lon="6.64552">
        <ele>831</ele>
        <time>2014-05-10T14:18:48.88</time>
      </trkpt>
      <trkpt lat="47.17514" lon="6.64538">
        <ele>833</ele>
        <time>2014-05-10T14:18:50.12</time>
      </trkpt>
      <trkpt lat="47.17518" lon="6.6452">
        <ele>835</ele>
        <time>2014-05-10T14:18:52.11</time>
      </trkpt>
      <trkpt lat="47.1752" lon="6.64503">
        <ele>837</ele>
        <time>2014-05-10T14:18:54.98</time>
      </trkpt>
      <trkpt lat="47.17523" lon="6.64486">
        <ele>834</ele>
        <time>2014-05-10T14:18:56.12</time>
      </trkpt>
      <trkpt lat="47.1753" lon="6.64471">
        <ele>837</ele>
        <time>2014-05-10T14:18:58.12</time>
      </trkpt>
      <trkpt lat="47.17538" lon="6.64459">
        <ele>837</ele>
        <time>2014-05-10T14:19:00.10</time>
      </trkpt>
      <trkpt lat="47.17541" lon="6.64447">
        <ele>832</ele>
        <time>2014-05-10T14:19:02.11</time>
      </trkpt>
      <trkpt lat="47.17537" lon="6.6443">
        <ele>827</ele>
        <time>2014-05-10T14:19:04.98</time>
      </trkpt>
      <trkpt lat="47.17527" lon="6.64419">
        <ele>828</ele>
        <time>2014-05-10T14:19:06.11</time>
      </trkpt>
      <trkpt lat="47.17521" lon="6.64412">
        <ele>827</ele>
        <time>2014-05-10T14:19:07.11</time>
      </trkpt>
      <trkpt lat="47.17515" lon="6.64404">
        <ele>826</ele>
        <time>2014-05-10T14:19:08.10</time>
      </trkpt>
      <trkpt lat="47.1751" lon="6.64397">
        <ele>824</ele>
        <time>2014-05-10T14:19:09.10</time>
      </trkpt>
      <trkpt lat="47.17504" lon="6.64392">
        <ele>824</ele>
        <time>2014-05-10T14:19:10.13</time>
      </trkpt>
      <trkpt lat="47.17497" lon="6.64386">
        <ele>824</ele>
        <time>2014-05-10T14:19:11.12</time>
      </trkpt>
      <trkpt lat="47.17485" lon="6.64376">
        <ele>824</ele>
        <time>2014-05-10T14:19:13.12</time>
      </trkpt>
      <trkpt lat="47.17472" lon="6.64366">
        <ele>821</ele>
        <time>2014-05-10T14:19:15.13</time>
      </trkpt>
      <trkpt lat="47.17461" lon="6.64356">
        <ele>818</ele>
        <time>2014-05-10T14:19:17.10</time>
      </trkpt>
      <trkpt lat="47.17452" lon="6.64344">
        <ele>818</ele>
        <time>2014-05-10T14:19:19.12</time>
      </trkpt>
      <trkpt lat="47.17444" lon="6.64333">
        <ele>818</ele>
        <time>2014-05-10T14:19:21.12</time>
      </trkpt>
      <trkpt lat="47.17436" lon="6.64326">
        <ele>818</ele>
        <time>2014-05-10T14:19:23.13</time>
      </trkpt>
      <trkpt lat="47.1743" lon="6.64321">
        <ele>819</ele>
        <time>2014-05-10T14:19:25.12</time>
      </trkpt>
      <trkpt lat="47.17422" lon="6.64316">
        <ele>815</ele>
        <time>2014-05-10T14:19:27.13</time>
      </trkpt>
      <trkpt lat="47.17411" lon="6.64307">
        <ele>809</ele>
        <time>2014-05-10T14:19:29.13</time>
      </trkpt>
      <trkpt lat="47.17402" lon="6.64293">
        <ele>815</ele>
        <time>2014-05-10T14:19:31.13</time>
      </trkpt>
      <trkpt lat="47.17394" lon="6.64279">
        <ele>816</ele>
        <time>2014-05-10T14:19:33.11</time>
      </trkpt>
      <trkpt lat="47.17385" lon="6.64263">
        <ele>815</ele>
        <time>2014-05-10T14:19:35.13</time>
      </trkpt>
      <trkpt lat="47.17379" lon="6.64252">
        <ele>814</ele>
        <time>2014-05-10T14:19:36.13</time>
      </trkpt>
      <trkpt lat="47.17374" lon="6.64242">
        <ele>812</ele>
        <time>2014-05-10T14:19:37.11</time>
      </trkpt>
      <trkpt lat="47.17368" lon="6.64231">
        <ele>810</ele>
        <time>2014-05-10T14:19:38.13</time>
      </trkpt>
      <trkpt lat="47.17363" lon="6.64221">
        <ele>809</ele>
        <time>2014-05-10T14:19:39.13</time>
      </trkpt>
      <trkpt lat="47.17359" lon="6.64212">
        <ele>809</ele>
        <time>2014-05-10T14:19:40.13</time>
      </trkpt>
      <trkpt lat="47.17355" lon="6.64202">
        <ele>808</ele>
        <time>2014-05-10T14:19:41.13</time>
      </trkpt>
      <trkpt lat="47.17351" lon="6.64192">
        <ele>805</ele>
        <time>2014-05-10T14:19:42.10</time>
      </trkpt>
      <trkpt lat="47.17348" lon="6.64182">
        <ele>804</ele>
        <time>2014-05-10T14:19:43.12</time>
      </trkpt>
      <trkpt lat="47.17345" lon="6.64171">
        <ele>805</ele>
        <time>2014-05-10T14:19:44.13</time>
      </trkpt>
      <trkpt lat="47.17342" lon="6.64161">
        <ele>803</ele>
        <time>2014-05-10T14:19:45.11</time>
      </trkpt>
      <trkpt lat="47.17338" lon="6.64142">
        <ele>803</ele>
        <time>2014-05-10T14:19:47.10</time>
      </trkpt>
      <trkpt lat="47.17334" lon="6.64125">
        <ele>800</ele>
        <time>2014-05-10T14:19:49.13</time>
      </trkpt>
      <trkpt lat="47.1733" lon="6.64106">
        <ele>801</ele>
        <time>2014-05-10T14:19:51.13</time>
      </trkpt>
      <trkpt lat="47.17326" lon="6.64088">
        <ele>804</ele>
        <time>2014-05-10T14:19:53.14</time>
      </trkpt>
      <trkpt lat="47.17323" lon="6.64078">
        <ele>800</ele>
        <time>2014-05-10T14:19:54.12</time>
      </trkpt>
      <trkpt lat="47.1732" lon="6.64066">
        <ele>796</ele>
        <time>2014-05-10T14:19:55.12</time>
      </trkpt>
      <trkpt lat="47.17315" lon="6.64047">
        <ele>796</ele>
        <time>2014-05-10T14:19:57.11</time>
      </trkpt>
      <trkpt lat="47.17309" lon="6.64031">
        <ele>794</ele>
        <time>2014-05-10T14:19:59.10</time>
      </trkpt>
      <trkpt lat="47.17302" lon="6.64018">
        <ele>796</ele>
        <time>2014-05-10T14:20:01.12</time>
      </trkpt>
      <trkpt lat="47.17295" lon="6.64006">
        <ele>795</ele>
        <time>2014-05-10T14:20:03.12</time>
      </trkpt>
      <trkpt lat="47.17287" lon="6.63993">
        <ele>796</ele>
        <time>2014-05-10T14:20:05.13</time>
      </trkpt>
      <trkpt lat="47.17281" lon="6.63982">
        <ele>796</ele>
        <time>2014-05-10T14:20:07.14</time>
      </trkpt>
      <trkpt lat="47.17274" lon="6.6397">
        <ele>796</ele>
        <time>2014-05-10T14:20:09.11</time>
      </trkpt>
      <trkpt lat="47.17269" lon="6.63959">
        <ele>795</ele>
        <time>2014-05-10T14:20:11.13</time>
      </trkpt>
      <trkpt lat="47.17264" lon="6.63947">
        <ele>794</ele>
        <time>2014-05-10T14:20:13.11</time>
      </trkpt>
      <trkpt lat="47.17261" lon="6.63931">
        <ele>791</ele>
        <time>2014-05-10T14:20:15.12</time>
      </trkpt>
      <trkpt lat="47.17255" lon="6.63917">
        <ele>793</ele>
        <time>2014-05-10T14:20:17.10</time>
      </trkpt>
      <trkpt lat="47.17247" lon="6.63903">
        <ele>791</ele>
        <time>2014-05-10T14:20:19.98</time>
      </trkpt>
      <trkpt lat="47.17238" lon="6.63888">
        <ele>788</ele>
        <time>2014-05-10T14:20:21.12</time>
      </trkpt>
      <trkpt lat="47.1723" lon="6.63874">
        <ele>786</ele>
        <time>2014-05-10T14:20:23.13</time>
      </trkpt>
      <trkpt lat="47.17223" lon="6.63859">
        <ele>786</ele>
        <time>2014-05-10T14:20:25.13</time>
      </trkpt>
      <trkpt lat="47.17215" lon="6.63845">
        <ele>788</ele>
        <time>2014-05-10T14:20:27.14</time>
      </trkpt>
      <trkpt lat="47.17208" lon="6.6383">
        <ele>787</ele>
        <time>2014-05-10T14:20:29.12</time>
      </trkpt>
      <trkpt lat="47.17201" lon="6.63821">
        <ele>787</ele>
        <time>2014-05-10T14:20:31.19</time>
      </trkpt>
      <trkpt lat="47.17192" lon="6.63815">
        <ele>789</ele>
        <time>2014-05-10T14:20:34.11</time>
      </trkpt>
      <trkpt lat="47.17182" lon="6.6381">
        <ele>790</ele>
        <time>2014-05-10T14:20:37.11</time>
      </trkpt>
      <trkpt lat="47.17175" lon="6.63809">
        <ele>793</ele>
        <time>2014-05-10T14:20:40.13</time>
      </trkpt>
      <trkpt lat="47.17165" lon="6.63811">
        <ele>795</ele>
        <time>2014-05-10T14:20:44.15</time>
      </trkpt>
      <trkpt lat="47.17157" lon="6.63813">
        <ele>795</ele>
        <time>2014-05-10T14:20:48.11</time>
      </trkpt>
      <trkpt lat="47.17151" lon="6.63813">
        <ele>795</ele>
        <time>2014-05-10T14:20:55.12</time>
      </trkpt>
      <trkpt lat="47.17147" lon="6.6381">
        <ele>792</ele>
        <time>2014-05-10T14:21:02.13</time>
      </trkpt>
      <trkpt lat="47.17142" lon="6.6381">
        <ele>798</ele>
        <time>2014-05-10T14:21:09.22</time>
      </trkpt>
      <trkpt lat="47.17139" lon="6.63808">
        <ele>799</ele>
        <time>2014-05-10T14:21:16.12</time>
      </trkpt>
      <trkpt lat="47.17129" lon="6.63805">
        <ele>806</ele>
        <time>2014-05-10T14:21:17.13</time>
      </trkpt>
      <trkpt lat="47.1712" lon="6.63803">
        <ele>808</ele>
        <time>2014-05-10T14:21:24.98</time>
      </trkpt>
      <trkpt lat="47.17113" lon="6.638">
        <ele>814</ele>
        <time>2014-05-10T14:21:31.10</time>
      </trkpt>
      <trkpt lat="47.17103" lon="6.6379">
        <ele>821</ele>
        <time>2014-05-10T14:21:36.48</time>
      </trkpt>
      <trkpt lat="47.17094" lon="6.63783">
        <ele>812</ele>
        <time>2014-05-10T14:21:43.88</time>
      </trkpt>
      <trkpt lat="47.1709" lon="6.6378">
        <ele>819</ele>
        <time>2014-05-10T14:21:50.78</time>
      </trkpt>
      <trkpt lat="47.17085" lon="6.63769">
        <ele>823</ele>
        <time>2014-05-10T14:21:57.13</time>
      </trkpt>
      <trkpt lat="47.1708" lon="6.63767">
        <ele>819</ele>
        <time>2014-05-10T14:22:04.13</time>
      </trkpt>
      <trkpt lat="47.17074" lon="6.63756">
        <ele>822</ele>
        <time>2014-05-10T14:22:10.13</time>
      </trkpt>
      <trkpt lat="47.1707" lon="6.63749">
        <ele>819</ele>
        <time>2014-05-10T14:22:17.12</time>
      </trkpt>
      <trkpt lat="47.17065" lon="6.63744">
        <ele>826</ele>
        <time>2014-05-10T14:22:24.10</time>
      </trkpt>
      <trkpt lat="47.17061" lon="6.63736">
        <ele>832</ele>
        <time>2014-05-10T14:22:29.13</time>
      </trkpt>
      <trkpt lat="47.17054" lon="6.63723">
        <ele>828</ele>
        <time>2014-05-10T14:22:30.15</time>
      </trkpt>
      <trkpt lat="47.17052" lon="6.63715">
        <ele>836</ele>
        <time>2014-05-10T14:22:37.11</time>
      </trkpt>
      <trkpt lat="47.17052" lon="6.6371">
        <ele>839</ele>
        <time>2014-05-10T14:22:44.15</time>
      </trkpt>
      <trkpt lat="47.17049" lon="6.63697">
        <ele>836</ele>
        <time>2014-05-10T14:22:46.12</time>
      </trkpt>
      <trkpt lat="47.1705" lon="6.63683">
        <ele>824</ele>
        <time>2014-05-10T14:22:53.98</time>
      </trkpt>
      <trkpt lat="47.17047" lon="6.63669">
        <ele>834</ele>
        <time>2014-05-10T14:23:01.88</time>
      </trkpt>
      <trkpt lat="47.17049" lon="6.63654">
        <ele>834</ele>
        <time>2014-05-10T14:23:08.12</time>
      </trkpt>
      <trkpt lat="47.17045" lon="6.6364">
        <ele>834</ele>
        <time>2014-05-10T14:23:13.88</time>
      </trkpt>
      <trkpt lat="47.17042" lon="6.6362">
        <ele>850</ele>
        <time>2014-05-10T14:23:17.88</time>
      </trkpt>
      <trkpt lat="47.17045" lon="6.63592">
        <ele>854</ele>
        <time>2014-05-10T14:23:25.88</time>
      </trkpt>
      <trkpt lat="47.17046" lon="6.63581">
        <ele>852</ele>
        <time>2014-05-10T14:23:28.68</time>
      </trkpt>
      <trkpt lat="47.17047" lon="6.63569">
        <ele>849</ele>
        <time>2014-05-10T14:23:31.68</time>
      </trkpt>
      <trkpt lat="47.17044" lon="6.63554">
        <ele>845</ele>
        <time>2014-05-10T14:23:35.88</time>
      </trkpt>
      <trkpt lat="47.1704" lon="6.63537">
        <ele>839</ele>
        <time>2014-05-10T14:23:41.88</time>
      </trkpt>
      <trkpt lat="47.17039" lon="6.63523">
        <ele>843</ele>
        <time>2014-05-10T14:23:45.68</time>
      </trkpt>
      <trkpt lat="47.17035" lon="6.6351">
        <ele>839</ele>
        <time>2014-05-10T14:23:48.68</time>
      </trkpt>
      <trkpt lat="47.17032" lon="6.63497">
        <ele>843</ele>
        <time>2014-05-10T14:23:51.68</time>
      </trkpt>
      <trkpt lat="47.17027" lon="6.63478">
        <ele>844</ele>
        <time>2014-05-10T14:23:58.68</time>
      </trkpt>
      <trkpt lat="47.1702" lon="6.63466">
        <ele>846</ele>
        <time>2014-05-10T14:24:04.88</time>
      </trkpt>
      <trkpt lat="47.17011" lon="6.63456">
        <ele>853</ele>
        <time>2014-05-10T14:24:10.10</time>
      </trkpt>
      <trkpt lat="47.17007" lon="6.63444">
        <ele>847</ele>
        <time>2014-05-10T14:24:15.68</time>
      </trkpt>
      <trkpt lat="47.17003" lon="6.63434">
        <ele>856</ele>
        <time>2014-05-10T14:24:18.68</time>
      </trkpt>
      <trkpt lat="47.16995" lon="6.63427">
        <ele>850</ele>
        <time>2014-05-10T14:24:22.10</time>
      </trkpt>
      <trkpt lat="47.16988" lon="6.63417">
        <ele>860</ele>
        <time>2014-05-10T14:24:26.68</time>
      </trkpt>
      <trkpt lat="47.16983" lon="6.63408">
        <ele>859</ele>
        <time>2014-05-10T14:24:30.88</time>
      </trkpt>
      <trkpt lat="47.16978" lon="6.63396">
        <ele>856</ele>
        <time>2014-05-10T14:24:35.88</time>
      </trkpt>
      <trkpt lat="47.16975" lon="6.63384">
        <ele>856</ele>
        <time>2014-05-10T14:24:41.12</time>
      </trkpt>
      <trkpt lat="47.1697" lon="6.63377">
        <ele>858</ele>
        <time>2014-05-10T14:24:47.88</time>
      </trkpt>
      <trkpt lat="47.16968" lon="6.63367">
        <ele>869</ele>
        <time>2014-05-10T14:24:54.88</time>
      </trkpt>
      <trkpt lat="47.16969" lon="6.63355">
        <ele>879</ele>
        <time>2014-05-10T14:24:58.88</time>
      </trkpt>
      <trkpt lat="47.16968" lon="6.63343">
        <ele>889</ele>
        <time>2014-05-10T14:25:03.88</time>
      </trkpt>
      <trkpt lat="47.16967" lon="6.63332">
        <ele>887</ele>
        <time>2014-05-10T14:25:08.88</time>
      </trkpt>
      <trkpt lat="47.16969" lon="6.63321">
        <ele>894</ele>
        <time>2014-05-10T14:25:12.88</time>
      </trkpt>
      <trkpt lat="47.16968" lon="6.6331">
        <ele>889</ele>
        <time>2014-05-10T14:25:16.12</time>
      </trkpt>
      <trkpt lat="47.16969" lon="6.63298">
        <ele>883</ele>
        <time>2014-05-10T14:25:20.12</time>
      </trkpt>
      <trkpt lat="47.1697" lon="6.63286">
        <ele>883</ele>
        <time>2014-05-10T14:25:24.88</time>
      </trkpt>
      <trkpt lat="47.16972" lon="6.63272">
        <ele>884</ele>
        <time>2014-05-10T14:25:29.88</time>
      </trkpt>
      <trkpt lat="47.16977" lon="6.63263">
        <ele>882</ele>
        <time>2014-05-10T14:25:33.88</time>
      </trkpt>
      <trkpt lat="47.16982" lon="6.63254">
        <ele>874</ele>
        <time>2014-05-10T14:25:38.10</time>
      </trkpt>
      <trkpt lat="47.16985" lon="6.63244">
        <ele>878</ele>
        <time>2014-05-10T14:25:42.11</time>
      </trkpt>
      <trkpt lat="47.16988" lon="6.63234">
        <ele>882</ele>
        <time>2014-05-10T14:25:46.88</time>
      </trkpt>
      <trkpt lat="47.16992" lon="6.63221">
        <ele>875</ele>
        <time>2014-05-10T14:25:50.11</time>
      </trkpt>
      <trkpt lat="47.16993" lon="6.6321">
        <ele>869</ele>
        <time>2014-05-10T14:25:56.10</time>
      </trkpt>
      <trkpt lat="47.16997" lon="6.63199">
        <ele>862</ele>
        <time>2014-05-10T14:26:02.10</time>
      </trkpt>
      <trkpt lat="47.17001" lon="6.632">
        <ele>853</ele>
        <time>2014-05-10T14:26:09.10</time>
      </trkpt>
      <trkpt lat="47.17008" lon="6.63205">
        <ele>860</ele>
        <time>2014-05-10T14:26:15.88</time>
      </trkpt>
      <trkpt lat="47.17016" lon="6.63205">
        <ele>869</ele>
        <time>2014-05-10T14:26:20.16</time>
      </trkpt>
      <trkpt lat="47.17025" lon="6.63203">
        <ele>869</ele>
        <time>2014-05-10T14:26:25.14</time>
      </trkpt>
      <trkpt lat="47.17031" lon="6.63197">
        <ele>867</ele>
        <time>2014-05-10T14:26:29.17</time>
      </trkpt>
      <trkpt lat="47.17038" lon="6.63189">
        <ele>867</ele>
        <time>2014-05-10T14:26:33.14</time>
      </trkpt>
      <trkpt lat="47.17043" lon="6.63178">
        <ele>870</ele>
        <time>2014-05-10T14:26:37.11</time>
      </trkpt>
      <trkpt lat="47.17046" lon="6.63167">
        <ele>871</ele>
        <time>2014-05-10T14:26:40.11</time>
      </trkpt>
      <trkpt lat="47.1705" lon="6.63158">
        <ele>872</ele>
        <time>2014-05-10T14:26:43.13</time>
      </trkpt>
      <trkpt lat="47.17054" lon="6.63146">
        <ele>873</ele>
        <time>2014-05-10T14:26:46.12</time>
      </trkpt>
      <trkpt lat="47.17058" lon="6.63134">
        <ele>871</ele>
        <time>2014-05-10T14:26:49.11</time>
      </trkpt>
      <trkpt lat="47.17061" lon="6.63117">
        <ele>865</ele>
        <time>2014-05-10T14:26:52.16</time>
      </trkpt>
      <trkpt lat="47.17062" lon="6.63101">
        <ele>866</ele>
        <time>2014-05-10T14:26:54.88</time>
      </trkpt>
      <trkpt lat="47.17065" lon="6.63086">
        <ele>871</ele>
        <time>2014-05-10T14:26:56.13</time>
      </trkpt>
      <trkpt lat="47.17069" lon="6.63073">
        <ele>872</ele>
        <time>2014-05-10T14:26:58.12</time>
      </trkpt>
      <trkpt lat="47.17073" lon="6.63059">
        <ele>873</ele>
        <time>2014-05-10T14:27:00.11</time>
      </trkpt>
      <trkpt lat="47.17076" lon="6.63045">
        <ele>875</ele>
        <time>2014-05-10T14:27:02.13</time>
      </trkpt>
      <trkpt lat="47.17078" lon="6.63033">
        <ele>875</ele>
        <time>2014-05-10T14:27:04.13</time>
      </trkpt>
      <trkpt lat="47.17079" lon="6.63017">
        <ele>870</ele>
        <time>2014-05-10T14:27:06.98</time>
      </trkpt>
      <trkpt lat="47.17081" lon="6.63004">
        <ele>869</ele>
        <time>2014-05-10T14:27:08.20</time>
      </trkpt>
      <trkpt lat="47.17084" lon="6.62992">
        <ele>870</ele>
        <time>2014-05-10T14:27:10.12</time>
      </trkpt>
      <trkpt lat="47.17086" lon="6.6298">
        <ele>869</ele>
        <time>2014-05-10T14:27:12.10</time>
      </trkpt>
      <trkpt lat="47.17087" lon="6.62969">
        <ele>865</ele>
        <time>2014-05-10T14:27:14.11</time>
      </trkpt>
      <trkpt lat="47.17088" lon="6.62958">
        <ele>861</ele>
        <time>2014-05-10T14:27:17.13</time>
      </trkpt>
      <trkpt lat="47.17087" lon="6.62947">
        <ele>862</ele>
        <time>2014-05-10T14:27:23.21</time>
      </trkpt>
      <trkpt lat="47.17087" lon="6.62944">
        <ele>863</ele>
        <time>2014-05-10T14:27:30.14</time>
      </trkpt>
      <trkpt lat="47.17085" lon="6.62934">
        <ele>862</ele>
        <time>2014-05-10T14:27:32.15</time>
      </trkpt>
      <trkpt lat="47.1708" lon="6.62923">
        <ele>859</ele>
        <time>2014-05-10T14:27:35.11</time>
      </trkpt>
      <trkpt lat="47.17073" lon="6.62914">
        <ele>858</ele>
        <time>2014-05-10T14:27:38.10</time>
      </trkpt>
      <trkpt lat="47.17067" lon="6.62903">
        <ele>856</ele>
        <time>2014-05-10T14:27:41.16</time>
      </trkpt>
      <trkpt lat="47.17059" lon="6.62893">
        <ele>856</ele>
        <time>2014-05-10T14:27:44.11</time>
      </trkpt>
      <trkpt lat="47.17051" lon="6.62884">
        <ele>856</ele>
        <time>2014-05-10T14:27:47.10</time>
      </trkpt>
      <trkpt lat="47.17045" lon="6.62878">
        <ele>854</ele>
        <time>2014-05-10T14:27:49.10</time>
      </trkpt>
      <trkpt lat="47.17036" lon="6.6287">
        <ele>852</ele>
        <time>2014-05-10T14:27:52.12</time>
      </trkpt>
      <trkpt lat="47.17028" lon="6.62863">
        <ele>852</ele>
        <time>2014-05-10T14:27:55.11</time>
      </trkpt>
      <trkpt lat="47.1702" lon="6.62856">
        <ele>854</ele>
        <time>2014-05-10T14:27:58.10</time>
      </trkpt>
      <trkpt lat="47.17014" lon="6.62846">
        <ele>857</ele>
        <time>2014-05-10T14:28:01.11</time>
      </trkpt>
      <trkpt lat="47.17009" lon="6.62834">
        <ele>860</ele>
        <time>2014-05-10T14:28:04.10</time>
      </trkpt>
      <trkpt lat="47.17006" lon="6.62819">
        <ele>862</ele>
        <time>2014-05-10T14:28:07.13</time>
      </trkpt>
      <trkpt lat="47.17003" lon="6.62807">
        <ele>863</ele>
        <time>2014-05-10T14:28:09.12</time>
      </trkpt>
      <trkpt lat="47.17" lon="6.62797">
        <ele>864</ele>
        <time>2014-05-10T14:28:11.10</time>
      </trkpt>
      <trkpt lat="47.16995" lon="6.62786">
        <ele>862</ele>
        <time>2014-05-10T14:28:13.12</time>
      </trkpt>
      <trkpt lat="47.16991" lon="6.62774">
        <ele>860</ele>
        <time>2014-05-10T14:28:15.11</time>
      </trkpt>
      <trkpt lat="47.16985" lon="6.62761">
        <ele>859</ele>
        <time>2014-05-10T14:28:17.16</time>
      </trkpt>
      <trkpt lat="47.16979" lon="6.62749">
        <ele>859</ele>
        <time>2014-05-10T14:28:19.12</time>
      </trkpt>
      <trkpt lat="47.16974" lon="6.62741">
        <ele>858</ele>
        <time>2014-05-10T14:28:21.15</time>
      </trkpt>
      <trkpt lat="47.16966" lon="6.62731">
        <ele>860</ele>
        <time>2014-05-10T14:28:24.14</time>
      </trkpt>
      <trkpt lat="47.1696" lon="6.62723">
        <ele>861</ele>
        <time>2014-05-10T14:28:26.10</time>
      </trkpt>
      <trkpt lat="47.16953" lon="6.62715">
        <ele>861</ele>
        <time>2014-05-10T14:28:28.12</time>
      </trkpt>
      <trkpt lat="47.16945" lon="6.62706">
        <ele>859</ele>
        <time>2014-05-10T14:28:30.13</time>
      </trkpt>
      <trkpt lat="47.16939" lon="6.62698">
        <ele>860</ele>
        <time>2014-05-10T14:28:32.88</time>
      </trkpt>
      <trkpt lat="47.16932" lon="6.62691">
        <ele>859</ele>
        <time>2014-05-10T14:28:34.20</time>
      </trkpt>
      <trkpt lat="47.16926" lon="6.62681">
        <ele>859</ele>
        <time>2014-05-10T14:28:36.10</time>
      </trkpt>
      <trkpt lat="47.16919" lon="6.62673">
        <ele>859</ele>
        <time>2014-05-10T14:28:38.12</time>
      </trkpt>
      <trkpt lat="47.16912" lon="6.62665">
        <ele>861</ele>
        <time>2014-05-10T14:28:40.10</time>
      </trkpt>
      <trkpt lat="47.16906" lon="6.62658">
        <ele>859</ele>
        <time>2014-05-10T14:28:42.10</time>
      </trkpt>
      <trkpt lat="47.169" lon="6.6265">
        <ele>860</ele>
        <time>2014-05-10T14:28:44.12</time>
      </trkpt>
      <trkpt lat="47.16894" lon="6.6264">
        <ele>859</ele>
        <time>2014-05-10T14:28:46.12</time>
      </trkpt>
      <trkpt lat="47.16891" lon="6.62629">
        <ele>860</ele>
        <time>2014-05-10T14:28:48.11</time>
      </trkpt>
      <trkpt lat="47.16888" lon="6.62618">
        <ele>862</ele>
        <time>2014-05-10T14:28:50.16</time>
      </trkpt>
      <trkpt lat="47.16887" lon="6.62607">
        <ele>866</ele>
        <time>2014-05-10T14:28:52.88</time>
      </trkpt>
      <trkpt lat="47.16886" lon="6.62593">
        <ele>865</ele>
        <time>2014-05-10T14:28:54.10</time>
      </trkpt>
      <trkpt lat="47.16886" lon="6.62579">
        <ele>866</ele>
        <time>2014-05-10T14:28:56.88</time>
      </trkpt>
      <trkpt lat="47.16887" lon="6.62564">
        <ele>864</ele>
        <time>2014-05-10T14:28:58.11</time>
      </trkpt>
      <trkpt lat="47.16888" lon="6.6255">
        <ele>864</ele>
        <time>2014-05-10T14:29:00.12</time>
      </trkpt>
      <trkpt lat="47.16889" lon="6.62538">
        <ele>863</ele>
        <time>2014-05-10T14:29:02.13</time>
      </trkpt>
      <trkpt lat="47.16889" lon="6.62526">
        <ele>864</ele>
        <time>2014-05-10T14:29:04.12</time>
      </trkpt>
      <trkpt lat="47.16888" lon="6.62514">
        <ele>865</ele>
        <time>2014-05-10T14:29:06.11</time>
      </trkpt>
      <trkpt lat="47.16885" lon="6.62502">
        <ele>865</ele>
        <time>2014-05-10T14:29:08.10</time>
      </trkpt>
      <trkpt lat="47.16882" lon="6.6249">
        <ele>865</ele>
        <time>2014-05-10T14:29:10.13</time>
      </trkpt>
      <trkpt lat="47.16879" lon="6.62478">
        <ele>865</ele>
        <time>2014-05-10T14:29:12.10</time>
      </trkpt>
      <trkpt lat="47.16876" lon="6.62465">
        <ele>864</ele>
        <time>2014-05-10T14:29:14.88</time>
      </trkpt>
      <trkpt lat="47.16873" lon="6.62452">
        <ele>864</ele>
        <time>2014-05-10T14:29:16.10</time>
      </trkpt>
      <trkpt lat="47.1687" lon="6.62442">
        <ele>864</ele>
        <time>2014-05-10T14:29:18.12</time>
      </trkpt>
      <trkpt lat="47.16867" lon="6.62432">
        <ele>866</ele>
        <time>2014-05-10T14:29:20.11</time>
      </trkpt>
      <trkpt lat="47.16863" lon="6.62421">
        <ele>865</ele>
        <time>2014-05-10T14:29:22.10</time>
      </trkpt>
      <trkpt lat="47.1686" lon="6.62408">
        <ele>865</ele>
        <time>2014-05-10T14:29:24.12</time>
      </trkpt>
      <trkpt lat="47.16857" lon="6.62395">
        <ele>864</ele>
        <time>2014-05-10T14:29:26.10</time>
      </trkpt>
      <trkpt lat="47.16855" lon="6.62383">
        <ele>865</ele>
        <time>2014-05-10T14:29:28.15</time>
      </trkpt>
      <trkpt lat="47.16854" lon="6.62371">
        <ele>867</ele>
        <time>2014-05-10T14:29:30.13</time>
      </trkpt>
      <trkpt lat="47.16852" lon="6.6236">
        <ele>869</ele>
        <time>2014-05-10T14:29:32.10</time>
      </trkpt>
      <trkpt lat="47.16848" lon="6.62349">
        <ele>869</ele>
        <time>2014-05-10T14:29:34.11</time>
      </trkpt>
      <trkpt lat="47.16843" lon="6.62336">
        <ele>869</ele>
        <time>2014-05-10T14:29:36.13</time>
      </trkpt>
      <trkpt lat="47.16836" lon="6.62327">
        <ele>868</ele>
        <time>2014-05-10T14:29:38.14</time>
      </trkpt>
      <trkpt lat="47.16829" lon="6.62318">
        <ele>869</ele>
        <time>2014-05-10T14:29:40.11</time>
      </trkpt>
      <trkpt lat="47.1682" lon="6.62309">
        <ele>870</ele>
        <time>2014-05-10T14:29:42.12</time>
      </trkpt>
      <trkpt lat="47.16812" lon="6.62302">
        <ele>869</ele>
        <time>2014-05-10T14:29:44.12</time>
      </trkpt>
      <trkpt lat="47.16803" lon="6.62294">
        <ele>867</ele>
        <time>2014-05-10T14:29:46.13</time>
      </trkpt>
      <trkpt lat="47.16795" lon="6.62286">
        <ele>866</ele>
        <time>2014-05-10T14:29:48.15</time>
      </trkpt>
      <trkpt lat="47.16788" lon="6.6228">
        <ele>866</ele>
        <time>2014-05-10T14:29:50.10</time>
      </trkpt>
      <trkpt lat="47.16781" lon="6.62273">
        <ele>868</ele>
        <time>2014-05-10T14:29:52.12</time>
      </trkpt>
      <trkpt lat="47.16774" lon="6.62266">
        <ele>867</ele>
        <time>2014-05-10T14:29:54.12</time>
      </trkpt>
      <trkpt lat="47.16766" lon="6.62257">
        <ele>867</ele>
        <time>2014-05-10T14:29:56.15</time>
      </trkpt>
      <trkpt lat="47.16759" lon="6.62248">
        <ele>866</ele>
        <time>2014-05-10T14:29:58.11</time>
      </trkpt>
      <trkpt lat="47.16753" lon="6.62241">
        <ele>867</ele>
        <time>2014-05-10T14:30:00.10</time>
      </trkpt>
      <trkpt lat="47.16747" lon="6.62233">
        <ele>867</ele>
        <time>2014-05-10T14:30:02.10</time>
      </trkpt>
      <trkpt lat="47.16739" lon="6.62224">
        <ele>868</ele>
        <time>2014-05-10T14:30:04.11</time>
      </trkpt>
      <trkpt lat="47.16732" lon="6.62214">
        <ele>868</ele>
        <time>2014-05-10T14:30:06.12</time>
      </trkpt>
      <trkpt lat="47.16725" lon="6.62204">
        <ele>868</ele>
        <time>2014-05-10T14:30:08.13</time>
      </trkpt>
      <trkpt lat="47.16719" lon="6.62196">
        <ele>868</ele>
        <time>2014-05-10T14:30:10.10</time>
      </trkpt>
      <trkpt lat="47.16713" lon="6.62188">
        <ele>868</ele>
        <time>2014-05-10T14:30:12.11</time>
      </trkpt>
      <trkpt lat="47.16706" lon="6.62179">
        <ele>872</ele>
        <time>2014-05-10T14:30:14.10</time>
      </trkpt>
      <trkpt lat="47.167" lon="6.62171">
        <ele>872</ele>
        <time>2014-05-10T14:30:16.14</time>
      </trkpt>
      <trkpt lat="47.16694" lon="6.62163">
        <ele>870</ele>
        <time>2014-05-10T14:30:18.10</time>
      </trkpt>
      <trkpt lat="47.16686" lon="6.62155">
        <ele>869</ele>
        <time>2014-05-10T14:30:20.12</time>
      </trkpt>
      <trkpt lat="47.16678" lon="6.62147">
        <ele>867</ele>
        <time>2014-05-10T14:30:22.10</time>
      </trkpt>
      <trkpt lat="47.16668" lon="6.62139">
        <ele>866</ele>
        <time>2014-05-10T14:30:24.14</time>
      </trkpt>
      <trkpt lat="47.16659" lon="6.62133">
        <ele>867</ele>
        <time>2014-05-10T14:30:26.11</time>
      </trkpt>
      <trkpt lat="47.16649" lon="6.62128">
        <ele>869</ele>
        <time>2014-05-10T14:30:28.10</time>
      </trkpt>
      <trkpt lat="47.16639" lon="6.62122">
        <ele>869</ele>
        <time>2014-05-10T14:30:30.13</time>
      </trkpt>
      <trkpt lat="47.16628" lon="6.62116">
        <ele>868</ele>
        <time>2014-05-10T14:30:32.12</time>
      </trkpt>
      <trkpt lat="47.16618" lon="6.62107">
        <ele>867</ele>
        <time>2014-05-10T14:30:34.12</time>
      </trkpt>
      <trkpt lat="47.16609" lon="6.62095">
        <ele>868</ele>
        <time>2014-05-10T14:30:36.11</time>
      </trkpt>
      <trkpt lat="47.16601" lon="6.62083">
        <ele>868</ele>
        <time>2014-05-10T14:30:38.12</time>
      </trkpt>
      <trkpt lat="47.16591" lon="6.62071">
        <ele>868</ele>
        <time>2014-05-10T14:30:40.11</time>
      </trkpt>
      <trkpt lat="47.16582" lon="6.62059">
        <ele>866</ele>
        <time>2014-05-10T14:30:42.11</time>
      </trkpt>
      <trkpt lat="47.16574" lon="6.62046">
        <ele>865</ele>
        <time>2014-05-10T14:30:44.13</time>
      </trkpt>
      <trkpt lat="47.16566" lon="6.62031">
        <ele>866</ele>
        <time>2014-05-10T14:30:46.13</time>
      </trkpt>
      <trkpt lat="47.1656" lon="6.62017">
        <ele>869</ele>
        <time>2014-05-10T14:30:48.11</time>
      </trkpt>
      <trkpt lat="47.16555" lon="6.62003">
        <ele>870</ele>
        <time>2014-05-10T14:30:50.11</time>
      </trkpt>
      <trkpt lat="47.1655" lon="6.61988">
        <ele>869</ele>
        <time>2014-05-10T14:30:52.11</time>
      </trkpt>
      <trkpt lat="47.16545" lon="6.61971">
        <ele>871</ele>
        <time>2014-05-10T14:30:54.11</time>
      </trkpt>
      <trkpt lat="47.16538" lon="6.61953">
        <ele>874</ele>
        <time>2014-05-10T14:30:56.11</time>
      </trkpt>
      <trkpt lat="47.16532" lon="6.61936">
        <ele>875</ele>
        <time>2014-05-10T14:30:58.11</time>
      </trkpt>
      <trkpt lat="47.16528" lon="6.61919">
        <ele>872</ele>
        <time>2014-05-10T14:31:00.11</time>
      </trkpt>
      <trkpt lat="47.16524" lon="6.61901">
        <ele>872</ele>
        <time>2014-05-10T14:31:02.12</time>
      </trkpt>
      <trkpt lat="47.16521" lon="6.61883">
        <ele>869</ele>
        <time>2014-05-10T14:31:04.14</time>
      </trkpt>
      <trkpt lat="47.16519" lon="6.61864">
        <ele>874</ele>
        <time>2014-05-10T14:31:06.12</time>
      </trkpt>
      <trkpt lat="47.16517" lon="6.61846">
        <ele>873</ele>
        <time>2014-05-10T14:31:08.12</time>
      </trkpt>
      <trkpt lat="47.16516" lon="6.61834">
        <ele>874</ele>
        <time>2014-05-10T14:31:09.11</time>
      </trkpt>
      <trkpt lat="47.16513" lon="6.61812">
        <ele>874</ele>
        <time>2014-05-10T14:31:11.11</time>
      </trkpt>
      <trkpt lat="47.16508" lon="6.61792">
        <ele>871</ele>
        <time>2014-05-10T14:31:13.12</time>
      </trkpt>
      <trkpt lat="47.16502" lon="6.61773">
        <ele>869</ele>
        <time>2014-05-10T14:31:15.14</time>
      </trkpt>
      <trkpt lat="47.16499" lon="6.61762">
        <ele>866</ele>
        <time>2014-05-10T14:31:16.12</time>
      </trkpt>
      <trkpt lat="47.16497" lon="6.61752">
        <ele>863</ele>
        <time>2014-05-10T14:31:17.13</time>
      </trkpt>
      <trkpt lat="47.16492" lon="6.61733">
        <ele>859</ele>
        <time>2014-05-10T14:31:19.11</time>
      </trkpt>
      <trkpt lat="47.16482" lon="6.6172">
        <ele>859</ele>
        <time>2014-05-10T14:31:21.13</time>
      </trkpt>
      <trkpt lat="47.1647" lon="6.61708">
        <ele>856</ele>
        <time>2014-05-10T14:31:23.14</time>
      </trkpt>
      <trkpt lat="47.16463" lon="6.61702">
        <ele>856</ele>
        <time>2014-05-10T14:31:24.15</time>
      </trkpt>
      <trkpt lat="47.16455" lon="6.61695">
        <ele>856</ele>
        <time>2014-05-10T14:31:25.10</time>
      </trkpt>
      <trkpt lat="47.16446" lon="6.61687">
        <ele>856</ele>
        <time>2014-05-10T14:31:26.14</time>
      </trkpt>
      <trkpt lat="47.16438" lon="6.61679">
        <ele>857</ele>
        <time>2014-05-10T14:31:27.11</time>
      </trkpt>
      <trkpt lat="47.16432" lon="6.61669">
        <ele>857</ele>
        <time>2014-05-10T14:31:28.12</time>
      </trkpt>
      <trkpt lat="47.16428" lon="6.6166">
        <ele>857</ele>
        <time>2014-05-10T14:31:29.11</time>
      </trkpt>
      <trkpt lat="47.16428" lon="6.61649">
        <ele>856</ele>
        <time>2014-05-10T14:31:30.11</time>
      </trkpt>
      <trkpt lat="47.1643" lon="6.61636">
        <ele>855</ele>
        <time>2014-05-10T14:31:31.11</time>
      </trkpt>
      <trkpt lat="47.16431" lon="6.61623">
        <ele>855</ele>
        <time>2014-05-10T14:31:32.12</time>
      </trkpt>
      <trkpt lat="47.16433" lon="6.61607">
        <ele>853</ele>
        <time>2014-05-10T14:31:33.11</time>
      </trkpt>
      <trkpt lat="47.16436" lon="6.61593">
        <ele>848</ele>
        <time>2014-05-10T14:31:34.11</time>
      </trkpt>
      <trkpt lat="47.16438" lon="6.61579">
        <ele>845</ele>
        <time>2014-05-10T14:31:35.11</time>
      </trkpt>
      <trkpt lat="47.16441" lon="6.61564">
        <ele>842</ele>
        <time>2014-05-10T14:31:36.12</time>
      </trkpt>
      <trkpt lat="47.1644" lon="6.6155">
        <ele>841</ele>
        <time>2014-05-10T14:31:37.12</time>
      </trkpt>
      <trkpt lat="47.16438" lon="6.61537">
        <ele>840</ele>
        <time>2014-05-10T14:31:38.13</time>
      </trkpt>
      <trkpt lat="47.16434" lon="6.61524">
        <ele>837</ele>
        <time>2014-05-10T14:31:39.10</time>
      </trkpt>
      <trkpt lat="47.16429" lon="6.61511">
        <ele>834</ele>
        <time>2014-05-10T14:31:40.13</time>
      </trkpt>
      <trkpt lat="47.16424" lon="6.61498">
        <ele>832</ele>
        <time>2014-05-10T14:31:41.10</time>
      </trkpt>
      <trkpt lat="47.16419" lon="6.61487">
        <ele>830</ele>
        <time>2014-05-10T14:31:42.12</time>
      </trkpt>
      <trkpt lat="47.16413" lon="6.61475">
        <ele>829</ele>
        <time>2014-05-10T14:31:43.11</time>
      </trkpt>
      <trkpt lat="47.16406" lon="6.61464">
        <ele>827</ele>
        <time>2014-05-10T14:31:44.13</time>
      </trkpt>
      <trkpt lat="47.164" lon="6.61452">
        <ele>826</ele>
        <time>2014-05-10T14:31:45.12</time>
      </trkpt>
      <trkpt lat="47.16393" lon="6.6144">
        <ele>822</ele>
        <time>2014-05-10T14:31:46.10</time>
      </trkpt>
      <trkpt lat="47.16387" lon="6.61427">
        <ele>822</ele>
        <time>2014-05-10T14:31:47.12</time>
      </trkpt>
      <trkpt lat="47.16382" lon="6.61416">
        <ele>821</ele>
        <time>2014-05-10T14:31:48.16</time>
      </trkpt>
      <trkpt lat="47.16377" lon="6.61405">
        <ele>822</ele>
        <time>2014-05-10T14:31:49.11</time>
      </trkpt>
      <trkpt lat="47.16372" lon="6.61395">
        <ele>824</ele>
        <time>2014-05-10T14:31:50.14</time>
      </trkpt>
      <trkpt lat="47.16366" lon="6.61385">
        <ele>823</ele>
        <time>2014-05-10T14:31:51.11</time>
      </trkpt>
      <trkpt lat="47.16361" lon="6.61376">
        <ele>822</ele>
        <time>2014-05-10T14:31:52.13</time>
      </trkpt>
      <trkpt lat="47.16356" lon="6.61366">
        <ele>823</ele>
        <time>2014-05-10T14:31:53.11</time>
      </trkpt>
      <trkpt lat="47.16353" lon="6.61349">
        <ele>822</ele>
        <time>2014-05-10T14:31:55.12</time>
      </trkpt>
      <trkpt lat="47.1635" lon="6.61327">
        <ele>823</ele>
        <time>2014-05-10T14:31:57.11</time>
      </trkpt>
      <trkpt lat="47.16349" lon="6.61312">
        <ele>820</ele>
        <time>2014-05-10T14:31:58.15</time>
      </trkpt>
      <trkpt lat="47.16348" lon="6.61297">
        <ele>817</ele>
        <time>2014-05-10T14:31:59.12</time>
      </trkpt>
      <trkpt lat="47.16347" lon="6.6128">
        <ele>816</ele>
        <time>2014-05-10T14:32:00.11</time>
      </trkpt>
      <trkpt lat="47.16345" lon="6.61263">
        <ele>814</ele>
        <time>2014-05-10T14:32:01.13</time>
      </trkpt>
      <trkpt lat="47.16342" lon="6.61246">
        <ele>816</ele>
        <time>2014-05-10T14:32:02.11</time>
      </trkpt>
      <trkpt lat="47.16338" lon="6.61229">
        <ele>814</ele>
        <time>2014-05-10T14:32:03.14</time>
      </trkpt>
      <trkpt lat="47.16333" lon="6.61216">
        <ele>812</ele>
        <time>2014-05-10T14:32:04.12</time>
      </trkpt>
      <trkpt lat="47.16328" lon="6.61205">
        <ele>811</ele>
        <time>2014-05-10T14:32:05.13</time>
      </trkpt>
      <trkpt lat="47.16324" lon="6.61196">
        <ele>809</ele>
        <time>2014-05-10T14:32:06.11</time>
      </trkpt>
      <trkpt lat="47.16317" lon="6.61184">
        <ele>810</ele>
        <time>2014-05-10T14:32:08.11</time>
      </trkpt>
      <trkpt lat="47.16308" lon="6.61181">
        <ele>807</ele>
        <time>2014-05-10T14:32:11.14</time>
      </trkpt>
      <trkpt lat="47.163" lon="6.6118">
        <ele>809</ele>
        <time>2014-05-10T14:32:13.12</time>
      </trkpt>
      <trkpt lat="47.16285" lon="6.61176">
        <ele>814</ele>
        <time>2014-05-10T14:32:15.14</time>
      </trkpt>
      <trkpt lat="47.16278" lon="6.61173">
        <ele>812</ele>
        <time>2014-05-10T14:32:16.12</time>
      </trkpt>
      <trkpt lat="47.16272" lon="6.61167">
        <ele>811</ele>
        <time>2014-05-10T14:32:17.12</time>
      </trkpt>
      <trkpt lat="47.16261" lon="6.61155">
        <ele>812</ele>
        <time>2014-05-10T14:32:19.11</time>
      </trkpt>
      <trkpt lat="47.1625" lon="6.61143">
        <ele>804</ele>
        <time>2014-05-10T14:32:21.11</time>
      </trkpt>
      <trkpt lat="47.16242" lon="6.61135">
        <ele>802</ele>
        <time>2014-05-10T14:32:23.12</time>
      </trkpt>
      <trkpt lat="47.16231" lon="6.61133">
        <ele>799</ele>
        <time>2014-05-10T14:32:25.11</time>
      </trkpt>
      <trkpt lat="47.16221" lon="6.6113">
        <ele>801</ele>
        <time>2014-05-10T14:32:27.13</time>
      </trkpt>
      <trkpt lat="47.16212" lon="6.61132">
        <ele>803</ele>
        <time>2014-05-10T14:32:29.12</time>
      </trkpt>
      <trkpt lat="47.16201" lon="6.61131">
        <ele>800</ele>
        <time>2014-05-10T14:32:31.13</time>
      </trkpt>
      <trkpt lat="47.16192" lon="6.61131">
        <ele>796</ele>
        <time>2014-05-10T14:32:33.88</time>
      </trkpt>
      <trkpt lat="47.1619" lon="6.61138">
        <ele>799</ele>
        <time>2014-05-10T14:32:40.12</time>
      </trkpt>
      <trkpt lat="47.16196" lon="6.6113">
        <ele>797</ele>
        <time>2014-05-10T14:32:41.10</time>
      </trkpt>
      <trkpt lat="47.16205" lon="6.61129">
        <ele>796</ele>
        <time>2014-05-10T14:32:44.48</time>
      </trkpt>
      <trkpt lat="47.16213" lon="6.61127">
        <ele>792</ele>
        <time>2014-05-10T14:32:47.28</time>
      </trkpt>
      <trkpt lat="47.16222" lon="6.61126">
        <ele>795</ele>
        <time>2014-05-10T14:32:50.48</time>
      </trkpt>
      <trkpt lat="47.1623" lon="6.61129">
        <ele>795</ele>
        <time>2014-05-10T14:32:53.68</time>
      </trkpt>
      <trkpt lat="47.16237" lon="6.61134">
        <ele>795</ele>
        <time>2014-05-10T14:32:56.38</time>
      </trkpt>
      <trkpt lat="47.16246" lon="6.6114">
        <ele>798</ele>
        <time>2014-05-10T14:32:58</time>
      </trkpt>
      <trkpt lat="47.16253" lon="6.61148">
        <ele>801</ele>
        <time>2014-05-10T14:33:00.88</time>
      </trkpt>
      <trkpt lat="47.16262" lon="6.61156">
        <ele>800</ele>
        <time>2014-05-10T14:33:03.68</time>
      </trkpt>
      <trkpt lat="47.16269" lon="6.61165">
        <ele>796</ele>
        <time>2014-05-10T14:33:05.48</time>
      </trkpt>
      <trkpt lat="47.16276" lon="6.61171">
        <ele>798</ele>
        <time>2014-05-10T14:33:07.48</time>
      </trkpt>
      <trkpt lat="47.16283" lon="6.61176">
        <ele>800</ele>
        <time>2014-05-10T14:33:09.48</time>
      </trkpt>
      <trkpt lat="47.16292" lon="6.61181">
        <ele>800</ele>
        <time>2014-05-10T14:33:12.68</time>
      </trkpt>
      <trkpt lat="47.163" lon="6.61183">
        <ele>803</ele>
        <time>2014-05-10T14:33:15.48</time>
      </trkpt>
      <trkpt lat="47.16307" lon="6.61183">
        <ele>802</ele>
        <time>2014-05-10T14:33:18.58</time>
      </trkpt>
      <trkpt lat="47.16314" lon="6.61187">
        <ele>803</ele>
        <time>2014-05-10T14:33:21.48</time>
      </trkpt>
      <trkpt lat="47.16319" lon="6.61196">
        <ele>805</ele>
        <time>2014-05-10T14:33:24.48</time>
      </trkpt>
      <trkpt lat="47.16325" lon="6.61206">
        <ele>803</ele>
        <time>2014-05-10T14:33:28.48</time>
      </trkpt>
      <trkpt lat="47.16329" lon="6.61215">
        <ele>806</ele>
        <time>2014-05-10T14:33:31.38</time>
      </trkpt>
      <trkpt lat="47.16338" lon="6.61215">
        <ele>809</ele>
        <time>2014-05-10T14:33:37.88</time>
      </trkpt>
      <trkpt lat="47.1634" lon="6.61204">
        <ele>810</ele>
        <time>2014-05-10T14:33:41.48</time>
      </trkpt>
      <trkpt lat="47.16342" lon="6.61191">
        <ele>815</ele>
        <time>2014-05-10T14:33:44.58</time>
      </trkpt>
      <trkpt lat="47.16344" lon="6.61178">
        <ele>815</ele>
        <time>2014-05-10T14:33:47.48</time>
      </trkpt>
      <trkpt lat="47.16345" lon="6.61172">
        <ele>812</ele>
        <time>2014-05-10T14:33:54.48</time>
      </trkpt>
      <trkpt lat="47.16341" lon="6.61156">
        <ele>815</ele>
        <time>2014-05-10T14:33:56.12</time>
      </trkpt>
      <trkpt lat="47.16335" lon="6.61147">
        <ele>810</ele>
        <time>2014-05-10T14:33:58.90</time>
      </trkpt>
      <trkpt lat="47.16332" lon="6.61134">
        <ele>802</ele>
        <time>2014-05-10T14:34:03.8</time>
      </trkpt>
      <trkpt lat="47.16325" lon="6.61123">
        <ele>799</ele>
        <time>2014-05-10T14:34:06.92</time>
      </trkpt>
      <trkpt lat="47.16317" lon="6.61119">
        <ele>800</ele>
        <time>2014-05-10T14:34:08.93</time>
      </trkpt>
      <trkpt lat="47.1631" lon="6.61113">
        <ele>798</ele>
        <time>2014-05-10T14:34:10.92</time>
      </trkpt>
      <trkpt lat="47.16303" lon="6.61109">
        <ele>797</ele>
        <time>2014-05-10T14:34:13.91</time>
      </trkpt>
      <trkpt lat="47.16295" lon="6.61103">
        <ele>791</ele>
        <time>2014-05-10T14:34:16.92</time>
      </trkpt>
      <trkpt lat="47.16288" lon="6.61099">
        <ele>797</ele>
        <time>2014-05-10T14:34:20.18</time>
      </trkpt>
      <trkpt lat="47.16285" lon="6.61092">
        <ele>788</ele>
        <time>2014-05-10T14:34:26.93</time>
      </trkpt>
      <trkpt lat="47.16292" lon="6.61088">
        <ele>783</ele>
        <time>2014-05-10T14:34:31.91</time>
      </trkpt>
      <trkpt lat="47.16289" lon="6.61083">
        <ele>784</ele>
        <time>2014-05-10T14:34:38.89</time>
      </trkpt>
      <trkpt lat="47.16281" lon="6.61082">
        <ele>775</ele>
        <time>2014-05-10T14:34:44.91</time>
      </trkpt>
      <trkpt lat="47.16286" lon="6.61073">
        <ele>769</ele>
        <time>2014-05-10T14:34:51.88</time>
      </trkpt>
      <trkpt lat="47.16291" lon="6.61068">
        <ele>766</ele>
        <time>2014-05-10T14:34:58.89</time>
      </trkpt>
      <trkpt lat="47.16293" lon="6.61063">
        <ele>772</ele>
        <time>2014-05-10T14:35:05.88</time>
      </trkpt>
      <trkpt lat="47.163" lon="6.61056">
        <ele>761</ele>
        <time>2014-05-10T14:35:10.88</time>
      </trkpt>
      <trkpt lat="47.16304" lon="6.61052">
        <ele>763</ele>
        <time>2014-05-10T14:35:17.89</time>
      </trkpt>
      <trkpt lat="47.1631" lon="6.61046">
        <ele>762</ele>
        <time>2014-05-10T14:35:24.97</time>
      </trkpt>
      <trkpt lat="47.16313" lon="6.61043">
        <ele>770</ele>
        <time>2014-05-10T14:35:31.89</time>
      </trkpt>
      <trkpt lat="47.1632" lon="6.61032">
        <ele>766</ele>
        <time>2014-05-10T14:35:38.92</time>
      </trkpt>
      <trkpt lat="47.16326" lon="6.61024">
        <ele>760</ele>
        <time>2014-05-10T14:35:41.87</time>
      </trkpt>
      <trkpt lat="47.16332" lon="6.61015">
        <ele>758</ele>
        <time>2014-05-10T14:35:45.88</time>
      </trkpt>
      <trkpt lat="47.16337" lon="6.61006">
        <ele>752</ele>
        <time>2014-05-10T14:35:50.86</time>
      </trkpt>
      <trkpt lat="47.16344" lon="6.60998">
        <ele>752</ele>
        <time>2014-05-10T14:35:54.98</time>
      </trkpt>
      <trkpt lat="47.16349" lon="6.6099">
        <ele>737</ele>
        <time>2014-05-10T14:35:59.89</time>
      </trkpt>
      <trkpt lat="47.16353" lon="6.60978">
        <ele>735</ele>
        <time>2014-05-10T14:36:04.18</time>
      </trkpt>
      <trkpt lat="47.1636" lon="6.60968">
        <ele>742</ele>
        <time>2014-05-10T14:36:06.88</time>
      </trkpt>
      <trkpt lat="47.16366" lon="6.60962">
        <ele>748</ele>
        <time>2014-05-10T14:36:12.87</time>
      </trkpt>
      <trkpt lat="47.16359" lon="6.60956">
        <ele>734</ele>
        <time>2014-05-10T14:36:18.89</time>
      </trkpt>
      <trkpt lat="47.16352" lon="6.60954">
        <ele>732</ele>
        <time>2014-05-10T14:36:21.87</time>
      </trkpt>
      <trkpt lat="47.16344" lon="6.60951">
        <ele>733</ele>
        <time>2014-05-10T14:36:25.88</time>
      </trkpt>
      <trkpt lat="47.16336" lon="6.60946">
        <ele>728</ele>
        <time>2014-05-10T14:36:29.88</time>
      </trkpt>
      <trkpt lat="47.16328" lon="6.60942">
        <ele>727</ele>
        <time>2014-05-10T14:36:33.89</time>
      </trkpt>
      <trkpt lat="47.16322" lon="6.60937">
        <ele>725</ele>
        <time>2014-05-10T14:36:35.90</time>
      </trkpt>
      <trkpt lat="47.16314" lon="6.60935">
        <ele>723</ele>
        <time>2014-05-10T14:36:37.87</time>
      </trkpt>
      <trkpt lat="47.16313" lon="6.60941">
        <ele>718</ele>
        <time>2014-05-10T14:36:44.87</time>
      </trkpt>
      <trkpt lat="47.16316" lon="6.60943">
        <ele>714</ele>
        <time>2014-05-10T14:36:51.90</time>
      </trkpt>
      <trkpt lat="47.16319" lon="6.60939">
        <ele>726</ele>
        <time>2014-05-10T14:36:55.90</time>
      </trkpt>
      <trkpt lat="47.1632" lon="6.60935">
        <ele>731</ele>
        <time>2014-05-10T14:37:02.88</time>
      </trkpt>
      <trkpt lat="47.16313" lon="6.60928">
        <ele>725</ele>
        <time>2014-05-10T14:37:09.87</time>
      </trkpt>
      <trkpt lat="47.16305" lon="6.60927">
        <ele>730</ele>
        <time>2014-05-10T14:37:11.86</time>
      </trkpt>
      <trkpt lat="47.16297" lon="6.60924">
        <ele>731</ele>
        <time>2014-05-10T14:37:13.85</time>
      </trkpt>
      <trkpt lat="47.16286" lon="6.60923">
        <ele>726</ele>
        <time>2014-05-10T14:37:15.84</time>
      </trkpt>
      <trkpt lat="47.16278" lon="6.60922">
        <ele>726</ele>
        <time>2014-05-10T14:37:16.87</time>
      </trkpt>
      <trkpt lat="47.1627" lon="6.60922">
        <ele>724</ele>
        <time>2014-05-10T14:37:17.86</time>
      </trkpt>
      <trkpt lat="47.16262" lon="6.60921">
        <ele>720</ele>
        <time>2014-05-10T14:37:18.86</time>
      </trkpt>
      <trkpt lat="47.16254" lon="6.6092">
        <ele>722</ele>
        <time>2014-05-10T14:37:19.84</time>
      </trkpt>
      <trkpt lat="47.16243" lon="6.60917">
        <ele>724</ele>
        <time>2014-05-10T14:37:21.86</time>
      </trkpt>
      <trkpt lat="47.16234" lon="6.60917">
        <ele>726</ele>
        <time>2014-05-10T14:37:23.87</time>
      </trkpt>
      <trkpt lat="47.16221" lon="6.60917">
        <ele>728</ele>
        <time>2014-05-10T14:37:25.88</time>
      </trkpt>
      <trkpt lat="47.16208" lon="6.60918">
        <ele>723</ele>
        <time>2014-05-10T14:37:27.87</time>
      </trkpt>
      <trkpt lat="47.16198" lon="6.60922">
        <ele>717</ele>
        <time>2014-05-10T14:37:29.86</time>
      </trkpt>
      <trkpt lat="47.16188" lon="6.60926">
        <ele>716</ele>
        <time>2014-05-10T14:37:31.84</time>
      </trkpt>
      <trkpt lat="47.16177" lon="6.60933">
        <ele>714</ele>
        <time>2014-05-10T14:37:33.85</time>
      </trkpt>
      <trkpt lat="47.16166" lon="6.6094">
        <ele>710</ele>
        <time>2014-05-10T14:37:35.85</time>
      </trkpt>
      <trkpt lat="47.16155" lon="6.6095">
        <ele>714</ele>
        <time>2014-05-10T14:37:37.86</time>
      </trkpt>
      <trkpt lat="47.16149" lon="6.60955">
        <ele>714</ele>
        <time>2014-05-10T14:37:38.89</time>
      </trkpt>
      <trkpt lat="47.16142" lon="6.60961">
        <ele>711</ele>
        <time>2014-05-10T14:37:39.87</time>
      </trkpt>
      <trkpt lat="47.16132" lon="6.60973">
        <ele>708</ele>
        <time>2014-05-10T14:37:41.87</time>
      </trkpt>
      <trkpt lat="47.16124" lon="6.60982">
        <ele>705</ele>
        <time>2014-05-10T14:37:43.83</time>
      </trkpt>
      <trkpt lat="47.16117" lon="6.6099">
        <ele>706</ele>
        <time>2014-05-10T14:37:45.88</time>
      </trkpt>
      <trkpt lat="47.16109" lon="6.61001">
        <ele>702</ele>
        <time>2014-05-10T14:37:47.84</time>
      </trkpt>
      <trkpt lat="47.16101" lon="6.61012">
        <ele>703</ele>
        <time>2014-05-10T14:37:49.85</time>
      </trkpt>
      <trkpt lat="47.16095" lon="6.61021">
        <ele>699</ele>
        <time>2014-05-10T14:37:51.84</time>
      </trkpt>
      <trkpt lat="47.1609" lon="6.61031">
        <ele>702</ele>
        <time>2014-05-10T14:37:53.87</time>
      </trkpt>
      <trkpt lat="47.16084" lon="6.61043">
        <ele>701</ele>
        <time>2014-05-10T14:37:56.84</time>
      </trkpt>
      <trkpt lat="47.16078" lon="6.61051">
        <ele>700</ele>
        <time>2014-05-10T14:37:58.85</time>
      </trkpt>
      <trkpt lat="47.16073" lon="6.61061">
        <ele>694</ele>
        <time>2014-05-10T14:38:01.85</time>
      </trkpt>
      <trkpt lat="47.16078" lon="6.61061">
        <ele>709</ele>
        <time>2014-05-10T14:38:08.87</time>
      </trkpt>
      <trkpt lat="47.16077" lon="6.61065">
        <ele>713</ele>
        <time>2014-05-10T14:38:15.87</time>
      </trkpt>
      <trkpt lat="47.16078" lon="6.61068">
        <ele>707</ele>
        <time>2014-05-10T14:38:22.85</time>
      </trkpt>
      <trkpt lat="47.16079" lon="6.61063">
        <ele>714</ele>
        <time>2014-05-10T14:38:29.83</time>
      </trkpt>
      <trkpt lat="47.1608" lon="6.61061">
        <ele>708</ele>
        <time>2014-05-10T14:38:36.84</time>
      </trkpt>
      <trkpt lat="47.16078" lon="6.61059">
        <ele>697</ele>
        <time>2014-05-10T14:38:43.84</time>
      </trkpt>
      <trkpt lat="47.16078" lon="6.61053">
        <ele>697</ele>
        <time>2014-05-10T14:38:50.88</time>
      </trkpt>
      <trkpt lat="47.16084" lon="6.61045">
        <ele>698</ele>
        <time>2014-05-10T14:38:57.87</time>
      </trkpt>
      <trkpt lat="47.16086" lon="6.61037">
        <ele>712</ele>
        <time>2014-05-10T14:39:04.91</time>
      </trkpt>
      <trkpt lat="47.16087" lon="6.61048">
        <ele>703</ele>
        <time>2014-05-10T14:39:05.95</time>
      </trkpt>
      <trkpt lat="47.16086" lon="6.61051">
        <ele>688</ele>
        <time>2014-05-10T14:39:12.92</time>
      </trkpt>
      <trkpt lat="47.1609" lon="6.61042">
        <ele>686</ele>
        <time>2014-05-10T14:39:19.94</time>
      </trkpt>
      <trkpt lat="47.16095" lon="6.61031">
        <ele>687</ele>
        <time>2014-05-10T14:39:22.92</time>
      </trkpt>
      <trkpt lat="47.161" lon="6.61016">
        <ele>689</ele>
        <time>2014-05-10T14:39:25.93</time>
      </trkpt>
      <trkpt lat="47.16104" lon="6.61007">
        <ele>687</ele>
        <time>2014-05-10T14:39:27.91</time>
      </trkpt>
      <trkpt lat="47.16111" lon="6.60995">
        <ele>688</ele>
        <time>2014-05-10T14:39:29.91</time>
      </trkpt>
      <trkpt lat="47.16118" lon="6.60985">
        <ele>688</ele>
        <time>2014-05-10T14:39:31.94</time>
      </trkpt>
      <trkpt lat="47.16126" lon="6.60971">
        <ele>690</ele>
        <time>2014-05-10T14:39:33.94</time>
      </trkpt>
      <trkpt lat="47.16133" lon="6.60958">
        <ele>692</ele>
        <time>2014-05-10T14:39:35.92</time>
      </trkpt>
      <trkpt lat="47.1614" lon="6.60949">
        <ele>689</ele>
        <time>2014-05-10T14:39:37.91</time>
      </trkpt>
      <trkpt lat="47.16147" lon="6.60937">
        <ele>686</ele>
        <time>2014-05-10T14:39:39.93</time>
      </trkpt>
      <trkpt lat="47.1615" lon="6.60926">
        <ele>684</ele>
        <time>2014-05-10T14:39:41.91</time>
      </trkpt>
      <trkpt lat="47.16153" lon="6.60915">
        <ele>686</ele>
        <time>2014-05-10T14:39:44.94</time>
      </trkpt>
      <trkpt lat="47.16161" lon="6.60906">
        <ele>689</ele>
        <time>2014-05-10T14:39:47.92</time>
      </trkpt>
      <trkpt lat="47.16168" lon="6.60903">
        <ele>688</ele>
        <time>2014-05-10T14:39:49.92</time>
      </trkpt>
      <trkpt lat="47.16176" lon="6.60894">
        <ele>686</ele>
        <time>2014-05-10T14:39:51.92</time>
      </trkpt>
      <trkpt lat="47.16186" lon="6.60886">
        <ele>684</ele>
        <time>2014-05-10T14:39:54.94</time>
      </trkpt>
      <trkpt lat="47.16195" lon="6.60882">
        <ele>682</ele>
        <time>2014-05-10T14:39:56.95</time>
      </trkpt>
      <trkpt lat="47.16205" lon="6.60877">
        <ele>678</ele>
        <time>2014-05-10T14:39:58.91</time>
      </trkpt>
      <trkpt lat="47.16218" lon="6.60872">
        <ele>678</ele>
        <time>2014-05-10T14:40:00.90</time>
      </trkpt>
      <trkpt lat="47.16232" lon="6.60871">
        <ele>679</ele>
        <time>2014-05-10T14:40:02.94</time>
      </trkpt>
      <trkpt lat="47.16239" lon="6.6087">
        <ele>679</ele>
        <time>2014-05-10T14:40:03.93</time>
      </trkpt>
      <trkpt lat="47.16252" lon="6.60868">
        <ele>680</ele>
        <time>2014-05-10T14:40:05.93</time>
      </trkpt>
      <trkpt lat="47.1626" lon="6.60867">
        <ele>679</ele>
        <time>2014-05-10T14:40:06.91</time>
      </trkpt>
      <trkpt lat="47.16272" lon="6.60866">
        <ele>676</ele>
        <time>2014-05-10T14:40:08.92</time>
      </trkpt>
      <trkpt lat="47.16285" lon="6.60863">
        <ele>677</ele>
        <time>2014-05-10T14:40:10.91</time>
      </trkpt>
      <trkpt lat="47.16293" lon="6.60862">
        <ele>676</ele>
        <time>2014-05-10T14:40:11.90</time>
      </trkpt>
      <trkpt lat="47.163" lon="6.60861">
        <ele>677</ele>
        <time>2014-05-10T14:40:12.94</time>
      </trkpt>
      <trkpt lat="47.16307" lon="6.6086">
        <ele>678</ele>
        <time>2014-05-10T14:40:13.93</time>
      </trkpt>
      <trkpt lat="47.16319" lon="6.60859">
        <ele>681</ele>
        <time>2014-05-10T14:40:15.92</time>
      </trkpt>
      <trkpt lat="47.16328" lon="6.60858">
        <ele>681</ele>
        <time>2014-05-10T14:40:17.94</time>
      </trkpt>
      <trkpt lat="47.16337" lon="6.60856">
        <ele>686</ele>
        <time>2014-05-10T14:40:20.93</time>
      </trkpt>
      <trkpt lat="47.16346" lon="6.60854">
        <ele>679</ele>
        <time>2014-05-10T14:40:26.92</time>
      </trkpt>
      <trkpt lat="47.16356" lon="6.60854">
        <ele>675</ele>
        <time>2014-05-10T14:40:30.91</time>
      </trkpt>
      <trkpt lat="47.16365" lon="6.60853">
        <ele>678</ele>
        <time>2014-05-10T14:40:34.91</time>
      </trkpt>
      <trkpt lat="47.16373" lon="6.60852">
        <ele>673</ele>
        <time>2014-05-10T14:40:37.93</time>
      </trkpt>
      <trkpt lat="47.16381" lon="6.60853">
        <ele>673</ele>
        <time>2014-05-10T14:40:40.92</time>
      </trkpt>
      <trkpt lat="47.16389" lon="6.60852">
        <ele>672</ele>
        <time>2014-05-10T14:40:43.93</time>
      </trkpt>
      <trkpt lat="47.16397" lon="6.60851">
        <ele>674</ele>
        <time>2014-05-10T14:40:46.93</time>
      </trkpt>
      <trkpt lat="47.16405" lon="6.6085">
        <ele>673</ele>
        <time>2014-05-10T14:40:50.92</time>
      </trkpt>
      <trkpt lat="47.16415" lon="6.6085">
        <ele>672</ele>
        <time>2014-05-10T14:40:54.95</time>
      </trkpt>
      <trkpt lat="47.16423" lon="6.60851">
        <ele>676</ele>
        <time>2014-05-10T14:40:58.92</time>
      </trkpt>
      <trkpt lat="47.16431" lon="6.60851">
        <ele>675</ele>
        <time>2014-05-10T14:41:01.91</time>
      </trkpt>
      <trkpt lat="47.16442" lon="6.60849">
        <ele>676</ele>
        <time>2014-05-10T14:41:08.92</time>
      </trkpt>
      <trkpt lat="47.16452" lon="6.60848">
        <ele>678</ele>
        <time>2014-05-10T14:41:14.93</time>
      </trkpt>
      <trkpt lat="47.16463" lon="6.60846">
        <ele>679</ele>
        <time>2014-05-10T14:41:20.92</time>
      </trkpt>
      <trkpt lat="47.16473" lon="6.60842">
        <ele>682</ele>
        <time>2014-05-10T14:41:26.91</time>
      </trkpt>
      <trkpt lat="47.16482" lon="6.60839">
        <ele>685</ele>
        <time>2014-05-10T14:41:32.96</time>
      </trkpt>
      <trkpt lat="47.16492" lon="6.60836">
        <ele>685</ele>
        <time>2014-05-10T14:41:38.92</time>
      </trkpt>
      <trkpt lat="47.16502" lon="6.60833">
        <ele>690</ele>
        <time>2014-05-10T14:41:44.94</time>
      </trkpt>
      <trkpt lat="47.16511" lon="6.60832">
        <ele>687</ele>
        <time>2014-05-10T14:41:49.93</time>
      </trkpt>
      <trkpt lat="47.16516" lon="6.60832">
        <ele>692</ele>
        <time>2014-05-10T14:41:56.92</time>
      </trkpt>
      <trkpt lat="47.16527" lon="6.60832">
        <ele>692</ele>
        <time>2014-05-10T14:41:59.91</time>
      </trkpt>
      <trkpt lat="47.16536" lon="6.60831">
        <ele>690</ele>
        <time>2014-05-10T14:42:02.92</time>
      </trkpt>
      <trkpt lat="47.16546" lon="6.6083">
        <ele>690</ele>
        <time>2014-05-10T14:42:08.93</time>
      </trkpt>
      <trkpt lat="47.16556" lon="6.60827">
        <ele>688</ele>
        <time>2014-05-10T14:42:13.92</time>
      </trkpt>
      <trkpt lat="47.16565" lon="6.60829">
        <ele>691</ele>
        <time>2014-05-10T14:42:19.95</time>
      </trkpt>
      <trkpt lat="47.16574" lon="6.60828">
        <ele>694</ele>
        <time>2014-05-10T14:42:24.92</time>
      </trkpt>
      <trkpt lat="47.16583" lon="6.60825">
        <ele>695</ele>
        <time>2014-05-10T14:42:28.94</time>
      </trkpt>
      <trkpt lat="47.16591" lon="6.60823">
        <ele>696</ele>
        <time>2014-05-10T14:42:34.94</time>
      </trkpt>
      <trkpt lat="47.16601" lon="6.60821">
        <ele>695</ele>
        <time>2014-05-10T14:42:39.91</time>
      </trkpt>
      <trkpt lat="47.1661" lon="6.60815">
        <ele>699</ele>
        <time>2014-05-10T14:42:45.94</time>
      </trkpt>
      <trkpt lat="47.1662" lon="6.60809">
        <ele>701</ele>
        <time>2014-05-10T14:42:51.91</time>
      </trkpt>
      <trkpt lat="47.16629" lon="6.60804">
        <ele>696</ele>
        <time>2014-05-10T14:42:57.92</time>
      </trkpt>
      <trkpt lat="47.16638" lon="6.60798">
        <ele>692</ele>
        <time>2014-05-10T14:43:02.92</time>
      </trkpt>
      <trkpt lat="47.16647" lon="6.60795">
        <ele>695</ele>
        <time>2014-05-10T14:43:07.91</time>
      </trkpt>
      <trkpt lat="47.16656" lon="6.60795">
        <ele>699</ele>
        <time>2014-05-10T14:43:13.90</time>
      </trkpt>
      <trkpt lat="47.16666" lon="6.60791">
        <ele>705</ele>
        <time>2014-05-10T14:43:21.91</time>
      </trkpt>
      <trkpt lat="47.16671" lon="6.6079">
        <ele>710</ele>
        <time>2014-05-10T14:43:28.91</time>
      </trkpt>
      <trkpt lat="47.1668" lon="6.60794">
        <ele>714</ele>
        <time>2014-05-10T14:43:31.92</time>
      </trkpt>
      <trkpt lat="47.16689" lon="6.60797">
        <ele>718</ele>
        <time>2014-05-10T14:43:35.93</time>
      </trkpt>
      <trkpt lat="47.16699" lon="6.608">
        <ele>716</ele>
        <time>2014-05-10T14:43:41.90</time>
      </trkpt>
      <trkpt lat="47.16714" lon="6.60807">
        <ele>720</ele>
        <time>2014-05-10T14:43:49.92</time>
      </trkpt>
      <trkpt lat="47.16721" lon="6.6081">
        <ele>722</ele>
        <time>2014-05-10T14:43:51.90</time>
      </trkpt>
      <trkpt lat="47.16731" lon="6.60813">
        <ele>720</ele>
        <time>2014-05-10T14:43:56.92</time>
      </trkpt>
      <trkpt lat="47.16742" lon="6.60817">
        <ele>722</ele>
        <time>2014-05-10T14:44:00.92</time>
      </trkpt>
      <trkpt lat="47.16754" lon="6.60826">
        <ele>723</ele>
        <time>2014-05-10T14:44:05.91</time>
      </trkpt>
      <trkpt lat="47.16761" lon="6.60831">
        <ele>720</ele>
        <time>2014-05-10T14:44:08.91</time>
      </trkpt>
      <trkpt lat="47.16768" lon="6.60836">
        <ele>719</ele>
        <time>2014-05-10T14:44:11.90</time>
      </trkpt>
      <trkpt lat="47.16776" lon="6.60844">
        <ele>721</ele>
        <time>2014-05-10T14:44:15.91</time>
      </trkpt>
      <trkpt lat="47.16784" lon="6.6085">
        <ele>720</ele>
        <time>2014-05-10T14:44:18.92</time>
      </trkpt>
      <trkpt lat="47.16792" lon="6.60858">
        <ele>723</ele>
        <time>2014-05-10T14:44:21.94</time>
      </trkpt>
      <trkpt lat="47.168" lon="6.60866">
        <ele>720</ele>
        <time>2014-05-10T14:44:24.91</time>
      </trkpt>
      <trkpt lat="47.16809" lon="6.60872">
        <ele>720</ele>
        <time>2014-05-10T14:44:27.94</time>
      </trkpt>
      <trkpt lat="47.16817" lon="6.60877">
        <ele>719</ele>
        <time>2014-05-10T14:44:30.91</time>
      </trkpt>
      <trkpt lat="47.16825" lon="6.60885">
        <ele>721</ele>
        <time>2014-05-10T14:44:33.91</time>
      </trkpt>
      <trkpt lat="47.16831" lon="6.60892">
        <ele>719</ele>
        <time>2014-05-10T14:44:36.93</time>
      </trkpt>
      <trkpt lat="47.16838" lon="6.60899">
        <ele>717</ele>
        <time>2014-05-10T14:44:39.91</time>
      </trkpt>
      <trkpt lat="47.16844" lon="6.60906">
        <ele>718</ele>
        <time>2014-05-10T14:44:42.92</time>
      </trkpt>
      <trkpt lat="47.1685" lon="6.60913">
        <ele>717</ele>
        <time>2014-05-10T14:44:45.91</time>
      </trkpt>
      <trkpt lat="47.16856" lon="6.60922">
        <ele>715</ele>
        <time>2014-05-10T14:44:48.93</time>
      </trkpt>
      <trkpt lat="47.16861" lon="6.60931">
        <ele>720</ele>
        <time>2014-05-10T14:44:51.99</time>
      </trkpt>
      <trkpt lat="47.16867" lon="6.60938">
        <ele>718</ele>
        <time>2014-05-10T14:44:54.92</time>
      </trkpt>
      <trkpt lat="47.16874" lon="6.60943">
        <ele>713</ele>
        <time>2014-05-10T14:44:57.91</time>
      </trkpt>
      <trkpt lat="47.16881" lon="6.6095">
        <ele>716</ele>
        <time>2014-05-10T14:45:00.91</time>
      </trkpt>
      <trkpt lat="47.16888" lon="6.60956">
        <ele>718</ele>
        <time>2014-05-10T14:45:02.91</time>
      </trkpt>
      <trkpt lat="47.16895" lon="6.60964">
        <ele>718</ele>
        <time>2014-05-10T14:45:05.93</time>
      </trkpt>
      <trkpt lat="47.16902" lon="6.60971">
        <ele>720</ele>
        <time>2014-05-10T14:45:08.91</time>
      </trkpt>
      <trkpt lat="47.1691" lon="6.60978">
        <ele>717</ele>
        <time>2014-05-10T14:45:11.91</time>
      </trkpt>
      <trkpt lat="47.16919" lon="6.60987">
        <ele>716</ele>
        <time>2014-05-10T14:45:14.92</time>
      </trkpt>
      <trkpt lat="47.16926" lon="6.60994">
        <ele>720</ele>
        <time>2014-05-10T14:45:17.91</time>
      </trkpt>
      <trkpt lat="47.16934" lon="6.60997">
        <ele>722</ele>
        <time>2014-05-10T14:45:20.94</time>
      </trkpt>
      <trkpt lat="47.16942" lon="6.61003">
        <ele>720</ele>
        <time>2014-05-10T14:45:23.98</time>
      </trkpt>
      <trkpt lat="47.16952" lon="6.61009">
        <ele>722</ele>
        <time>2014-05-10T14:45:26.95</time>
      </trkpt>
      <trkpt lat="47.16959" lon="6.61011">
        <ele>714</ele>
        <time>2014-05-10T14:45:28.93</time>
      </trkpt>
      <trkpt lat="47.16967" lon="6.61013">
        <ele>717</ele>
        <time>2014-05-10T14:45:30.93</time>
      </trkpt>
      <trkpt lat="47.16976" lon="6.61018">
        <ele>718</ele>
        <time>2014-05-10T14:45:32.93</time>
      </trkpt>
      <trkpt lat="47.16986" lon="6.61021">
        <ele>714</ele>
        <time>2014-05-10T14:45:34.94</time>
      </trkpt>
      <trkpt lat="47.16995" lon="6.61025">
        <ele>707</ele>
        <time>2014-05-10T14:45:36.91</time>
      </trkpt>
      <trkpt lat="47.17002" lon="6.61028">
        <ele>705</ele>
        <time>2014-05-10T14:45:38.90</time>
      </trkpt>
      <trkpt lat="47.17012" lon="6.61032">
        <ele>702</ele>
        <time>2014-05-10T14:45:41.91</time>
      </trkpt>
      <trkpt lat="47.17019" lon="6.61033">
        <ele>701</ele>
        <time>2014-05-10T14:45:43.93</time>
      </trkpt>
      <trkpt lat="47.1703" lon="6.61033">
        <ele>699</ele>
        <time>2014-05-10T14:45:46.93</time>
      </trkpt>
      <trkpt lat="47.17037" lon="6.61034">
        <ele>697</ele>
        <time>2014-05-10T14:45:48.95</time>
      </trkpt>
      <trkpt lat="47.17048" lon="6.61036">
        <ele>697</ele>
        <time>2014-05-10T14:45:51.91</time>
      </trkpt>
      <trkpt lat="47.17056" lon="6.61039">
        <ele>690</ele>
        <time>2014-05-10T14:45:53.93</time>
      </trkpt>
      <trkpt lat="47.17064" lon="6.61043">
        <ele>687</ele>
        <time>2014-05-10T14:45:55.94</time>
      </trkpt>
      <trkpt lat="47.17074" lon="6.61048">
        <ele>688</ele>
        <time>2014-05-10T14:45:57.94</time>
      </trkpt>
      <trkpt lat="47.17087" lon="6.61057">
        <ele>688</ele>
        <time>2014-05-10T14:45:59.93</time>
      </trkpt>
      <trkpt lat="47.17094" lon="6.61062">
        <ele>687</ele>
        <time>2014-05-10T14:46:00.93</time>
      </trkpt>
      <trkpt lat="47.17101" lon="6.61069">
        <ele>683</ele>
        <time>2014-05-10T14:46:01.94</time>
      </trkpt>
      <trkpt lat="47.17107" lon="6.61074">
        <ele>684</ele>
        <time>2014-05-10T14:46:02.91</time>
      </trkpt>
      <trkpt lat="47.17114" lon="6.61081">
        <ele>683</ele>
        <time>2014-05-10T14:46:03.91</time>
      </trkpt>
      <trkpt lat="47.17121" lon="6.61087">
        <ele>681</ele>
        <time>2014-05-10T14:46:04.91</time>
      </trkpt>
      <trkpt lat="47.17128" lon="6.61094">
        <ele>680</ele>
        <time>2014-05-10T14:46:05.92</time>
      </trkpt>
      <trkpt lat="47.17135" lon="6.61102">
        <ele>678</ele>
        <time>2014-05-10T14:46:06.94</time>
      </trkpt>
      <trkpt lat="47.17144" lon="6.61109">
        <ele>676</ele>
        <time>2014-05-10T14:46:07.92</time>
      </trkpt>
      <trkpt lat="47.17152" lon="6.61116">
        <ele>674</ele>
        <time>2014-05-10T14:46:08.93</time>
      </trkpt>
      <trkpt lat="47.17161" lon="6.61123">
        <ele>673</ele>
        <time>2014-05-10T14:46:09.93</time>
      </trkpt>
      <trkpt lat="47.1717" lon="6.61131">
        <ele>672</ele>
        <time>2014-05-10T14:46:10.92</time>
      </trkpt>
      <trkpt lat="47.17177" lon="6.61137">
        <ele>677</ele>
        <time>2014-05-10T14:46:11.92</time>
      </trkpt>
      <trkpt lat="47.17183" lon="6.61144">
        <ele>674</ele>
        <time>2014-05-10T14:46:12.96</time>
      </trkpt>
      <trkpt lat="47.17195" lon="6.61157">
        <ele>671</ele>
        <time>2014-05-10T14:46:14.92</time>
      </trkpt>
      <trkpt lat="47.172" lon="6.61165">
        <ele>670</ele>
        <time>2014-05-10T14:46:15.93</time>
      </trkpt>
      <trkpt lat="47.17205" lon="6.61173">
        <ele>669</ele>
        <time>2014-05-10T14:46:16.94</time>
      </trkpt>
      <trkpt lat="47.17213" lon="6.61185">
        <ele>667</ele>
        <time>2014-05-10T14:46:18.91</time>
      </trkpt>
      <trkpt lat="47.17222" lon="6.61196">
        <ele>664</ele>
        <time>2014-05-10T14:46:20.93</time>
      </trkpt>
      <trkpt lat="47.17231" lon="6.61207">
        <ele>662</ele>
        <time>2014-05-10T14:46:22.95</time>
      </trkpt>
      <trkpt lat="47.17237" lon="6.61215">
        <ele>662</ele>
        <time>2014-05-10T14:46:23.92</time>
      </trkpt>
      <trkpt lat="47.17246" lon="6.61223">
        <ele>663</ele>
        <time>2014-05-10T14:46:24.92</time>
      </trkpt>
      <trkpt lat="47.17253" lon="6.6123">
        <ele>662</ele>
        <time>2014-05-10T14:46:25.93</time>
      </trkpt>
      <trkpt lat="47.17262" lon="6.61239">
        <ele>661</ele>
        <time>2014-05-10T14:46:26.94</time>
      </trkpt>
      <trkpt lat="47.1727" lon="6.61246">
        <ele>658</ele>
        <time>2014-05-10T14:46:27.92</time>
      </trkpt>
      <trkpt lat="47.17276" lon="6.61252">
        <ele>658</ele>
        <time>2014-05-10T14:46:28.91</time>
      </trkpt>
      <trkpt lat="47.17282" lon="6.61258">
        <ele>658</ele>
        <time>2014-05-10T14:46:29.94</time>
      </trkpt>
      <trkpt lat="47.17292" lon="6.61267">
        <ele>659</ele>
        <time>2014-05-10T14:46:31.93</time>
      </trkpt>
      <trkpt lat="47.17303" lon="6.61277">
        <ele>656</ele>
        <time>2014-05-10T14:46:33.97</time>
      </trkpt>
      <trkpt lat="47.17314" lon="6.61286">
        <ele>649</ele>
        <time>2014-05-10T14:46:35.91</time>
      </trkpt>
      <trkpt lat="47.17324" lon="6.61293">
        <ele>650</ele>
        <time>2014-05-10T14:46:37.94</time>
      </trkpt>
      <trkpt lat="47.17331" lon="6.613">
        <ele>647</ele>
        <time>2014-05-10T14:46:39.91</time>
      </trkpt>
      <trkpt lat="47.17341" lon="6.61308">
        <ele>648</ele>
        <time>2014-05-10T14:46:41.92</time>
      </trkpt>
      <trkpt lat="47.17349" lon="6.61315">
        <ele>647</ele>
        <time>2014-05-10T14:46:44.96</time>
      </trkpt>
      <trkpt lat="47.17358" lon="6.61322">
        <ele>647</ele>
        <time>2014-05-10T14:46:47.91</time>
      </trkpt>
      <trkpt lat="47.17365" lon="6.61327">
        <ele>642</ele>
        <time>2014-05-10T14:46:49.95</time>
      </trkpt>
      <trkpt lat="47.17373" lon="6.61333">
        <ele>642</ele>
        <time>2014-05-10T14:46:51.92</time>
      </trkpt>
      <trkpt lat="47.17381" lon="6.6134">
        <ele>639</ele>
        <time>2014-05-10T14:46:53.95</time>
      </trkpt>
      <trkpt lat="47.17391" lon="6.61346">
        <ele>636</ele>
        <time>2014-05-10T14:46:55.95</time>
      </trkpt>
      <trkpt lat="47.17403" lon="6.61354">
        <ele>637</ele>
        <time>2014-05-10T14:46:57.91</time>
      </trkpt>
      <trkpt lat="47.17415" lon="6.61362">
        <ele>637</ele>
        <time>2014-05-10T14:46:59.95</time>
      </trkpt>
      <trkpt lat="47.17422" lon="6.61368">
        <ele>633</ele>
        <time>2014-05-10T14:47:00.96</time>
      </trkpt>
      <trkpt lat="47.17432" lon="6.61376">
        <ele>631</ele>
        <time>2014-05-10T14:47:02.95</time>
      </trkpt>
      <trkpt lat="47.17439" lon="6.61382">
        <ele>625</ele>
        <time>2014-05-10T14:47:03.92</time>
      </trkpt>
      <trkpt lat="47.17445" lon="6.61389">
        <ele>622</ele>
        <time>2014-05-10T14:47:04.95</time>
      </trkpt>
      <trkpt lat="47.1745" lon="6.61397">
        <ele>621</ele>
        <time>2014-05-10T14:47:05.95</time>
      </trkpt>
      <trkpt lat="47.17462" lon="6.61408">
        <ele>619</ele>
        <time>2014-05-10T14:47:07.95</time>
      </trkpt>
      <trkpt lat="47.17468" lon="6.61413">
        <ele>617</ele>
        <time>2014-05-10T14:47:08.92</time>
      </trkpt>
      <trkpt lat="47.1748" lon="6.61418">
        <ele>615</ele>
        <time>2014-05-10T14:47:10.94</time>
      </trkpt>
      <trkpt lat="47.1749" lon="6.61417">
        <ele>617</ele>
        <time>2014-05-10T14:47:12.94</time>
      </trkpt>
      <trkpt lat="47.17496" lon="6.61407">
        <ele>610</ele>
        <time>2014-05-10T14:47:15.92</time>
      </trkpt>
      <trkpt lat="47.17496" lon="6.61395">
        <ele>604</ele>
        <time>2014-05-10T14:47:18.91</time>
      </trkpt>
      <trkpt lat="47.17498" lon="6.61394">
        <ele>596</ele>
        <time>2014-05-10T14:47:25.96</time>
      </trkpt>
      <trkpt lat="47.17504" lon="6.61401">
        <ele>595</ele>
        <time>2014-05-10T14:47:28.92</time>
      </trkpt>
      <trkpt lat="47.1751" lon="6.61411">
        <ele>594</ele>
        <time>2014-05-10T14:47:32.96</time>
      </trkpt>
      <trkpt lat="47.17515" lon="6.61421">
        <ele>597</ele>
        <time>2014-05-10T14:47:37.99</time>
      </trkpt>
      <trkpt lat="47.17519" lon="6.61432">
        <ele>597</ele>
        <time>2014-05-10T14:47:41.94</time>
      </trkpt>
      <trkpt lat="47.17524" lon="6.61444">
        <ele>596</ele>
        <time>2014-05-10T14:47:45.90</time>
      </trkpt>
      <trkpt lat="47.17528" lon="6.61455">
        <ele>596</ele>
        <time>2014-05-10T14:47:49.91</time>
      </trkpt>
      <trkpt lat="47.17532" lon="6.61464">
        <ele>596</ele>
        <time>2014-05-10T14:47:53.94</time>
      </trkpt>
      <trkpt lat="47.17537" lon="6.61477">
        <ele>597</ele>
        <time>2014-05-10T14:47:57.95</time>
      </trkpt>
      <trkpt lat="47.17541" lon="6.61486">
        <ele>597</ele>
        <time>2014-05-10T14:48:00.92</time>
      </trkpt>
      <trkpt lat="47.17545" lon="6.61496">
        <ele>598</ele>
        <time>2014-05-10T14:48:03.96</time>
      </trkpt>
      <trkpt lat="47.17549" lon="6.61506">
        <ele>598</ele>
        <time>2014-05-10T14:48:06.94</time>
      </trkpt>
      <trkpt lat="47.17554" lon="6.61516">
        <ele>596</ele>
        <time>2014-05-10T14:48:09.93</time>
      </trkpt>
      <trkpt lat="47.17558" lon="6.61526">
        <ele>599</ele>
        <time>2014-05-10T14:48:12.97</time>
      </trkpt>
      <trkpt lat="47.17564" lon="6.61536">
        <ele>601</ele>
        <time>2014-05-10T14:48:15.94</time>
      </trkpt>
      <trkpt lat="47.17569" lon="6.61548">
        <ele>598</ele>
        <time>2014-05-10T14:48:18.96</time>
      </trkpt>
      <trkpt lat="47.17576" lon="6.61559">
        <ele>601</ele>
        <time>2014-05-10T14:48:21.93</time>
      </trkpt>
      <trkpt lat="47.17582" lon="6.61569">
        <ele>600</ele>
        <time>2014-05-10T14:48:24.92</time>
      </trkpt>
      <trkpt lat="47.17587" lon="6.61578">
        <ele>600</ele>
        <time>2014-05-10T14:48:27.95</time>
      </trkpt>
      <trkpt lat="47.17593" lon="6.61587">
        <ele>602</ele>
        <time>2014-05-10T14:48:30.93</time>
      </trkpt>
      <trkpt lat="47.176" lon="6.61597">
        <ele>601</ele>
        <time>2014-05-10T14:48:33.92</time>
      </trkpt>
      <trkpt lat="47.17606" lon="6.61606">
        <ele>602</ele>
        <time>2014-05-10T14:48:37.94</time>
      </trkpt>
      <trkpt lat="47.17614" lon="6.61616">
        <ele>603</ele>
        <time>2014-05-10T14:48:41.90</time>
      </trkpt>
      <trkpt lat="47.1762" lon="6.61626">
        <ele>603</ele>
        <time>2014-05-10T14:48:44.91</time>
      </trkpt>
      <trkpt lat="47.17627" lon="6.61635">
        <ele>603</ele>
        <time>2014-05-10T14:48:47.92</time>
      </trkpt>
      <trkpt lat="47.17633" lon="6.61642">
        <ele>604</ele>
        <time>2014-05-10T14:48:50.91</time>
      </trkpt>
      <trkpt lat="47.17638" lon="6.61649">
        <ele>605</ele>
        <time>2014-05-10T14:48:53.92</time>
      </trkpt>
      <trkpt lat="47.17644" lon="6.61657">
        <ele>606</ele>
        <time>2014-05-10T14:48:56.94</time>
      </trkpt>
      <trkpt lat="47.1765" lon="6.61665">
        <ele>606</ele>
        <time>2014-05-10T14:48:59.91</time>
      </trkpt>
      <trkpt lat="47.17655" lon="6.61674">
        <ele>606</ele>
        <time>2014-05-10T14:49:02.93</time>
      </trkpt>
      <trkpt lat="47.1766" lon="6.61683">
        <ele>605</ele>
        <time>2014-05-10T14:49:05.90</time>
      </trkpt>
      <trkpt lat="47.17665" lon="6.61692">
        <ele>606</ele>
        <time>2014-05-10T14:49:08.93</time>
      </trkpt>
      <trkpt lat="47.17669" lon="6.61701">
        <ele>606</ele>
        <time>2014-05-10T14:49:11.93</time>
      </trkpt>
      <trkpt lat="47.17674" lon="6.61711">
        <ele>606</ele>
        <time>2014-05-10T14:49:14.92</time>
      </trkpt>
      <trkpt lat="47.17679" lon="6.6172">
        <ele>607</ele>
        <time>2014-05-10T14:49:17.92</time>
      </trkpt>
      <trkpt lat="47.17683" lon="6.61728">
        <ele>608</ele>
        <time>2014-05-10T14:49:20.98</time>
      </trkpt>
      <trkpt lat="47.1769" lon="6.61738">
        <ele>609</ele>
        <time>2014-05-10T14:49:24.92</time>
      </trkpt>
      <trkpt lat="47.17695" lon="6.61746">
        <ele>609</ele>
        <time>2014-05-10T14:49:27.93</time>
      </trkpt>
      <trkpt lat="47.177" lon="6.61755">
        <ele>609</ele>
        <time>2014-05-10T14:49:30.91</time>
      </trkpt>
      <trkpt lat="47.17706" lon="6.61765">
        <ele>610</ele>
        <time>2014-05-10T14:49:34.93</time>
      </trkpt>
      <trkpt lat="47.17713" lon="6.61774">
        <ele>611</ele>
        <time>2014-05-10T14:49:38.94</time>
      </trkpt>
      <trkpt lat="47.17718" lon="6.61782">
        <ele>610</ele>
        <time>2014-05-10T14:49:41.92</time>
      </trkpt>
      <trkpt lat="47.17723" lon="6.61789">
        <ele>610</ele>
        <time>2014-05-10T14:49:44.94</time>
      </trkpt>
      <trkpt lat="47.1773" lon="6.61798">
        <ele>611</ele>
        <time>2014-05-10T14:49:48.95</time>
      </trkpt>
      <trkpt lat="47.17735" lon="6.61805">
        <ele>612</ele>
        <time>2014-05-10T14:49:51.92</time>
      </trkpt>
      <trkpt lat="47.17741" lon="6.61814">
        <ele>612</ele>
        <time>2014-05-10T14:49:55.95</time>
      </trkpt>
      <trkpt lat="47.17747" lon="6.61822">
        <ele>613</ele>
        <time>2014-05-10T14:49:59.89</time>
      </trkpt>
      <trkpt lat="47.17752" lon="6.61831">
        <ele>614</ele>
        <time>2014-05-10T14:50:03.89</time>
      </trkpt>
      <trkpt lat="47.17756" lon="6.61841">
        <ele>614</ele>
        <time>2014-05-10T14:50:07.91</time>
      </trkpt>
      <trkpt lat="47.1776" lon="6.61852">
        <ele>613</ele>
        <time>2014-05-10T14:50:11.93</time>
      </trkpt>
      <trkpt lat="47.17764" lon="6.61863">
        <ele>613</ele>
        <time>2014-05-10T14:50:15.89</time>
      </trkpt>
      <trkpt lat="47.17769" lon="6.61874">
        <ele>616</ele>
        <time>2014-05-10T14:50:19.89</time>
      </trkpt>
      <trkpt lat="47.17774" lon="6.61883">
        <ele>618</ele>
        <time>2014-05-10T14:50:23.90</time>
      </trkpt>
      <trkpt lat="47.17779" lon="6.61893">
        <ele>619</ele>
        <time>2014-05-10T14:50:27.91</time>
      </trkpt>
      <trkpt lat="47.17783" lon="6.61902">
        <ele>619</ele>
        <time>2014-05-10T14:50:31.91</time>
      </trkpt>
      <trkpt lat="47.17789" lon="6.61911">
        <ele>621</ele>
        <time>2014-05-10T14:50:35.90</time>
      </trkpt>
      <trkpt lat="47.17794" lon="6.6192">
        <ele>619</ele>
        <time>2014-05-10T14:50:39.91</time>
      </trkpt>
      <trkpt lat="47.178" lon="6.61929">
        <ele>619</ele>
        <time>2014-05-10T14:50:43.90</time>
      </trkpt>
      <trkpt lat="47.17804" lon="6.61938">
        <ele>615</ele>
        <time>2014-05-10T14:50:46.91</time>
      </trkpt>
      <trkpt lat="47.17809" lon="6.61949">
        <ele>621</ele>
        <time>2014-05-10T14:50:50.91</time>
      </trkpt>
      <trkpt lat="47.17814" lon="6.61958">
        <ele>625</ele>
        <time>2014-05-10T14:50:55.90</time>
      </trkpt>
      <trkpt lat="47.17816" lon="6.61968">
        <ele>626</ele>
        <time>2014-05-10T14:50:59.91</time>
      </trkpt>
      <trkpt lat="47.17819" lon="6.6198">
        <ele>627</ele>
        <time>2014-05-10T14:51:03.92</time>
      </trkpt>
      <trkpt lat="47.17821" lon="6.61991">
        <ele>630</ele>
        <time>2014-05-10T14:51:07.89</time>
      </trkpt>
      <trkpt lat="47.17825" lon="6.62002">
        <ele>627</ele>
        <time>2014-05-10T14:51:11.91</time>
      </trkpt>
      <trkpt lat="47.17828" lon="6.62013">
        <ele>628</ele>
        <time>2014-05-10T14:51:15.90</time>
      </trkpt>
      <trkpt lat="47.1783" lon="6.62025">
        <ele>625</ele>
        <time>2014-05-10T14:51:19.93</time>
      </trkpt>
      <trkpt lat="47.17833" lon="6.62036">
        <ele>630</ele>
        <time>2014-05-10T14:51:24.91</time>
      </trkpt>
      <trkpt lat="47.17836" lon="6.62047">
        <ele>634</ele>
        <time>2014-05-10T14:51:28.97</time>
      </trkpt>
      <trkpt lat="47.1784" lon="6.62056">
        <ele>633</ele>
        <time>2014-05-10T14:51:31.90</time>
      </trkpt>
      <trkpt lat="47.17843" lon="6.62067">
        <ele>632</ele>
        <time>2014-05-10T14:51:35.92</time>
      </trkpt>
      <trkpt lat="47.17846" lon="6.62076">
        <ele>639</ele>
        <time>2014-05-10T14:51:40.93</time>
      </trkpt>
      <trkpt lat="47.17851" lon="6.62085">
        <ele>643</ele>
        <time>2014-05-10T14:51:47.91</time>
      </trkpt>
      <trkpt lat="47.17855" lon="6.62085">
        <ele>637</ele>
        <time>2014-05-10T14:51:54.92</time>
      </trkpt>
      <trkpt lat="47.17855" lon="6.6209">
        <ele>637</ele>
        <time>2014-05-10T14:51:55.96</time>
      </trkpt>
      <trkpt lat="47.17859" lon="6.62094">
        <ele>639</ele>
        <time>2014-05-10T14:52:02.88</time>
      </trkpt>
      <trkpt lat="47.17863" lon="6.62096">
        <ele>639</ele>
        <time>2014-05-10T14:52:09.91</time>
      </trkpt>
      <trkpt lat="47.17869" lon="6.62104">
        <ele>642</ele>
        <time>2014-05-10T14:52:13.88</time>
      </trkpt>
      <trkpt lat="47.17877" lon="6.62112">
        <ele>639</ele>
        <time>2014-05-10T14:52:17.88</time>
      </trkpt>
      <trkpt lat="47.17883" lon="6.62118">
        <ele>635</ele>
        <time>2014-05-10T14:52:20.88</time>
      </trkpt>
      <trkpt lat="47.1789" lon="6.62124">
        <ele>636</ele>
        <time>2014-05-10T14:52:23.89</time>
      </trkpt>
      <trkpt lat="47.17897" lon="6.62129">
        <ele>637</ele>
        <time>2014-05-10T14:52:26.88</time>
      </trkpt>
      <trkpt lat="47.17903" lon="6.62136">
        <ele>635</ele>
        <time>2014-05-10T14:52:29.88</time>
      </trkpt>
      <trkpt lat="47.1791" lon="6.62144">
        <ele>638</ele>
        <time>2014-05-10T14:52:33.91</time>
      </trkpt>
      <trkpt lat="47.17916" lon="6.62151">
        <ele>638</ele>
        <time>2014-05-10T14:52:36.88</time>
      </trkpt>
      <trkpt lat="47.17922" lon="6.62159">
        <ele>638</ele>
        <time>2014-05-10T14:52:39.89</time>
      </trkpt>
      <trkpt lat="47.17927" lon="6.62166">
        <ele>639</ele>
        <time>2014-05-10T14:52:42.92</time>
      </trkpt>
      <trkpt lat="47.17933" lon="6.62177">
        <ele>639</ele>
        <time>2014-05-10T14:52:46.89</time>
      </trkpt>
      <trkpt lat="47.17938" lon="6.62186">
        <ele>639</ele>
        <time>2014-05-10T14:52:49.91</time>
      </trkpt>
      <trkpt lat="47.17942" lon="6.62195">
        <ele>639</ele>
        <time>2014-05-10T14:52:52.90</time>
      </trkpt>
      <trkpt lat="47.17946" lon="6.62205">
        <ele>639</ele>
        <time>2014-05-10T14:52:55.89</time>
      </trkpt>
      <trkpt lat="47.17952" lon="6.62216">
        <ele>639</ele>
        <time>2014-05-10T14:52:59.88</time>
      </trkpt>
      <trkpt lat="47.17956" lon="6.62228">
        <ele>640</ele>
        <time>2014-05-10T14:53:03.88</time>
      </trkpt>
      <trkpt lat="47.17961" lon="6.62239">
        <ele>641</ele>
        <time>2014-05-10T14:53:07.89</time>
      </trkpt>
      <trkpt lat="47.17963" lon="6.62243">
        <ele>642</ele>
        <time>2014-05-10T14:53:14.91</time>
      </trkpt>
      <trkpt lat="47.17967" lon="6.62249">
        <ele>640</ele>
        <time>2014-05-10T14:53:21.94</time>
      </trkpt>
      <trkpt lat="47.1797" lon="6.62253">
        <ele>639</ele>
        <time>2014-05-10T14:53:28.92</time>
      </trkpt>
      <trkpt lat="47.17978" lon="6.62261">
        <ele>642</ele>
        <time>2014-05-10T14:53:32.94</time>
      </trkpt>
      <trkpt lat="47.17987" lon="6.62268">
        <ele>645</ele>
        <time>2014-05-10T14:53:36.93</time>
      </trkpt>
      <trkpt lat="47.17996" lon="6.62265">
        <ele>643</ele>
        <time>2014-05-10T14:53:40.91</time>
      </trkpt>
      <trkpt lat="47.18004" lon="6.62257">
        <ele>639</ele>
        <time>2014-05-10T14:53:44.92</time>
      </trkpt>
      <trkpt lat="47.18008" lon="6.62245">
        <ele>641</ele>
        <time>2014-05-10T14:53:46.94</time>
      </trkpt>
      <trkpt lat="47.18018" lon="6.6223">
        <ele>639</ele>
        <time>2014-05-10T14:53:48.93</time>
      </trkpt>
      <trkpt lat="47.18023" lon="6.62223">
        <ele>638</ele>
        <time>2014-05-10T14:53:49.92</time>
      </trkpt>
      <trkpt lat="47.18031" lon="6.62216">
        <ele>637</ele>
        <time>2014-05-10T14:53:50.92</time>
      </trkpt>
      <trkpt lat="47.18039" lon="6.62208">
        <ele>635</ele>
        <time>2014-05-10T14:53:51.92</time>
      </trkpt>
      <trkpt lat="47.18048" lon="6.622">
        <ele>636</ele>
        <time>2014-05-10T14:53:52.92</time>
      </trkpt>
      <trkpt lat="47.18058" lon="6.62191">
        <ele>635</ele>
        <time>2014-05-10T14:53:53.95</time>
      </trkpt>
      <trkpt lat="47.18069" lon="6.62182">
        <ele>634</ele>
        <time>2014-05-10T14:53:54.92</time>
      </trkpt>
      <trkpt lat="47.1808" lon="6.62171">
        <ele>631</ele>
        <time>2014-05-10T14:53:55.93</time>
      </trkpt>
      <trkpt lat="47.1809" lon="6.62162">
        <ele>629</ele>
        <time>2014-05-10T14:53:56.90</time>
      </trkpt>
      <trkpt lat="47.18099" lon="6.62152">
        <ele>627</ele>
        <time>2014-05-10T14:53:57.90</time>
      </trkpt>
      <trkpt lat="47.18106" lon="6.62145">
        <ele>626</ele>
        <time>2014-05-10T14:53:58.94</time>
      </trkpt>
      <trkpt lat="47.18115" lon="6.62135">
        <ele>625</ele>
        <time>2014-05-10T14:54:00.92</time>
      </trkpt>
      <trkpt lat="47.18126" lon="6.62131">
        <ele>620</ele>
        <time>2014-05-10T14:54:02.93</time>
      </trkpt>
      <trkpt lat="47.18135" lon="6.62136">
        <ele>620</ele>
        <time>2014-05-10T14:54:04.90</time>
      </trkpt>
      <trkpt lat="47.18142" lon="6.62144">
        <ele>621</ele>
        <time>2014-05-10T14:54:06.94</time>
      </trkpt>
      <trkpt lat="47.18149" lon="6.62153">
        <ele>621</ele>
        <time>2014-05-10T14:54:08.93</time>
      </trkpt>
      <trkpt lat="47.18156" lon="6.62163">
        <ele>620</ele>
        <time>2014-05-10T14:54:10.96</time>
      </trkpt>
      <trkpt lat="47.18162" lon="6.62172">
        <ele>619</ele>
        <time>2014-05-10T14:54:12.95</time>
      </trkpt>
      <trkpt lat="47.18167" lon="6.62179">
        <ele>620</ele>
        <time>2014-05-10T14:54:14.95</time>
      </trkpt>
      <trkpt lat="47.18174" lon="6.62192">
        <ele>621</ele>
        <time>2014-05-10T14:54:17.90</time>
      </trkpt>
      <trkpt lat="47.18179" lon="6.622">
        <ele>621</ele>
        <time>2014-05-10T14:54:19.92</time>
      </trkpt>
      <trkpt lat="47.18185" lon="6.62211">
        <ele>622</ele>
        <time>2014-05-10T14:54:22.93</time>
      </trkpt>
      <trkpt lat="47.18191" lon="6.62222">
        <ele>624</ele>
        <time>2014-05-10T14:54:25.92</time>
      </trkpt>
      <trkpt lat="47.18197" lon="6.62234">
        <ele>625</ele>
        <time>2014-05-10T14:54:28.95</time>
      </trkpt>
      <trkpt lat="47.18201" lon="6.62243">
        <ele>625</ele>
        <time>2014-05-10T14:54:30.96</time>
      </trkpt>
      <trkpt lat="47.18205" lon="6.62252">
        <ele>625</ele>
        <time>2014-05-10T14:54:32.92</time>
      </trkpt>
      <trkpt lat="47.1821" lon="6.62262">
        <ele>625</ele>
        <time>2014-05-10T14:54:34.95</time>
      </trkpt>
      <trkpt lat="47.18214" lon="6.62271">
        <ele>625</ele>
        <time>2014-05-10T14:54:36.92</time>
      </trkpt>
      <trkpt lat="47.18218" lon="6.62281">
        <ele>625</ele>
        <time>2014-05-10T14:54:38.92</time>
      </trkpt>
      <trkpt lat="47.18223" lon="6.62294">
        <ele>625</ele>
        <time>2014-05-10T14:54:41.89</time>
      </trkpt>
      <trkpt lat="47.18228" lon="6.62306">
        <ele>626</ele>
        <time>2014-05-10T14:54:44.92</time>
      </trkpt>
      <trkpt lat="47.18233" lon="6.62315">
        <ele>626</ele>
        <time>2014-05-10T14:54:46.90</time>
      </trkpt>
      <trkpt lat="47.18237" lon="6.62324">
        <ele>626</ele>
        <time>2014-05-10T14:54:48.93</time>
      </trkpt>
      <trkpt lat="47.18243" lon="6.62334">
        <ele>625</ele>
        <time>2014-05-10T14:54:50.90</time>
      </trkpt>
      <trkpt lat="47.18248" lon="6.62344">
        <ele>624</ele>
        <time>2014-05-10T14:54:52.92</time>
      </trkpt>
      <trkpt lat="47.18249" lon="6.62355">
        <ele>622</ele>
        <time>2014-05-10T14:54:54.91</time>
      </trkpt>
      <trkpt lat="47.18247" lon="6.62368">
        <ele>625</ele>
        <time>2014-05-10T14:54:56.97</time>
      </trkpt>
      <trkpt lat="47.18241" lon="6.62381">
        <ele>626</ele>
        <time>2014-05-10T14:54:58.91</time>
      </trkpt>
      <trkpt lat="47.18233" lon="6.62388">
        <ele>627</ele>
        <time>2014-05-10T14:55:00.92</time>
      </trkpt>
      <trkpt lat="47.18226" lon="6.62393">
        <ele>628</ele>
        <time>2014-05-10T14:55:02.92</time>
      </trkpt>
      <trkpt lat="47.18224" lon="6.62414">
        <ele>629</ele>
        <time>2014-05-10T14:55:09.91</time>
      </trkpt>
      <trkpt lat="47.18221" lon="6.62431">
        <ele>629</ele>
        <time>2014-05-10T14:55:12.92</time>
      </trkpt>
      <trkpt lat="47.18221" lon="6.62445">
        <ele>626</ele>
        <time>2014-05-10T14:55:14.93</time>
      </trkpt>
      <trkpt lat="47.18218" lon="6.62458">
        <ele>627</ele>
        <time>2014-05-10T14:55:16.91</time>
      </trkpt>
      <trkpt lat="47.18218" lon="6.62472">
        <ele>625</ele>
        <time>2014-05-10T14:55:18.91</time>
      </trkpt>
      <trkpt lat="47.1822" lon="6.62487">
        <ele>627</ele>
        <time>2014-05-10T14:55:20.90</time>
      </trkpt>
      <trkpt lat="47.18224" lon="6.62503">
        <ele>625</ele>
        <time>2014-05-10T14:55:22.91</time>
      </trkpt>
      <trkpt lat="47.18226" lon="6.62514">
        <ele>621</ele>
        <time>2014-05-10T14:55:23.93</time>
      </trkpt>
      <trkpt lat="47.18229" lon="6.62531">
        <ele>617</ele>
        <time>2014-05-10T14:55:25.91</time>
      </trkpt>
      <trkpt lat="47.18226" lon="6.62546">
        <ele>614</ele>
        <time>2014-05-10T14:55:29.92</time>
      </trkpt>
      <trkpt lat="47.18216" lon="6.62553">
        <ele>610</ele>
        <time>2014-05-10T14:55:31.91</time>
      </trkpt>
      <trkpt lat="47.18205" lon="6.62561">
        <ele>608</ele>
        <time>2014-05-10T14:55:33.94</time>
      </trkpt>
      <trkpt lat="47.18195" lon="6.62568">
        <ele>608</ele>
        <time>2014-05-10T14:55:35.91</time>
      </trkpt>
      <trkpt lat="47.18185" lon="6.62574">
        <ele>604</ele>
        <time>2014-05-10T14:55:37.91</time>
      </trkpt>
      <trkpt lat="47.18178" lon="6.62581">
        <ele>605</ele>
        <time>2014-05-10T14:55:39.90</time>
      </trkpt>
      <trkpt lat="47.18172" lon="6.6259">
        <ele>606</ele>
        <time>2014-05-10T14:55:41.91</time>
      </trkpt>
      <trkpt lat="47.18171" lon="6.62602">
        <ele>606</ele>
        <time>2014-05-10T14:55:43.91</time>
      </trkpt>
      <trkpt lat="47.18176" lon="6.62616">
        <ele>600</ele>
        <time>2014-05-10T14:55:45.91</time>
      </trkpt>
      <trkpt lat="47.18186" lon="6.62627">
        <ele>597</ele>
        <time>2014-05-10T14:55:47.95</time>
      </trkpt>
      <trkpt lat="47.18196" lon="6.62636">
        <ele>593</ele>
        <time>2014-05-10T14:55:49.93</time>
      </trkpt>
      <trkpt lat="47.18205" lon="6.62638">
        <ele>594</ele>
        <time>2014-05-10T14:55:51.91</time>
      </trkpt>
      <trkpt lat="47.18213" lon="6.62641">
        <ele>592</ele>
        <time>2014-05-10T14:55:53.91</time>
      </trkpt>
      <trkpt lat="47.18221" lon="6.62641">
        <ele>594</ele>
        <time>2014-05-10T14:55:55.94</time>
      </trkpt>
      <trkpt lat="47.18228" lon="6.6264">
        <ele>595</ele>
        <time>2014-05-10T14:55:57.96</time>
      </trkpt>
      <trkpt lat="47.18236" lon="6.62633">
        <ele>597</ele>
        <time>2014-05-10T14:55:59.92</time>
      </trkpt>
      <trkpt lat="47.18243" lon="6.62624">
        <ele>600</ele>
        <time>2014-05-10T14:56:01.91</time>
      </trkpt>
      <trkpt lat="47.18245" lon="6.62621">
        <ele>603</ele>
        <time>2014-05-10T14:56:08.93</time>
      </trkpt>
      <trkpt lat="47.1825" lon="6.62608">
        <ele>619</ele>
        <time>2014-05-10T14:56:09.93</time>
      </trkpt>
      <trkpt lat="47.18242" lon="6.62617">
        <ele>628</ele>
        <time>2014-05-10T14:56:16.96</time>
      </trkpt>
      <trkpt lat="47.18241" lon="6.62624">
        <ele>636</ele>
        <time>2014-05-10T14:56:23.91</time>
      </trkpt>
      <trkpt lat="47.18242" lon="6.6263">
        <ele>649</ele>
        <time>2014-05-10T14:56:30.94</time>
      </trkpt>
      <trkpt lat="47.18242" lon="6.62634">
        <ele>638</ele>
        <time>2014-05-10T14:56:37.90</time>
      </trkpt>
      <trkpt lat="47.18243" lon="6.62638">
        <ele>634</ele>
        <time>2014-05-10T14:56:44.91</time>
      </trkpt>
      <trkpt lat="47.18242" lon="6.62632">
        <ele>642</ele>
        <time>2014-05-10T14:56:47.97</time>
      </trkpt>
      <trkpt lat="47.18241" lon="6.62632">
        <ele>636</ele>
        <time>2014-05-10T14:56:50.97</time>
      </trkpt>
      <trkpt lat="47.18242" lon="6.62631">
        <ele>654</ele>
        <time>2014-05-10T14:56:57.97</time>
      </trkpt>
      <trkpt lat="47.18246" lon="6.62621">
        <ele>647</ele>
        <time>2014-05-10T14:56:58.97</time>
      </trkpt>
      <trkpt lat="47.18247" lon="6.62617">
        <ele>631</ele>
        <time>2014-05-10T14:57:06.8</time>
      </trkpt>
      <trkpt lat="47.18252" lon="6.62617">
        <ele>623</ele>
        <time>2014-05-10T14:57:09.98</time>
      </trkpt>
      <trkpt lat="47.1825" lon="6.62619">
        <ele>616</ele>
        <time>2014-05-10T14:57:10.96</time>
      </trkpt>
      <trkpt lat="47.18247" lon="6.62604">
        <ele>618</ele>
        <time>2014-05-10T14:57:12.98</time>
      </trkpt>
      <trkpt lat="47.18242" lon="6.6259">
        <ele>622</ele>
        <time>2014-05-10T14:57:14.95</time>
      </trkpt>
      <trkpt lat="47.18236" lon="6.62572">
        <ele>623</ele>
        <time>2014-05-10T14:57:16.95</time>
      </trkpt>
      <trkpt lat="47.18232" lon="6.6256">
        <ele>624</ele>
        <time>2014-05-10T14:57:17.94</time>
      </trkpt>
      <trkpt lat="47.18229" lon="6.62549">
        <ele>622</ele>
        <time>2014-05-10T14:57:18.98</time>
      </trkpt>
      <trkpt lat="47.18234" lon="6.62537">
        <ele>612</ele>
        <time>2014-05-10T14:57:19.94</time>
      </trkpt>
      <trkpt lat="47.18239" lon="6.62525">
        <ele>612</ele>
        <time>2014-05-10T14:57:20.95</time>
      </trkpt>
      <trkpt lat="47.18245" lon="6.62511">
        <ele>608</ele>
        <time>2014-05-10T14:57:21.95</time>
      </trkpt>
      <trkpt lat="47.18249" lon="6.62502">
        <ele>606</ele>
        <time>2014-05-10T14:57:22.96</time>
      </trkpt>
      <trkpt lat="47.18254" lon="6.62493">
        <ele>603</ele>
        <time>2014-05-10T14:57:23.97</time>
      </trkpt>
      <trkpt lat="47.1826" lon="6.62485">
        <ele>600</ele>
        <time>2014-05-10T14:57:24.95</time>
      </trkpt>
      <trkpt lat="47.18265" lon="6.62478">
        <ele>599</ele>
        <time>2014-05-10T14:57:25.94</time>
      </trkpt>
      <trkpt lat="47.1827" lon="6.62469">
        <ele>598</ele>
        <time>2014-05-10T14:57:26.97</time>
      </trkpt>
      <trkpt lat="47.18279" lon="6.62457">
        <ele>597</ele>
        <time>2014-05-10T14:57:28.95</time>
      </trkpt>
      <trkpt lat="47.18287" lon="6.62447">
        <ele>598</ele>
        <time>2014-05-10T14:57:30.97</time>
      </trkpt>
      <trkpt lat="47.18293" lon="6.62437">
        <ele>602</ele>
        <time>2014-05-10T14:57:32.94</time>
      </trkpt>
      <trkpt lat="47.183" lon="6.62424">
        <ele>603</ele>
        <time>2014-05-10T14:57:35.18</time>
      </trkpt>
      <trkpt lat="47.18305" lon="6.62408">
        <ele>604</ele>
        <time>2014-05-10T14:57:36.94</time>
      </trkpt>
      <trkpt lat="47.18307" lon="6.62393">
        <ele>608</ele>
        <time>2014-05-10T14:57:38.95</time>
      </trkpt>
      <trkpt lat="47.18309" lon="6.62378">
        <ele>612</ele>
        <time>2014-05-10T14:57:40.97</time>
      </trkpt>
      <trkpt lat="47.18309" lon="6.62362">
        <ele>616</ele>
        <time>2014-05-10T14:57:42.96</time>
      </trkpt>
      <trkpt lat="47.1831" lon="6.62344">
        <ele>616</ele>
        <time>2014-05-10T14:57:44.94</time>
      </trkpt>
      <trkpt lat="47.18311" lon="6.62324">
        <ele>615</ele>
        <time>2014-05-10T14:57:46.96</time>
      </trkpt>
      <trkpt lat="47.18311" lon="6.62304">
        <ele>617</ele>
        <time>2014-05-10T14:57:48.93</time>
      </trkpt>
      <trkpt lat="47.18312" lon="6.62287">
        <ele>616</ele>
        <time>2014-05-10T14:57:50.96</time>
      </trkpt>
      <trkpt lat="47.18313" lon="6.62267">
        <ele>618</ele>
        <time>2014-05-10T14:57:52.94</time>
      </trkpt>
      <trkpt lat="47.1831" lon="6.62252">
        <ele>618</ele>
        <time>2014-05-10T14:57:54.94</time>
      </trkpt>
      <trkpt lat="47.18384" lon="6.62128">
        <ele>623</ele>
        <time>2014-05-10T14:58:09.99</time>
      </trkpt>
      <trkpt lat="47.18411" lon="6.62074">
        <ele>624</ele>
        <time>2014-05-10T14:58:13.99</time>
      </trkpt>
      <trkpt lat="47.18413" lon="6.62059">
        <ele>622</ele>
        <time>2014-05-10T14:58:15.95</time>
      </trkpt>
      <trkpt lat="47.18416" lon="6.62045">
        <ele>621</ele>
        <time>2014-05-10T14:58:19.95</time>
      </trkpt>
      <trkpt lat="47.18424" lon="6.62036">
        <ele>619</ele>
        <time>2014-05-10T14:58:22.95</time>
      </trkpt>
      <trkpt lat="47.18414" lon="6.6204">
        <ele>607</ele>
        <time>2014-05-10T14:58:28.98</time>
      </trkpt>
      <trkpt lat="47.18411" lon="6.62041">
        <ele>604</ele>
        <time>2014-05-10T14:58:35.95</time>
      </trkpt>
      <trkpt lat="47.18406" lon="6.62036">
        <ele>606</ele>
        <time>2014-05-10T14:58:42.94</time>
      </trkpt>
      <trkpt lat="47.18406" lon="6.62026">
        <ele>599</ele>
        <time>2014-05-10T14:58:46.95</time>
      </trkpt>
      <trkpt lat="47.18405" lon="6.62019">
        <ele>601</ele>
        <time>2014-05-10T14:58:53.97</time>
      </trkpt>
      <trkpt lat="47.18401" lon="6.6201">
        <ele>600</ele>
        <time>2014-05-10T14:58:57.97</time>
      </trkpt>
      <trkpt lat="47.184" lon="6.62001">
        <ele>592</ele>
        <time>2014-05-10T14:59:04.93</time>
      </trkpt>
      <trkpt lat="47.18403" lon="6.61998">
        <ele>588</ele>
        <time>2014-05-10T14:59:11.91</time>
      </trkpt>
      <trkpt lat="47.18406" lon="6.61991">
        <ele>584</ele>
        <time>2014-05-10T14:59:18.90</time>
      </trkpt>
      <trkpt lat="47.18405" lon="6.61982">
        <ele>568</ele>
        <time>2014-05-10T14:59:25.90</time>
      </trkpt>
      <trkpt lat="47.18409" lon="6.61971">
        <ele>574</ele>
        <time>2014-05-10T14:59:31.89</time>
      </trkpt>
      <trkpt lat="47.18412" lon="6.61961">
        <ele>568</ele>
        <time>2014-05-10T14:59:34.91</time>
      </trkpt>
      <trkpt lat="47.18414" lon="6.6195">
        <ele>554</ele>
        <time>2014-05-10T14:59:37.91</time>
      </trkpt>
      <trkpt lat="47.18417" lon="6.6194">
        <ele>549</ele>
        <time>2014-05-10T14:59:41.92</time>
      </trkpt>
      <trkpt lat="47.18421" lon="6.61936">
        <ele>548</ele>
        <time>2014-05-10T14:59:48.94</time>
      </trkpt>
      <trkpt lat="47.18425" lon="6.61933">
        <ele>550</ele>
        <time>2014-05-10T14:59:55.89</time>
      </trkpt>
      <trkpt lat="47.1843" lon="6.61926">
        <ele>553</ele>
        <time>2014-05-10T15:00:02.91</time>
      </trkpt>
      <trkpt lat="47.18434" lon="6.61921">
        <ele>561</ele>
        <time>2014-05-10T15:00:09.89</time>
      </trkpt>
      <trkpt lat="47.18438" lon="6.61916">
        <ele>561</ele>
        <time>2014-05-10T15:00:16.90</time>
      </trkpt>
      <trkpt lat="47.18443" lon="6.61908">
        <ele>558</ele>
        <time>2014-05-10T15:00:23.89</time>
      </trkpt>
      <trkpt lat="47.18445" lon="6.61903">
        <ele>559</ele>
        <time>2014-05-10T15:00:30.91</time>
      </trkpt>
      <trkpt lat="47.18448" lon="6.61895">
        <ele>567</ele>
        <time>2014-05-10T15:00:37.91</time>
      </trkpt>
      <trkpt lat="47.18452" lon="6.61891">
        <ele>569</ele>
        <time>2014-05-10T15:00:44.89</time>
      </trkpt>
      <trkpt lat="47.18457" lon="6.61888">
        <ele>559</ele>
        <time>2014-05-10T15:00:51.89</time>
      </trkpt>
      <trkpt lat="47.18462" lon="6.61884">
        <ele>561</ele>
        <time>2014-05-10T15:00:58.89</time>
      </trkpt>
      <trkpt lat="47.18469" lon="6.6188">
        <ele>549</ele>
        <time>2014-05-10T15:01:03.92</time>
      </trkpt>
      <trkpt lat="47.18474" lon="6.61872">
        <ele>546</ele>
        <time>2014-05-10T15:01:06.93</time>
      </trkpt>
      <trkpt lat="47.18479" lon="6.61861">
        <ele>538</ele>
        <time>2014-05-10T15:01:10.92</time>
      </trkpt>
      <trkpt lat="47.18483" lon="6.6185">
        <ele>536</ele>
        <time>2014-05-10T15:01:14.95</time>
      </trkpt>
      <trkpt lat="47.18486" lon="6.61849">
        <ele>538</ele>
        <time>2014-05-10T15:01:21.92</time>
      </trkpt>
      <trkpt lat="47.18483" lon="6.61857">
        <ele>544</ele>
        <time>2014-05-10T15:01:28.98</time>
      </trkpt>
      <trkpt lat="47.18485" lon="6.61861">
        <ele>544</ele>
        <time>2014-05-10T15:01:35.91</time>
      </trkpt>
      <trkpt lat="47.18495" lon="6.61858">
        <ele>554</ele>
        <time>2014-05-10T15:01:40.88</time>
      </trkpt>
      <trkpt lat="47.18504" lon="6.61859">
        <ele>555</ele>
        <time>2014-05-10T15:01:44.88</time>
      </trkpt>
      <trkpt lat="47.18512" lon="6.6186">
        <ele>548</ele>
        <time>2014-05-10T15:01:50.88</time>
      </trkpt>
      <trkpt lat="47.18513" lon="6.61856">
        <ele>546</ele>
        <time>2014-05-10T15:01:57.93</time>
      </trkpt>
      <trkpt lat="47.1852" lon="6.61862">
        <ele>535</ele>
        <time>2014-05-10T15:02:00.93</time>
      </trkpt>
      <trkpt lat="47.18528" lon="6.61872">
        <ele>540</ele>
        <time>2014-05-10T15:02:03.93</time>
      </trkpt>
      <trkpt lat="47.18535" lon="6.6188">
        <ele>538</ele>
        <time>2014-05-10T15:02:06.88</time>
      </trkpt>
      <trkpt lat="47.18541" lon="6.61886">
        <ele>537</ele>
        <time>2014-05-10T15:02:09.88</time>
      </trkpt>
      <trkpt lat="47.18547" lon="6.61893">
        <ele>546</ele>
        <time>2014-05-10T15:02:13.89</time>
      </trkpt>
      <trkpt lat="47.18549" lon="6.61895">
        <ele>550</ele>
        <time>2014-05-10T15:02:20.90</time>
      </trkpt>
      <trkpt lat="47.18553" lon="6.61896">
        <ele>556</ele>
        <time>2014-05-10T15:02:27.85</time>
      </trkpt>
      <trkpt lat="47.1856" lon="6.61899">
        <ele>554</ele>
        <time>2014-05-10T15:02:30.86</time>
      </trkpt>
      <trkpt lat="47.18568" lon="6.61904">
        <ele>557</ele>
        <time>2014-05-10T15:02:33.95</time>
      </trkpt>
      <trkpt lat="47.18577" lon="6.61908">
        <ele>556</ele>
        <time>2014-05-10T15:02:37.82</time>
      </trkpt>
      <trkpt lat="47.18585" lon="6.61908">
        <ele>558</ele>
        <time>2014-05-10T15:02:39.86</time>
      </trkpt>
      <trkpt lat="47.18594" lon="6.61908">
        <ele>558</ele>
        <time>2014-05-10T15:02:41.85</time>
      </trkpt>
      <trkpt lat="47.18602" lon="6.61907">
        <ele>554</ele>
        <time>2014-05-10T15:02:43.82</time>
      </trkpt>
      <trkpt lat="47.18609" lon="6.61905">
        <ele>558</ele>
        <time>2014-05-10T15:02:45.85</time>
      </trkpt>
      <trkpt lat="47.18616" lon="6.61905">
        <ele>554</ele>
        <time>2014-05-10T15:02:47.84</time>
      </trkpt>
      <trkpt lat="47.18626" lon="6.61905">
        <ele>551</ele>
        <time>2014-05-10T15:02:50.82</time>
      </trkpt>
      <trkpt lat="47.18634" lon="6.61903">
        <ele>554</ele>
        <time>2014-05-10T15:02:53.86</time>
      </trkpt>
      <trkpt lat="47.18642" lon="6.61902">
        <ele>555</ele>
        <time>2014-05-10T15:02:56.86</time>
      </trkpt>
      <trkpt lat="47.18649" lon="6.61898">
        <ele>554</ele>
        <time>2014-05-10T15:02:59.84</time>
      </trkpt>
      <trkpt lat="47.18657" lon="6.61899">
        <ele>554</ele>
        <time>2014-05-10T15:03:01.82</time>
      </trkpt>
      <trkpt lat="47.18666" lon="6.61901">
        <ele>550</ele>
        <time>2014-05-10T15:03:04.90</time>
      </trkpt>
      <trkpt lat="47.18676" lon="6.61898">
        <ele>552</ele>
        <time>2014-05-10T15:03:07.82</time>
      </trkpt>
      <trkpt lat="47.18685" lon="6.61892">
        <ele>551</ele>
        <time>2014-05-10T15:03:10.82</time>
      </trkpt>
      <trkpt lat="47.18692" lon="6.61889">
        <ele>554</ele>
        <time>2014-05-10T15:03:13.82</time>
      </trkpt>
      <trkpt lat="47.18701" lon="6.6189">
        <ele>552</ele>
        <time>2014-05-10T15:03:16.86</time>
      </trkpt>
      <trkpt lat="47.18711" lon="6.61889">
        <ele>554</ele>
        <time>2014-05-10T15:03:19.88</time>
      </trkpt>
      <trkpt lat="47.18718" lon="6.61884">
        <ele>551</ele>
        <time>2014-05-10T15:03:24.84</time>
      </trkpt>
      <trkpt lat="47.18726" lon="6.61878">
        <ele>547</ele>
        <time>2014-05-10T15:03:29.85</time>
      </trkpt>
      <trkpt lat="47.18732" lon="6.61872">
        <ele>550</ele>
        <time>2014-05-10T15:03:33.85</time>
      </trkpt>
      <trkpt lat="47.18739" lon="6.61867">
        <ele>550</ele>
        <time>2014-05-10T15:03:37.84</time>
      </trkpt>
      <trkpt lat="47.18747" lon="6.61861">
        <ele>547</ele>
        <time>2014-05-10T15:03:41.82</time>
      </trkpt>
      <trkpt lat="47.18756" lon="6.61856">
        <ele>549</ele>
        <time>2014-05-10T15:03:45.84</time>
      </trkpt>
      <trkpt lat="47.18765" lon="6.61854">
        <ele>550</ele>
        <time>2014-05-10T15:03:48.84</time>
      </trkpt>
      <trkpt lat="47.18773" lon="6.61855">
        <ele>552</ele>
        <time>2014-05-10T15:03:51.81</time>
      </trkpt>
      <trkpt lat="47.1878" lon="6.61857">
        <ele>554</ele>
        <time>2014-05-10T15:03:55.84</time>
      </trkpt>
      <trkpt lat="47.18789" lon="6.61854">
        <ele>555</ele>
        <time>2014-05-10T15:04:00.82</time>
      </trkpt>
      <trkpt lat="47.18796" lon="6.61853">
        <ele>557</ele>
        <time>2014-05-10T15:04:03.85</time>
      </trkpt>
      <trkpt lat="47.18803" lon="6.61849">
        <ele>558</ele>
        <time>2014-05-10T15:04:10.84</time>
      </trkpt>
      <trkpt lat="47.18804" lon="6.61855">
        <ele>549</ele>
        <time>2014-05-10T15:04:15.85</time>
      </trkpt>
      <trkpt lat="47.18805" lon="6.61861">
        <ele>557</ele>
        <time>2014-05-10T15:04:22.90</time>
      </trkpt>
      <trkpt lat="47.18808" lon="6.61852">
        <ele>545</ele>
        <time>2014-05-10T15:04:29.89</time>
      </trkpt>
      <trkpt lat="47.18809" lon="6.61843">
        <ele>552</ele>
        <time>2014-05-10T15:04:36.88</time>
      </trkpt>
      <trkpt lat="47.18806" lon="6.61834">
        <ele>555</ele>
        <time>2014-05-10T15:04:41.90</time>
      </trkpt>
      <trkpt lat="47.18808" lon="6.61828">
        <ele>559</ele>
        <time>2014-05-10T15:04:48.90</time>
      </trkpt>
      <trkpt lat="47.18807" lon="6.61825">
        <ele>559</ele>
        <time>2014-05-10T15:04:55.88</time>
      </trkpt>
      <trkpt lat="47.1881" lon="6.61825">
        <ele>543</ele>
        <time>2014-05-10T15:04:56.94</time>
      </trkpt>
      <trkpt lat="47.18817" lon="6.61827">
        <ele>546</ele>
        <time>2014-05-10T15:05:03.90</time>
      </trkpt>
      <trkpt lat="47.18815" lon="6.61836">
        <ele>551</ele>
        <time>2014-05-10T15:05:07.92</time>
      </trkpt>
      <trkpt lat="47.18809" lon="6.61839">
        <ele>555</ele>
        <time>2014-05-10T15:05:14.91</time>
      </trkpt>
      <trkpt lat="47.18804" lon="6.61847">
        <ele>556</ele>
        <time>2014-05-10T15:05:21.88</time>
      </trkpt>
      <trkpt lat="47.18799" lon="6.61852">
        <ele>556</ele>
        <time>2014-05-10T15:05:28.88</time>
      </trkpt>
      <trkpt lat="47.18792" lon="6.61855">
        <ele>551</ele>
        <time>2014-05-10T15:05:35.87</time>
      </trkpt>
      <trkpt lat="47.18789" lon="6.61857">
        <ele>556</ele>
        <time>2014-05-10T15:05:42.92</time>
      </trkpt>
      <trkpt lat="47.18781" lon="6.61861">
        <ele>555</ele>
        <time>2014-05-10T15:05:48.92</time>
      </trkpt>
      <trkpt lat="47.18771" lon="6.61859">
        <ele>551</ele>
        <time>2014-05-10T15:05:52.87</time>
      </trkpt>
      <trkpt lat="47.18761" lon="6.61861">
        <ele>546</ele>
        <time>2014-05-10T15:05:56.89</time>
      </trkpt>
      <trkpt lat="47.18753" lon="6.61868">
        <ele>547</ele>
        <time>2014-05-10T15:05:59.93</time>
      </trkpt>
      <trkpt lat="47.18744" lon="6.61873">
        <ele>548</ele>
        <time>2014-05-10T15:06:02.88</time>
      </trkpt>
      <trkpt lat="47.18737" lon="6.61877">
        <ele>548</ele>
        <time>2014-05-10T15:06:05.89</time>
      </trkpt>
      <trkpt lat="47.1873" lon="6.61882">
        <ele>548</ele>
        <time>2014-05-10T15:06:08.88</time>
      </trkpt>
      <trkpt lat="47.18723" lon="6.61887">
        <ele>547</ele>
        <time>2014-05-10T15:06:11.91</time>
      </trkpt>
      <trkpt lat="47.18716" lon="6.6189">
        <ele>553</ele>
        <time>2014-05-10T15:06:14.89</time>
      </trkpt>
      <trkpt lat="47.18709" lon="6.61893">
        <ele>556</ele>
        <time>2014-05-10T15:06:17.91</time>
      </trkpt>
      <trkpt lat="47.18702" lon="6.61898">
        <ele>548</ele>
        <time>2014-05-10T15:06:20.90</time>
      </trkpt>
      <trkpt lat="47.18694" lon="6.61902">
        <ele>546</ele>
        <time>2014-05-10T15:06:23.90</time>
      </trkpt>
      <trkpt lat="47.18684" lon="6.61901">
        <ele>553</ele>
        <time>2014-05-10T15:06:26.89</time>
      </trkpt>
      <trkpt lat="47.18674" lon="6.61901">
        <ele>557</ele>
        <time>2014-05-10T15:06:29.89</time>
      </trkpt>
      <trkpt lat="47.18664" lon="6.61904">
        <ele>554</ele>
        <time>2014-05-10T15:06:32.90</time>
      </trkpt>
      <trkpt lat="47.18654" lon="6.61906">
        <ele>553</ele>
        <time>2014-05-10T15:06:35.89</time>
      </trkpt>
      <trkpt lat="47.18647" lon="6.61908">
        <ele>554</ele>
        <time>2014-05-10T15:06:37.90</time>
      </trkpt>
      <trkpt lat="47.18637" lon="6.61909">
        <ele>552</ele>
        <time>2014-05-10T15:06:40.89</time>
      </trkpt>
      <trkpt lat="47.1863" lon="6.61908">
        <ele>554</ele>
        <time>2014-05-10T15:06:47.94</time>
      </trkpt>
      <trkpt lat="47.1862" lon="6.61914">
        <ele>552</ele>
        <time>2014-05-10T15:06:54.92</time>
      </trkpt>
      <trkpt lat="47.18611" lon="6.61915">
        <ele>553</ele>
        <time>2014-05-10T15:06:57.86</time>
      </trkpt>
      <trkpt lat="47.186" lon="6.61913">
        <ele>555</ele>
        <time>2014-05-10T15:07:00.87</time>
      </trkpt>
      <trkpt lat="47.18591" lon="6.61912">
        <ele>554</ele>
        <time>2014-05-10T15:07:02.88</time>
      </trkpt>
      <trkpt lat="47.18582" lon="6.61908">
        <ele>552</ele>
        <time>2014-05-10T15:07:04.88</time>
      </trkpt>
      <trkpt lat="47.18568" lon="6.61901">
        <ele>552</ele>
        <time>2014-05-10T15:07:11.89</time>
      </trkpt>
      <trkpt lat="47.18561" lon="6.61895">
        <ele>555</ele>
        <time>2014-05-10T15:07:18.89</time>
      </trkpt>
      <trkpt lat="47.18553" lon="6.61889">
        <ele>553</ele>
        <time>2014-05-10T15:07:21.90</time>
      </trkpt>
      <trkpt lat="47.18543" lon="6.61882">
        <ele>552</ele>
        <time>2014-05-10T15:07:24.91</time>
      </trkpt>
      <trkpt lat="47.18537" lon="6.61875">
        <ele>556</ele>
        <time>2014-05-10T15:07:26.90</time>
      </trkpt>
      <trkpt lat="47.18532" lon="6.61867">
        <ele>555</ele>
        <time>2014-05-10T15:07:28.91</time>
      </trkpt>
      <trkpt lat="47.18526" lon="6.61855">
        <ele>557</ele>
        <time>2014-05-10T15:07:31.90</time>
      </trkpt>
      <trkpt lat="47.18523" lon="6.61846">
        <ele>557</ele>
        <time>2014-05-10T15:07:33.88</time>
      </trkpt>
      <trkpt lat="47.18516" lon="6.61841">
        <ele>555</ele>
        <time>2014-05-10T15:07:35.89</time>
      </trkpt>
      <trkpt lat="47.18506" lon="6.61839">
        <ele>550</ele>
        <time>2014-05-10T15:07:37.90</time>
      </trkpt>
      <trkpt lat="47.18496" lon="6.6184">
        <ele>550</ele>
        <time>2014-05-10T15:07:40.89</time>
      </trkpt>
      <trkpt lat="47.18488" lon="6.61839">
        <ele>550</ele>
        <time>2014-05-10T15:07:43.89</time>
      </trkpt>
      <trkpt lat="47.18479" lon="6.61843">
        <ele>546</ele>
        <time>2014-05-10T15:07:46.90</time>
      </trkpt>
      <trkpt lat="47.1847" lon="6.61849">
        <ele>545</ele>
        <time>2014-05-10T15:07:48.89</time>
      </trkpt>
      <trkpt lat="47.1846" lon="6.61856">
        <ele>543</ele>
        <time>2014-05-10T15:07:50.89</time>
      </trkpt>
      <trkpt lat="47.18449" lon="6.61869">
        <ele>538</ele>
        <time>2014-05-10T15:07:52.88</time>
      </trkpt>
      <trkpt lat="47.18439" lon="6.6188">
        <ele>537</ele>
        <time>2014-05-10T15:07:54.88</time>
      </trkpt>
      <trkpt lat="47.18431" lon="6.61892">
        <ele>536</ele>
        <time>2014-05-10T15:07:56.89</time>
      </trkpt>
      <trkpt lat="47.18422" lon="6.61905">
        <ele>537</ele>
        <time>2014-05-10T15:07:58.92</time>
      </trkpt>
      <trkpt lat="47.18414" lon="6.61917">
        <ele>533</ele>
        <time>2014-05-10T15:08:00.93</time>
      </trkpt>
      <trkpt lat="47.18408" lon="6.61925">
        <ele>530</ele>
        <time>2014-05-10T15:08:02.90</time>
      </trkpt>
      <trkpt lat="47.18407" lon="6.61914">
        <ele>530</ele>
        <time>2014-05-10T15:08:06.89</time>
      </trkpt>
      <trkpt lat="47.18412" lon="6.61905">
        <ele>535</ele>
        <time>2014-05-10T15:08:08.88</time>
      </trkpt>
      <trkpt lat="47.18417" lon="6.61895">
        <ele>537</ele>
        <time>2014-05-10T15:08:10.89</time>
      </trkpt>
      <trkpt lat="47.18423" lon="6.61882">
        <ele>538</ele>
        <time>2014-05-10T15:08:12.92</time>
      </trkpt>
      <trkpt lat="47.18428" lon="6.6187">
        <ele>541</ele>
        <time>2014-05-10T15:08:14.97</time>
      </trkpt>
      <trkpt lat="47.18435" lon="6.61858">
        <ele>541</ele>
        <time>2014-05-10T15:08:16.90</time>
      </trkpt>
      <trkpt lat="47.18443" lon="6.61846">
        <ele>538</ele>
        <time>2014-05-10T15:08:18.90</time>
      </trkpt>
      <trkpt lat="47.18449" lon="6.61836">
        <ele>538</ele>
        <time>2014-05-10T15:08:20.88</time>
      </trkpt>
      <trkpt lat="47.18456" lon="6.61828">
        <ele>539</ele>
        <time>2014-05-10T15:08:22.89</time>
      </trkpt>
      <trkpt lat="47.18464" lon="6.6182">
        <ele>540</ele>
        <time>2014-05-10T15:08:24.89</time>
      </trkpt>
      <trkpt lat="47.18472" lon="6.61816">
        <ele>542</ele>
        <time>2014-05-10T15:08:26.94</time>
      </trkpt>
      <trkpt lat="47.18482" lon="6.61815">
        <ele>541</ele>
        <time>2014-05-10T15:08:29.89</time>
      </trkpt>
      <trkpt lat="47.18492" lon="6.61818">
        <ele>540</ele>
        <time>2014-05-10T15:08:32.90</time>
      </trkpt>
      <trkpt lat="47.18499" lon="6.61822">
        <ele>541</ele>
        <time>2014-05-10T15:08:34.89</time>
      </trkpt>
      <trkpt lat="47.18506" lon="6.61829">
        <ele>541</ele>
        <time>2014-05-10T15:08:36.89</time>
      </trkpt>
      <trkpt lat="47.18514" lon="6.61837">
        <ele>542</ele>
        <time>2014-05-10T15:08:38.89</time>
      </trkpt>
      <trkpt lat="47.18522" lon="6.61845">
        <ele>542</ele>
        <time>2014-05-10T15:08:40.92</time>
      </trkpt>
      <trkpt lat="47.18528" lon="6.61854">
        <ele>542</ele>
        <time>2014-05-10T15:08:42.88</time>
      </trkpt>
      <trkpt lat="47.18535" lon="6.61862">
        <ele>543</ele>
        <time>2014-05-10T15:08:44.91</time>
      </trkpt>
      <trkpt lat="47.18541" lon="6.6187">
        <ele>542</ele>
        <time>2014-05-10T15:08:46.91</time>
      </trkpt>
      <trkpt lat="47.18548" lon="6.61875">
        <ele>544</ele>
        <time>2014-05-10T15:08:48.90</time>
      </trkpt>
      <trkpt lat="47.18557" lon="6.61879">
        <ele>545</ele>
        <time>2014-05-10T15:08:51.90</time>
      </trkpt>
      <trkpt lat="47.18564" lon="6.61882">
        <ele>546</ele>
        <time>2014-05-10T15:08:54.89</time>
      </trkpt>
      <trkpt lat="47.18571" lon="6.61883">
        <ele>547</ele>
        <time>2014-05-10T15:08:56.91</time>
      </trkpt>
      <trkpt lat="47.1858" lon="6.61884">
        <ele>547</ele>
        <time>2014-05-10T15:08:58.88</time>
      </trkpt>
      <trkpt lat="47.18593" lon="6.61884">
        <ele>541</ele>
        <time>2014-05-10T15:09:00.95</time>
      </trkpt>
      <trkpt lat="47.18601" lon="6.61883">
        <ele>539</ele>
        <time>2014-05-10T15:09:01.90</time>
      </trkpt>
      <trkpt lat="47.18615" lon="6.6188">
        <ele>537</ele>
        <time>2014-05-10T15:09:03.89</time>
      </trkpt>
      <trkpt lat="47.18627" lon="6.61877">
        <ele>538</ele>
        <time>2014-05-10T15:09:05.91</time>
      </trkpt>
      <trkpt lat="47.1864" lon="6.61873">
        <ele>537</ele>
        <time>2014-05-10T15:09:07.90</time>
      </trkpt>
      <trkpt lat="47.1865" lon="6.6187">
        <ele>537</ele>
        <time>2014-05-10T15:09:09.90</time>
      </trkpt>
      <trkpt lat="47.18659" lon="6.61866">
        <ele>538</ele>
        <time>2014-05-10T15:09:11.90</time>
      </trkpt>
      <trkpt lat="47.18668" lon="6.61863">
        <ele>541</ele>
        <time>2014-05-10T15:09:13.90</time>
      </trkpt>
      <trkpt lat="47.18677" lon="6.6186">
        <ele>544</ele>
        <time>2014-05-10T15:09:15.90</time>
      </trkpt>
      <trkpt lat="47.18688" lon="6.61855">
        <ele>543</ele>
        <time>2014-05-10T15:09:17.91</time>
      </trkpt>
      <trkpt lat="47.18702" lon="6.6185">
        <ele>537</ele>
        <time>2014-05-10T15:09:19.92</time>
      </trkpt>
      <trkpt lat="47.18709" lon="6.61848">
        <ele>531</ele>
        <time>2014-05-10T15:09:20.89</time>
      </trkpt>
      <trkpt lat="47.18722" lon="6.61843">
        <ele>529</ele>
        <time>2014-05-10T15:09:22.92</time>
      </trkpt>
      <trkpt lat="47.18734" lon="6.61838">
        <ele>528</ele>
        <time>2014-05-10T15:09:24.89</time>
      </trkpt>
      <trkpt lat="47.18745" lon="6.61834">
        <ele>528</ele>
        <time>2014-05-10T15:09:26.93</time>
      </trkpt>
      <trkpt lat="47.18754" lon="6.61828">
        <ele>531</ele>
        <time>2014-05-10T15:09:28.92</time>
      </trkpt>
      <trkpt lat="47.18765" lon="6.61823">
        <ele>533</ele>
        <time>2014-05-10T15:09:30.92</time>
      </trkpt>
      <trkpt lat="47.18775" lon="6.61819">
        <ele>535</ele>
        <time>2014-05-10T15:09:32.99</time>
      </trkpt>
      <trkpt lat="47.18787" lon="6.61814">
        <ele>534</ele>
        <time>2014-05-10T15:09:34.89</time>
      </trkpt>
      <trkpt lat="47.18799" lon="6.61811">
        <ele>532</ele>
        <time>2014-05-10T15:09:36.89</time>
      </trkpt>
      <trkpt lat="47.1881" lon="6.61808">
        <ele>528</ele>
        <time>2014-05-10T15:09:38.90</time>
      </trkpt>
      <trkpt lat="47.18819" lon="6.61807">
        <ele>526</ele>
        <time>2014-05-10T15:09:40.97</time>
      </trkpt>
      <trkpt lat="47.18832" lon="6.61807">
        <ele>521</ele>
        <time>2014-05-10T15:09:42.93</time>
      </trkpt>
      <trkpt lat="47.18845" lon="6.61808">
        <ele>521</ele>
        <time>2014-05-10T15:09:44.91</time>
      </trkpt>
      <trkpt lat="47.18859" lon="6.61808">
        <ele>520</ele>
        <time>2014-05-10T15:09:46.93</time>
      </trkpt>
      <trkpt lat="47.18872" lon="6.61809">
        <ele>519</ele>
        <time>2014-05-10T15:09:48.90</time>
      </trkpt>
      <trkpt lat="47.18885" lon="6.6181">
        <ele>519</ele>
        <time>2014-05-10T15:09:50.90</time>
      </trkpt>
      <trkpt lat="47.18897" lon="6.61811">
        <ele>521</ele>
        <time>2014-05-10T15:09:52.89</time>
      </trkpt>
      <trkpt lat="47.18909" lon="6.61811">
        <ele>522</ele>
        <time>2014-05-10T15:09:54.92</time>
      </trkpt>
      <trkpt lat="47.18923" lon="6.6181">
        <ele>523</ele>
        <time>2014-05-10T15:09:56.90</time>
      </trkpt>
      <trkpt lat="47.18937" lon="6.6181">
        <ele>523</ele>
        <time>2014-05-10T15:09:58.90</time>
      </trkpt>
      <trkpt lat="47.1895" lon="6.61812">
        <ele>521</ele>
        <time>2014-05-10T15:10:00.91</time>
      </trkpt>
      <trkpt lat="47.18962" lon="6.61815">
        <ele>519</ele>
        <time>2014-05-10T15:10:02.91</time>
      </trkpt>
      <trkpt lat="47.18975" lon="6.61818">
        <ele>518</ele>
        <time>2014-05-10T15:10:04.92</time>
      </trkpt>
      <trkpt lat="47.18986" lon="6.61822">
        <ele>516</ele>
        <time>2014-05-10T15:10:06.91</time>
      </trkpt>
      <trkpt lat="47.18999" lon="6.61825">
        <ele>518</ele>
        <time>2014-05-10T15:10:08.91</time>
      </trkpt>
      <trkpt lat="47.1901" lon="6.61826">
        <ele>518</ele>
        <time>2014-05-10T15:10:10.99</time>
      </trkpt>
      <trkpt lat="47.19022" lon="6.61826">
        <ele>519</ele>
        <time>2014-05-10T15:10:12.91</time>
      </trkpt>
      <trkpt lat="47.19035" lon="6.61825">
        <ele>518</ele>
        <time>2014-05-10T15:10:14.90</time>
      </trkpt>
      <trkpt lat="47.19047" lon="6.61819">
        <ele>513</ele>
        <time>2014-05-10T15:10:16.89</time>
      </trkpt>
      <trkpt lat="47.19058" lon="6.61813">
        <ele>518</ele>
        <time>2014-05-10T15:10:18.89</time>
      </trkpt>
      <trkpt lat="47.19069" lon="6.61804">
        <ele>519</ele>
        <time>2014-05-10T15:10:20.89</time>
      </trkpt>
      <trkpt lat="47.19079" lon="6.61796">
        <ele>521</ele>
        <time>2014-05-10T15:10:22.90</time>
      </trkpt>
      <trkpt lat="47.19092" lon="6.61786">
        <ele>523</ele>
        <time>2014-05-10T15:10:24.92</time>
      </trkpt>
      <trkpt lat="47.19103" lon="6.61779">
        <ele>524</ele>
        <time>2014-05-10T15:10:26.91</time>
      </trkpt>
      <trkpt lat="47.19113" lon="6.61771">
        <ele>522</ele>
        <time>2014-05-10T15:10:28.91</time>
      </trkpt>
      <trkpt lat="47.19125" lon="6.61763">
        <ele>520</ele>
        <time>2014-05-10T15:10:30.92</time>
      </trkpt>
      <trkpt lat="47.19138" lon="6.61754">
        <ele>522</ele>
        <time>2014-05-10T15:10:32.89</time>
      </trkpt>
      <trkpt lat="47.19146" lon="6.61749">
        <ele>521</ele>
        <time>2014-05-10T15:10:33.89</time>
      </trkpt>
      <trkpt lat="47.19153" lon="6.61745">
        <ele>519</ele>
        <time>2014-05-10T15:10:34.88</time>
      </trkpt>
      <trkpt lat="47.1916" lon="6.6174">
        <ele>519</ele>
        <time>2014-05-10T15:10:35.89</time>
      </trkpt>
      <trkpt lat="47.19168" lon="6.61736">
        <ele>517</ele>
        <time>2014-05-10T15:10:36.89</time>
      </trkpt>
      <trkpt lat="47.1918" lon="6.61729">
        <ele>518</ele>
        <time>2014-05-10T15:10:38.89</time>
      </trkpt>
      <trkpt lat="47.19193" lon="6.61722">
        <ele>514</ele>
        <time>2014-05-10T15:10:40.89</time>
      </trkpt>
      <trkpt lat="47.19206" lon="6.61717">
        <ele>514</ele>
        <time>2014-05-10T15:10:42.90</time>
      </trkpt>
      <trkpt lat="47.19213" lon="6.61715">
        <ele>513</ele>
        <time>2014-05-10T15:10:43.94</time>
      </trkpt>
      <trkpt lat="47.19227" lon="6.61711">
        <ele>513</ele>
        <time>2014-05-10T15:10:45.92</time>
      </trkpt>
      <trkpt lat="47.19235" lon="6.61709">
        <ele>513</ele>
        <time>2014-05-10T15:10:46.91</time>
      </trkpt>
      <trkpt lat="47.19249" lon="6.61709">
        <ele>511</ele>
        <time>2014-05-10T15:10:48.90</time>
      </trkpt>
      <trkpt lat="47.19263" lon="6.61709">
        <ele>511</ele>
        <time>2014-05-10T15:10:50.90</time>
      </trkpt>
      <trkpt lat="47.19277" lon="6.6171">
        <ele>511</ele>
        <time>2014-05-10T15:10:52.90</time>
      </trkpt>
      <trkpt lat="47.19289" lon="6.6171">
        <ele>511</ele>
        <time>2014-05-10T15:10:54.92</time>
      </trkpt>
      <trkpt lat="47.19301" lon="6.61711">
        <ele>515</ele>
        <time>2014-05-10T15:10:56.90</time>
      </trkpt>
      <trkpt lat="47.19312" lon="6.61712">
        <ele>514</ele>
        <time>2014-05-10T15:10:58.90</time>
      </trkpt>
      <trkpt lat="47.19323" lon="6.61711">
        <ele>514</ele>
        <time>2014-05-10T15:11:00.92</time>
      </trkpt>
      <trkpt lat="47.19334" lon="6.6171">
        <ele>514</ele>
        <time>2014-05-10T15:11:02.93</time>
      </trkpt>
      <trkpt lat="47.19345" lon="6.61711">
        <ele>516</ele>
        <time>2014-05-10T15:11:04.94</time>
      </trkpt>
      <trkpt lat="47.19357" lon="6.61711">
        <ele>517</ele>
        <time>2014-05-10T15:11:06.92</time>
      </trkpt>
      <trkpt lat="47.19369" lon="6.6171">
        <ele>514</ele>
        <time>2014-05-10T15:11:08.95</time>
      </trkpt>
      <trkpt lat="47.19381" lon="6.61709">
        <ele>516</ele>
        <time>2014-05-10T15:11:10.90</time>
      </trkpt>
      <trkpt lat="47.19392" lon="6.61706">
        <ele>515</ele>
        <time>2014-05-10T15:11:12.93</time>
      </trkpt>
      <trkpt lat="47.19403" lon="6.61702">
        <ele>514</ele>
        <time>2014-05-10T15:11:14.90</time>
      </trkpt>
      <trkpt lat="47.19414" lon="6.61698">
        <ele>513</ele>
        <time>2014-05-10T15:11:16.91</time>
      </trkpt>
      <trkpt lat="47.19423" lon="6.61692">
        <ele>516</ele>
        <time>2014-05-10T15:11:18.92</time>
      </trkpt>
      <trkpt lat="47.19433" lon="6.61686">
        <ele>518</ele>
        <time>2014-05-10T15:11:20.91</time>
      </trkpt>
      <trkpt lat="47.19442" lon="6.61679">
        <ele>517</ele>
        <time>2014-05-10T15:11:22.90</time>
      </trkpt>
      <trkpt lat="47.19451" lon="6.61672">
        <ele>519</ele>
        <time>2014-05-10T15:11:24.91</time>
      </trkpt>
      <trkpt lat="47.19461" lon="6.61666">
        <ele>518</ele>
        <time>2014-05-10T15:11:26.89</time>
      </trkpt>
      <trkpt lat="47.19471" lon="6.6166">
        <ele>520</ele>
        <time>2014-05-10T15:11:28.93</time>
      </trkpt>
      <trkpt lat="47.19483" lon="6.61653">
        <ele>523</ele>
        <time>2014-05-10T15:11:30.92</time>
      </trkpt>
      <trkpt lat="47.19495" lon="6.61646">
        <ele>524</ele>
        <time>2014-05-10T15:11:32.90</time>
      </trkpt>
      <trkpt lat="47.19507" lon="6.61639">
        <ele>523</ele>
        <time>2014-05-10T15:11:34.90</time>
      </trkpt>
      <trkpt lat="47.19518" lon="6.61634">
        <ele>524</ele>
        <time>2014-05-10T15:11:36.89</time>
      </trkpt>
      <trkpt lat="47.19529" lon="6.6163">
        <ele>527</ele>
        <time>2014-05-10T15:11:38.90</time>
      </trkpt>
      <trkpt lat="47.19541" lon="6.61625">
        <ele>522</ele>
        <time>2014-05-10T15:11:40.90</time>
      </trkpt>
      <trkpt lat="47.19554" lon="6.61621">
        <ele>518</ele>
        <time>2014-05-10T15:11:42.95</time>
      </trkpt>
      <trkpt lat="47.19567" lon="6.61619">
        <ele>516</ele>
        <time>2014-05-10T15:11:44.90</time>
      </trkpt>
      <trkpt lat="47.19578" lon="6.61618">
        <ele>517</ele>
        <time>2014-05-10T15:11:46.90</time>
      </trkpt>
      <trkpt lat="47.19588" lon="6.61616">
        <ele>515</ele>
        <time>2014-05-10T15:11:48.93</time>
      </trkpt>
      <trkpt lat="47.19598" lon="6.61615">
        <ele>514</ele>
        <time>2014-05-10T15:11:50.90</time>
      </trkpt>
      <trkpt lat="47.19607" lon="6.61614">
        <ele>514</ele>
        <time>2014-05-10T15:11:52.91</time>
      </trkpt>
      <trkpt lat="47.19618" lon="6.61613">
        <ele>512</ele>
        <time>2014-05-10T15:11:54.91</time>
      </trkpt>
      <trkpt lat="47.19628" lon="6.61612">
        <ele>513</ele>
        <time>2014-05-10T15:11:56.90</time>
      </trkpt>
      <trkpt lat="47.19638" lon="6.6161">
        <ele>514</ele>
        <time>2014-05-10T15:11:58.95</time>
      </trkpt>
      <trkpt lat="47.19649" lon="6.61608">
        <ele>513</ele>
        <time>2014-05-10T15:12:00.90</time>
      </trkpt>
      <trkpt lat="47.1966" lon="6.61607">
        <ele>513</ele>
        <time>2014-05-10T15:12:02.98</time>
      </trkpt>
      <trkpt lat="47.19672" lon="6.61606">
        <ele>513</ele>
        <time>2014-05-10T15:12:04.90</time>
      </trkpt>
      <trkpt lat="47.19683" lon="6.61606">
        <ele>514</ele>
        <time>2014-05-10T15:12:06.92</time>
      </trkpt>
      <trkpt lat="47.19694" lon="6.61607">
        <ele>515</ele>
        <time>2014-05-10T15:12:08.93</time>
      </trkpt>
      <trkpt lat="47.19704" lon="6.61607">
        <ele>516</ele>
        <time>2014-05-10T15:12:10.90</time>
      </trkpt>
      <trkpt lat="47.19714" lon="6.61609">
        <ele>517</ele>
        <time>2014-05-10T15:12:12.93</time>
      </trkpt>
      <trkpt lat="47.19725" lon="6.6161">
        <ele>516</ele>
        <time>2014-05-10T15:12:14.95</time>
      </trkpt>
      <trkpt lat="47.19736" lon="6.61611">
        <ele>516</ele>
        <time>2014-05-10T15:12:16.90</time>
      </trkpt>
      <trkpt lat="47.19748" lon="6.61613">
        <ele>514</ele>
        <time>2014-05-10T15:12:18.91</time>
      </trkpt>
      <trkpt lat="47.19759" lon="6.61614">
        <ele>513</ele>
        <time>2014-05-10T15:12:20.92</time>
      </trkpt>
      <trkpt lat="47.19769" lon="6.61615">
        <ele>513</ele>
        <time>2014-05-10T15:12:22.92</time>
      </trkpt>
      <trkpt lat="47.19781" lon="6.61615">
        <ele>513</ele>
        <time>2014-05-10T15:12:24.89</time>
      </trkpt>
      <trkpt lat="47.19793" lon="6.61616">
        <ele>514</ele>
        <time>2014-05-10T15:12:26.89</time>
      </trkpt>
      <trkpt lat="47.19805" lon="6.61616">
        <ele>514</ele>
        <time>2014-05-10T15:12:28.87</time>
      </trkpt>
      <trkpt lat="47.19818" lon="6.61617">
        <ele>513</ele>
        <time>2014-05-10T15:12:30.89</time>
      </trkpt>
      <trkpt lat="47.19828" lon="6.61617">
        <ele>513</ele>
        <time>2014-05-10T15:12:32.90</time>
      </trkpt>
      <trkpt lat="47.1984" lon="6.61619">
        <ele>515</ele>
        <time>2014-05-10T15:12:34.88</time>
      </trkpt>
      <trkpt lat="47.1985" lon="6.61621">
        <ele>515</ele>
        <time>2014-05-10T15:12:36.92</time>
      </trkpt>
      <trkpt lat="47.19861" lon="6.61622">
        <ele>515</ele>
        <time>2014-05-10T15:12:38.87</time>
      </trkpt>
      <trkpt lat="47.19871" lon="6.61625">
        <ele>514</ele>
        <time>2014-05-10T15:12:40.88</time>
      </trkpt>
      <trkpt lat="47.19882" lon="6.61628">
        <ele>515</ele>
        <time>2014-05-10T15:12:42.91</time>
      </trkpt>
      <trkpt lat="47.19893" lon="6.61631">
        <ele>516</ele>
        <time>2014-05-10T15:12:44.91</time>
      </trkpt>
      <trkpt lat="47.19903" lon="6.61635">
        <ele>515</ele>
        <time>2014-05-10T15:12:46.91</time>
      </trkpt>
      <trkpt lat="47.19913" lon="6.61639">
        <ele>515</ele>
        <time>2014-05-10T15:12:48.89</time>
      </trkpt>
      <trkpt lat="47.19923" lon="6.61643">
        <ele>516</ele>
        <time>2014-05-10T15:12:50.89</time>
      </trkpt>
      <trkpt lat="47.19932" lon="6.61647">
        <ele>515</ele>
        <time>2014-05-10T15:12:52.91</time>
      </trkpt>
      <trkpt lat="47.19941" lon="6.61651">
        <ele>515</ele>
        <time>2014-05-10T15:12:54.90</time>
      </trkpt>
      <trkpt lat="47.1995" lon="6.61654">
        <ele>514</ele>
        <time>2014-05-10T15:12:56.91</time>
      </trkpt>
      <trkpt lat="47.19957" lon="6.61657">
        <ele>515</ele>
        <time>2014-05-10T15:12:58.90</time>
      </trkpt>
      <trkpt lat="47.19965" lon="6.6166">
        <ele>514</ele>
        <time>2014-05-10T15:13:00.89</time>
      </trkpt>
      <trkpt lat="47.19974" lon="6.61666">
        <ele>514</ele>
        <time>2014-05-10T15:13:03.91</time>
      </trkpt>
      <trkpt lat="47.19966" lon="6.61667">
        <ele>510</ele>
        <time>2014-05-10T15:13:10.91</time>
      </trkpt>
      <trkpt lat="47.19956" lon="6.61663">
        <ele>513</ele>
        <time>2014-05-10T15:13:13.89</time>
      </trkpt>
      <trkpt lat="47.19948" lon="6.61661">
        <ele>513</ele>
        <time>2014-05-10T15:13:15.90</time>
      </trkpt>
      <trkpt lat="47.1994" lon="6.61659">
        <ele>517</ele>
        <time>2014-05-10T15:13:17.90</time>
      </trkpt>
      <trkpt lat="47.19932" lon="6.61658">
        <ele>517</ele>
        <time>2014-05-10T15:13:19.88</time>
      </trkpt>
      <trkpt lat="47.19924" lon="6.61657">
        <ele>517</ele>
        <time>2014-05-10T15:13:21.90</time>
      </trkpt>
      <trkpt lat="47.19917" lon="6.61655">
        <ele>517</ele>
        <time>2014-05-10T15:13:23.87</time>
      </trkpt>
      <trkpt lat="47.19907" lon="6.61652">
        <ele>518</ele>
        <time>2014-05-10T15:13:26.89</time>
      </trkpt>
      <trkpt lat="47.19897" lon="6.6165">
        <ele>518</ele>
        <time>2014-05-10T15:13:29.90</time>
      </trkpt>
      <trkpt lat="47.19887" lon="6.61648">
        <ele>515</ele>
        <time>2014-05-10T15:13:32.91</time>
      </trkpt>
      <trkpt lat="47.19878" lon="6.61646">
        <ele>516</ele>
        <time>2014-05-10T15:13:35.89</time>
      </trkpt>
      <trkpt lat="47.19867" lon="6.61645">
        <ele>519</ele>
        <time>2014-05-10T15:13:38.91</time>
      </trkpt>
      <trkpt lat="47.19857" lon="6.61645">
        <ele>520</ele>
        <time>2014-05-10T15:13:41.90</time>
      </trkpt>
      <trkpt lat="47.19848" lon="6.61645">
        <ele>520</ele>
        <time>2014-05-10T15:13:44.91</time>
      </trkpt>
      <trkpt lat="47.19839" lon="6.61645">
        <ele>522</ele>
        <time>2014-05-10T15:13:47.89</time>
      </trkpt>
      <trkpt lat="47.19829" lon="6.61645">
        <ele>523</ele>
        <time>2014-05-10T15:13:50.88</time>
      </trkpt>
      <trkpt lat="47.19819" lon="6.61645">
        <ele>526</ele>
        <time>2014-05-10T15:13:53.90</time>
      </trkpt>
      <trkpt lat="47.19811" lon="6.61645">
        <ele>524</ele>
        <time>2014-05-10T15:13:56.93</time>
      </trkpt>
      <trkpt lat="47.19802" lon="6.61644">
        <ele>527</ele>
        <time>2014-05-10T15:13:59.89</time>
      </trkpt>
      <trkpt lat="47.1979" lon="6.61645">
        <ele>530</ele>
        <time>2014-05-10T15:14:03.90</time>
      </trkpt>
      <trkpt lat="47.19781" lon="6.61646">
        <ele>534</ele>
        <time>2014-05-10T15:14:06.91</time>
      </trkpt>
      <trkpt lat="47.19772" lon="6.61647">
        <ele>531</ele>
        <time>2014-05-10T15:14:09.89</time>
      </trkpt>
      <trkpt lat="47.19763" lon="6.61647">
        <ele>533</ele>
        <time>2014-05-10T15:14:12.97</time>
      </trkpt>
      <trkpt lat="47.19755" lon="6.61647">
        <ele>537</ele>
        <time>2014-05-10T15:14:15.91</time>
      </trkpt>
      <trkpt lat="47.19742" lon="6.61649">
        <ele>539</ele>
        <time>2014-05-10T15:14:21.91</time>
      </trkpt>
      <trkpt lat="47.19728" lon="6.6165">
        <ele>537</ele>
        <time>2014-05-10T15:14:26.91</time>
      </trkpt>
      <trkpt lat="47.19717" lon="6.61653">
        <ele>542</ele>
        <time>2014-05-10T15:14:30.90</time>
      </trkpt>
      <trkpt lat="47.19709" lon="6.61654">
        <ele>544</ele>
        <time>2014-05-10T15:14:32.91</time>
      </trkpt>
      <trkpt lat="47.19691" lon="6.61657">
        <ele>547</ele>
        <time>2014-05-10T15:14:37.90</time>
      </trkpt>
      <trkpt lat="47.19684" lon="6.61658">
        <ele>549</ele>
        <time>2014-05-10T15:14:39.89</time>
      </trkpt>
      <trkpt lat="47.19675" lon="6.61661">
        <ele>551</ele>
        <time>2014-05-10T15:14:42.92</time>
      </trkpt>
      <trkpt lat="47.19665" lon="6.61664">
        <ele>549</ele>
        <time>2014-05-10T15:14:45.93</time>
      </trkpt>
      <trkpt lat="47.19657" lon="6.61669">
        <ele>549</ele>
        <time>2014-05-10T15:14:48.90</time>
      </trkpt>
      <trkpt lat="47.1965" lon="6.61672">
        <ele>544</ele>
        <time>2014-05-10T15:14:50.90</time>
      </trkpt>
      <trkpt lat="47.19642" lon="6.61675">
        <ele>544</ele>
        <time>2014-05-10T15:14:52.91</time>
      </trkpt>
      <trkpt lat="47.19632" lon="6.61679">
        <ele>546</ele>
        <time>2014-05-10T15:14:55.90</time>
      </trkpt>
      <trkpt lat="47.19622" lon="6.61682">
        <ele>546</ele>
        <time>2014-05-10T15:14:58.89</time>
      </trkpt>
      <trkpt lat="47.19614" lon="6.61684">
        <ele>550</ele>
        <time>2014-05-10T15:15:00.94</time>
      </trkpt>
      <trkpt lat="47.19606" lon="6.61689">
        <ele>551</ele>
        <time>2014-05-10T15:15:03.92</time>
      </trkpt>
      <trkpt lat="47.19597" lon="6.61694">
        <ele>553</ele>
        <time>2014-05-10T15:15:06.95</time>
      </trkpt>
      <trkpt lat="47.1959" lon="6.61697">
        <ele>553</ele>
        <time>2014-05-10T15:15:09.94</time>
      </trkpt>
      <trkpt lat="47.1958" lon="6.61704">
        <ele>556</ele>
        <time>2014-05-10T15:15:13.90</time>
      </trkpt>
      <trkpt lat="47.19573" lon="6.61709">
        <ele>556</ele>
        <time>2014-05-10T15:15:15.89</time>
      </trkpt>
      <trkpt lat="47.19564" lon="6.61716">
        <ele>554</ele>
        <time>2014-05-10T15:15:18.89</time>
      </trkpt>
      <trkpt lat="47.19557" lon="6.6172">
        <ele>555</ele>
        <time>2014-05-10T15:15:20.89</time>
      </trkpt>
      <trkpt lat="47.19549" lon="6.61723">
        <ele>558</ele>
        <time>2014-05-10T15:15:22.92</time>
      </trkpt>
      <trkpt lat="47.1954" lon="6.61724">
        <ele>559</ele>
        <time>2014-05-10T15:15:25.91</time>
      </trkpt>
      <trkpt lat="47.1953" lon="6.61728">
        <ele>564</ele>
        <time>2014-05-10T15:15:28.90</time>
      </trkpt>
      <trkpt lat="47.19523" lon="6.61732">
        <ele>564</ele>
        <time>2014-05-10T15:15:30.90</time>
      </trkpt>
      <trkpt lat="47.19516" lon="6.61735">
        <ele>563</ele>
        <time>2014-05-10T15:15:32.89</time>
      </trkpt>
      <trkpt lat="47.19506" lon="6.61739">
        <ele>569</ele>
        <time>2014-05-10T15:15:35.92</time>
      </trkpt>
      <trkpt lat="47.19498" lon="6.61743">
        <ele>567</ele>
        <time>2014-05-10T15:15:38.91</time>
      </trkpt>
      <trkpt lat="47.19488" lon="6.61748">
        <ele>566</ele>
        <time>2014-05-10T15:15:41.92</time>
      </trkpt>
      <trkpt lat="47.19479" lon="6.61755">
        <ele>568</ele>
        <time>2014-05-10T15:15:44.90</time>
      </trkpt>
      <trkpt lat="47.1947" lon="6.61761">
        <ele>567</ele>
        <time>2014-05-10T15:15:47.89</time>
      </trkpt>
      <trkpt lat="47.1946" lon="6.61766">
        <ele>568</ele>
        <time>2014-05-10T15:15:50.90</time>
      </trkpt>
      <trkpt lat="47.19452" lon="6.61772">
        <ele>570</ele>
        <time>2014-05-10T15:15:53.92</time>
      </trkpt>
      <trkpt lat="47.19443" lon="6.61777">
        <ele>570</ele>
        <time>2014-05-10T15:15:56.89</time>
      </trkpt>
      <trkpt lat="47.19434" lon="6.61782">
        <ele>566</ele>
        <time>2014-05-10T15:15:59.89</time>
      </trkpt>
      <trkpt lat="47.19425" lon="6.61787">
        <ele>571</ele>
        <time>2014-05-10T15:16:02.89</time>
      </trkpt>
      <trkpt lat="47.19416" lon="6.61791">
        <ele>573</ele>
        <time>2014-05-10T15:16:05.91</time>
      </trkpt>
      <trkpt lat="47.19407" lon="6.61796">
        <ele>574</ele>
        <time>2014-05-10T15:16:08.92</time>
      </trkpt>
      <trkpt lat="47.19397" lon="6.61801">
        <ele>575</ele>
        <time>2014-05-10T15:16:11.91</time>
      </trkpt>
      <trkpt lat="47.19387" lon="6.61804">
        <ele>569</ele>
        <time>2014-05-10T15:16:14.90</time>
      </trkpt>
      <trkpt lat="47.1938" lon="6.61806">
        <ele>565</ele>
        <time>2014-05-10T15:16:16.92</time>
      </trkpt>
      <trkpt lat="47.19373" lon="6.61809">
        <ele>565</ele>
        <time>2014-05-10T15:16:18.92</time>
      </trkpt>
      <trkpt lat="47.19362" lon="6.61813">
        <ele>567</ele>
        <time>2014-05-10T15:16:22.90</time>
      </trkpt>
      <trkpt lat="47.19354" lon="6.61816">
        <ele>565</ele>
        <time>2014-05-10T15:16:25.90</time>
      </trkpt>
      <trkpt lat="47.19345" lon="6.61819">
        <ele>563</ele>
        <time>2014-05-10T15:16:28.94</time>
      </trkpt>
      <trkpt lat="47.19335" lon="6.61819">
        <ele>563</ele>
        <time>2014-05-10T15:16:31.93</time>
      </trkpt>
      <trkpt lat="47.19328" lon="6.61825">
        <ele>554</ele>
        <time>2014-05-10T15:16:36.93</time>
      </trkpt>
      <trkpt lat="47.19338" lon="6.61826">
        <ele>557</ele>
        <time>2014-05-10T15:16:44.28</time>
      </trkpt>
      <trkpt lat="47.19345" lon="6.61824">
        <ele>558</ele>
        <time>2014-05-10T15:16:47.93</time>
      </trkpt>
      <trkpt lat="47.19353" lon="6.61822">
        <ele>563</ele>
        <time>2014-05-10T15:16:52.90</time>
      </trkpt>
      <trkpt lat="47.19362" lon="6.61819">
        <ele>574</ele>
        <time>2014-05-10T15:16:59.96</time>
      </trkpt>
      <trkpt lat="47.19369" lon="6.61819">
        <ele>578</ele>
        <time>2014-05-10T15:17:04.90</time>
      </trkpt>
      <trkpt lat="47.19377" lon="6.6182">
        <ele>578</ele>
        <time>2014-05-10T15:17:09.90</time>
      </trkpt>
      <trkpt lat="47.19386" lon="6.61819">
        <ele>574</ele>
        <time>2014-05-10T15:17:14.92</time>
      </trkpt>
      <trkpt lat="47.19395" lon="6.61818">
        <ele>577</ele>
        <time>2014-05-10T15:17:18.94</time>
      </trkpt>
      <trkpt lat="47.19404" lon="6.61816">
        <ele>575</ele>
        <time>2014-05-10T15:17:21.92</time>
      </trkpt>
      <trkpt lat="47.19411" lon="6.61814">
        <ele>575</ele>
        <time>2014-05-10T15:17:24.91</time>
      </trkpt>
      <trkpt lat="47.1942" lon="6.61816">
        <ele>577</ele>
        <time>2014-05-10T15:17:29.94</time>
      </trkpt>
      <trkpt lat="47.19429" lon="6.61816">
        <ele>583</ele>
        <time>2014-05-10T15:17:34.91</time>
      </trkpt>
      <trkpt lat="47.19436" lon="6.61814">
        <ele>583</ele>
        <time>2014-05-10T15:17:39.91</time>
      </trkpt>
      <trkpt lat="47.19444" lon="6.61814">
        <ele>585</ele>
        <time>2014-05-10T15:17:44.89</time>
      </trkpt>
      <trkpt lat="47.19453" lon="6.61814">
        <ele>585</ele>
        <time>2014-05-10T15:17:49.88</time>
      </trkpt>
      <trkpt lat="47.19462" lon="6.61813">
        <ele>585</ele>
        <time>2014-05-10T15:17:54.97</time>
      </trkpt>
      <trkpt lat="47.19469" lon="6.61813">
        <ele>581</ele>
        <time>2014-05-10T15:17:58.92</time>
      </trkpt>
      <trkpt lat="47.19477" lon="6.61814">
        <ele>584</ele>
        <time>2014-05-10T15:18:03.89</time>
      </trkpt>
      <trkpt lat="47.19485" lon="6.61814">
        <ele>583</ele>
        <time>2014-05-10T15:18:08.90</time>
      </trkpt>
      <trkpt lat="47.19492" lon="6.61815">
        <ele>588</ele>
        <time>2014-05-10T15:18:14.91</time>
      </trkpt>
      <trkpt lat="47.19498" lon="6.61813">
        <ele>598</ele>
        <time>2014-05-10T15:18:21.92</time>
      </trkpt>
      <trkpt lat="47.19504" lon="6.6181">
        <ele>599</ele>
        <time>2014-05-10T15:18:28.90</time>
      </trkpt>
      <trkpt lat="47.19513" lon="6.61811">
        <ele>599</ele>
        <time>2014-05-10T15:18:34.90</time>
      </trkpt>
      <trkpt lat="47.1952" lon="6.61814">
        <ele>594</ele>
        <time>2014-05-10T15:18:38.92</time>
      </trkpt>
      <trkpt lat="47.19527" lon="6.61816">
        <ele>597</ele>
        <time>2014-05-10T15:18:43.89</time>
      </trkpt>
      <trkpt lat="47.19535" lon="6.61817">
        <ele>596</ele>
        <time>2014-05-10T15:18:48.88</time>
      </trkpt>
      <trkpt lat="47.19543" lon="6.61818">
        <ele>597</ele>
        <time>2014-05-10T15:18:54.91</time>
      </trkpt>
      <trkpt lat="47.1955" lon="6.61819">
        <ele>598</ele>
        <time>2014-05-10T15:19:00.91</time>
      </trkpt>
      <trkpt lat="47.19557" lon="6.61817">
        <ele>601</ele>
        <time>2014-05-10T15:19:05.89</time>
      </trkpt>
      <trkpt lat="47.19561" lon="6.61819">
        <ele>600</ele>
        <time>2014-05-10T15:19:12.90</time>
      </trkpt>
      <trkpt lat="47.19577" lon="6.6182">
        <ele>607</ele>
        <time>2014-05-10T15:19:19.92</time>
      </trkpt>
      <trkpt lat="47.19585" lon="6.61821">
        <ele>603</ele>
        <time>2014-05-10T15:19:25.91</time>
      </trkpt>
      <trkpt lat="47.19591" lon="6.61827">
        <ele>600</ele>
        <time>2014-05-10T15:19:32.87</time>
      </trkpt>
      <trkpt lat="47.19599" lon="6.61828">
        <ele>603</ele>
        <time>2014-05-10T15:19:37.94</time>
      </trkpt>
      <trkpt lat="47.196" lon="6.61827">
        <ele>603</ele>
        <time>2014-05-10T15:19:44.88</time>
      </trkpt>
      <trkpt lat="47.19612" lon="6.61833">
        <ele>608</ele>
        <time>2014-05-10T15:19:45.91</time>
      </trkpt>
      <trkpt lat="47.19614" lon="6.61834">
        <ele>607</ele>
        <time>2014-05-10T15:19:52.89</time>
      </trkpt>
      <trkpt lat="47.19614" lon="6.61829">
        <ele>616</ele>
        <time>2014-05-10T15:19:55.90</time>
      </trkpt>
      <trkpt lat="47.19618" lon="6.61828">
        <ele>619</ele>
        <time>2014-05-10T15:20:02.89</time>
      </trkpt>
      <trkpt lat="47.19624" lon="6.61831">
        <ele>614</ele>
        <time>2014-05-10T15:20:09.93</time>
      </trkpt>
      <trkpt lat="47.19626" lon="6.61834">
        <ele>610</ele>
        <time>2014-05-10T15:20:13.89</time>
      </trkpt>
      <trkpt lat="47.19633" lon="6.61841">
        <ele>615</ele>
        <time>2014-05-10T15:20:18.85</time>
      </trkpt>
      <trkpt lat="47.19638" lon="6.61846">
        <ele>617</ele>
        <time>2014-05-10T15:20:25.86</time>
      </trkpt>
      <trkpt lat="47.19645" lon="6.6185">
        <ele>626</ele>
        <time>2014-05-10T15:20:32.86</time>
      </trkpt>
      <trkpt lat="47.19653" lon="6.61862">
        <ele>631</ele>
        <time>2014-05-10T15:20:39.88</time>
      </trkpt>
      <trkpt lat="47.19659" lon="6.61869">
        <ele>630</ele>
        <time>2014-05-10T15:20:44.81</time>
      </trkpt>
      <trkpt lat="47.19664" lon="6.61877">
        <ele>631</ele>
        <time>2014-05-10T15:20:50.81</time>
      </trkpt>
      <trkpt lat="47.19668" lon="6.61886">
        <ele>631</ele>
        <time>2014-05-10T15:20:56.81</time>
      </trkpt>
      <trkpt lat="47.19675" lon="6.61892">
        <ele>634</ele>
        <time>2014-05-10T15:21:01.83</time>
      </trkpt>
      <trkpt lat="47.19682" lon="6.61896">
        <ele>636</ele>
        <time>2014-05-10T15:21:07.83</time>
      </trkpt>
      <trkpt lat="47.19686" lon="6.61903">
        <ele>632</ele>
        <time>2014-05-10T15:21:14.82</time>
      </trkpt>
      <trkpt lat="47.19691" lon="6.61911">
        <ele>630</ele>
        <time>2014-05-10T15:21:21.81</time>
      </trkpt>
      <trkpt lat="47.19697" lon="6.61916">
        <ele>632</ele>
        <time>2014-05-10T15:21:28.86</time>
      </trkpt>
      <trkpt lat="47.19704" lon="6.61918">
        <ele>634</ele>
        <time>2014-05-10T15:21:34.91</time>
      </trkpt>
      <trkpt lat="47.19709" lon="6.61921">
        <ele>635</ele>
        <time>2014-05-10T15:21:41.86</time>
      </trkpt>
      <trkpt lat="47.19713" lon="6.61924">
        <ele>640</ele>
        <time>2014-05-10T15:21:48.84</time>
      </trkpt>
      <trkpt lat="47.19716" lon="6.61923">
        <ele>639</ele>
        <time>2014-05-10T15:21:55.86</time>
      </trkpt>
      <trkpt lat="47.19721" lon="6.61925">
        <ele>625</ele>
        <time>2014-05-10T15:21:56.90</time>
      </trkpt>
      <trkpt lat="47.19723" lon="6.61927">
        <ele>634</ele>
        <time>2014-05-10T15:22:03.92</time>
      </trkpt>
      <trkpt lat="47.19729" lon="6.61931">
        <ele>629</ele>
        <time>2014-05-10T15:22:07.95</time>
      </trkpt>
      <trkpt lat="47.19731" lon="6.61927">
        <ele>629</ele>
        <time>2014-05-10T15:22:14.89</time>
      </trkpt>
      <trkpt lat="47.19729" lon="6.61924">
        <ele>617</ele>
        <time>2014-05-10T15:22:17.93</time>
      </trkpt>
      <trkpt lat="47.19722" lon="6.61927">
        <ele>629</ele>
        <time>2014-05-10T15:22:35.93</time>
      </trkpt>
      <trkpt lat="47.19719" lon="6.61925">
        <ele>632</ele>
        <time>2014-05-10T15:22:42.89</time>
      </trkpt>
      <trkpt lat="47.19724" lon="6.61931">
        <ele>632</ele>
        <time>2014-05-10T15:22:45.87</time>
      </trkpt>
      <trkpt lat="47.19731" lon="6.61937">
        <ele>630</ele>
        <time>2014-05-10T15:22:50.88</time>
      </trkpt>
      <trkpt lat="47.19734" lon="6.61938">
        <ele>631</ele>
        <time>2014-05-10T15:22:57.88</time>
      </trkpt>
      <trkpt lat="47.19738" lon="6.61938">
        <ele>635</ele>
        <time>2014-05-10T15:23:01.93</time>
      </trkpt>
      <trkpt lat="47.19737" lon="6.61933">
        <ele>632</ele>
        <time>2014-05-10T15:23:07.93</time>
      </trkpt>
      <trkpt lat="47.19738" lon="6.61933">
        <ele>630</ele>
        <time>2014-05-10T15:23:14.95</time>
      </trkpt>
      <trkpt lat="47.1973" lon="6.61931">
        <ele>628</ele>
        <time>2014-05-10T15:23:15.97</time>
      </trkpt>
      <trkpt lat="47.19729" lon="6.61937">
        <ele>630</ele>
        <time>2014-05-10T15:23:22.96</time>
      </trkpt>
      <trkpt lat="47.19736" lon="6.61944">
        <ele>628</ele>
        <time>2014-05-10T15:23:27.98</time>
      </trkpt>
      <trkpt lat="47.19744" lon="6.61948">
        <ele>628</ele>
        <time>2014-05-10T15:23:31.98</time>
      </trkpt>
      <trkpt lat="47.19751" lon="6.61954">
        <ele>630</ele>
        <time>2014-05-10T15:23:37.95</time>
      </trkpt>
      <trkpt lat="47.19758" lon="6.61961">
        <ele>632</ele>
        <time>2014-05-10T15:23:43.95</time>
      </trkpt>
      <trkpt lat="47.19765" lon="6.61968">
        <ele>633</ele>
        <time>2014-05-10T15:23:49.94</time>
      </trkpt>
      <trkpt lat="47.19772" lon="6.61975">
        <ele>634</ele>
        <time>2014-05-10T15:23:56.94</time>
      </trkpt>
      <trkpt lat="47.19778" lon="6.6198">
        <ele>626</ele>
        <time>2014-05-10T15:24:02.99</time>
      </trkpt>
      <trkpt lat="47.19784" lon="6.61987">
        <ele>635</ele>
        <time>2014-05-10T15:24:09.94</time>
      </trkpt>
      <trkpt lat="47.19791" lon="6.61993">
        <ele>635</ele>
        <time>2014-05-10T15:24:15.93</time>
      </trkpt>
      <trkpt lat="47.19796" lon="6.62001">
        <ele>638</ele>
        <time>2014-05-10T15:24:21.92</time>
      </trkpt>
      <trkpt lat="47.19803" lon="6.62007">
        <ele>638</ele>
        <time>2014-05-10T15:24:26.95</time>
      </trkpt>
      <trkpt lat="47.19809" lon="6.62013">
        <ele>635</ele>
        <time>2014-05-10T15:24:32.95</time>
      </trkpt>
      <trkpt lat="47.19815" lon="6.6202">
        <ele>634</ele>
        <time>2014-05-10T15:24:36.96</time>
      </trkpt>
      <trkpt lat="47.19821" lon="6.62023">
        <ele>635</ele>
        <time>2014-05-10T15:24:43.94</time>
      </trkpt>
      <trkpt lat="47.19829" lon="6.62027">
        <ele>636</ele>
        <time>2014-05-10T15:24:47.97</time>
      </trkpt>
      <trkpt lat="47.19838" lon="6.62031">
        <ele>636</ele>
        <time>2014-05-10T15:24:53.95</time>
      </trkpt>
      <trkpt lat="47.19846" lon="6.62033">
        <ele>640</ele>
        <time>2014-05-10T15:24:59.96</time>
      </trkpt>
      <trkpt lat="47.19854" lon="6.62039">
        <ele>641</ele>
        <time>2014-05-10T15:25:05.96</time>
      </trkpt>
      <trkpt lat="47.19861" lon="6.62044">
        <ele>640</ele>
        <time>2014-05-10T15:25:10.97</time>
      </trkpt>
      <trkpt lat="47.19868" lon="6.62049">
        <ele>641</ele>
        <time>2014-05-10T15:25:16.96</time>
      </trkpt>
      <trkpt lat="47.19875" lon="6.62055">
        <ele>645</ele>
        <time>2014-05-10T15:25:21.95</time>
      </trkpt>
      <trkpt lat="47.19882" lon="6.6206">
        <ele>645</ele>
        <time>2014-05-10T15:25:27.96</time>
      </trkpt>
      <trkpt lat="47.19888" lon="6.62063">
        <ele>657</ele>
        <time>2014-05-10T15:25:34.94</time>
      </trkpt>
      <trkpt lat="47.19895" lon="6.62067">
        <ele>651</ele>
        <time>2014-05-10T15:25:39.94</time>
      </trkpt>
      <trkpt lat="47.19903" lon="6.62071">
        <ele>660</ele>
        <time>2014-05-10T15:25:45.96</time>
      </trkpt>
      <trkpt lat="47.1991" lon="6.62074">
        <ele>664</ele>
        <time>2014-05-10T15:25:51.92</time>
      </trkpt>
      <trkpt lat="47.19917" lon="6.6208">
        <ele>671</ele>
        <time>2014-05-10T15:25:58.98</time>
      </trkpt>
      <trkpt lat="47.19921" lon="6.62089">
        <ele>672</ele>
        <time>2014-05-10T15:26:05.93</time>
      </trkpt>
      <trkpt lat="47.19916" lon="6.621">
        <ele>683</ele>
        <time>2014-05-10T15:26:12.94</time>
      </trkpt>
      <trkpt lat="47.19909" lon="6.62106">
        <ele>683</ele>
        <time>2014-05-10T15:26:17.99</time>
      </trkpt>
      <trkpt lat="47.19902" lon="6.6211">
        <ele>677</ele>
        <time>2014-05-10T15:26:24.95</time>
      </trkpt>
      <trkpt lat="47.19895" lon="6.62114">
        <ele>679</ele>
        <time>2014-05-10T15:26:31.97</time>
      </trkpt>
      <trkpt lat="47.19894" lon="6.62115">
        <ele>677</ele>
        <time>2014-05-10T15:26:38.97</time>
      </trkpt>
      <trkpt lat="47.19895" lon="6.62113">
        <ele>683</ele>
        <time>2014-05-10T15:26:45.99</time>
      </trkpt>
      <trkpt lat="47.19891" lon="6.62111">
        <ele>676</ele>
        <time>2014-05-10T15:26:47.98</time>
      </trkpt>
      <trkpt lat="47.19891" lon="6.62112">
        <ele>670</ele>
        <time>2014-05-10T15:26:50.95</time>
      </trkpt>
      <trkpt lat="47.19889" lon="6.62112">
        <ele>682</ele>
        <time>2014-05-10T15:26:52.99</time>
      </trkpt>
      <trkpt lat="47.19882" lon="6.62114">
        <ele>682</ele>
        <time>2014-05-10T15:26:55.95</time>
      </trkpt>
      <trkpt lat="47.19874" lon="6.62115">
        <ele>678</ele>
        <time>2014-05-10T15:26:59.96</time>
      </trkpt>
      <trkpt lat="47.19867" lon="6.62117">
        <ele>673</ele>
        <time>2014-05-10T15:27:04.95</time>
      </trkpt>
      <trkpt lat="47.19861" lon="6.62126">
        <ele>680</ele>
        <time>2014-05-10T15:27:11.97</time>
      </trkpt>
      <trkpt lat="47.19857" lon="6.62136">
        <ele>676</ele>
        <time>2014-05-10T15:27:15.95</time>
      </trkpt>
      <trkpt lat="47.19853" lon="6.62146">
        <ele>674</ele>
        <time>2014-05-10T15:27:20.95</time>
      </trkpt>
      <trkpt lat="47.1985" lon="6.62157">
        <ele>678</ele>
        <time>2014-05-10T15:27:26.95</time>
      </trkpt>
      <trkpt lat="47.19849" lon="6.62168">
        <ele>687</ele>
        <time>2014-05-10T15:27:30.97</time>
      </trkpt>
      <trkpt lat="47.19847" lon="6.62179">
        <ele>688</ele>
        <time>2014-05-10T15:27:35.96</time>
      </trkpt>
      <trkpt lat="47.19843" lon="6.6219">
        <ele>685</ele>
        <time>2014-05-10T15:27:41.96</time>
      </trkpt>
      <trkpt lat="47.19838" lon="6.62198">
        <ele>685</ele>
        <time>2014-05-10T15:27:48.97</time>
      </trkpt>
      <trkpt lat="47.19833" lon="6.62209">
        <ele>688</ele>
        <time>2014-05-10T15:27:55.98</time>
      </trkpt>
      <trkpt lat="47.19828" lon="6.62215">
        <ele>694</ele>
        <time>2014-05-10T15:28:02.96</time>
      </trkpt>
      <trkpt lat="47.19824" lon="6.62224">
        <ele>689</ele>
        <time>2014-05-10T15:28:09.99</time>
      </trkpt>
      <trkpt lat="47.19818" lon="6.62232">
        <ele>692</ele>
        <time>2014-05-10T15:28:16.97</time>
      </trkpt>
      <trkpt lat="47.19816" lon="6.62238">
        <ele>697</ele>
        <time>2014-05-10T15:28:23.97</time>
      </trkpt>
      <trkpt lat="47.19812" lon="6.62242">
        <ele>706</ele>
        <time>2014-05-10T15:28:30.96</time>
      </trkpt>
      <trkpt lat="47.19805" lon="6.62248">
        <ele>708</ele>
        <time>2014-05-10T15:28:36.97</time>
      </trkpt>
      <trkpt lat="47.198" lon="6.62257">
        <ele>710</ele>
        <time>2014-05-10T15:28:40.99</time>
      </trkpt>
      <trkpt lat="47.19797" lon="6.62267">
        <ele>703</ele>
        <time>2014-05-10T15:28:46.96</time>
      </trkpt>
      <trkpt lat="47.19792" lon="6.62276">
        <ele>707</ele>
        <time>2014-05-10T15:28:53.95</time>
      </trkpt>
      <trkpt lat="47.19788" lon="6.62282">
        <ele>713</ele>
        <time>2014-05-10T15:29:01.18</time>
      </trkpt>
      <trkpt lat="47.19777" lon="6.62292">
        <ele>724</ele>
        <time>2014-05-10T15:29:07.98</time>
      </trkpt>
      <trkpt lat="47.19772" lon="6.62296">
        <ele>717</ele>
        <time>2014-05-10T15:29:14.94</time>
      </trkpt>
      <trkpt lat="47.19766" lon="6.62303">
        <ele>725</ele>
        <time>2014-05-10T15:29:20.94</time>
      </trkpt>
      <trkpt lat="47.19762" lon="6.62313">
        <ele>717</ele>
        <time>2014-05-10T15:29:26.95</time>
      </trkpt>
      <trkpt lat="47.19757" lon="6.62324">
        <ele>716</ele>
        <time>2014-05-10T15:29:32.94</time>
      </trkpt>
      <trkpt lat="47.19754" lon="6.62334">
        <ele>718</ele>
        <time>2014-05-10T15:29:38.96</time>
      </trkpt>
      <trkpt lat="47.19751" lon="6.62341">
        <ele>714</ele>
        <time>2014-05-10T15:29:45.96</time>
      </trkpt>
      <trkpt lat="47.19746" lon="6.6235">
        <ele>713</ele>
        <time>2014-05-10T15:29:50.94</time>
      </trkpt>
      <trkpt lat="47.19742" lon="6.6236">
        <ele>713</ele>
        <time>2014-05-10T15:29:56.95</time>
      </trkpt>
      <trkpt lat="47.19738" lon="6.6237">
        <ele>713</ele>
        <time>2014-05-10T15:30:01.96</time>
      </trkpt>
      <trkpt lat="47.19736" lon="6.62374">
        <ele>709</ele>
        <time>2014-05-10T15:30:08.98</time>
      </trkpt>
      <trkpt lat="47.19743" lon="6.62368">
        <ele>722</ele>
        <time>2014-05-10T15:30:15.97</time>
      </trkpt>
      <trkpt lat="47.1974" lon="6.62378">
        <ele>724</ele>
        <time>2014-05-10T15:30:22.98</time>
      </trkpt>
      <trkpt lat="47.19736" lon="6.62388">
        <ele>727</ele>
        <time>2014-05-10T15:30:26.95</time>
      </trkpt>
      <trkpt lat="47.19731" lon="6.62397">
        <ele>729</ele>
        <time>2014-05-10T15:30:32.93</time>
      </trkpt>
      <trkpt lat="47.19724" lon="6.62404">
        <ele>729</ele>
        <time>2014-05-10T15:30:38.94</time>
      </trkpt>
      <trkpt lat="47.19719" lon="6.62413">
        <ele>726</ele>
        <time>2014-05-10T15:30:43.96</time>
      </trkpt>
      <trkpt lat="47.19713" lon="6.62421">
        <ele>727</ele>
        <time>2014-05-10T15:30:48.97</time>
      </trkpt>
      <trkpt lat="47.1971" lon="6.6243">
        <ele>725</ele>
        <time>2014-05-10T15:30:53.96</time>
      </trkpt>
      <trkpt lat="47.1971" lon="6.62442">
        <ele>733</ele>
        <time>2014-05-10T15:30:59.94</time>
      </trkpt>
      <trkpt lat="47.19709" lon="6.62452">
        <ele>741</ele>
        <time>2014-05-10T15:31:04.95</time>
      </trkpt>
      <trkpt lat="47.19706" lon="6.62463">
        <ele>744</ele>
        <time>2014-05-10T15:31:09.96</time>
      </trkpt>
      <trkpt lat="47.19701" lon="6.62473">
        <ele>737</ele>
        <time>2014-05-10T15:31:15.95</time>
      </trkpt>
      <trkpt lat="47.19696" lon="6.62481">
        <ele>741</ele>
        <time>2014-05-10T15:31:21.95</time>
      </trkpt>
      <trkpt lat="47.19691" lon="6.62491">
        <ele>744</ele>
        <time>2014-05-10T15:31:27.95</time>
      </trkpt>
      <trkpt lat="47.19687" lon="6.625">
        <ele>740</ele>
        <time>2014-05-10T15:31:33.92</time>
      </trkpt>
      <trkpt lat="47.19686" lon="6.62511">
        <ele>747</ele>
        <time>2014-05-10T15:31:40.98</time>
      </trkpt>
      <trkpt lat="47.19683" lon="6.6252">
        <ele>746</ele>
        <time>2014-05-10T15:31:45.95</time>
      </trkpt>
      <trkpt lat="47.19681" lon="6.62533">
        <ele>754</ele>
        <time>2014-05-10T15:31:52.96</time>
      </trkpt>
      <trkpt lat="47.19679" lon="6.62545">
        <ele>750</ele>
        <time>2014-05-10T15:31:58.99</time>
      </trkpt>
      <trkpt lat="47.19677" lon="6.62557">
        <ele>753</ele>
        <time>2014-05-10T15:32:03.99</time>
      </trkpt>
      <trkpt lat="47.19673" lon="6.62568">
        <ele>751</ele>
        <time>2014-05-10T15:32:09.93</time>
      </trkpt>
      <trkpt lat="47.19668" lon="6.62577">
        <ele>754</ele>
        <time>2014-05-10T15:32:15.95</time>
      </trkpt>
      <trkpt lat="47.19664" lon="6.62586">
        <ele>756</ele>
        <time>2014-05-10T15:32:19.93</time>
      </trkpt>
      <trkpt lat="47.1966" lon="6.62597">
        <ele>757</ele>
        <time>2014-05-10T15:32:24.96</time>
      </trkpt>
      <trkpt lat="47.19657" lon="6.62607">
        <ele>750</ele>
        <time>2014-05-10T15:32:29.94</time>
      </trkpt>
      <trkpt lat="47.19658" lon="6.62618">
        <ele>756</ele>
        <time>2014-05-10T15:32:35.93</time>
      </trkpt>
      <trkpt lat="47.19656" lon="6.62627">
        <ele>762</ele>
        <time>2014-05-10T15:32:41.96</time>
      </trkpt>
      <trkpt lat="47.19651" lon="6.62639">
        <ele>757</ele>
        <time>2014-05-10T15:32:46.93</time>
      </trkpt>
      <trkpt lat="47.19651" lon="6.62651">
        <ele>756</ele>
        <time>2014-05-10T15:32:50.95</time>
      </trkpt>
      <trkpt lat="47.19649" lon="6.62663">
        <ele>755</ele>
        <time>2014-05-10T15:32:56.94</time>
      </trkpt>
      <trkpt lat="47.19646" lon="6.62671">
        <ele>760</ele>
        <time>2014-05-10T15:33:03.94</time>
      </trkpt>
      <trkpt lat="47.19645" lon="6.62682">
        <ele>760</ele>
        <time>2014-05-10T15:33:10.94</time>
      </trkpt>
      <trkpt lat="47.19644" lon="6.62693">
        <ele>750</ele>
        <time>2014-05-10T15:33:17.95</time>
      </trkpt>
      <trkpt lat="47.19642" lon="6.62705">
        <ele>762</ele>
        <time>2014-05-10T15:33:24.95</time>
      </trkpt>
      <trkpt lat="47.19638" lon="6.62715">
        <ele>758</ele>
        <time>2014-05-10T15:33:29.95</time>
      </trkpt>
      <trkpt lat="47.19632" lon="6.62722">
        <ele>755</ele>
        <time>2014-05-10T15:33:34.93</time>
      </trkpt>
      <trkpt lat="47.19628" lon="6.62734">
        <ele>758</ele>
        <time>2014-05-10T15:33:40.96</time>
      </trkpt>
      <trkpt lat="47.19628" lon="6.62745">
        <ele>755</ele>
        <time>2014-05-10T15:33:45.94</time>
      </trkpt>
      <trkpt lat="47.19628" lon="6.62757">
        <ele>762</ele>
        <time>2014-05-10T15:33:52.94</time>
      </trkpt>
      <trkpt lat="47.19626" lon="6.62768">
        <ele>765</ele>
        <time>2014-05-10T15:33:57.93</time>
      </trkpt>
      <trkpt lat="47.19622" lon="6.62778">
        <ele>769</ele>
        <time>2014-05-10T15:34:02.95</time>
      </trkpt>
      <trkpt lat="47.1962" lon="6.62785">
        <ele>765</ele>
        <time>2014-05-10T15:34:09.97</time>
      </trkpt>
      <trkpt lat="47.19615" lon="6.62794">
        <ele>763</ele>
        <time>2014-05-10T15:34:15.96</time>
      </trkpt>
      <trkpt lat="47.1961" lon="6.628">
        <ele>767</ele>
        <time>2014-05-10T15:34:21.96</time>
      </trkpt>
      <trkpt lat="47.19607" lon="6.62806">
        <ele>771</ele>
        <time>2014-05-10T15:34:28.94</time>
      </trkpt>
      <trkpt lat="47.19608" lon="6.62817">
        <ele>772</ele>
        <time>2014-05-10T15:34:35.95</time>
      </trkpt>
      <trkpt lat="47.19605" lon="6.62827">
        <ele>768</ele>
        <time>2014-05-10T15:34:42.96</time>
      </trkpt>
      <trkpt lat="47.19605" lon="6.62838">
        <ele>773</ele>
        <time>2014-05-10T15:34:47.95</time>
      </trkpt>
      <trkpt lat="47.19602" lon="6.62848">
        <ele>777</ele>
        <time>2014-05-10T15:34:54.96</time>
      </trkpt>
      <trkpt lat="47.19601" lon="6.62856">
        <ele>781</ele>
        <time>2014-05-10T15:35:01.95</time>
      </trkpt>
      <trkpt lat="47.19601" lon="6.62865">
        <ele>785</ele>
        <time>2014-05-10T15:35:08.94</time>
      </trkpt>
      <trkpt lat="47.196" lon="6.62876">
        <ele>788</ele>
        <time>2014-05-10T15:35:15.94</time>
      </trkpt>
      <trkpt lat="47.19597" lon="6.62888">
        <ele>789</ele>
        <time>2014-05-10T15:35:21.94</time>
      </trkpt>
      <trkpt lat="47.19598" lon="6.62899">
        <ele>790</ele>
        <time>2014-05-10T15:35:27.96</time>
      </trkpt>
      <trkpt lat="47.19598" lon="6.62911">
        <ele>798</ele>
        <time>2014-05-10T15:35:32.96</time>
      </trkpt>
      <trkpt lat="47.19595" lon="6.62921">
        <ele>800</ele>
        <time>2014-05-10T15:35:39.8</time>
      </trkpt>
      <trkpt lat="47.1959" lon="6.62928">
        <ele>796</ele>
        <time>2014-05-10T15:35:45.97</time>
      </trkpt>
      <trkpt lat="47.19584" lon="6.62938">
        <ele>790</ele>
        <time>2014-05-10T15:35:51.96</time>
      </trkpt>
      <trkpt lat="47.19582" lon="6.62948">
        <ele>793</ele>
        <time>2014-05-10T15:35:57.97</time>
      </trkpt>
      <trkpt lat="47.19577" lon="6.62958">
        <ele>785</ele>
        <time>2014-05-10T15:36:03.96</time>
      </trkpt>
      <trkpt lat="47.19571" lon="6.62965">
        <ele>788</ele>
        <time>2014-05-10T15:36:10.95</time>
      </trkpt>
      <trkpt lat="47.19565" lon="6.62971">
        <ele>793</ele>
        <time>2014-05-10T15:36:17.97</time>
      </trkpt>
      <trkpt lat="47.19563" lon="6.62983">
        <ele>792</ele>
        <time>2014-05-10T15:36:23.97</time>
      </trkpt>
      <trkpt lat="47.1956" lon="6.62992">
        <ele>802</ele>
        <time>2014-05-10T15:36:30.94</time>
      </trkpt>
      <trkpt lat="47.19558" lon="6.62999">
        <ele>797</ele>
        <time>2014-05-10T15:36:37.97</time>
      </trkpt>
      <trkpt lat="47.19557" lon="6.63007">
        <ele>808</ele>
        <time>2014-05-10T15:36:44.94</time>
      </trkpt>
      <trkpt lat="47.19554" lon="6.63011">
        <ele>806</ele>
        <time>2014-05-10T15:36:51.96</time>
      </trkpt>
      <trkpt lat="47.19549" lon="6.6302">
        <ele>801</ele>
        <time>2014-05-10T15:36:58.94</time>
      </trkpt>
      <trkpt lat="47.19549" lon="6.63031">
        <ele>804</ele>
        <time>2014-05-10T15:37:05.95</time>
      </trkpt>
      <trkpt lat="47.19546" lon="6.63041">
        <ele>807</ele>
        <time>2014-05-10T15:37:12.93</time>
      </trkpt>
      <trkpt lat="47.19543" lon="6.63052">
        <ele>812</ele>
        <time>2014-05-10T15:37:18.94</time>
      </trkpt>
      <trkpt lat="47.19536" lon="6.63057">
        <ele>809</ele>
        <time>2014-05-10T15:37:25.99</time>
      </trkpt>
      <trkpt lat="47.19532" lon="6.63064">
        <ele>810</ele>
        <time>2014-05-10T15:37:32.93</time>
      </trkpt>
      <trkpt lat="47.1953" lon="6.63073">
        <ele>809</ele>
        <time>2014-05-10T15:37:39.94</time>
      </trkpt>
      <trkpt lat="47.19525" lon="6.6308">
        <ele>815</ele>
        <time>2014-05-10T15:37:46.95</time>
      </trkpt>
      <trkpt lat="47.19521" lon="6.63091">
        <ele>816</ele>
        <time>2014-05-10T15:37:51.97</time>
      </trkpt>
      <trkpt lat="47.19516" lon="6.63101">
        <ele>819</ele>
        <time>2014-05-10T15:37:58.78</time>
      </trkpt>
      <trkpt lat="47.19513" lon="6.6311">
        <ele>816</ele>
        <time>2014-05-10T15:38:03.96</time>
      </trkpt>
      <trkpt lat="47.19513" lon="6.63111">
        <ele>807</ele>
        <time>2014-05-10T15:38:10.93</time>
      </trkpt>
      <trkpt lat="47.19513" lon="6.63115">
        <ele>809</ele>
        <time>2014-05-10T15:38:12.8</time>
      </trkpt>
      <trkpt lat="47.19516" lon="6.63115">
        <ele>803</ele>
        <time>2014-05-10T15:38:17.99</time>
      </trkpt>
      <trkpt lat="47.19518" lon="6.63117">
        <ele>814</ele>
        <time>2014-05-10T15:38:19.96</time>
      </trkpt>
      <trkpt lat="47.19521" lon="6.63106">
        <ele>823</ele>
        <time>2014-05-10T15:38:20.96</time>
      </trkpt>
      <trkpt lat="47.19521" lon="6.63116">
        <ele>825</ele>
        <time>2014-05-10T15:38:25.89</time>
      </trkpt>
      <trkpt lat="47.19518" lon="6.6313">
        <ele>827</ele>
        <time>2014-05-10T15:38:28.98</time>
      </trkpt>
      <trkpt lat="47.19514" lon="6.63141">
        <ele>825</ele>
        <time>2014-05-10T15:38:31.91</time>
      </trkpt>
      <trkpt lat="47.19512" lon="6.63152">
        <ele>829</ele>
        <time>2014-05-10T15:38:35.89</time>
      </trkpt>
      <trkpt lat="47.19509" lon="6.63164">
        <ele>827</ele>
        <time>2014-05-10T15:38:39.89</time>
      </trkpt>
      <trkpt lat="47.19509" lon="6.63175">
        <ele>827</ele>
        <time>2014-05-10T15:38:43.91</time>
      </trkpt>
      <trkpt lat="47.19507" lon="6.63185">
        <ele>828</ele>
        <time>2014-05-10T15:38:46.92</time>
      </trkpt>
      <trkpt lat="47.19506" lon="6.63197">
        <ele>828</ele>
        <time>2014-05-10T15:38:50.90</time>
      </trkpt>
      <trkpt lat="47.19507" lon="6.63207">
        <ele>830</ele>
        <time>2014-05-10T15:38:53.92</time>
      </trkpt>
      <trkpt lat="47.19508" lon="6.6322">
        <ele>832</ele>
        <time>2014-05-10T15:38:57.88</time>
      </trkpt>
      <trkpt lat="47.19509" lon="6.63234">
        <ele>837</ele>
        <time>2014-05-10T15:39:01.89</time>
      </trkpt>
      <trkpt lat="47.19512" lon="6.63247">
        <ele>839</ele>
        <time>2014-05-10T15:39:05.92</time>
      </trkpt>
      <trkpt lat="47.19512" lon="6.63258">
        <ele>836</ele>
        <time>2014-05-10T15:39:08.93</time>
      </trkpt>
      <trkpt lat="47.19512" lon="6.63272">
        <ele>831</ele>
        <time>2014-05-10T15:39:12.92</time>
      </trkpt>
      <trkpt lat="47.19514" lon="6.63286">
        <ele>833</ele>
        <time>2014-05-10T15:39:16.93</time>
      </trkpt>
      <trkpt lat="47.19511" lon="6.633">
        <ele>841</ele>
        <time>2014-05-10T15:39:20.94</time>
      </trkpt>
      <trkpt lat="47.19508" lon="6.63312">
        <ele>841</ele>
        <time>2014-05-10T15:39:23.88</time>
      </trkpt>
      <trkpt lat="47.19504" lon="6.63324">
        <ele>840</ele>
        <time>2014-05-10T15:39:27.87</time>
      </trkpt>
      <trkpt lat="47.19499" lon="6.63334">
        <ele>840</ele>
        <time>2014-05-10T15:39:31.89</time>
      </trkpt>
      <trkpt lat="47.19494" lon="6.63343">
        <ele>841</ele>
        <time>2014-05-10T15:39:35.88</time>
      </trkpt>
      <trkpt lat="47.1949" lon="6.63352">
        <ele>836</ele>
        <time>2014-05-10T15:39:39.90</time>
      </trkpt>
      <trkpt lat="47.19485" lon="6.63361">
        <ele>842</ele>
        <time>2014-05-10T15:39:43.89</time>
      </trkpt>
      <trkpt lat="47.19478" lon="6.63369">
        <ele>840</ele>
        <time>2014-05-10T15:39:47.88</time>
      </trkpt>
      <trkpt lat="47.19476" lon="6.63381">
        <ele>835</ele>
        <time>2014-05-10T15:39:52.87</time>
      </trkpt>
      <trkpt lat="47.19474" lon="6.63392">
        <ele>835</ele>
        <time>2014-05-10T15:39:57.87</time>
      </trkpt>
      <trkpt lat="47.1947" lon="6.63402">
        <ele>835</ele>
        <time>2014-05-10T15:40:02.87</time>
      </trkpt>
      <trkpt lat="47.19465" lon="6.63412">
        <ele>839</ele>
        <time>2014-05-10T15:40:08.87</time>
      </trkpt>
      <trkpt lat="47.19462" lon="6.63421">
        <ele>838</ele>
        <time>2014-05-10T15:40:15.87</time>
      </trkpt>
      <trkpt lat="47.19458" lon="6.6343">
        <ele>841</ele>
        <time>2014-05-10T15:40:22.89</time>
      </trkpt>
      <trkpt lat="47.19456" lon="6.63441">
        <ele>846</ele>
        <time>2014-05-10T15:40:28.92</time>
      </trkpt>
      <trkpt lat="47.19452" lon="6.63452">
        <ele>844</ele>
        <time>2014-05-10T15:40:34.89</time>
      </trkpt>
      <trkpt lat="47.19446" lon="6.6346">
        <ele>842</ele>
        <time>2014-05-10T15:40:40.89</time>
      </trkpt>
      <trkpt lat="47.19446" lon="6.6347">
        <ele>843</ele>
        <time>2014-05-10T15:40:44.87</time>
      </trkpt>
      <trkpt lat="47.19444" lon="6.63482">
        <ele>843</ele>
        <time>2014-05-10T15:40:51.91</time>
      </trkpt>
      <trkpt lat="47.19444" lon="6.63494">
        <ele>844</ele>
        <time>2014-05-10T15:40:58.88</time>
      </trkpt>
      <trkpt lat="47.19441" lon="6.63505">
        <ele>848</ele>
        <time>2014-05-10T15:41:04.88</time>
      </trkpt>
      <trkpt lat="47.19435" lon="6.63514">
        <ele>846</ele>
        <time>2014-05-10T15:41:09.90</time>
      </trkpt>
      <trkpt lat="47.1943" lon="6.63522">
        <ele>848</ele>
        <time>2014-05-10T15:41:16.91</time>
      </trkpt>
      <trkpt lat="47.19426" lon="6.63532">
        <ele>852</ele>
        <time>2014-05-10T15:41:23.87</time>
      </trkpt>
      <trkpt lat="47.19425" lon="6.63541">
        <ele>860</ele>
        <time>2014-05-10T15:41:30.90</time>
      </trkpt>
      <trkpt lat="47.19429" lon="6.6355">
        <ele>863</ele>
        <time>2014-05-10T15:41:37.88</time>
      </trkpt>
      <trkpt lat="47.19429" lon="6.63561">
        <ele>865</ele>
        <time>2014-05-10T15:41:44.89</time>
      </trkpt>
      <trkpt lat="47.19428" lon="6.63573">
        <ele>871</ele>
        <time>2014-05-10T15:41:50.92</time>
      </trkpt>
      <trkpt lat="47.19431" lon="6.63582">
        <ele>867</ele>
        <time>2014-05-10T15:41:57.88</time>
      </trkpt>
      <trkpt lat="47.19431" lon="6.63591">
        <ele>861</ele>
        <time>2014-05-10T15:42:04.88</time>
      </trkpt>
      <trkpt lat="47.19431" lon="6.63599">
        <ele>877</ele>
        <time>2014-05-10T15:42:11.88</time>
      </trkpt>
      <trkpt lat="47.19435" lon="6.63607">
        <ele>889</ele>
        <time>2014-05-10T15:42:18.90</time>
      </trkpt>
      <trkpt lat="47.19438" lon="6.63615">
        <ele>890</ele>
        <time>2014-05-10T15:42:25.89</time>
      </trkpt>
      <trkpt lat="47.19442" lon="6.63624">
        <ele>894</ele>
        <time>2014-05-10T15:42:32.89</time>
      </trkpt>
      <trkpt lat="47.19444" lon="6.63634">
        <ele>893</ele>
        <time>2014-05-10T15:42:38.91</time>
      </trkpt>
      <trkpt lat="47.19446" lon="6.63645">
        <ele>893</ele>
        <time>2014-05-10T15:42:44.88</time>
      </trkpt>
      <trkpt lat="47.19446" lon="6.63655">
        <ele>894</ele>
        <time>2014-05-10T15:42:51.94</time>
      </trkpt>
      <trkpt lat="47.19448" lon="6.63662">
        <ele>893</ele>
        <time>2014-05-10T15:42:58.90</time>
      </trkpt>
      <trkpt lat="47.19449" lon="6.63672">
        <ele>891</ele>
        <time>2014-05-10T15:43:03.90</time>
      </trkpt>
      <trkpt lat="47.19448" lon="6.63683">
        <ele>892</ele>
        <time>2014-05-10T15:43:10.89</time>
      </trkpt>
      <trkpt lat="47.19453" lon="6.63693">
        <ele>899</ele>
        <time>2014-05-10T15:43:16.91</time>
      </trkpt>
      <trkpt lat="47.19457" lon="6.63701">
        <ele>894</ele>
        <time>2014-05-10T15:43:23.91</time>
      </trkpt>
      <trkpt lat="47.1946" lon="6.63713">
        <ele>900</ele>
        <time>2014-05-10T15:43:30.90</time>
      </trkpt>
      <trkpt lat="47.19463" lon="6.63724">
        <ele>894</ele>
        <time>2014-05-10T15:43:36.88</time>
      </trkpt>
      <trkpt lat="47.19468" lon="6.63732">
        <ele>898</ele>
        <time>2014-05-10T15:43:42.89</time>
      </trkpt>
      <trkpt lat="47.19471" lon="6.63742">
        <ele>901</ele>
        <time>2014-05-10T15:43:49.90</time>
      </trkpt>
      <trkpt lat="47.19477" lon="6.63749">
        <ele>900</ele>
        <time>2014-05-10T15:43:55.88</time>
      </trkpt>
      <trkpt lat="47.1948" lon="6.63758">
        <ele>903</ele>
        <time>2014-05-10T15:44:00.91</time>
      </trkpt>
      <trkpt lat="47.19485" lon="6.6377">
        <ele>904</ele>
        <time>2014-05-10T15:44:06.92</time>
      </trkpt>
      <trkpt lat="47.19486" lon="6.63782">
        <ele>910</ele>
        <time>2014-05-10T15:44:13.90</time>
      </trkpt>
      <trkpt lat="47.19488" lon="6.63793">
        <ele>902</ele>
        <time>2014-05-10T15:44:19.89</time>
      </trkpt>
      <trkpt lat="47.19491" lon="6.63806">
        <ele>889</ele>
        <time>2014-05-10T15:44:24.94</time>
      </trkpt>
      <trkpt lat="47.19491" lon="6.63818">
        <ele>884</ele>
        <time>2014-05-10T15:44:27.93</time>
      </trkpt>
      <trkpt lat="47.1949" lon="6.6383">
        <ele>883</ele>
        <time>2014-05-10T15:44:32.88</time>
      </trkpt>
      <trkpt lat="47.19489" lon="6.63837">
        <ele>880</ele>
        <time>2014-05-10T15:44:39.89</time>
      </trkpt>
      <trkpt lat="47.19488" lon="6.63841">
        <ele>877</ele>
        <time>2014-05-10T15:44:46.91</time>
      </trkpt>
      <trkpt lat="47.19482" lon="6.63842">
        <ele>870</ele>
        <time>2014-05-10T15:44:53.89</time>
      </trkpt>
      <trkpt lat="47.19481" lon="6.63839">
        <ele>879</ele>
        <time>2014-05-10T15:45:00.87</time>
      </trkpt>
      <trkpt lat="47.19484" lon="6.63834">
        <ele>886</ele>
        <time>2014-05-10T15:45:05.84</time>
      </trkpt>
      <trkpt lat="47.19487" lon="6.63833">
        <ele>892</ele>
        <time>2014-05-10T15:45:07.84</time>
      </trkpt>
      <trkpt lat="47.19487" lon="6.63843">
        <ele>889</ele>
        <time>2014-05-10T15:45:09.84</time>
      </trkpt>
      <trkpt lat="47.19482" lon="6.63854">
        <ele>888</ele>
        <time>2014-05-10T15:45:15.78</time>
      </trkpt>
      <trkpt lat="47.19477" lon="6.63862">
        <ele>890</ele>
        <time>2014-05-10T15:45:19.79</time>
      </trkpt>
      <trkpt lat="47.19471" lon="6.63869">
        <ele>885</ele>
        <time>2014-05-10T15:45:22.80</time>
      </trkpt>
      <trkpt lat="47.19463" lon="6.63878">
        <ele>885</ele>
        <time>2014-05-10T15:45:26.79</time>
      </trkpt>
      <trkpt lat="47.19458" lon="6.63886">
        <ele>884</ele>
        <time>2014-05-10T15:45:30.79</time>
      </trkpt>
      <trkpt lat="47.19456" lon="6.63898">
        <ele>883</ele>
        <time>2014-05-10T15:45:34.82</time>
      </trkpt>
      <trkpt lat="47.19455" lon="6.63912">
        <ele>879</ele>
        <time>2014-05-10T15:45:38.80</time>
      </trkpt>
      <trkpt lat="47.19453" lon="6.63925">
        <ele>881</ele>
        <time>2014-05-10T15:45:41.81</time>
      </trkpt>
      <trkpt lat="47.19452" lon="6.63938">
        <ele>877</ele>
        <time>2014-05-10T15:45:44.81</time>
      </trkpt>
      <trkpt lat="47.19451" lon="6.63958">
        <ele>875</ele>
        <time>2014-05-10T15:45:47.79</time>
      </trkpt>
      <trkpt lat="47.19451" lon="6.63978">
        <ele>874</ele>
        <time>2014-05-10T15:45:49.80</time>
      </trkpt>
      <trkpt lat="47.1945" lon="6.6399">
        <ele>875</ele>
        <time>2014-05-10T15:45:50.81</time>
      </trkpt>
      <trkpt lat="47.19448" lon="6.64008">
        <ele>875</ele>
        <time>2014-05-10T15:45:52.79</time>
      </trkpt>
      <trkpt lat="47.19445" lon="6.64021">
        <ele>872</ele>
        <time>2014-05-10T15:45:54.78</time>
      </trkpt>
      <trkpt lat="47.19442" lon="6.64032">
        <ele>877</ele>
        <time>2014-05-10T15:45:56.79</time>
      </trkpt>
      <trkpt lat="47.19439" lon="6.64044">
        <ele>876</ele>
        <time>2014-05-10T15:45:59.82</time>
      </trkpt>
      <trkpt lat="47.19434" lon="6.64054">
        <ele>874</ele>
        <time>2014-05-10T15:46:03.81</time>
      </trkpt>
      <trkpt lat="47.1943" lon="6.64064">
        <ele>880</ele>
        <time>2014-05-10T15:46:07.80</time>
      </trkpt>
      <trkpt lat="47.19424" lon="6.64076">
        <ele>875</ele>
        <time>2014-05-10T15:46:11.81</time>
      </trkpt>
      <trkpt lat="47.19418" lon="6.64084">
        <ele>873</ele>
        <time>2014-05-10T15:46:14.82</time>
      </trkpt>
      <trkpt lat="47.19413" lon="6.64095">
        <ele>870</ele>
        <time>2014-05-10T15:46:18.81</time>
      </trkpt>
      <trkpt lat="47.19408" lon="6.64104">
        <ele>870</ele>
        <time>2014-05-10T15:46:21.79</time>
      </trkpt>
      <trkpt lat="47.19401" lon="6.64114">
        <ele>874</ele>
        <time>2014-05-10T15:46:24.81</time>
      </trkpt>
      <trkpt lat="47.19395" lon="6.64122">
        <ele>877</ele>
        <time>2014-05-10T15:46:27.82</time>
      </trkpt>
      <trkpt lat="47.19389" lon="6.64132">
        <ele>880</ele>
        <time>2014-05-10T15:46:30.80</time>
      </trkpt>
      <trkpt lat="47.19383" lon="6.64144">
        <ele>876</ele>
        <time>2014-05-10T15:46:33.80</time>
      </trkpt>
      <trkpt lat="47.19378" lon="6.64155">
        <ele>875</ele>
        <time>2014-05-10T15:46:36.82</time>
      </trkpt>
      <trkpt lat="47.19373" lon="6.64166">
        <ele>877</ele>
        <time>2014-05-10T15:46:39.80</time>
      </trkpt>
      <trkpt lat="47.19367" lon="6.64179">
        <ele>874</ele>
        <time>2014-05-10T15:46:42.80</time>
      </trkpt>
      <trkpt lat="47.19363" lon="6.64188">
        <ele>874</ele>
        <time>2014-05-10T15:46:44.82</time>
      </trkpt>
      <trkpt lat="47.19359" lon="6.642">
        <ele>874</ele>
        <time>2014-05-10T15:46:47.79</time>
      </trkpt>
      <trkpt lat="47.19353" lon="6.64209">
        <ele>875</ele>
        <time>2014-05-10T15:46:49.79</time>
      </trkpt>
      <trkpt lat="47.19348" lon="6.64219">
        <ele>875</ele>
        <time>2014-05-10T15:46:51.80</time>
      </trkpt>
      <trkpt lat="47.19342" lon="6.64227">
        <ele>874</ele>
        <time>2014-05-10T15:46:53.81</time>
      </trkpt>
      <trkpt lat="47.19335" lon="6.64236">
        <ele>875</ele>
        <time>2014-05-10T15:46:55.83</time>
      </trkpt>
      <trkpt lat="47.19327" lon="6.64244">
        <ele>877</ele>
        <time>2014-05-10T15:46:57.83</time>
      </trkpt>
      <trkpt lat="47.19321" lon="6.64251">
        <ele>876</ele>
        <time>2014-05-10T15:46:59.84</time>
      </trkpt>
      <trkpt lat="47.19314" lon="6.64259">
        <ele>875</ele>
        <time>2014-05-10T15:47:01.80</time>
      </trkpt>
      <trkpt lat="47.19307" lon="6.64269">
        <ele>876</ele>
        <time>2014-05-10T15:47:03.81</time>
      </trkpt>
      <trkpt lat="47.19301" lon="6.64281">
        <ele>876</ele>
        <time>2014-05-10T15:47:05.80</time>
      </trkpt>
      <trkpt lat="47.19297" lon="6.64291">
        <ele>875</ele>
        <time>2014-05-10T15:47:07.80</time>
      </trkpt>
      <trkpt lat="47.19291" lon="6.64304">
        <ele>875</ele>
        <time>2014-05-10T15:47:10.81</time>
      </trkpt>
      <trkpt lat="47.19286" lon="6.64313">
        <ele>875</ele>
        <time>2014-05-10T15:47:12.81</time>
      </trkpt>
      <trkpt lat="47.19281" lon="6.64325">
        <ele>875</ele>
        <time>2014-05-10T15:47:14.79</time>
      </trkpt>
      <trkpt lat="47.19277" lon="6.64335">
        <ele>875</ele>
        <time>2014-05-10T15:47:16.81</time>
      </trkpt>
      <trkpt lat="47.19273" lon="6.64344">
        <ele>877</ele>
        <time>2014-05-10T15:47:18.82</time>
      </trkpt>
      <trkpt lat="47.19268" lon="6.64352">
        <ele>877</ele>
        <time>2014-05-10T15:47:20.80</time>
      </trkpt>
      <trkpt lat="47.1926" lon="6.64363">
        <ele>880</ele>
        <time>2014-05-10T15:47:23.80</time>
      </trkpt>
      <trkpt lat="47.19255" lon="6.6437">
        <ele>879</ele>
        <time>2014-05-10T15:47:25.82</time>
      </trkpt>
      <trkpt lat="47.1925" lon="6.64379">
        <ele>881</ele>
        <time>2014-05-10T15:47:27.79</time>
      </trkpt>
      <trkpt lat="47.19244" lon="6.64387">
        <ele>880</ele>
        <time>2014-05-10T15:47:29.79</time>
      </trkpt>
      <trkpt lat="47.19237" lon="6.64398">
        <ele>878</ele>
        <time>2014-05-10T15:47:32.81</time>
      </trkpt>
      <trkpt lat="47.19231" lon="6.64411">
        <ele>880</ele>
        <time>2014-05-10T15:47:35.79</time>
      </trkpt>
      <trkpt lat="47.19227" lon="6.6442">
        <ele>881</ele>
        <time>2014-05-10T15:47:37.83</time>
      </trkpt>
      <trkpt lat="47.19222" lon="6.6443">
        <ele>881</ele>
        <time>2014-05-10T15:47:39.83</time>
      </trkpt>
      <trkpt lat="47.19214" lon="6.64441">
        <ele>878</ele>
        <time>2014-05-10T15:47:42.80</time>
      </trkpt>
      <trkpt lat="47.1921" lon="6.6445">
        <ele>875</ele>
        <time>2014-05-10T15:47:44.79</time>
      </trkpt>
      <trkpt lat="47.19207" lon="6.64459">
        <ele>877</ele>
        <time>2014-05-10T15:47:46.79</time>
      </trkpt>
      <trkpt lat="47.19203" lon="6.6447">
        <ele>879</ele>
        <time>2014-05-10T15:47:48.81</time>
      </trkpt>
      <trkpt lat="47.19198" lon="6.64483">
        <ele>879</ele>
        <time>2014-05-10T15:47:50.80</time>
      </trkpt>
      <trkpt lat="47.19195" lon="6.64495">
        <ele>882</ele>
        <time>2014-05-10T15:47:52.82</time>
      </trkpt>
      <trkpt lat="47.19189" lon="6.64505">
        <ele>884</ele>
        <time>2014-05-10T15:47:54.82</time>
      </trkpt>
      <trkpt lat="47.19184" lon="6.64516">
        <ele>884</ele>
        <time>2014-05-10T15:47:56.81</time>
      </trkpt>
      <trkpt lat="47.1918" lon="6.64526">
        <ele>883</ele>
        <time>2014-05-10T15:47:58.81</time>
      </trkpt>
      <trkpt lat="47.19176" lon="6.64536">
        <ele>883</ele>
        <time>2014-05-10T15:48:00.82</time>
      </trkpt>
      <trkpt lat="47.19172" lon="6.64546">
        <ele>883</ele>
        <time>2014-05-10T15:48:02.80</time>
      </trkpt>
      <trkpt lat="47.19167" lon="6.64555">
        <ele>885</ele>
        <time>2014-05-10T15:48:04.81</time>
      </trkpt>
      <trkpt lat="47.19162" lon="6.64564">
        <ele>882</ele>
        <time>2014-05-10T15:48:06.80</time>
      </trkpt>
      <trkpt lat="47.19155" lon="6.64576">
        <ele>885</ele>
        <time>2014-05-10T15:48:09.80</time>
      </trkpt>
      <trkpt lat="47.1915" lon="6.64584">
        <ele>886</ele>
        <time>2014-05-10T15:48:11.82</time>
      </trkpt>
      <trkpt lat="47.19144" lon="6.64596">
        <ele>880</ele>
        <time>2014-05-10T15:48:14.80</time>
      </trkpt>
      <trkpt lat="47.19136" lon="6.64607">
        <ele>880</ele>
        <time>2014-05-10T15:48:17.79</time>
      </trkpt>
      <trkpt lat="47.19129" lon="6.64616">
        <ele>882</ele>
        <time>2014-05-10T15:48:19.80</time>
      </trkpt>
      <trkpt lat="47.19124" lon="6.64623">
        <ele>884</ele>
        <time>2014-05-10T15:48:21.83</time>
      </trkpt>
      <trkpt lat="47.19118" lon="6.64635">
        <ele>886</ele>
        <time>2014-05-10T15:48:24.81</time>
      </trkpt>
      <trkpt lat="47.19113" lon="6.64645">
        <ele>883</ele>
        <time>2014-05-10T15:48:26.80</time>
      </trkpt>
      <trkpt lat="47.19107" lon="6.64655">
        <ele>883</ele>
        <time>2014-05-10T15:48:28.79</time>
      </trkpt>
      <trkpt lat="47.19103" lon="6.64667">
        <ele>886</ele>
        <time>2014-05-10T15:48:30.79</time>
      </trkpt>
      <trkpt lat="47.19099" lon="6.64675">
        <ele>887</ele>
        <time>2014-05-10T15:48:32.79</time>
      </trkpt>
      <trkpt lat="47.19094" lon="6.64688">
        <ele>887</ele>
        <time>2014-05-10T15:48:34.77</time>
      </trkpt>
      <trkpt lat="47.19091" lon="6.64702">
        <ele>888</ele>
        <time>2014-05-10T15:48:37.78</time>
      </trkpt>
      <trkpt lat="47.19088" lon="6.64712">
        <ele>884</ele>
        <time>2014-05-10T15:48:39.79</time>
      </trkpt>
      <trkpt lat="47.19085" lon="6.64728">
        <ele>883</ele>
        <time>2014-05-10T15:48:42.80</time>
      </trkpt>
      <trkpt lat="47.19083" lon="6.64738">
        <ele>885</ele>
        <time>2014-05-10T15:48:44.80</time>
      </trkpt>
      <trkpt lat="47.1908" lon="6.64749">
        <ele>886</ele>
        <time>2014-05-10T15:48:46.78</time>
      </trkpt>
      <trkpt lat="47.19076" lon="6.64759">
        <ele>888</ele>
        <time>2014-05-10T15:48:48.77</time>
      </trkpt>
      <trkpt lat="47.19072" lon="6.6477">
        <ele>890</ele>
        <time>2014-05-10T15:48:50.78</time>
      </trkpt>
      <trkpt lat="47.19068" lon="6.64781">
        <ele>888</ele>
        <time>2014-05-10T15:48:52.81</time>
      </trkpt>
      <trkpt lat="47.19065" lon="6.64792">
        <ele>890</ele>
        <time>2014-05-10T15:48:54.80</time>
      </trkpt>
      <trkpt lat="47.19061" lon="6.64803">
        <ele>890</ele>
        <time>2014-05-10T15:48:56.79</time>
      </trkpt>
      <trkpt lat="47.19058" lon="6.64815">
        <ele>890</ele>
        <time>2014-05-10T15:48:58.78</time>
      </trkpt>
      <trkpt lat="47.19055" lon="6.64827">
        <ele>891</ele>
        <time>2014-05-10T15:49:00.78</time>
      </trkpt>
      <trkpt lat="47.19051" lon="6.6484">
        <ele>893</ele>
        <time>2014-05-10T15:49:02.87</time>
      </trkpt>
      <trkpt lat="47.19048" lon="6.64851">
        <ele>892</ele>
        <time>2014-05-10T15:49:04.79</time>
      </trkpt>
      <trkpt lat="47.19044" lon="6.64865">
        <ele>890</ele>
        <time>2014-05-10T15:49:07.78</time>
      </trkpt>
      <trkpt lat="47.19042" lon="6.64876">
        <ele>892</ele>
        <time>2014-05-10T15:49:09.80</time>
      </trkpt>
      <trkpt lat="47.1904" lon="6.64887">
        <ele>892</ele>
        <time>2014-05-10T15:49:11.82</time>
      </trkpt>
      <trkpt lat="47.19038" lon="6.64898">
        <ele>893</ele>
        <time>2014-05-10T15:49:13.78</time>
      </trkpt>
      <trkpt lat="47.19036" lon="6.64912">
        <ele>893</ele>
        <time>2014-05-10T15:49:16.78</time>
      </trkpt>
      <trkpt lat="47.19035" lon="6.64925">
        <ele>897</ele>
        <time>2014-05-10T15:49:19.78</time>
      </trkpt>
      <trkpt lat="47.19034" lon="6.64937">
        <ele>898</ele>
        <time>2014-05-10T15:49:22.80</time>
      </trkpt>
      <trkpt lat="47.19033" lon="6.64951">
        <ele>898</ele>
        <time>2014-05-10T15:49:25.77</time>
      </trkpt>
      <trkpt lat="47.19032" lon="6.64965">
        <ele>899</ele>
        <time>2014-05-10T15:49:28.78</time>
      </trkpt>
      <trkpt lat="47.19031" lon="6.64976">
        <ele>898</ele>
        <time>2014-05-10T15:49:30.78</time>
      </trkpt>
      <trkpt lat="47.19031" lon="6.64987">
        <ele>898</ele>
        <time>2014-05-10T15:49:32.78</time>
      </trkpt>
      <trkpt lat="47.1903" lon="6.65">
        <ele>900</ele>
        <time>2014-05-10T15:49:35.78</time>
      </trkpt>
      <trkpt lat="47.19028" lon="6.65013">
        <ele>899</ele>
        <time>2014-05-10T15:49:38.81</time>
      </trkpt>
      <trkpt lat="47.19027" lon="6.65024">
        <ele>900</ele>
        <time>2014-05-10T15:49:41.79</time>
      </trkpt>
      <trkpt lat="47.19026" lon="6.65035">
        <ele>902</ele>
        <time>2014-05-10T15:49:44.78</time>
      </trkpt>
      <trkpt lat="47.19024" lon="6.65047">
        <ele>902</ele>
        <time>2014-05-10T15:49:47.77</time>
      </trkpt>
      <trkpt lat="47.19022" lon="6.65059">
        <ele>902</ele>
        <time>2014-05-10T15:49:50.78</time>
      </trkpt>
      <trkpt lat="47.19019" lon="6.6507">
        <ele>904</ele>
        <time>2014-05-10T15:49:53.78</time>
      </trkpt>
      <trkpt lat="47.19016" lon="6.6508">
        <ele>906</ele>
        <time>2014-05-10T15:49:56.84</time>
      </trkpt>
      <trkpt lat="47.19012" lon="6.6509">
        <ele>899</ele>
        <time>2014-05-10T15:49:59.78</time>
      </trkpt>
      <trkpt lat="47.19009" lon="6.65101">
        <ele>903</ele>
        <time>2014-05-10T15:50:02.79</time>
      </trkpt>
      <trkpt lat="47.19005" lon="6.65111">
        <ele>904</ele>
        <time>2014-05-10T15:50:05.78</time>
      </trkpt>
      <trkpt lat="47.19001" lon="6.65121">
        <ele>906</ele>
        <time>2014-05-10T15:50:08.81</time>
      </trkpt>
      <trkpt lat="47.18997" lon="6.65132">
        <ele>910</ele>
        <time>2014-05-10T15:50:11.81</time>
      </trkpt>
      <trkpt lat="47.18992" lon="6.65144">
        <ele>912</ele>
        <time>2014-05-10T15:50:14.79</time>
      </trkpt>
      <trkpt lat="47.18988" lon="6.65154">
        <ele>911</ele>
        <time>2014-05-10T15:50:17.81</time>
      </trkpt>
      <trkpt lat="47.18984" lon="6.65163">
        <ele>909</ele>
        <time>2014-05-10T15:50:20.79</time>
      </trkpt>
      <trkpt lat="47.18979" lon="6.65173">
        <ele>916</ele>
        <time>2014-05-10T15:50:24.82</time>
      </trkpt>
      <trkpt lat="47.18973" lon="6.65181">
        <ele>916</ele>
        <time>2014-05-10T15:50:27.79</time>
      </trkpt>
      <trkpt lat="47.18968" lon="6.65189">
        <ele>915</ele>
        <time>2014-05-10T15:50:30.78</time>
      </trkpt>
      <trkpt lat="47.18961" lon="6.65199">
        <ele>915</ele>
        <time>2014-05-10T15:50:34.80</time>
      </trkpt>
      <trkpt lat="47.18955" lon="6.65206">
        <ele>914</ele>
        <time>2014-05-10T15:50:37.79</time>
      </trkpt>
      <trkpt lat="47.18949" lon="6.65213">
        <ele>914</ele>
        <time>2014-05-10T15:50:41.80</time>
      </trkpt>
      <trkpt lat="47.18944" lon="6.65223">
        <ele>917</ele>
        <time>2014-05-10T15:50:44.81</time>
      </trkpt>
      <trkpt lat="47.1894" lon="6.65233">
        <ele>916</ele>
        <time>2014-05-10T15:50:47.80</time>
      </trkpt>
      <trkpt lat="47.18937" lon="6.65243">
        <ele>915</ele>
        <time>2014-05-10T15:50:50.81</time>
      </trkpt>
      <trkpt lat="47.18936" lon="6.65256">
        <ele>917</ele>
        <time>2014-05-10T15:50:53.98</time>
      </trkpt>
      <trkpt lat="47.18937" lon="6.65269">
        <ele>917</ele>
        <time>2014-05-10T15:50:56.87</time>
      </trkpt>
      <trkpt lat="47.1894" lon="6.65281">
        <ele>914</ele>
        <time>2014-05-10T15:50:59.81</time>
      </trkpt>
      <trkpt lat="47.18942" lon="6.65293">
        <ele>915</ele>
        <time>2014-05-10T15:51:03.18</time>
      </trkpt>
      <trkpt lat="47.18945" lon="6.65305">
        <ele>916</ele>
        <time>2014-05-10T15:51:05.83</time>
      </trkpt>
      <trkpt lat="47.18948" lon="6.65317">
        <ele>917</ele>
        <time>2014-05-10T15:51:08.87</time>
      </trkpt>
      <trkpt lat="47.18951" lon="6.65326">
        <ele>918</ele>
        <time>2014-05-10T15:51:11.86</time>
      </trkpt>
      <trkpt lat="47.18952" lon="6.65339">
        <ele>920</ele>
        <time>2014-05-10T15:51:14.79</time>
      </trkpt>
      <trkpt lat="47.18954" lon="6.65355">
        <ele>920</ele>
        <time>2014-05-10T15:51:17.78</time>
      </trkpt>
      <trkpt lat="47.18953" lon="6.65371">
        <ele>921</ele>
        <time>2014-05-10T15:51:19.78</time>
      </trkpt>
      <trkpt lat="47.18952" lon="6.65389">
        <ele>917</ele>
        <time>2014-05-10T15:51:21.79</time>
      </trkpt>
      <trkpt lat="47.18948" lon="6.65408">
        <ele>916</ele>
        <time>2014-05-10T15:51:23.77</time>
      </trkpt>
      <trkpt lat="47.18944" lon="6.65426">
        <ele>916</ele>
        <time>2014-05-10T15:51:25.78</time>
      </trkpt>
      <trkpt lat="47.1894" lon="6.65444">
        <ele>917</ele>
        <time>2014-05-10T15:51:27.78</time>
      </trkpt>
      <trkpt lat="47.18934" lon="6.65461">
        <ele>915</ele>
        <time>2014-05-10T15:51:29.78</time>
      </trkpt>
      <trkpt lat="47.18927" lon="6.6548">
        <ele>917</ele>
        <time>2014-05-10T15:51:31.77</time>
      </trkpt>
      <trkpt lat="47.18923" lon="6.6549">
        <ele>918</ele>
        <time>2014-05-10T15:51:32.80</time>
      </trkpt>
      <trkpt lat="47.18916" lon="6.65508">
        <ele>916</ele>
        <time>2014-05-10T15:51:34.78</time>
      </trkpt>
      <trkpt lat="47.18912" lon="6.65517">
        <ele>915</ele>
        <time>2014-05-10T15:51:35.82</time>
      </trkpt>
      <trkpt lat="47.18908" lon="6.65527">
        <ele>915</ele>
        <time>2014-05-10T15:51:36.78</time>
      </trkpt>
      <trkpt lat="47.18904" lon="6.65536">
        <ele>914</ele>
        <time>2014-05-10T15:51:37.81</time>
      </trkpt>
      <trkpt lat="47.18896" lon="6.65555">
        <ele>917</ele>
        <time>2014-05-10T15:51:39.79</time>
      </trkpt>
      <trkpt lat="47.18892" lon="6.65565">
        <ele>914</ele>
        <time>2014-05-10T15:51:40.83</time>
      </trkpt>
      <trkpt lat="47.18887" lon="6.65576">
        <ele>914</ele>
        <time>2014-05-10T15:51:41.79</time>
      </trkpt>
      <trkpt lat="47.18884" lon="6.65587">
        <ele>914</ele>
        <time>2014-05-10T15:51:42.80</time>
      </trkpt>
      <trkpt lat="47.18879" lon="6.65598">
        <ele>913</ele>
        <time>2014-05-10T15:51:43.79</time>
      </trkpt>
      <trkpt lat="47.18875" lon="6.6561">
        <ele>910</ele>
        <time>2014-05-10T15:51:44.80</time>
      </trkpt>
      <trkpt lat="47.18871" lon="6.65622">
        <ele>910</ele>
        <time>2014-05-10T15:51:45.78</time>
      </trkpt>
      <trkpt lat="47.18867" lon="6.65633">
        <ele>906</ele>
        <time>2014-05-10T15:51:46.79</time>
      </trkpt>
      <trkpt lat="47.18864" lon="6.65644">
        <ele>905</ele>
        <time>2014-05-10T15:51:47.79</time>
      </trkpt>
      <trkpt lat="47.1886" lon="6.65655">
        <ele>905</ele>
        <time>2014-05-10T15:51:48.82</time>
      </trkpt>
      <trkpt lat="47.18856" lon="6.65668">
        <ele>905</ele>
        <time>2014-05-10T15:51:49.79</time>
      </trkpt>
      <trkpt lat="47.18851" lon="6.6568">
        <ele>905</ele>
        <time>2014-05-10T15:51:50.81</time>
      </trkpt>
      <trkpt lat="47.18848" lon="6.65692">
        <ele>906</ele>
        <time>2014-05-10T15:51:51.78</time>
      </trkpt>
      <trkpt lat="47.18844" lon="6.65705">
        <ele>907</ele>
        <time>2014-05-10T15:51:52.80</time>
      </trkpt>
      <trkpt lat="47.18841" lon="6.65718">
        <ele>906</ele>
        <time>2014-05-10T15:51:53.79</time>
      </trkpt>
      <trkpt lat="47.18838" lon="6.65729">
        <ele>905</ele>
        <time>2014-05-10T15:51:54.82</time>
      </trkpt>
      <trkpt lat="47.18835" lon="6.65742">
        <ele>904</ele>
        <time>2014-05-10T15:51:55.82</time>
      </trkpt>
      <trkpt lat="47.18833" lon="6.65755">
        <ele>904</ele>
        <time>2014-05-10T15:51:56.78</time>
      </trkpt>
      <trkpt lat="47.18831" lon="6.65766">
        <ele>902</ele>
        <time>2014-05-10T15:51:57.80</time>
      </trkpt>
      <trkpt lat="47.18829" lon="6.65778">
        <ele>901</ele>
        <time>2014-05-10T15:51:58.81</time>
      </trkpt>
      <trkpt lat="47.18827" lon="6.65789">
        <ele>899</ele>
        <time>2014-05-10T15:51:59.82</time>
      </trkpt>
      <trkpt lat="47.18826" lon="6.65801">
        <ele>901</ele>
        <time>2014-05-10T15:52:00.79</time>
      </trkpt>
      <trkpt lat="47.18823" lon="6.65811">
        <ele>901</ele>
        <time>2014-05-10T15:52:01.80</time>
      </trkpt>
      <trkpt lat="47.18821" lon="6.65821">
        <ele>902</ele>
        <time>2014-05-10T15:52:02.80</time>
      </trkpt>
      <trkpt lat="47.18816" lon="6.65839">
        <ele>900</ele>
        <time>2014-05-10T15:52:04.80</time>
      </trkpt>
      <trkpt lat="47.18811" lon="6.65857">
        <ele>899</ele>
        <time>2014-05-10T15:52:06.80</time>
      </trkpt>
      <trkpt lat="47.18807" lon="6.65873">
        <ele>899</ele>
        <time>2014-05-10T15:52:08.81</time>
      </trkpt>
      <trkpt lat="47.18803" lon="6.65888">
        <ele>902</ele>
        <time>2014-05-10T15:52:10.82</time>
      </trkpt>
      <trkpt lat="47.188" lon="6.65903">
        <ele>904</ele>
        <time>2014-05-10T15:52:12.79</time>
      </trkpt>
      <trkpt lat="47.18796" lon="6.65914">
        <ele>904</ele>
        <time>2014-05-10T15:52:14.83</time>
      </trkpt>
      <trkpt lat="47.18793" lon="6.65925">
        <ele>904</ele>
        <time>2014-05-10T15:52:16.81</time>
      </trkpt>
      <trkpt lat="47.18789" lon="6.65938">
        <ele>908</ele>
        <time>2014-05-10T15:52:18.79</time>
      </trkpt>
      <trkpt lat="47.18786" lon="6.65949">
        <ele>904</ele>
        <time>2014-05-10T15:52:20.82</time>
      </trkpt>
      <trkpt lat="47.18781" lon="6.65961">
        <ele>906</ele>
        <time>2014-05-10T15:52:22.78</time>
      </trkpt>
      <trkpt lat="47.18777" lon="6.65972">
        <ele>907</ele>
        <time>2014-05-10T15:52:24.79</time>
      </trkpt>
      <trkpt lat="47.18771" lon="6.65985">
        <ele>907</ele>
        <time>2014-05-10T15:52:27.82</time>
      </trkpt>
      <trkpt lat="47.18767" lon="6.65996">
        <ele>909</ele>
        <time>2014-05-10T15:52:29.78</time>
      </trkpt>
      <trkpt lat="47.18762" lon="6.66007">
        <ele>908</ele>
        <time>2014-05-10T15:52:31.81</time>
      </trkpt>
      <trkpt lat="47.18758" lon="6.66019">
        <ele>908</ele>
        <time>2014-05-10T15:52:33.80</time>
      </trkpt>
      <trkpt lat="47.18755" lon="6.66029">
        <ele>908</ele>
        <time>2014-05-10T15:52:35.80</time>
      </trkpt>
      <trkpt lat="47.1875" lon="6.66043">
        <ele>908</ele>
        <time>2014-05-10T15:52:38.80</time>
      </trkpt>
      <trkpt lat="47.18746" lon="6.66052">
        <ele>908</ele>
        <time>2014-05-10T15:52:40.82</time>
      </trkpt>
      <trkpt lat="47.18741" lon="6.66062">
        <ele>908</ele>
        <time>2014-05-10T15:52:42.79</time>
      </trkpt>
      <trkpt lat="47.18736" lon="6.66074">
        <ele>906</ele>
        <time>2014-05-10T15:52:44.78</time>
      </trkpt>
      <trkpt lat="47.18733" lon="6.66086">
        <ele>908</ele>
        <time>2014-05-10T15:52:46.82</time>
      </trkpt>
      <trkpt lat="47.18729" lon="6.66098">
        <ele>909</ele>
        <time>2014-05-10T15:52:48.79</time>
      </trkpt>
      <trkpt lat="47.18724" lon="6.66112">
        <ele>911</ele>
        <time>2014-05-10T15:52:50.78</time>
      </trkpt>
      <trkpt lat="47.1872" lon="6.66123">
        <ele>911</ele>
        <time>2014-05-10T15:52:52.82</time>
      </trkpt>
      <trkpt lat="47.18715" lon="6.66135">
        <ele>909</ele>
        <time>2014-05-10T15:52:54.79</time>
      </trkpt>
      <trkpt lat="47.1871" lon="6.66147">
        <ele>911</ele>
        <time>2014-05-10T15:52:56.80</time>
      </trkpt>
      <trkpt lat="47.18705" lon="6.6616">
        <ele>913</ele>
        <time>2014-05-10T15:52:58.79</time>
      </trkpt>
      <trkpt lat="47.18699" lon="6.66174">
        <ele>909</ele>
        <time>2014-05-10T15:53:00.82</time>
      </trkpt>
      <trkpt lat="47.18692" lon="6.6619">
        <ele>908</ele>
        <time>2014-05-10T15:53:02.78</time>
      </trkpt>
      <trkpt lat="47.18685" lon="6.66207">
        <ele>905</ele>
        <time>2014-05-10T15:53:04.79</time>
      </trkpt>
      <trkpt lat="47.18681" lon="6.66216">
        <ele>907</ele>
        <time>2014-05-10T15:53:05.79</time>
      </trkpt>
      <trkpt lat="47.18674" lon="6.66233">
        <ele>906</ele>
        <time>2014-05-10T15:53:07.79</time>
      </trkpt>
      <trkpt lat="47.18667" lon="6.66249">
        <ele>906</ele>
        <time>2014-05-10T15:53:09.82</time>
      </trkpt>
      <trkpt lat="47.18662" lon="6.66262">
        <ele>904</ele>
        <time>2014-05-10T15:53:11.86</time>
      </trkpt>
      <trkpt lat="47.18657" lon="6.66275">
        <ele>903</ele>
        <time>2014-05-10T15:53:13.82</time>
      </trkpt>
      <trkpt lat="47.18653" lon="6.6629">
        <ele>905</ele>
        <time>2014-05-10T15:53:15.79</time>
      </trkpt>
      <trkpt lat="47.1865" lon="6.66306">
        <ele>907</ele>
        <time>2014-05-10T15:53:17.83</time>
      </trkpt>
      <trkpt lat="47.18648" lon="6.66322">
        <ele>904</ele>
        <time>2014-05-10T15:53:19.82</time>
      </trkpt>
      <trkpt lat="47.18647" lon="6.66336">
        <ele>904</ele>
        <time>2014-05-10T15:53:21.80</time>
      </trkpt>
      <trkpt lat="47.18648" lon="6.66351">
        <ele>904</ele>
        <time>2014-05-10T15:53:23.80</time>
      </trkpt>
      <trkpt lat="47.1865" lon="6.66365">
        <ele>903</ele>
        <time>2014-05-10T15:53:25.84</time>
      </trkpt>
      <trkpt lat="47.18652" lon="6.66377">
        <ele>904</ele>
        <time>2014-05-10T15:53:27.82</time>
      </trkpt>
      <trkpt lat="47.18654" lon="6.66391">
        <ele>903</ele>
        <time>2014-05-10T15:53:29.80</time>
      </trkpt>
      <trkpt lat="47.18657" lon="6.66406">
        <ele>904</ele>
        <time>2014-05-10T15:53:31.79</time>
      </trkpt>
      <trkpt lat="47.18659" lon="6.66421">
        <ele>903</ele>
        <time>2014-05-10T15:53:33.82</time>
      </trkpt>
      <trkpt lat="47.18661" lon="6.66436">
        <ele>903</ele>
        <time>2014-05-10T15:53:35.80</time>
      </trkpt>
      <trkpt lat="47.18664" lon="6.6645">
        <ele>903</ele>
        <time>2014-05-10T15:53:37.79</time>
      </trkpt>
      <trkpt lat="47.18667" lon="6.66464">
        <ele>905</ele>
        <time>2014-05-10T15:53:39.79</time>
      </trkpt>
      <trkpt lat="47.18671" lon="6.66481">
        <ele>905</ele>
        <time>2014-05-10T15:53:41.82</time>
      </trkpt>
      <trkpt lat="47.18675" lon="6.66496">
        <ele>907</ele>
        <time>2014-05-10T15:53:43.80</time>
      </trkpt>
      <trkpt lat="47.18679" lon="6.6651">
        <ele>909</ele>
        <time>2014-05-10T15:53:45.77</time>
      </trkpt>
      <trkpt lat="47.18683" lon="6.66524">
        <ele>904</ele>
        <time>2014-05-10T15:53:47.79</time>
      </trkpt>
      <trkpt lat="47.18687" lon="6.66538">
        <ele>906</ele>
        <time>2014-05-10T15:53:49.78</time>
      </trkpt>
      <trkpt lat="47.18692" lon="6.66553">
        <ele>906</ele>
        <time>2014-05-10T15:53:51.80</time>
      </trkpt>
      <trkpt lat="47.18696" lon="6.66566">
        <ele>910</ele>
        <time>2014-05-10T15:53:53.80</time>
      </trkpt>
      <trkpt lat="47.18701" lon="6.66581">
        <ele>912</ele>
        <time>2014-05-10T15:53:55.76</time>
      </trkpt>
      <trkpt lat="47.18706" lon="6.66595">
        <ele>912</ele>
        <time>2014-05-10T15:53:57.78</time>
      </trkpt>
      <trkpt lat="47.18712" lon="6.66609">
        <ele>908</ele>
        <time>2014-05-10T15:53:59.78</time>
      </trkpt>
      <trkpt lat="47.18718" lon="6.66622">
        <ele>908</ele>
        <time>2014-05-10T15:54:01.79</time>
      </trkpt>
      <trkpt lat="47.18725" lon="6.66636">
        <ele>909</ele>
        <time>2014-05-10T15:54:03.83</time>
      </trkpt>
      <trkpt lat="47.18733" lon="6.6665">
        <ele>910</ele>
        <time>2014-05-10T15:54:05.78</time>
      </trkpt>
      <trkpt lat="47.18741" lon="6.66663">
        <ele>910</ele>
        <time>2014-05-10T15:54:07.78</time>
      </trkpt>
      <trkpt lat="47.1875" lon="6.66677">
        <ele>911</ele>
        <time>2014-05-10T15:54:09.77</time>
      </trkpt>
      <trkpt lat="47.18758" lon="6.6669">
        <ele>912</ele>
        <time>2014-05-10T15:54:11.78</time>
      </trkpt>
      <trkpt lat="47.18766" lon="6.66702">
        <ele>909</ele>
        <time>2014-05-10T15:54:13.77</time>
      </trkpt>
      <trkpt lat="47.18774" lon="6.66714">
        <ele>910</ele>
        <time>2014-05-10T15:54:15.78</time>
      </trkpt>
      <trkpt lat="47.18784" lon="6.66726">
        <ele>910</ele>
        <time>2014-05-10T15:54:17.78</time>
      </trkpt>
      <trkpt lat="47.18794" lon="6.66736">
        <ele>912</ele>
        <time>2014-05-10T15:54:19.77</time>
      </trkpt>
      <trkpt lat="47.18804" lon="6.66747">
        <ele>911</ele>
        <time>2014-05-10T15:54:21.79</time>
      </trkpt>
      <trkpt lat="47.18815" lon="6.66759">
        <ele>912</ele>
        <time>2014-05-10T15:54:23.81</time>
      </trkpt>
      <trkpt lat="47.18826" lon="6.66772">
        <ele>915</ele>
        <time>2014-05-10T15:54:25.79</time>
      </trkpt>
      <trkpt lat="47.18835" lon="6.66786">
        <ele>911</ele>
        <time>2014-05-10T15:54:27.77</time>
      </trkpt>
      <trkpt lat="47.18843" lon="6.66802">
        <ele>908</ele>
        <time>2014-05-10T15:54:29.77</time>
      </trkpt>
      <trkpt lat="47.18851" lon="6.66817">
        <ele>907</ele>
        <time>2014-05-10T15:54:31.78</time>
      </trkpt>
      <trkpt lat="47.18859" lon="6.66832">
        <ele>908</ele>
        <time>2014-05-10T15:54:33.80</time>
      </trkpt>
      <trkpt lat="47.18868" lon="6.66847">
        <ele>904</ele>
        <time>2014-05-10T15:54:35.79</time>
      </trkpt>
      <trkpt lat="47.18875" lon="6.66862">
        <ele>906</ele>
        <time>2014-05-10T15:54:37.80</time>
      </trkpt>
      <trkpt lat="47.18883" lon="6.66878">
        <ele>902</ele>
        <time>2014-05-10T15:54:39.80</time>
      </trkpt>
      <trkpt lat="47.18889" lon="6.66894">
        <ele>901</ele>
        <time>2014-05-10T15:54:41.80</time>
      </trkpt>
      <trkpt lat="47.18895" lon="6.66909">
        <ele>902</ele>
        <time>2014-05-10T15:54:43.79</time>
      </trkpt>
      <trkpt lat="47.189" lon="6.66926">
        <ele>904</ele>
        <time>2014-05-10T15:54:45.79</time>
      </trkpt>
      <trkpt lat="47.18905" lon="6.66941">
        <ele>905</ele>
        <time>2014-05-10T15:54:47.78</time>
      </trkpt>
      <trkpt lat="47.1891" lon="6.66958">
        <ele>905</ele>
        <time>2014-05-10T15:54:49.77</time>
      </trkpt>
      <trkpt lat="47.18915" lon="6.66975">
        <ele>904</ele>
        <time>2014-05-10T15:54:51.79</time>
      </trkpt>
      <trkpt lat="47.1892" lon="6.66992">
        <ele>903</ele>
        <time>2014-05-10T15:54:53.80</time>
      </trkpt>
      <trkpt lat="47.18924" lon="6.67009">
        <ele>902</ele>
        <time>2014-05-10T15:54:55.78</time>
      </trkpt>
      <trkpt lat="47.18928" lon="6.67027">
        <ele>901</ele>
        <time>2014-05-10T15:54:57.77</time>
      </trkpt>
      <trkpt lat="47.18932" lon="6.67045">
        <ele>900</ele>
        <time>2014-05-10T15:54:59.77</time>
      </trkpt>
      <trkpt lat="47.18934" lon="6.67061">
        <ele>901</ele>
        <time>2014-05-10T15:55:01.81</time>
      </trkpt>
      <trkpt lat="47.18937" lon="6.67076">
        <ele>901</ele>
        <time>2014-05-10T15:55:03.83</time>
      </trkpt>
      <trkpt lat="47.18938" lon="6.67091">
        <ele>904</ele>
        <time>2014-05-10T15:55:05.79</time>
      </trkpt>
      <trkpt lat="47.18939" lon="6.67109">
        <ele>903</ele>
        <time>2014-05-10T15:55:07.77</time>
      </trkpt>
      <trkpt lat="47.18941" lon="6.67125">
        <ele>904</ele>
        <time>2014-05-10T15:55:09.78</time>
      </trkpt>
      <trkpt lat="47.18942" lon="6.67141">
        <ele>900</ele>
        <time>2014-05-10T15:55:11.78</time>
      </trkpt>
      <trkpt lat="47.18944" lon="6.67155">
        <ele>904</ele>
        <time>2014-05-10T15:55:13.78</time>
      </trkpt>
      <trkpt lat="47.18945" lon="6.67169">
        <ele>905</ele>
        <time>2014-05-10T15:55:15.78</time>
      </trkpt>
      <trkpt lat="47.18947" lon="6.67183">
        <ele>901</ele>
        <time>2014-05-10T15:55:17.81</time>
      </trkpt>
      <trkpt lat="47.18948" lon="6.67198">
        <ele>900</ele>
        <time>2014-05-10T15:55:19.77</time>
      </trkpt>
      <trkpt lat="47.18951" lon="6.6721">
        <ele>903</ele>
        <time>2014-05-10T15:55:21.79</time>
      </trkpt>
      <trkpt lat="47.18954" lon="6.67224">
        <ele>904</ele>
        <time>2014-05-10T15:55:23.77</time>
      </trkpt>
      <trkpt lat="47.18957" lon="6.67238">
        <ele>904</ele>
        <time>2014-05-10T15:55:25.78</time>
      </trkpt>
      <trkpt lat="47.1896" lon="6.67253">
        <ele>904</ele>
        <time>2014-05-10T15:55:27.77</time>
      </trkpt>
      <trkpt lat="47.18964" lon="6.67267">
        <ele>902</ele>
        <time>2014-05-10T15:55:29.83</time>
      </trkpt>
      <trkpt lat="47.18968" lon="6.67282">
        <ele>906</ele>
        <time>2014-05-10T15:55:31.79</time>
      </trkpt>
      <trkpt lat="47.18973" lon="6.67295">
        <ele>904</ele>
        <time>2014-05-10T15:55:33.78</time>
      </trkpt>
      <trkpt lat="47.18977" lon="6.67308">
        <ele>904</ele>
        <time>2014-05-10T15:55:35.78</time>
      </trkpt>
      <trkpt lat="47.18982" lon="6.67322">
        <ele>904</ele>
        <time>2014-05-10T15:55:37.79</time>
      </trkpt>
      <trkpt lat="47.18987" lon="6.67338">
        <ele>904</ele>
        <time>2014-05-10T15:55:39.80</time>
      </trkpt>
      <trkpt lat="47.18993" lon="6.67354">
        <ele>902</ele>
        <time>2014-05-10T15:55:41.81</time>
      </trkpt>
      <trkpt lat="47.18999" lon="6.67367">
        <ele>906</ele>
        <time>2014-05-10T15:55:43.83</time>
      </trkpt>
      <trkpt lat="47.19005" lon="6.67383">
        <ele>905</ele>
        <time>2014-05-10T15:55:45.80</time>
      </trkpt>
      <trkpt lat="47.19011" lon="6.67398">
        <ele>904</ele>
        <time>2014-05-10T15:55:47.81</time>
      </trkpt>
      <trkpt lat="47.19017" lon="6.67411">
        <ele>908</ele>
        <time>2014-05-10T15:55:49.79</time>
      </trkpt>
      <trkpt lat="47.19024" lon="6.67424">
        <ele>909</ele>
        <time>2014-05-10T15:55:51.79</time>
      </trkpt>
      <trkpt lat="47.19031" lon="6.67437">
        <ele>905</ele>
        <time>2014-05-10T15:55:53.80</time>
      </trkpt>
      <trkpt lat="47.19038" lon="6.67451">
        <ele>903</ele>
        <time>2014-05-10T15:55:55.85</time>
      </trkpt>
      <trkpt lat="47.19044" lon="6.67464">
        <ele>903</ele>
        <time>2014-05-10T15:55:57.80</time>
      </trkpt>
      <trkpt lat="47.19051" lon="6.67476">
        <ele>905</ele>
        <time>2014-05-10T15:55:59.80</time>
      </trkpt>
      <trkpt lat="47.19059" lon="6.67488">
        <ele>906</ele>
        <time>2014-05-10T15:56:01.78</time>
      </trkpt>
      <trkpt lat="47.19067" lon="6.67498">
        <ele>904</ele>
        <time>2014-05-10T15:56:03.79</time>
      </trkpt>
      <trkpt lat="47.19074" lon="6.67507">
        <ele>906</ele>
        <time>2014-05-10T15:56:05.81</time>
      </trkpt>
      <trkpt lat="47.19081" lon="6.67515">
        <ele>908</ele>
        <time>2014-05-10T15:56:07.80</time>
      </trkpt>
      <trkpt lat="47.19088" lon="6.67523">
        <ele>912</ele>
        <time>2014-05-10T15:56:09.80</time>
      </trkpt>
      <trkpt lat="47.19094" lon="6.67532">
        <ele>911</ele>
        <time>2014-05-10T15:56:11.82</time>
      </trkpt>
      <trkpt lat="47.191" lon="6.67539">
        <ele>912</ele>
        <time>2014-05-10T15:56:13.79</time>
      </trkpt>
      <trkpt lat="47.19107" lon="6.67547">
        <ele>912</ele>
        <time>2014-05-10T15:56:15.80</time>
      </trkpt>
      <trkpt lat="47.19112" lon="6.67555">
        <ele>912</ele>
        <time>2014-05-10T15:56:17.79</time>
      </trkpt>
      <trkpt lat="47.19119" lon="6.67565">
        <ele>912</ele>
        <time>2014-05-10T15:56:20.81</time>
      </trkpt>
      <trkpt lat="47.19125" lon="6.67573">
        <ele>909</ele>
        <time>2014-05-10T15:56:22.81</time>
      </trkpt>
      <trkpt lat="47.19131" lon="6.67582">
        <ele>909</ele>
        <time>2014-05-10T15:56:24.77</time>
      </trkpt>
      <trkpt lat="47.19137" lon="6.67594">
        <ele>907</ele>
        <time>2014-05-10T15:56:27.85</time>
      </trkpt>
      <trkpt lat="47.19142" lon="6.67605">
        <ele>906</ele>
        <time>2014-05-10T15:56:30.80</time>
      </trkpt>
      <trkpt lat="47.19147" lon="6.67618">
        <ele>905</ele>
        <time>2014-05-10T15:56:33.77</time>
      </trkpt>
      <trkpt lat="47.19151" lon="6.67631">
        <ele>907</ele>
        <time>2014-05-10T15:56:36.78</time>
      </trkpt>
      <trkpt lat="47.19155" lon="6.67643">
        <ele>907</ele>
        <time>2014-05-10T15:56:39.77</time>
      </trkpt>
      <trkpt lat="47.19158" lon="6.67655">
        <ele>902</ele>
        <time>2014-05-10T15:56:42.80</time>
      </trkpt>
      <trkpt lat="47.1916" lon="6.67668">
        <ele>904</ele>
        <time>2014-05-10T15:56:45.81</time>
      </trkpt>
      <trkpt lat="47.19161" lon="6.6768">
        <ele>906</ele>
        <time>2014-05-10T15:56:47.79</time>
      </trkpt>
      <trkpt lat="47.19162" lon="6.67691">
        <ele>910</ele>
        <time>2014-05-10T15:56:49.81</time>
      </trkpt>
      <trkpt lat="47.19164" lon="6.67705">
        <ele>913</ele>
        <time>2014-05-10T15:56:52.77</time>
      </trkpt>
      <trkpt lat="47.19167" lon="6.67718">
        <ele>916</ele>
        <time>2014-05-10T15:56:55.79</time>
      </trkpt>
      <trkpt lat="47.19172" lon="6.67728">
        <ele>915</ele>
        <time>2014-05-10T15:56:58.78</time>
      </trkpt>
      <trkpt lat="47.19179" lon="6.6774">
        <ele>918</ele>
        <time>2014-05-10T15:57:01.81</time>
      </trkpt>
      <trkpt lat="47.19184" lon="6.6775">
        <ele>915</ele>
        <time>2014-05-10T15:57:04.79</time>
      </trkpt>
      <trkpt lat="47.19189" lon="6.67763">
        <ele>914</ele>
        <time>2014-05-10T15:57:07.79</time>
      </trkpt>
      <trkpt lat="47.19193" lon="6.67774">
        <ele>916</ele>
        <time>2014-05-10T15:57:09.79</time>
      </trkpt>
      <trkpt lat="47.19202" lon="6.67801">
        <ele>920</ele>
        <time>2014-05-10T15:57:15.82</time>
      </trkpt>
      <trkpt lat="47.19204" lon="6.67811">
        <ele>927</ele>
        <time>2014-05-10T15:57:18.83</time>
      </trkpt>
      <trkpt lat="47.19206" lon="6.67824">
        <ele>935</ele>
        <time>2014-05-10T15:57:21.78</time>
      </trkpt>
      <trkpt lat="47.19209" lon="6.67838">
        <ele>939</ele>
        <time>2014-05-10T15:57:24.79</time>
      </trkpt>
      <trkpt lat="47.19214" lon="6.67851">
        <ele>939</ele>
        <time>2014-05-10T15:57:27.77</time>
      </trkpt>
      <trkpt lat="47.19217" lon="6.67863">
        <ele>940</ele>
        <time>2014-05-10T15:57:31.82</time>
      </trkpt>
      <trkpt lat="47.19221" lon="6.67874">
        <ele>932</ele>
        <time>2014-05-10T15:57:34.83</time>
      </trkpt>
      <trkpt lat="47.19227" lon="6.67885">
        <ele>929</ele>
        <time>2014-05-10T15:57:37.80</time>
      </trkpt>
      <trkpt lat="47.19232" lon="6.67898">
        <ele>931</ele>
        <time>2014-05-10T15:57:40.78</time>
      </trkpt>
      <trkpt lat="47.19236" lon="6.67909">
        <ele>934</ele>
        <time>2014-05-10T15:57:43.82</time>
      </trkpt>
      <trkpt lat="47.19242" lon="6.6792">
        <ele>936</ele>
        <time>2014-05-10T15:57:46.78</time>
      </trkpt>
      <trkpt lat="47.1925" lon="6.67934">
        <ele>935</ele>
        <time>2014-05-10T15:57:50.79</time>
      </trkpt>
      <trkpt lat="47.19256" lon="6.67947">
        <ele>938</ele>
        <time>2014-05-10T15:57:54.85</time>
      </trkpt>
      <trkpt lat="47.19262" lon="6.67954">
        <ele>941</ele>
        <time>2014-05-10T15:57:56.79</time>
      </trkpt>
      <trkpt lat="47.19266" lon="6.67961">
        <ele>936</ele>
        <time>2014-05-10T15:57:58.79</time>
      </trkpt>
      <trkpt lat="47.19274" lon="6.6797">
        <ele>937</ele>
        <time>2014-05-10T15:58:01.80</time>
      </trkpt>
      <trkpt lat="47.19279" lon="6.6798">
        <ele>936</ele>
        <time>2014-05-10T15:58:04.81</time>
      </trkpt>
      <trkpt lat="47.19282" lon="6.67993">
        <ele>944</ele>
        <time>2014-05-10T15:58:07.81</time>
      </trkpt>
      <trkpt lat="47.19282" lon="6.68007">
        <ele>938</ele>
        <time>2014-05-10T15:58:10.81</time>
      </trkpt>
      <trkpt lat="47.19285" lon="6.68021">
        <ele>934</ele>
        <time>2014-05-10T15:58:13.81</time>
      </trkpt>
      <trkpt lat="47.1929" lon="6.68029">
        <ele>932</ele>
        <time>2014-05-10T15:58:15.82</time>
      </trkpt>
      <trkpt lat="47.19295" lon="6.68041">
        <ele>933</ele>
        <time>2014-05-10T15:58:18.81</time>
      </trkpt>
      <trkpt lat="47.193" lon="6.68061">
        <ele>940</ele>
        <time>2014-05-10T15:58:22.79</time>
      </trkpt>
      <trkpt lat="47.19304" lon="6.68073">
        <ele>941</ele>
        <time>2014-05-10T15:58:25.78</time>
      </trkpt>
      <trkpt lat="47.19308" lon="6.68084">
        <ele>938</ele>
        <time>2014-05-10T15:58:28.80</time>
      </trkpt>
      <trkpt lat="47.19314" lon="6.68096">
        <ele>934</ele>
        <time>2014-05-10T15:58:31.80</time>
      </trkpt>
      <trkpt lat="47.19317" lon="6.68107">
        <ele>935</ele>
        <time>2014-05-10T15:58:34.82</time>
      </trkpt>
      <trkpt lat="47.19321" lon="6.68119">
        <ele>935</ele>
        <time>2014-05-10T15:58:37.81</time>
      </trkpt>
      <trkpt lat="47.19328" lon="6.68127">
        <ele>943</ele>
        <time>2014-05-10T15:58:40.79</time>
      </trkpt>
      <trkpt lat="47.19332" lon="6.68139">
        <ele>940</ele>
        <time>2014-05-10T15:58:44.77</time>
      </trkpt>
      <trkpt lat="47.19335" lon="6.68153">
        <ele>941</ele>
        <time>2014-05-10T15:58:47.83</time>
      </trkpt>
      <trkpt lat="47.19337" lon="6.68165">
        <ele>939</ele>
        <time>2014-05-10T15:58:50.82</time>
      </trkpt>
      <trkpt lat="47.19339" lon="6.68178">
        <ele>937</ele>
        <time>2014-05-10T15:58:54.81</time>
      </trkpt>
      <trkpt lat="47.19342" lon="6.68189">
        <ele>941</ele>
        <time>2014-05-10T15:58:57.82</time>
      </trkpt>
      <trkpt lat="47.19346" lon="6.68199">
        <ele>938</ele>
        <time>2014-05-10T15:59:00.77</time>
      </trkpt>
      <trkpt lat="47.19352" lon="6.68212">
        <ele>938</ele>
        <time>2014-05-10T15:59:03.79</time>
      </trkpt>
      <trkpt lat="47.19358" lon="6.68234">
        <ele>944</ele>
        <time>2014-05-10T15:59:08.77</time>
      </trkpt>
      <trkpt lat="47.19361" lon="6.68246">
        <ele>949</ele>
        <time>2014-05-10T15:59:11.77</time>
      </trkpt>
      <trkpt lat="47.19367" lon="6.68258">
        <ele>948</ele>
        <time>2014-05-10T15:59:14.80</time>
      </trkpt>
      <trkpt lat="47.19372" lon="6.6827">
        <ele>947</ele>
        <time>2014-05-10T15:59:17.79</time>
      </trkpt>
      <trkpt lat="47.19375" lon="6.68282">
        <ele>946</ele>
        <time>2014-05-10T15:59:20.78</time>
      </trkpt>
      <trkpt lat="47.1938" lon="6.68295">
        <ele>954</ele>
        <time>2014-05-10T15:59:23.78</time>
      </trkpt>
      <trkpt lat="47.19385" lon="6.68306">
        <ele>955</ele>
        <time>2014-05-10T15:59:26.79</time>
      </trkpt>
      <trkpt lat="47.19389" lon="6.68316">
        <ele>955</ele>
        <time>2014-05-10T15:59:28.79</time>
      </trkpt>
      <trkpt lat="47.19391" lon="6.68331">
        <ele>955</ele>
        <time>2014-05-10T15:59:31.80</time>
      </trkpt>
      <trkpt lat="47.19393" lon="6.68345">
        <ele>955</ele>
        <time>2014-05-10T15:59:34.77</time>
      </trkpt>
      <trkpt lat="47.19396" lon="6.68356">
        <ele>955</ele>
        <time>2014-05-10T15:59:37.78</time>
      </trkpt>
      <trkpt lat="47.19397" lon="6.68369">
        <ele>955</ele>
        <time>2014-05-10T15:59:40.78</time>
      </trkpt>
      <trkpt lat="47.19402" lon="6.68383">
        <ele>956</ele>
        <time>2014-05-10T15:59:43.80</time>
      </trkpt>
      <trkpt lat="47.19406" lon="6.68392">
        <ele>956</ele>
        <time>2014-05-10T15:59:45.78</time>
      </trkpt>
      <trkpt lat="47.19411" lon="6.68404">
        <ele>953</ele>
        <time>2014-05-10T15:59:48.81</time>
      </trkpt>
      <trkpt lat="47.19416" lon="6.68418">
        <ele>953</ele>
        <time>2014-05-10T15:59:51.82</time>
      </trkpt>
      <trkpt lat="47.19422" lon="6.68427">
        <ele>953</ele>
        <time>2014-05-10T15:59:53.77</time>
      </trkpt>
      <trkpt lat="47.19425" lon="6.6844">
        <ele>946</ele>
        <time>2014-05-10T15:59:56.79</time>
      </trkpt>
      <trkpt lat="47.19426" lon="6.68455">
        <ele>952</ele>
        <time>2014-05-10T15:59:59.77</time>
      </trkpt>
      <trkpt lat="47.19428" lon="6.68467">
        <ele>953</ele>
        <time>2014-05-10T16:00:02.77</time>
      </trkpt>
      <trkpt lat="47.19428" lon="6.68479">
        <ele>955</ele>
        <time>2014-05-10T16:00:05.76</time>
      </trkpt>
      <trkpt lat="47.19429" lon="6.68492">
        <ele>954</ele>
        <time>2014-05-10T16:00:08.79</time>
      </trkpt>
      <trkpt lat="47.19431" lon="6.68503">
        <ele>954</ele>
        <time>2014-05-10T16:00:11.78</time>
      </trkpt>
      <trkpt lat="47.19437" lon="6.68516">
        <ele>956</ele>
        <time>2014-05-10T16:00:14.78</time>
      </trkpt>
      <trkpt lat="47.19442" lon="6.68526">
        <ele>959</ele>
        <time>2014-05-10T16:00:17.80</time>
      </trkpt>
      <trkpt lat="47.19447" lon="6.68539">
        <ele>958</ele>
        <time>2014-05-10T16:00:20.77</time>
      </trkpt>
      <trkpt lat="47.19451" lon="6.68551">
        <ele>959</ele>
        <time>2014-05-10T16:00:23.77</time>
      </trkpt>
      <trkpt lat="47.19455" lon="6.68563">
        <ele>958</ele>
        <time>2014-05-10T16:00:26.80</time>
      </trkpt>
      <trkpt lat="47.19456" lon="6.68579">
        <ele>955</ele>
        <time>2014-05-10T16:00:29.81</time>
      </trkpt>
      <trkpt lat="47.19458" lon="6.68593">
        <ele>955</ele>
        <time>2014-05-10T16:00:32.77</time>
      </trkpt>
      <trkpt lat="47.19461" lon="6.68608">
        <ele>958</ele>
        <time>2014-05-10T16:00:35.77</time>
      </trkpt>
      <trkpt lat="47.19463" lon="6.68619">
        <ele>958</ele>
        <time>2014-05-10T16:00:37.77</time>
      </trkpt>
      <trkpt lat="47.19464" lon="6.68631">
        <ele>960</ele>
        <time>2014-05-10T16:00:40.76</time>
      </trkpt>
      <trkpt lat="47.19466" lon="6.68643">
        <ele>959</ele>
        <time>2014-05-10T16:00:43.79</time>
      </trkpt>
      <trkpt lat="47.19467" lon="6.68654">
        <ele>962</ele>
        <time>2014-05-10T16:00:46.80</time>
      </trkpt>
      <trkpt lat="47.19469" lon="6.68664">
        <ele>958</ele>
        <time>2014-05-10T16:00:49.79</time>
      </trkpt>
      <trkpt lat="47.19471" lon="6.68676">
        <ele>962</ele>
        <time>2014-05-10T16:00:52.81</time>
      </trkpt>
      <trkpt lat="47.19474" lon="6.68688">
        <ele>960</ele>
        <time>2014-05-10T16:00:55.79</time>
      </trkpt>
      <trkpt lat="47.19478" lon="6.68702">
        <ele>966</ele>
        <time>2014-05-10T16:00:58.79</time>
      </trkpt>
      <trkpt lat="47.19481" lon="6.68714">
        <ele>967</ele>
        <time>2014-05-10T16:01:01.81</time>
      </trkpt>
      <trkpt lat="47.19486" lon="6.68725">
        <ele>969</ele>
        <time>2014-05-10T16:01:04.79</time>
      </trkpt>
      <trkpt lat="47.19491" lon="6.68736">
        <ele>970</ele>
        <time>2014-05-10T16:01:06.78</time>
      </trkpt>
      <trkpt lat="47.19494" lon="6.68746">
        <ele>970</ele>
        <time>2014-05-10T16:01:08.79</time>
      </trkpt>
      <trkpt lat="47.19497" lon="6.68758">
        <ele>965</ele>
        <time>2014-05-10T16:01:11.78</time>
      </trkpt>
      <trkpt lat="47.19501" lon="6.68771">
        <ele>966</ele>
        <time>2014-05-10T16:01:14.78</time>
      </trkpt>
      <trkpt lat="47.19505" lon="6.68784">
        <ele>967</ele>
        <time>2014-05-10T16:01:17.80</time>
      </trkpt>
      <trkpt lat="47.19508" lon="6.68796">
        <ele>970</ele>
        <time>2014-05-10T16:01:20.79</time>
      </trkpt>
      <trkpt lat="47.19511" lon="6.68811">
        <ele>980</ele>
        <time>2014-05-10T16:01:23.78</time>
      </trkpt>
      <trkpt lat="47.19509" lon="6.68825">
        <ele>980</ele>
        <time>2014-05-10T16:01:26.78</time>
      </trkpt>
      <trkpt lat="47.19509" lon="6.68838">
        <ele>979</ele>
        <time>2014-05-10T16:01:29.78</time>
      </trkpt>
      <trkpt lat="47.19512" lon="6.68851">
        <ele>981</ele>
        <time>2014-05-10T16:01:32.81</time>
      </trkpt>
      <trkpt lat="47.19515" lon="6.68863">
        <ele>970</ele>
        <time>2014-05-10T16:01:34.79</time>
      </trkpt>
      <trkpt lat="47.19516" lon="6.68876">
        <ele>969</ele>
        <time>2014-05-10T16:01:37.77</time>
      </trkpt>
      <trkpt lat="47.19516" lon="6.68889">
        <ele>971</ele>
        <time>2014-05-10T16:01:41.79</time>
      </trkpt>
      <trkpt lat="47.19516" lon="6.68902">
        <ele>973</ele>
        <time>2014-05-10T16:01:44.85</time>
      </trkpt>
      <trkpt lat="47.19516" lon="6.68914">
        <ele>980</ele>
        <time>2014-05-10T16:01:47.78</time>
      </trkpt>
      <trkpt lat="47.19516" lon="6.68928">
        <ele>987</ele>
        <time>2014-05-10T16:01:50.79</time>
      </trkpt>
      <trkpt lat="47.19517" lon="6.6894">
        <ele>993</ele>
        <time>2014-05-10T16:01:53.81</time>
      </trkpt>
      <trkpt lat="47.1952" lon="6.68953">
        <ele>997</ele>
        <time>2014-05-10T16:01:56.81</time>
      </trkpt>
      <trkpt lat="47.19522" lon="6.68965">
        <ele>1002</ele>
        <time>2014-05-10T16:01:59.79</time>
      </trkpt>
      <trkpt lat="47.1952" lon="6.68977">
        <ele>990</ele>
        <time>2014-05-10T16:02:01.81</time>
      </trkpt>
      <trkpt lat="47.1952" lon="6.68989">
        <ele>984</ele>
        <time>2014-05-10T16:02:03.85</time>
      </trkpt>
      <trkpt lat="47.1952" lon="6.69">
        <ele>987</ele>
        <time>2014-05-10T16:02:05.83</time>
      </trkpt>
      <trkpt lat="47.19521" lon="6.69014">
        <ele>991</ele>
        <time>2014-05-10T16:02:08.78</time>
      </trkpt>
      <trkpt lat="47.19522" lon="6.69026">
        <ele>984</ele>
        <time>2014-05-10T16:02:11.81</time>
      </trkpt>
      <trkpt lat="47.19524" lon="6.69038">
        <ele>984</ele>
        <time>2014-05-10T16:02:14.78</time>
      </trkpt>
      <trkpt lat="47.19525" lon="6.69051">
        <ele>993</ele>
        <time>2014-05-10T16:02:17.78</time>
      </trkpt>
      <trkpt lat="47.19524" lon="6.69066">
        <ele>997</ele>
        <time>2014-05-10T16:02:20.80</time>
      </trkpt>
      <trkpt lat="47.19521" lon="6.6908">
        <ele>991</ele>
        <time>2014-05-10T16:02:22.77</time>
      </trkpt>
      <trkpt lat="47.1952" lon="6.69094">
        <ele>989</ele>
        <time>2014-05-10T16:02:25.80</time>
      </trkpt>
      <trkpt lat="47.1952" lon="6.6911">
        <ele>992</ele>
        <time>2014-05-10T16:02:28.81</time>
      </trkpt>
      <trkpt lat="47.19522" lon="6.69121">
        <ele>997</ele>
        <time>2014-05-10T16:02:30.76</time>
      </trkpt>
      <trkpt lat="47.19524" lon="6.69132">
        <ele>991</ele>
        <time>2014-05-10T16:02:32.81</time>
      </trkpt>
      <trkpt lat="47.19526" lon="6.69144">
        <ele>994</ele>
        <time>2014-05-10T16:02:34.80</time>
      </trkpt>
      <trkpt lat="47.19529" lon="6.69156">
        <ele>996</ele>
        <time>2014-05-10T16:02:36.83</time>
      </trkpt>
      <trkpt lat="47.19532" lon="6.69166">
        <ele>995</ele>
        <time>2014-05-10T16:02:38.79</time>
      </trkpt>
      <trkpt lat="47.19535" lon="6.69178">
        <ele>993</ele>
        <time>2014-05-10T16:02:40.80</time>
      </trkpt>
      <trkpt lat="47.19538" lon="6.69189">
        <ele>992</ele>
        <time>2014-05-10T16:02:42.86</time>
      </trkpt>
      <trkpt lat="47.19541" lon="6.69199">
        <ele>991</ele>
        <time>2014-05-10T16:02:44.79</time>
      </trkpt>
      <trkpt lat="47.19543" lon="6.69215">
        <ele>986</ele>
        <time>2014-05-10T16:02:47.82</time>
      </trkpt>
      <trkpt lat="47.19545" lon="6.69227">
        <ele>990</ele>
        <time>2014-05-10T16:02:49.79</time>
      </trkpt>
      <trkpt lat="47.19547" lon="6.69239">
        <ele>989</ele>
        <time>2014-05-10T16:02:51.82</time>
      </trkpt>
      <trkpt lat="47.1955" lon="6.69253">
        <ele>987</ele>
        <time>2014-05-10T16:02:53.80</time>
      </trkpt>
      <trkpt lat="47.19553" lon="6.69266">
        <ele>992</ele>
        <time>2014-05-10T16:02:55.81</time>
      </trkpt>
      <trkpt lat="47.19556" lon="6.69279">
        <ele>995</ele>
        <time>2014-05-10T16:02:57.78</time>
      </trkpt>
      <trkpt lat="47.1956" lon="6.6929">
        <ele>998</ele>
        <time>2014-05-10T16:02:59.82</time>
      </trkpt>
      <trkpt lat="47.19563" lon="6.69302">
        <ele>1000</ele>
        <time>2014-05-10T16:03:01.79</time>
      </trkpt>
      <trkpt lat="47.19567" lon="6.69314">
        <ele>1001</ele>
        <time>2014-05-10T16:03:03.79</time>
      </trkpt>
      <trkpt lat="47.1957" lon="6.69324">
        <ele>995</ele>
        <time>2014-05-10T16:03:05.82</time>
      </trkpt>
      <trkpt lat="47.19574" lon="6.69335">
        <ele>994</ele>
        <time>2014-05-10T16:03:07.81</time>
      </trkpt>
      <trkpt lat="47.19577" lon="6.69348">
        <ele>993</ele>
        <time>2014-05-10T16:03:09.83</time>
      </trkpt>
      <trkpt lat="47.19579" lon="6.69364">
        <ele>993</ele>
        <time>2014-05-10T16:03:11.80</time>
      </trkpt>
      <trkpt lat="47.19583" lon="6.69381">
        <ele>989</ele>
        <time>2014-05-10T16:03:13.79</time>
      </trkpt>
      <trkpt lat="47.19588" lon="6.69396">
        <ele>992</ele>
        <time>2014-05-10T16:03:15.80</time>
      </trkpt>
      <trkpt lat="47.19594" lon="6.69412">
        <ele>993</ele>
        <time>2014-05-10T16:03:17.81</time>
      </trkpt>
      <trkpt lat="47.19599" lon="6.69427">
        <ele>993</ele>
        <time>2014-05-10T16:03:19.79</time>
      </trkpt>
      <trkpt lat="47.19603" lon="6.6944">
        <ele>994</ele>
        <time>2014-05-10T16:03:21.80</time>
      </trkpt>
      <trkpt lat="47.19604" lon="6.69453">
        <ele>991</ele>
        <time>2014-05-10T16:03:23.78</time>
      </trkpt>
      <trkpt lat="47.19607" lon="6.69464">
        <ele>990</ele>
        <time>2014-05-10T16:03:25.79</time>
      </trkpt>
      <trkpt lat="47.1961" lon="6.69478">
        <ele>995</ele>
        <time>2014-05-10T16:03:27.78</time>
      </trkpt>
      <trkpt lat="47.19614" lon="6.69491">
        <ele>995</ele>
        <time>2014-05-10T16:03:29.79</time>
      </trkpt>
      <trkpt lat="47.19617" lon="6.69502">
        <ele>995</ele>
        <time>2014-05-10T16:03:31.82</time>
      </trkpt>
      <trkpt lat="47.19624" lon="6.69514">
        <ele>996</ele>
        <time>2014-05-10T16:03:33.81</time>
      </trkpt>
      <trkpt lat="47.1963" lon="6.69523">
        <ele>995</ele>
        <time>2014-05-10T16:03:35.79</time>
      </trkpt>
      <trkpt lat="47.19635" lon="6.69534">
        <ele>998</ele>
        <time>2014-05-10T16:03:37.80</time>
      </trkpt>
      <trkpt lat="47.19639" lon="6.69547">
        <ele>997</ele>
        <time>2014-05-10T16:03:39.82</time>
      </trkpt>
      <trkpt lat="47.19642" lon="6.69558">
        <ele>997</ele>
        <time>2014-05-10T16:03:41.79</time>
      </trkpt>
      <trkpt lat="47.19646" lon="6.69572">
        <ele>993</ele>
        <time>2014-05-10T16:03:43.78</time>
      </trkpt>
      <trkpt lat="47.19648" lon="6.69584">
        <ele>991</ele>
        <time>2014-05-10T16:03:45.80</time>
      </trkpt>
      <trkpt lat="47.19648" lon="6.69596">
        <ele>987</ele>
        <time>2014-05-10T16:03:47.79</time>
      </trkpt>
      <trkpt lat="47.19649" lon="6.69607">
        <ele>982</ele>
        <time>2014-05-10T16:03:49.81</time>
      </trkpt>
      <trkpt lat="47.19651" lon="6.69619">
        <ele>978</ele>
        <time>2014-05-10T16:03:51.78</time>
      </trkpt>
      <trkpt lat="47.19656" lon="6.69628">
        <ele>977</ele>
        <time>2014-05-10T16:03:53.78</time>
      </trkpt>
      <trkpt lat="47.1966" lon="6.69639">
        <ele>979</ele>
        <time>2014-05-10T16:03:55.79</time>
      </trkpt>
      <trkpt lat="47.19665" lon="6.6965">
        <ele>977</ele>
        <time>2014-05-10T16:03:57.85</time>
      </trkpt>
      <trkpt lat="47.19668" lon="6.69661">
        <ele>977</ele>
        <time>2014-05-10T16:03:59.80</time>
      </trkpt>
      <trkpt lat="47.19674" lon="6.6967">
        <ele>980</ele>
        <time>2014-05-10T16:04:01.82</time>
      </trkpt>
      <trkpt lat="47.19677" lon="6.69682">
        <ele>977</ele>
        <time>2014-05-10T16:04:04.79</time>
      </trkpt>
      <trkpt lat="47.1968" lon="6.69695">
        <ele>977</ele>
        <time>2014-05-10T16:04:07.78</time>
      </trkpt>
      <trkpt lat="47.19682" lon="6.69708">
        <ele>973</ele>
        <time>2014-05-10T16:04:10.79</time>
      </trkpt>
      <trkpt lat="47.19682" lon="6.69724">
        <ele>976</ele>
        <time>2014-05-10T16:04:13.80</time>
      </trkpt>
      <trkpt lat="47.19684" lon="6.69734">
        <ele>977</ele>
        <time>2014-05-10T16:04:15.76</time>
      </trkpt>
      <trkpt lat="47.19685" lon="6.69748">
        <ele>980</ele>
        <time>2014-05-10T16:04:18.77</time>
      </trkpt>
      <trkpt lat="47.19685" lon="6.69758">
        <ele>983</ele>
        <time>2014-05-10T16:04:20.77</time>
      </trkpt>
      <trkpt lat="47.19689" lon="6.69769">
        <ele>986</ele>
        <time>2014-05-10T16:04:23.77</time>
      </trkpt>
      <trkpt lat="47.19692" lon="6.69779">
        <ele>990</ele>
        <time>2014-05-10T16:04:26.76</time>
      </trkpt>
      <trkpt lat="47.19698" lon="6.69788">
        <ele>990</ele>
        <time>2014-05-10T16:04:29.77</time>
      </trkpt>
      <trkpt lat="47.19705" lon="6.69798">
        <ele>989</ele>
        <time>2014-05-10T16:04:32.77</time>
      </trkpt>
      <trkpt lat="47.19712" lon="6.69804">
        <ele>988</ele>
        <time>2014-05-10T16:04:34.78</time>
      </trkpt>
      <trkpt lat="47.19719" lon="6.69811">
        <ele>992</ele>
        <time>2014-05-10T16:04:36.80</time>
      </trkpt>
      <trkpt lat="47.19728" lon="6.69819">
        <ele>991</ele>
        <time>2014-05-10T16:04:38.82</time>
      </trkpt>
      <trkpt lat="47.19737" lon="6.69829">
        <ele>986</ele>
        <time>2014-05-10T16:04:40.80</time>
      </trkpt>
      <trkpt lat="47.19744" lon="6.69838">
        <ele>977</ele>
        <time>2014-05-10T16:04:42.79</time>
      </trkpt>
      <trkpt lat="47.19755" lon="6.69845">
        <ele>977</ele>
        <time>2014-05-10T16:04:44.78</time>
      </trkpt>
      <trkpt lat="47.19765" lon="6.69852">
        <ele>975</ele>
        <time>2014-05-10T16:04:46.77</time>
      </trkpt>
      <trkpt lat="47.19773" lon="6.6986">
        <ele>977</ele>
        <time>2014-05-10T16:04:48.79</time>
      </trkpt>
      <trkpt lat="47.1978" lon="6.69869">
        <ele>975</ele>
        <time>2014-05-10T16:04:50.79</time>
      </trkpt>
      <trkpt lat="47.19786" lon="6.69879">
        <ele>976</ele>
        <time>2014-05-10T16:04:52.78</time>
      </trkpt>
      <trkpt lat="47.19792" lon="6.69888">
        <ele>976</ele>
        <time>2014-05-10T16:04:54.77</time>
      </trkpt>
      <trkpt lat="47.19798" lon="6.69899">
        <ele>977</ele>
        <time>2014-05-10T16:04:57.77</time>
      </trkpt>
      <trkpt lat="47.19803" lon="6.69909">
        <ele>977</ele>
        <time>2014-05-10T16:04:59.79</time>
      </trkpt>
      <trkpt lat="47.19806" lon="6.69919">
        <ele>978</ele>
        <time>2014-05-10T16:05:01.76</time>
      </trkpt>
      <trkpt lat="47.1981" lon="6.69929">
        <ele>976</ele>
        <time>2014-05-10T16:05:03.79</time>
      </trkpt>
      <trkpt lat="47.19814" lon="6.69943">
        <ele>979</ele>
        <time>2014-05-10T16:05:06.77</time>
      </trkpt>
      <trkpt lat="47.19818" lon="6.69952">
        <ele>985</ele>
        <time>2014-05-10T16:05:08.78</time>
      </trkpt>
      <trkpt lat="47.19822" lon="6.69963">
        <ele>983</ele>
        <time>2014-05-10T16:05:10.77</time>
      </trkpt>
      <trkpt lat="47.19826" lon="6.69973">
        <ele>982</ele>
        <time>2014-05-10T16:05:12.80</time>
      </trkpt>
      <trkpt lat="47.19829" lon="6.69984">
        <ele>981</ele>
        <time>2014-05-10T16:05:14.83</time>
      </trkpt>
      <trkpt lat="47.19834" lon="6.69995">
        <ele>978</ele>
        <time>2014-05-10T16:05:16.80</time>
      </trkpt>
      <trkpt lat="47.19838" lon="6.70005">
        <ele>978</ele>
        <time>2014-05-10T16:05:18.81</time>
      </trkpt>
      <trkpt lat="47.19843" lon="6.70016">
        <ele>978</ele>
        <time>2014-05-10T16:05:20.77</time>
      </trkpt>
      <trkpt lat="47.19848" lon="6.70026">
        <ele>980</ele>
        <time>2014-05-10T16:05:22.79</time>
      </trkpt>
      <trkpt lat="47.19852" lon="6.70036">
        <ele>981</ele>
        <time>2014-05-10T16:05:24.77</time>
      </trkpt>
      <trkpt lat="47.19857" lon="6.70046">
        <ele>982</ele>
        <time>2014-05-10T16:05:26.77</time>
      </trkpt>
      <trkpt lat="47.19863" lon="6.70057">
        <ele>979</ele>
        <time>2014-05-10T16:05:28.88</time>
      </trkpt>
      <trkpt lat="47.19868" lon="6.70068">
        <ele>981</ele>
        <time>2014-05-10T16:05:30.78</time>
      </trkpt>
      <trkpt lat="47.19873" lon="6.7008">
        <ele>981</ele>
        <time>2014-05-10T16:05:32.79</time>
      </trkpt>
      <trkpt lat="47.19878" lon="6.7009">
        <ele>982</ele>
        <time>2014-05-10T16:05:34.81</time>
      </trkpt>
      <trkpt lat="47.19881" lon="6.70104">
        <ele>982</ele>
        <time>2014-05-10T16:05:36.77</time>
      </trkpt>
      <trkpt lat="47.19886" lon="6.70117">
        <ele>981</ele>
        <time>2014-05-10T16:05:38.78</time>
      </trkpt>
      <trkpt lat="47.19891" lon="6.70128">
        <ele>980</ele>
        <time>2014-05-10T16:05:40.79</time>
      </trkpt>
      <trkpt lat="47.19897" lon="6.7014">
        <ele>982</ele>
        <time>2014-05-10T16:05:42.77</time>
      </trkpt>
      <trkpt lat="47.19903" lon="6.7015">
        <ele>980</ele>
        <time>2014-05-10T16:05:44.79</time>
      </trkpt>
      <trkpt lat="47.19909" lon="6.7016">
        <ele>980</ele>
        <time>2014-05-10T16:05:46.78</time>
      </trkpt>
      <trkpt lat="47.19915" lon="6.70171">
        <ele>980</ele>
        <time>2014-05-10T16:05:48.78</time>
      </trkpt>
      <trkpt lat="47.19919" lon="6.70183">
        <ele>979</ele>
        <time>2014-05-10T16:05:50.80</time>
      </trkpt>
      <trkpt lat="47.19922" lon="6.70196">
        <ele>977</ele>
        <time>2014-05-10T16:05:52.78</time>
      </trkpt>
      <trkpt lat="47.19924" lon="6.70208">
        <ele>977</ele>
        <time>2014-05-10T16:05:54.79</time>
      </trkpt>
      <trkpt lat="47.19925" lon="6.7022">
        <ele>978</ele>
        <time>2014-05-10T16:05:56.78</time>
      </trkpt>
      <trkpt lat="47.19926" lon="6.70236">
        <ele>980</ele>
        <time>2014-05-10T16:05:59.78</time>
      </trkpt>
      <trkpt lat="47.19928" lon="6.70248">
        <ele>984</ele>
        <time>2014-05-10T16:06:01.78</time>
      </trkpt>
      <trkpt lat="47.19932" lon="6.70259">
        <ele>985</ele>
        <time>2014-05-10T16:06:03.77</time>
      </trkpt>
      <trkpt lat="47.19936" lon="6.70269">
        <ele>988</ele>
        <time>2014-05-10T16:06:06.78</time>
      </trkpt>
      <trkpt lat="47.19941" lon="6.70282">
        <ele>990</ele>
        <time>2014-05-10T16:06:09.80</time>
      </trkpt>
      <trkpt lat="47.19944" lon="6.70293">
        <ele>988</ele>
        <time>2014-05-10T16:06:12.79</time>
      </trkpt>
      <trkpt lat="47.19947" lon="6.70303">
        <ele>986</ele>
        <time>2014-05-10T16:06:17.80</time>
      </trkpt>
      <trkpt lat="47.19949" lon="6.70315">
        <ele>987</ele>
        <time>2014-05-10T16:06:23.80</time>
      </trkpt>
      <trkpt lat="47.19957" lon="6.70318">
        <ele>987</ele>
        <time>2014-05-10T16:06:30.78</time>
      </trkpt>
      <trkpt lat="47.19964" lon="6.70312">
        <ele>987</ele>
        <time>2014-05-10T16:06:37.80</time>
      </trkpt>
      <trkpt lat="47.19966" lon="6.7031">
        <ele>988</ele>
        <time>2014-05-10T16:06:44.84</time>
      </trkpt>
      <trkpt lat="47.19974" lon="6.70311">
        <ele>988</ele>
        <time>2014-05-10T16:06:48.81</time>
      </trkpt>
      <trkpt lat="47.19968" lon="6.70313">
        <ele>991</ele>
        <time>2014-05-10T16:06:55.77</time>
      </trkpt>
      <trkpt lat="47.19964" lon="6.70315">
        <ele>987</ele>
        <time>2014-05-10T16:07:02.75</time>
      </trkpt>
      <trkpt lat="47.19962" lon="6.70318">
        <ele>986</ele>
        <time>2014-05-10T16:07:10.17</time>
      </trkpt>
      <trkpt lat="47.19967" lon="6.70314">
        <ele>988</ele>
        <time>2014-05-10T16:07:16.95</time>
      </trkpt>
      <trkpt lat="47.19967" lon="6.70315">
        <ele>988</ele>
        <time>2014-05-10T16:07:23.86</time>
      </trkpt>
      <trkpt lat="47.19967" lon="6.70313">
        <ele>981</ele>
        <time>2014-05-10T16:07:30.75</time>
      </trkpt>
      <trkpt lat="47.19968" lon="6.70316">
        <ele>988</ele>
        <time>2014-05-10T16:07:32.86</time>
      </trkpt>
      <trkpt lat="47.19968" lon="6.70316">
        <ele>983</ele>
        <time>2014-05-10T16:07:39.77</time>
      </trkpt>
      <trkpt lat="47.19964" lon="6.70315">
        <ele>986</ele>
        <time>2014-05-10T16:07:41.79</time>
      </trkpt>
      <trkpt lat="47.19957" lon="6.70313">
        <ele>990</ele>
        <time>2014-05-10T16:07:48.76</time>
      </trkpt>
      <trkpt lat="47.1995" lon="6.7031">
        <ele>987</ele>
        <time>2014-05-10T16:07:51.86</time>
      </trkpt>
      <trkpt lat="47.19943" lon="6.70309">
        <ele>983</ele>
        <time>2014-05-10T16:07:53.76</time>
      </trkpt>
      <trkpt lat="47.19934" lon="6.70308">
        <ele>984</ele>
        <time>2014-05-10T16:07:55.76</time>
      </trkpt>
      <trkpt lat="47.19924" lon="6.70309">
        <ele>986</ele>
        <time>2014-05-10T16:07:57.78</time>
      </trkpt>
      <trkpt lat="47.19912" lon="6.70309">
        <ele>982</ele>
        <time>2014-05-10T16:07:59.76</time>
      </trkpt>
      <trkpt lat="47.19901" lon="6.70308">
        <ele>979</ele>
        <time>2014-05-10T16:08:02.88</time>
      </trkpt>
      <trkpt lat="47.1989" lon="6.70306">
        <ele>980</ele>
        <time>2014-05-10T16:08:03.79</time>
      </trkpt>
      <trkpt lat="47.19883" lon="6.70304">
        <ele>979</ele>
        <time>2014-05-10T16:08:05.77</time>
      </trkpt>
      <trkpt lat="47.19874" lon="6.70305">
        <ele>973</ele>
        <time>2014-05-10T16:08:09.76</time>
      </trkpt>
      <trkpt lat="47.19863" lon="6.70308">
        <ele>975</ele>
        <time>2014-05-10T16:08:12.78</time>
      </trkpt>
      <trkpt lat="47.1985" lon="6.70309">
        <ele>974</ele>
        <time>2014-05-10T16:08:14.77</time>
      </trkpt>
      <trkpt lat="47.19843" lon="6.70308">
        <ele>974</ele>
        <time>2014-05-10T16:08:15.75</time>
      </trkpt>
      <trkpt lat="47.1983" lon="6.70306">
        <ele>973</ele>
        <time>2014-05-10T16:08:17.77</time>
      </trkpt>
      <trkpt lat="47.19821" lon="6.70304">
        <ele>973</ele>
        <time>2014-05-10T16:08:21.80</time>
      </trkpt>
      <trkpt lat="47.19811" lon="6.70308">
        <ele>968</ele>
        <time>2014-05-10T16:08:25.76</time>
      </trkpt>
      <trkpt lat="47.198" lon="6.70312">
        <ele>966</ele>
        <time>2014-05-10T16:08:27.77</time>
      </trkpt>
      <trkpt lat="47.1979" lon="6.70316">
        <ele>962</ele>
        <time>2014-05-10T16:08:29.80</time>
      </trkpt>
      <trkpt lat="47.1978" lon="6.70321">
        <ele>963</ele>
        <time>2014-05-10T16:08:31.75</time>
      </trkpt>
      <trkpt lat="47.19771" lon="6.70327">
        <ele>962</ele>
        <time>2014-05-10T16:08:33.76</time>
      </trkpt>
      <trkpt lat="47.19764" lon="6.70332">
        <ele>960</ele>
        <time>2014-05-10T16:08:35.75</time>
      </trkpt>
      <trkpt lat="47.19756" lon="6.70339">
        <ele>962</ele>
        <time>2014-05-10T16:08:38.79</time>
      </trkpt>
      <trkpt lat="47.1975" lon="6.70347">
        <ele>959</ele>
        <time>2014-05-10T16:08:40.77</time>
      </trkpt>
      <trkpt lat="47.19743" lon="6.70354">
        <ele>957</ele>
        <time>2014-05-10T16:08:42.79</time>
      </trkpt>
      <trkpt lat="47.19736" lon="6.70359">
        <ele>956</ele>
        <time>2014-05-10T16:08:44.80</time>
      </trkpt>
      <trkpt lat="47.19729" lon="6.70365">
        <ele>956</ele>
        <time>2014-05-10T16:08:46.74</time>
      </trkpt>
      <trkpt lat="47.19721" lon="6.70372">
        <ele>953</ele>
        <time>2014-05-10T16:08:48.77</time>
      </trkpt>
      <trkpt lat="47.19714" lon="6.70378">
        <ele>955</ele>
        <time>2014-05-10T16:08:50.87</time>
      </trkpt>
      <trkpt lat="47.19702" lon="6.70374">
        <ele>946</ele>
        <time>2014-05-10T16:08:53.79</time>
      </trkpt>
      <trkpt lat="47.19688" lon="6.70368">
        <ele>943</ele>
        <time>2014-05-10T16:08:55.75</time>
      </trkpt>
      <trkpt lat="47.19678" lon="6.70365">
        <ele>941</ele>
        <time>2014-05-10T16:08:56.75</time>
      </trkpt>
      <trkpt lat="47.19668" lon="6.70362">
        <ele>939</ele>
        <time>2014-05-10T16:08:57.77</time>
      </trkpt>
      <trkpt lat="47.19658" lon="6.70364">
        <ele>940</ele>
        <time>2014-05-10T16:08:58.77</time>
      </trkpt>
      <trkpt lat="47.19651" lon="6.70367">
        <ele>938</ele>
        <time>2014-05-10T16:08:59.78</time>
      </trkpt>
      <trkpt lat="47.19642" lon="6.7037">
        <ele>939</ele>
        <time>2014-05-10T16:09:00.75</time>
      </trkpt>
      <trkpt lat="47.19633" lon="6.70373">
        <ele>936</ele>
        <time>2014-05-10T16:09:01.80</time>
      </trkpt>
      <trkpt lat="47.19624" lon="6.7038">
        <ele>936</ele>
        <time>2014-05-10T16:09:02.75</time>
      </trkpt>
      <trkpt lat="47.19616" lon="6.70386">
        <ele>937</ele>
        <time>2014-05-10T16:09:03.75</time>
      </trkpt>
      <trkpt lat="47.19604" lon="6.704">
        <ele>941</ele>
        <time>2014-05-10T16:09:05.76</time>
      </trkpt>
      <trkpt lat="47.19596" lon="6.70405">
        <ele>939</ele>
        <time>2014-05-10T16:09:06.76</time>
      </trkpt>
      <trkpt lat="47.19588" lon="6.7041">
        <ele>932</ele>
        <time>2014-05-10T16:09:07.76</time>
      </trkpt>
      <trkpt lat="47.19574" lon="6.7041">
        <ele>928</ele>
        <time>2014-05-10T16:09:09.76</time>
      </trkpt>
      <trkpt lat="47.19566" lon="6.70407">
        <ele>930</ele>
        <time>2014-05-10T16:09:10.77</time>
      </trkpt>
      <trkpt lat="47.1956" lon="6.70403">
        <ele>928</ele>
        <time>2014-05-10T16:09:11.75</time>
      </trkpt>
      <trkpt lat="47.19551" lon="6.70398">
        <ele>927</ele>
        <time>2014-05-10T16:09:12.77</time>
      </trkpt>
      <trkpt lat="47.19544" lon="6.70395">
        <ele>925</ele>
        <time>2014-05-10T16:09:13.77</time>
      </trkpt>
      <trkpt lat="47.19535" lon="6.70392">
        <ele>924</ele>
        <time>2014-05-10T16:09:14.77</time>
      </trkpt>
      <trkpt lat="47.19525" lon="6.70391">
        <ele>922</ele>
        <time>2014-05-10T16:09:15.77</time>
      </trkpt>
      <trkpt lat="47.19517" lon="6.70391">
        <ele>922</ele>
        <time>2014-05-10T16:09:16.78</time>
      </trkpt>
      <trkpt lat="47.19509" lon="6.70391">
        <ele>921</ele>
        <time>2014-05-10T16:09:17.78</time>
      </trkpt>
      <trkpt lat="47.19497" lon="6.70392">
        <ele>922</ele>
        <time>2014-05-10T16:09:19.77</time>
      </trkpt>
      <trkpt lat="47.19485" lon="6.70395">
        <ele>924</ele>
        <time>2014-05-10T16:09:21.79</time>
      </trkpt>
      <trkpt lat="47.19473" lon="6.70399">
        <ele>924</ele>
        <time>2014-05-10T16:09:23.77</time>
      </trkpt>
      <trkpt lat="47.19462" lon="6.70404">
        <ele>924</ele>
        <time>2014-05-10T16:09:25.78</time>
      </trkpt>
      <trkpt lat="47.19451" lon="6.70411">
        <ele>919</ele>
        <time>2014-05-10T16:09:27.79</time>
      </trkpt>
      <trkpt lat="47.19444" lon="6.70414">
        <ele>916</ele>
        <time>2014-05-10T16:09:28.80</time>
      </trkpt>
      <trkpt lat="47.19436" lon="6.70417">
        <ele>916</ele>
        <time>2014-05-10T16:09:29.76</time>
      </trkpt>
      <trkpt lat="47.19428" lon="6.7042">
        <ele>915</ele>
        <time>2014-05-10T16:09:30.76</time>
      </trkpt>
      <trkpt lat="47.19421" lon="6.70425">
        <ele>915</ele>
        <time>2014-05-10T16:09:31.80</time>
      </trkpt>
      <trkpt lat="47.19414" lon="6.70429">
        <ele>915</ele>
        <time>2014-05-10T16:09:32.79</time>
      </trkpt>
      <trkpt lat="47.19407" lon="6.70433">
        <ele>914</ele>
        <time>2014-05-10T16:09:33.76</time>
      </trkpt>
      <trkpt lat="47.19395" lon="6.70441">
        <ele>911</ele>
        <time>2014-05-10T16:09:35.77</time>
      </trkpt>
      <trkpt lat="47.19388" lon="6.70447">
        <ele>910</ele>
        <time>2014-05-10T16:09:36.78</time>
      </trkpt>
      <trkpt lat="47.19378" lon="6.70455">
        <ele>909</ele>
        <time>2014-05-10T16:09:38.80</time>
      </trkpt>
      <trkpt lat="47.19371" lon="6.70465">
        <ele>912</ele>
        <time>2014-05-10T16:09:40.75</time>
      </trkpt>
      <trkpt lat="47.19363" lon="6.70475">
        <ele>913</ele>
        <time>2014-05-10T16:09:42.75</time>
      </trkpt>
      <trkpt lat="47.19354" lon="6.70481">
        <ele>914</ele>
        <time>2014-05-10T16:09:44.75</time>
      </trkpt>
      <trkpt lat="47.19343" lon="6.70485">
        <ele>910</ele>
        <time>2014-05-10T16:09:46.77</time>
      </trkpt>
      <trkpt lat="47.19333" lon="6.70487">
        <ele>910</ele>
        <time>2014-05-10T16:09:48.78</time>
      </trkpt>
      <trkpt lat="47.19321" lon="6.70491">
        <ele>910</ele>
        <time>2014-05-10T16:09:50.76</time>
      </trkpt>
      <trkpt lat="47.19306" lon="6.70495">
        <ele>912</ele>
        <time>2014-05-10T16:09:52.76</time>
      </trkpt>
      <trkpt lat="47.19299" lon="6.70496">
        <ele>912</ele>
        <time>2014-05-10T16:09:53.75</time>
      </trkpt>
      <trkpt lat="47.19285" lon="6.70498">
        <ele>911</ele>
        <time>2014-05-10T16:09:55.76</time>
      </trkpt>
      <trkpt lat="47.19274" lon="6.70498">
        <ele>914</ele>
        <time>2014-05-10T16:09:57.76</time>
      </trkpt>
      <trkpt lat="47.19264" lon="6.70496">
        <ele>908</ele>
        <time>2014-05-10T16:09:59.76</time>
      </trkpt>
      <trkpt lat="47.19253" lon="6.70492">
        <ele>908</ele>
        <time>2014-05-10T16:10:01.78</time>
      </trkpt>
      <trkpt lat="47.19242" lon="6.70488">
        <ele>909</ele>
        <time>2014-05-10T16:10:03.76</time>
      </trkpt>
      <trkpt lat="47.19232" lon="6.70484">
        <ele>911</ele>
        <time>2014-05-10T16:10:05.78</time>
      </trkpt>
      <trkpt lat="47.19223" lon="6.70481">
        <ele>910</ele>
        <time>2014-05-10T16:10:07.77</time>
      </trkpt>
      <trkpt lat="47.19214" lon="6.70479">
        <ele>912</ele>
        <time>2014-05-10T16:10:09.78</time>
      </trkpt>
      <trkpt lat="47.19204" lon="6.70477">
        <ele>913</ele>
        <time>2014-05-10T16:10:11.77</time>
      </trkpt>
      <trkpt lat="47.19194" lon="6.70476">
        <ele>911</ele>
        <time>2014-05-10T16:10:13.79</time>
      </trkpt>
      <trkpt lat="47.19183" lon="6.70477">
        <ele>912</ele>
        <time>2014-05-10T16:10:15.75</time>
      </trkpt>
      <trkpt lat="47.19173" lon="6.70479">
        <ele>909</ele>
        <time>2014-05-10T16:10:17.75</time>
      </trkpt>
      <trkpt lat="47.19161" lon="6.70481">
        <ele>910</ele>
        <time>2014-05-10T16:10:19.76</time>
      </trkpt>
      <trkpt lat="47.19151" lon="6.70483">
        <ele>910</ele>
        <time>2014-05-10T16:10:21.80</time>
      </trkpt>
      <trkpt lat="47.19141" lon="6.70487">
        <ele>910</ele>
        <time>2014-05-10T16:10:23.79</time>
      </trkpt>
      <trkpt lat="47.19131" lon="6.70492">
        <ele>908</ele>
        <time>2014-05-10T16:10:25.74</time>
      </trkpt>
      <trkpt lat="47.19118" lon="6.70497">
        <ele>908</ele>
        <time>2014-05-10T16:10:27.74</time>
      </trkpt>
      <trkpt lat="47.19111" lon="6.70499">
        <ele>906</ele>
        <time>2014-05-10T16:10:28.74</time>
      </trkpt>
      <trkpt lat="47.19103" lon="6.70501">
        <ele>907</ele>
        <time>2014-05-10T16:10:29.73</time>
      </trkpt>
      <trkpt lat="47.19095" lon="6.70503">
        <ele>908</ele>
        <time>2014-05-10T16:10:30.74</time>
      </trkpt>
      <trkpt lat="47.19088" lon="6.70504">
        <ele>908</ele>
        <time>2014-05-10T16:10:31.75</time>
      </trkpt>
      <trkpt lat="47.19074" lon="6.70506">
        <ele>907</ele>
        <time>2014-05-10T16:10:33.75</time>
      </trkpt>
      <trkpt lat="47.19067" lon="6.70506">
        <ele>907</ele>
        <time>2014-05-10T16:10:34.74</time>
      </trkpt>
      <trkpt lat="47.19059" lon="6.70506">
        <ele>908</ele>
        <time>2014-05-10T16:10:35.76</time>
      </trkpt>
      <trkpt lat="47.19047" lon="6.70505">
        <ele>911</ele>
        <time>2014-05-10T16:10:37.78</time>
      </trkpt>
      <trkpt lat="47.19035" lon="6.70506">
        <ele>908</ele>
        <time>2014-05-10T16:10:39.74</time>
      </trkpt>
      <trkpt lat="47.19023" lon="6.70505">
        <ele>906</ele>
        <time>2014-05-10T16:10:41.74</time>
      </trkpt>
      <trkpt lat="47.19012" lon="6.70504">
        <ele>907</ele>
        <time>2014-05-10T16:10:43.76</time>
      </trkpt>
      <trkpt lat="47.19001" lon="6.70504">
        <ele>908</ele>
        <time>2014-05-10T16:10:45.76</time>
      </trkpt>
      <trkpt lat="47.1899" lon="6.70504">
        <ele>906</ele>
        <time>2014-05-10T16:10:47.75</time>
      </trkpt>
      <trkpt lat="47.18979" lon="6.70506">
        <ele>906</ele>
        <time>2014-05-10T16:10:49.74</time>
      </trkpt>
      <trkpt lat="47.18968" lon="6.70508">
        <ele>909</ele>
        <time>2014-05-10T16:10:51.75</time>
      </trkpt>
      <trkpt lat="47.18957" lon="6.70511">
        <ele>911</ele>
        <time>2014-05-10T16:10:53.74</time>
      </trkpt>
      <trkpt lat="47.18946" lon="6.70515">
        <ele>912</ele>
        <time>2014-05-10T16:10:55.81</time>
      </trkpt>
      <trkpt lat="47.18937" lon="6.70518">
        <ele>915</ele>
        <time>2014-05-10T16:10:57.74</time>
      </trkpt>
      <trkpt lat="47.18928" lon="6.7052">
        <ele>915</ele>
        <time>2014-05-10T16:10:59.77</time>
      </trkpt>
      <trkpt lat="47.1892" lon="6.70522">
        <ele>912</ele>
        <time>2014-05-10T16:11:01.75</time>
      </trkpt>
      <trkpt lat="47.18912" lon="6.70525">
        <ele>910</ele>
        <time>2014-05-10T16:11:03.73</time>
      </trkpt>
      <trkpt lat="47.18904" lon="6.70529">
        <ele>910</ele>
        <time>2014-05-10T16:11:05.74</time>
      </trkpt>
      <trkpt lat="47.18895" lon="6.70533">
        <ele>910</ele>
        <time>2014-05-10T16:11:07.75</time>
      </trkpt>
      <trkpt lat="47.18887" lon="6.70537">
        <ele>911</ele>
        <time>2014-05-10T16:11:09.76</time>
      </trkpt>
      <trkpt lat="47.18879" lon="6.70541">
        <ele>910</ele>
        <time>2014-05-10T16:11:11.73</time>
      </trkpt>
      <trkpt lat="47.18871" lon="6.70548">
        <ele>912</ele>
        <time>2014-05-10T16:11:13.75</time>
      </trkpt>
      <trkpt lat="47.18864" lon="6.70553">
        <ele>913</ele>
        <time>2014-05-10T16:11:15.80</time>
      </trkpt>
      <trkpt lat="47.18856" lon="6.7056">
        <ele>914</ele>
        <time>2014-05-10T16:11:17.77</time>
      </trkpt>
      <trkpt lat="47.18849" lon="6.70566">
        <ele>915</ele>
        <time>2014-05-10T16:11:19.75</time>
      </trkpt>
      <trkpt lat="47.18842" lon="6.70573">
        <ele>916</ele>
        <time>2014-05-10T16:11:21.74</time>
      </trkpt>
      <trkpt lat="47.18836" lon="6.70579">
        <ele>915</ele>
        <time>2014-05-10T16:11:23.74</time>
      </trkpt>
      <trkpt lat="47.18829" lon="6.70585">
        <ele>912</ele>
        <time>2014-05-10T16:11:25.75</time>
      </trkpt>
      <trkpt lat="47.18823" lon="6.70591">
        <ele>911</ele>
        <time>2014-05-10T16:11:27.74</time>
      </trkpt>
      <trkpt lat="47.18817" lon="6.70597">
        <ele>910</ele>
        <time>2014-05-10T16:11:29.73</time>
      </trkpt>
      <trkpt lat="47.18808" lon="6.70608">
        <ele>910</ele>
        <time>2014-05-10T16:11:32.75</time>
      </trkpt>
      <trkpt lat="47.188" lon="6.70614">
        <ele>911</ele>
        <time>2014-05-10T16:11:34.78</time>
      </trkpt>
      <trkpt lat="47.18793" lon="6.70621">
        <ele>913</ele>
        <time>2014-05-10T16:11:36.76</time>
      </trkpt>
      <trkpt lat="47.18787" lon="6.70626">
        <ele>908</ele>
        <time>2014-05-10T16:11:38.76</time>
      </trkpt>
      <trkpt lat="47.1878" lon="6.70631">
        <ele>910</ele>
        <time>2014-05-10T16:11:40.75</time>
      </trkpt>
      <trkpt lat="47.18771" lon="6.70639">
        <ele>913</ele>
        <time>2014-05-10T16:11:43.75</time>
      </trkpt>
      <trkpt lat="47.18763" lon="6.70643">
        <ele>914</ele>
        <time>2014-05-10T16:11:45.76</time>
      </trkpt>
      <trkpt lat="47.18755" lon="6.70648">
        <ele>912</ele>
        <time>2014-05-10T16:11:47.76</time>
      </trkpt>
      <trkpt lat="47.18747" lon="6.70653">
        <ele>911</ele>
        <time>2014-05-10T16:11:49.77</time>
      </trkpt>
      <trkpt lat="47.1874" lon="6.70657">
        <ele>910</ele>
        <time>2014-05-10T16:11:51.79</time>
      </trkpt>
      <trkpt lat="47.18733" lon="6.70662">
        <ele>908</ele>
        <time>2014-05-10T16:11:53.75</time>
      </trkpt>
      <trkpt lat="47.18726" lon="6.70666">
        <ele>910</ele>
        <time>2014-05-10T16:11:55.77</time>
      </trkpt>
      <trkpt lat="47.18716" lon="6.70673">
        <ele>910</ele>
        <time>2014-05-10T16:11:58.77</time>
      </trkpt>
      <trkpt lat="47.18708" lon="6.70678">
        <ele>909</ele>
        <time>2014-05-10T16:12:00.77</time>
      </trkpt>
      <trkpt lat="47.18699" lon="6.70685">
        <ele>908</ele>
        <time>2014-05-10T16:12:02.80</time>
      </trkpt>
      <trkpt lat="47.1869" lon="6.70695">
        <ele>909</ele>
        <time>2014-05-10T16:12:04.75</time>
      </trkpt>
      <trkpt lat="47.18678" lon="6.70707">
        <ele>909</ele>
        <time>2014-05-10T16:12:06.76</time>
      </trkpt>
      <trkpt lat="47.18671" lon="6.70712">
        <ele>906</ele>
        <time>2014-05-10T16:12:07.78</time>
      </trkpt>
      <trkpt lat="47.18656" lon="6.70718">
        <ele>907</ele>
        <time>2014-05-10T16:12:09.76</time>
      </trkpt>
      <trkpt lat="47.18643" lon="6.70722">
        <ele>908</ele>
        <time>2014-05-10T16:12:11.74</time>
      </trkpt>
      <trkpt lat="47.18631" lon="6.70726">
        <ele>906</ele>
        <time>2014-05-10T16:12:13.73</time>
      </trkpt>
      <trkpt lat="47.18618" lon="6.70728">
        <ele>906</ele>
        <time>2014-05-10T16:12:15.74</time>
      </trkpt>
      <trkpt lat="47.18604" lon="6.70727">
        <ele>907</ele>
        <time>2014-05-10T16:12:17.74</time>
      </trkpt>
      <trkpt lat="47.18591" lon="6.70721">
        <ele>903</ele>
        <time>2014-05-10T16:12:19.75</time>
      </trkpt>
      <trkpt lat="47.18584" lon="6.70717">
        <ele>905</ele>
        <time>2014-05-10T16:12:20.74</time>
      </trkpt>
      <trkpt lat="47.1857" lon="6.7071">
        <ele>904</ele>
        <time>2014-05-10T16:12:22.77</time>
      </trkpt>
      <trkpt lat="47.18557" lon="6.70711">
        <ele>905</ele>
        <time>2014-05-10T16:12:24.75</time>
      </trkpt>
      <trkpt lat="47.18544" lon="6.70716">
        <ele>901</ele>
        <time>2014-05-10T16:12:26.74</time>
      </trkpt>
      <trkpt lat="47.18531" lon="6.70724">
        <ele>901</ele>
        <time>2014-05-10T16:12:28.74</time>
      </trkpt>
      <trkpt lat="47.18525" lon="6.70729">
        <ele>900</ele>
        <time>2014-05-10T16:12:29.74</time>
      </trkpt>
      <trkpt lat="47.18512" lon="6.70738">
        <ele>897</ele>
        <time>2014-05-10T16:12:31.78</time>
      </trkpt>
      <trkpt lat="47.18501" lon="6.70748">
        <ele>898</ele>
        <time>2014-05-10T16:12:33.74</time>
      </trkpt>
      <trkpt lat="47.1849" lon="6.70756">
        <ele>900</ele>
        <time>2014-05-10T16:12:35.75</time>
      </trkpt>
      <trkpt lat="47.1848" lon="6.70762">
        <ele>899</ele>
        <time>2014-05-10T16:12:37.74</time>
      </trkpt>
      <trkpt lat="47.18472" lon="6.70767">
        <ele>898</ele>
        <time>2014-05-10T16:12:39.78</time>
      </trkpt>
      <trkpt lat="47.18464" lon="6.7077">
        <ele>900</ele>
        <time>2014-05-10T16:12:41.79</time>
      </trkpt>
      <trkpt lat="47.18457" lon="6.70774">
        <ele>902</ele>
        <time>2014-05-10T16:12:43.77</time>
      </trkpt>
      <trkpt lat="47.18449" lon="6.70778">
        <ele>903</ele>
        <time>2014-05-10T16:12:45.74</time>
      </trkpt>
      <trkpt lat="47.1844" lon="6.70782">
        <ele>904</ele>
        <time>2014-05-10T16:12:47.83</time>
      </trkpt>
      <trkpt lat="47.18433" lon="6.70785">
        <ele>903</ele>
        <time>2014-05-10T16:12:49.77</time>
      </trkpt>
      <trkpt lat="47.18425" lon="6.70788">
        <ele>903</ele>
        <time>2014-05-10T16:12:51.75</time>
      </trkpt>
      <trkpt lat="47.18416" lon="6.70792">
        <ele>906</ele>
        <time>2014-05-10T16:12:53.77</time>
      </trkpt>
      <trkpt lat="47.18408" lon="6.70797">
        <ele>902</ele>
        <time>2014-05-10T16:12:55.76</time>
      </trkpt>
      <trkpt lat="47.184" lon="6.708">
        <ele>905</ele>
        <time>2014-05-10T16:12:57.78</time>
      </trkpt>
      <trkpt lat="47.18397" lon="6.70802">
        <ele>905</ele>
        <time>2014-05-10T16:13:04.78</time>
      </trkpt>
      <trkpt lat="47.18392" lon="6.70799">
        <ele>901</ele>
        <time>2014-05-10T16:13:06.79</time>
      </trkpt>
      <trkpt lat="47.18381" lon="6.7081">
        <ele>906</ele>
        <time>2014-05-10T16:13:10.77</time>
      </trkpt>
      <trkpt lat="47.18372" lon="6.70816">
        <ele>908</ele>
        <time>2014-05-10T16:13:13.75</time>
      </trkpt>
      <trkpt lat="47.18365" lon="6.7082">
        <ele>907</ele>
        <time>2014-05-10T16:13:16.75</time>
      </trkpt>
      <trkpt lat="47.18356" lon="6.70826">
        <ele>907</ele>
        <time>2014-05-10T16:13:19.76</time>
      </trkpt>
      <trkpt lat="47.18349" lon="6.70831">
        <ele>908</ele>
        <time>2014-05-10T16:13:21.75</time>
      </trkpt>
      <trkpt lat="47.18341" lon="6.70837">
        <ele>910</ele>
        <time>2014-05-10T16:13:24.75</time>
      </trkpt>
      <trkpt lat="47.18334" lon="6.70839">
        <ele>911</ele>
        <time>2014-05-10T16:13:27.78</time>
      </trkpt>
      <trkpt lat="47.18323" lon="6.70842">
        <ele>912</ele>
        <time>2014-05-10T16:13:30.76</time>
      </trkpt>
      <trkpt lat="47.18314" lon="6.70843">
        <ele>914</ele>
        <time>2014-05-10T16:13:32.76</time>
      </trkpt>
      <trkpt lat="47.18307" lon="6.70845">
        <ele>912</ele>
        <time>2014-05-10T16:13:34.77</time>
      </trkpt>
      <trkpt lat="47.18298" lon="6.70846">
        <ele>911</ele>
        <time>2014-05-10T16:13:36.76</time>
      </trkpt>
      <trkpt lat="47.18291" lon="6.70844">
        <ele>913</ele>
        <time>2014-05-10T16:13:38.75</time>
      </trkpt>
      <trkpt lat="47.18281" lon="6.70838">
        <ele>911</ele>
        <time>2014-05-10T16:13:41.81</time>
      </trkpt>
      <trkpt lat="47.18271" lon="6.70834">
        <ele>913</ele>
        <time>2014-05-10T16:13:44.78</time>
      </trkpt>
      <trkpt lat="47.18263" lon="6.70832">
        <ele>913</ele>
        <time>2014-05-10T16:13:46.75</time>
      </trkpt>
      <trkpt lat="47.18255" lon="6.70826">
        <ele>912</ele>
        <time>2014-05-10T16:13:48.78</time>
      </trkpt>
      <trkpt lat="47.18249" lon="6.70815">
        <ele>911</ele>
        <time>2014-05-10T16:13:50.80</time>
      </trkpt>
      <trkpt lat="47.18242" lon="6.70805">
        <ele>913</ele>
        <time>2014-05-10T16:13:52.80</time>
      </trkpt>
      <trkpt lat="47.18233" lon="6.708">
        <ele>914</ele>
        <time>2014-05-10T16:13:54.80</time>
      </trkpt>
      <trkpt lat="47.18224" lon="6.70801">
        <ele>916</ele>
        <time>2014-05-10T16:13:56.76</time>
      </trkpt>
      <trkpt lat="47.18216" lon="6.70807">
        <ele>916</ele>
        <time>2014-05-10T16:13:58.77</time>
      </trkpt>
      <trkpt lat="47.18209" lon="6.70818">
        <ele>915</ele>
        <time>2014-05-10T16:14:00.80</time>
      </trkpt>
      <trkpt lat="47.182" lon="6.7083">
        <ele>916</ele>
        <time>2014-05-10T16:14:02.79</time>
      </trkpt>
      <trkpt lat="47.18192" lon="6.70841">
        <ele>916</ele>
        <time>2014-05-10T16:14:04.76</time>
      </trkpt>
      <trkpt lat="47.18183" lon="6.70853">
        <ele>914</ele>
        <time>2014-05-10T16:14:06.75</time>
      </trkpt>
      <trkpt lat="47.18174" lon="6.70865">
        <ele>912</ele>
        <time>2014-05-10T16:14:08.77</time>
      </trkpt>
      <trkpt lat="47.18165" lon="6.70875">
        <ele>912</ele>
        <time>2014-05-10T16:14:10.77</time>
      </trkpt>
      <trkpt lat="47.18155" lon="6.70887">
        <ele>913</ele>
        <time>2014-05-10T16:14:12.76</time>
      </trkpt>
      <trkpt lat="47.18146" lon="6.70896">
        <ele>911</ele>
        <time>2014-05-10T16:14:14.78</time>
      </trkpt>
      <trkpt lat="47.18136" lon="6.70903">
        <ele>913</ele>
        <time>2014-05-10T16:14:16.76</time>
      </trkpt>
      <trkpt lat="47.18125" lon="6.70908">
        <ele>908</ele>
        <time>2014-05-10T16:14:18.75</time>
      </trkpt>
      <trkpt lat="47.18115" lon="6.70909">
        <ele>907</ele>
        <time>2014-05-10T16:14:20.76</time>
      </trkpt>
      <trkpt lat="47.18106" lon="6.70906">
        <ele>910</ele>
        <time>2014-05-10T16:14:22.74</time>
      </trkpt>
      <trkpt lat="47.18096" lon="6.70899">
        <ele>912</ele>
        <time>2014-05-10T16:14:24.77</time>
      </trkpt>
      <trkpt lat="47.18087" lon="6.70891">
        <ele>910</ele>
        <time>2014-05-10T16:14:26.74</time>
      </trkpt>
      <trkpt lat="47.18079" lon="6.70881">
        <ele>910</ele>
        <time>2014-05-10T16:14:28.76</time>
      </trkpt>
      <trkpt lat="47.18072" lon="6.70871">
        <ele>909</ele>
        <time>2014-05-10T16:14:30.77</time>
      </trkpt>
      <trkpt lat="47.18064" lon="6.7086">
        <ele>912</ele>
        <time>2014-05-10T16:14:32.75</time>
      </trkpt>
      <trkpt lat="47.18057" lon="6.7085">
        <ele>910</ele>
        <time>2014-05-10T16:14:34.75</time>
      </trkpt>
      <trkpt lat="47.18051" lon="6.7084">
        <ele>910</ele>
        <time>2014-05-10T16:14:36.74</time>
      </trkpt>
      <trkpt lat="47.18045" lon="6.70831">
        <ele>913</ele>
        <time>2014-05-10T16:14:38.75</time>
      </trkpt>
      <trkpt lat="47.18038" lon="6.70823">
        <ele>914</ele>
        <time>2014-05-10T16:14:40.78</time>
      </trkpt>
      <trkpt lat="47.18032" lon="6.70815">
        <ele>912</ele>
        <time>2014-05-10T16:14:42.76</time>
      </trkpt>
      <trkpt lat="47.18025" lon="6.70808">
        <ele>912</ele>
        <time>2014-05-10T16:14:44.77</time>
      </trkpt>
      <trkpt lat="47.18018" lon="6.70801">
        <ele>914</ele>
        <time>2014-05-10T16:14:46.78</time>
      </trkpt>
      <trkpt lat="47.18009" lon="6.70796">
        <ele>915</ele>
        <time>2014-05-10T16:14:48.77</time>
      </trkpt>
      <trkpt lat="47.18" lon="6.70792">
        <ele>913</ele>
        <time>2014-05-10T16:14:50.77</time>
      </trkpt>
      <trkpt lat="47.1799" lon="6.7079">
        <ele>914</ele>
        <time>2014-05-10T16:14:52.78</time>
      </trkpt>
      <trkpt lat="47.1798" lon="6.70792">
        <ele>914</ele>
        <time>2014-05-10T16:14:54.79</time>
      </trkpt>
      <trkpt lat="47.17971" lon="6.70795">
        <ele>914</ele>
        <time>2014-05-10T16:14:56.76</time>
      </trkpt>
      <trkpt lat="47.17962" lon="6.70798">
        <ele>914</ele>
        <time>2014-05-10T16:14:58.77</time>
      </trkpt>
      <trkpt lat="47.17952" lon="6.70801">
        <ele>913</ele>
        <time>2014-05-10T16:15:00.77</time>
      </trkpt>
      <trkpt lat="47.17943" lon="6.70804">
        <ele>913</ele>
        <time>2014-05-10T16:15:02.76</time>
      </trkpt>
      <trkpt lat="47.17933" lon="6.70805">
        <ele>914</ele>
        <time>2014-05-10T16:15:04.75</time>
      </trkpt>
      <trkpt lat="47.17925" lon="6.70805">
        <ele>915</ele>
        <time>2014-05-10T16:15:06.77</time>
      </trkpt>
      <trkpt lat="47.17916" lon="6.70804">
        <ele>913</ele>
        <time>2014-05-10T16:15:08.77</time>
      </trkpt>
      <trkpt lat="47.17908" lon="6.70804">
        <ele>913</ele>
        <time>2014-05-10T16:15:10.79</time>
      </trkpt>
      <trkpt lat="47.17898" lon="6.70802">
        <ele>918</ele>
        <time>2014-05-10T16:15:13.79</time>
      </trkpt>
      <trkpt lat="47.17889" lon="6.70801">
        <ele>916</ele>
        <time>2014-05-10T16:15:15.78</time>
      </trkpt>
      <trkpt lat="47.17881" lon="6.708">
        <ele>916</ele>
        <time>2014-05-10T16:15:17.78</time>
      </trkpt>
      <trkpt lat="47.17872" lon="6.70797">
        <ele>916</ele>
        <time>2014-05-10T16:15:19.80</time>
      </trkpt>
      <trkpt lat="47.17863" lon="6.70792">
        <ele>912</ele>
        <time>2014-05-10T16:15:21.77</time>
      </trkpt>
      <trkpt lat="47.17856" lon="6.70787">
        <ele>913</ele>
        <time>2014-05-10T16:15:23.75</time>
      </trkpt>
      <trkpt lat="47.17848" lon="6.70781">
        <ele>913</ele>
        <time>2014-05-10T16:15:25.79</time>
      </trkpt>
      <trkpt lat="47.17841" lon="6.70774">
        <ele>916</ele>
        <time>2014-05-10T16:15:27.76</time>
      </trkpt>
      <trkpt lat="47.17835" lon="6.70768">
        <ele>916</ele>
        <time>2014-05-10T16:15:29.79</time>
      </trkpt>
      <trkpt lat="47.17828" lon="6.7076">
        <ele>917</ele>
        <time>2014-05-10T16:15:31.79</time>
      </trkpt>
      <trkpt lat="47.17822" lon="6.70754">
        <ele>917</ele>
        <time>2014-05-10T16:15:33.79</time>
      </trkpt>
      <trkpt lat="47.17814" lon="6.70745">
        <ele>917</ele>
        <time>2014-05-10T16:15:35.77</time>
      </trkpt>
      <trkpt lat="47.17805" lon="6.70737">
        <ele>919</ele>
        <time>2014-05-10T16:15:37.76</time>
      </trkpt>
      <trkpt lat="47.17798" lon="6.70731">
        <ele>920</ele>
        <time>2014-05-10T16:15:39.77</time>
      </trkpt>
      <trkpt lat="47.17791" lon="6.70724">
        <ele>918</ele>
        <time>2014-05-10T16:15:41.80</time>
      </trkpt>
      <trkpt lat="47.17783" lon="6.70719">
        <ele>917</ele>
        <time>2014-05-10T16:15:43.76</time>
      </trkpt>
      <trkpt lat="47.17776" lon="6.70715">
        <ele>918</ele>
        <time>2014-05-10T16:15:45.79</time>
      </trkpt>
      <trkpt lat="47.17769" lon="6.70713">
        <ele>919</ele>
        <time>2014-05-10T16:15:47.80</time>
      </trkpt>
      <trkpt lat="47.1776" lon="6.70714">
        <ele>919</ele>
        <time>2014-05-10T16:15:49.77</time>
      </trkpt>
      <trkpt lat="47.17753" lon="6.70719">
        <ele>919</ele>
        <time>2014-05-10T16:15:51.78</time>
      </trkpt>
      <trkpt lat="47.17747" lon="6.70727">
        <ele>918</ele>
        <time>2014-05-10T16:15:53.75</time>
      </trkpt>
      <trkpt lat="47.17741" lon="6.70738">
        <ele>920</ele>
        <time>2014-05-10T16:15:55.77</time>
      </trkpt>
      <trkpt lat="47.17737" lon="6.70747">
        <ele>921</ele>
        <time>2014-05-10T16:15:57.76</time>
      </trkpt>
      <trkpt lat="47.17734" lon="6.70757">
        <ele>923</ele>
        <time>2014-05-10T16:15:59.80</time>
      </trkpt>
      <trkpt lat="47.17732" lon="6.7077">
        <ele>925</ele>
        <time>2014-05-10T16:16:02.78</time>
      </trkpt>
      <trkpt lat="47.17733" lon="6.70785">
        <ele>923</ele>
        <time>2014-05-10T16:16:05.77</time>
      </trkpt>
      <trkpt lat="47.17733" lon="6.708">
        <ele>928</ele>
        <time>2014-05-10T16:16:08.77</time>
      </trkpt>
      <trkpt lat="47.17733" lon="6.70815">
        <ele>929</ele>
        <time>2014-05-10T16:16:11.77</time>
      </trkpt>
      <trkpt lat="47.17732" lon="6.70829">
        <ele>928</ele>
        <time>2014-05-10T16:16:14.77</time>
      </trkpt>
      <trkpt lat="47.17735" lon="6.70843">
        <ele>930</ele>
        <time>2014-05-10T16:16:17.77</time>
      </trkpt>
      <trkpt lat="47.17733" lon="6.70858">
        <ele>928</ele>
        <time>2014-05-10T16:16:20.78</time>
      </trkpt>
      <trkpt lat="47.17732" lon="6.70875">
        <ele>931</ele>
        <time>2014-05-10T16:16:23.77</time>
      </trkpt>
      <trkpt lat="47.17732" lon="6.70889">
        <ele>933</ele>
        <time>2014-05-10T16:16:25.76</time>
      </trkpt>
      <trkpt lat="47.17731" lon="6.70899">
        <ele>936</ele>
        <time>2014-05-10T16:16:27.77</time>
      </trkpt>
      <trkpt lat="47.17732" lon="6.70912">
        <ele>937</ele>
        <time>2014-05-10T16:16:29.80</time>
      </trkpt>
      <trkpt lat="47.17734" lon="6.70927">
        <ele>935</ele>
        <time>2014-05-10T16:16:31.78</time>
      </trkpt>
      <trkpt lat="47.17738" lon="6.70942">
        <ele>938</ele>
        <time>2014-05-10T16:16:33.77</time>
      </trkpt>
      <trkpt lat="47.17742" lon="6.70954">
        <ele>937</ele>
        <time>2014-05-10T16:16:35.79</time>
      </trkpt>
      <trkpt lat="47.17746" lon="6.70967">
        <ele>935</ele>
        <time>2014-05-10T16:16:37.75</time>
      </trkpt>
      <trkpt lat="47.17751" lon="6.7098">
        <ele>940</ele>
        <time>2014-05-10T16:16:39.77</time>
      </trkpt>
      <trkpt lat="47.17754" lon="6.70993">
        <ele>939</ele>
        <time>2014-05-10T16:16:41.78</time>
      </trkpt>
      <trkpt lat="47.17756" lon="6.71009">
        <ele>942</ele>
        <time>2014-05-10T16:16:43.78</time>
      </trkpt>
      <trkpt lat="47.17759" lon="6.71024">
        <ele>943</ele>
        <time>2014-05-10T16:16:45.75</time>
      </trkpt>
      <trkpt lat="47.17762" lon="6.7104">
        <ele>943</ele>
        <time>2014-05-10T16:16:47.78</time>
      </trkpt>
      <trkpt lat="47.17765" lon="6.71055">
        <ele>936</ele>
        <time>2014-05-10T16:16:49.81</time>
      </trkpt>
      <trkpt lat="47.17769" lon="6.71073">
        <ele>935</ele>
        <time>2014-05-10T16:16:51.77</time>
      </trkpt>
      <trkpt lat="47.17771" lon="6.71084">
        <ele>935</ele>
        <time>2014-05-10T16:16:52.78</time>
      </trkpt>
      <trkpt lat="47.17772" lon="6.71094">
        <ele>935</ele>
        <time>2014-05-10T16:16:53.76</time>
      </trkpt>
      <trkpt lat="47.17773" lon="6.71113">
        <ele>933</ele>
        <time>2014-05-10T16:16:55.77</time>
      </trkpt>
      <trkpt lat="47.17775" lon="6.71132">
        <ele>932</ele>
        <time>2014-05-10T16:16:57.75</time>
      </trkpt>
      <trkpt lat="47.17777" lon="6.71151">
        <ele>928</ele>
        <time>2014-05-10T16:16:59.77</time>
      </trkpt>
      <trkpt lat="47.17777" lon="6.71163">
        <ele>928</ele>
        <time>2014-05-10T16:17:00.76</time>
      </trkpt>
      <trkpt lat="47.17777" lon="6.71174">
        <ele>929</ele>
        <time>2014-05-10T16:17:01.83</time>
      </trkpt>
      <trkpt lat="47.17778" lon="6.71184">
        <ele>927</ele>
        <time>2014-05-10T16:17:02.86</time>
      </trkpt>
      <trkpt lat="47.17778" lon="6.71204">
        <ele>930</ele>
        <time>2014-05-10T16:17:04.83</time>
      </trkpt>
      <trkpt lat="47.17779" lon="6.71223">
        <ele>928</ele>
        <time>2014-05-10T16:17:06.80</time>
      </trkpt>
      <trkpt lat="47.1778" lon="6.71242">
        <ele>923</ele>
        <time>2014-05-10T16:17:08.82</time>
      </trkpt>
      <trkpt lat="47.17781" lon="6.71258">
        <ele>920</ele>
        <time>2014-05-10T16:17:10.80</time>
      </trkpt>
      <trkpt lat="47.17782" lon="6.71277">
        <ele>922</ele>
        <time>2014-05-10T16:17:12.87</time>
      </trkpt>
      <trkpt lat="47.17783" lon="6.71295">
        <ele>923</ele>
        <time>2014-05-10T16:17:14.79</time>
      </trkpt>
      <trkpt lat="47.17783" lon="6.71313">
        <ele>921</ele>
        <time>2014-05-10T16:17:16.80</time>
      </trkpt>
      <trkpt lat="47.17782" lon="6.7133">
        <ele>921</ele>
        <time>2014-05-10T16:17:18.80</time>
      </trkpt>
      <trkpt lat="47.17781" lon="6.71345">
        <ele>924</ele>
        <time>2014-05-10T16:17:20.77</time>
      </trkpt>
      <trkpt lat="47.17779" lon="6.7136">
        <ele>924</ele>
        <time>2014-05-10T16:17:22.76</time>
      </trkpt>
      <trkpt lat="47.17777" lon="6.71375">
        <ele>923</ele>
        <time>2014-05-10T16:17:24.77</time>
      </trkpt>
      <trkpt lat="47.17774" lon="6.71388">
        <ele>924</ele>
        <time>2014-05-10T16:17:26.75</time>
      </trkpt>
      <trkpt lat="47.17772" lon="6.71403">
        <ele>928</ele>
        <time>2014-05-10T16:17:28.80</time>
      </trkpt>
      <trkpt lat="47.17769" lon="6.71419">
        <ele>927</ele>
        <time>2014-05-10T16:17:30.75</time>
      </trkpt>
      <trkpt lat="47.17766" lon="6.71429">
        <ele>925</ele>
        <time>2014-05-10T16:17:31.78</time>
      </trkpt>
      <trkpt lat="47.1776" lon="6.71447">
        <ele>924</ele>
        <time>2014-05-10T16:17:33.80</time>
      </trkpt>
      <trkpt lat="47.17756" lon="6.7146">
        <ele>923</ele>
        <time>2014-05-10T16:17:35.80</time>
      </trkpt>
      <trkpt lat="47.17751" lon="6.71475">
        <ele>927</ele>
        <time>2014-05-10T16:17:37.77</time>
      </trkpt>
      <trkpt lat="47.17745" lon="6.71487">
        <ele>925</ele>
        <time>2014-05-10T16:17:39.77</time>
      </trkpt>
      <trkpt lat="47.17739" lon="6.71498">
        <ele>928</ele>
        <time>2014-05-10T16:17:41.76</time>
      </trkpt>
      <trkpt lat="47.17732" lon="6.71509">
        <ele>922</ele>
        <time>2014-05-10T16:17:43.76</time>
      </trkpt>
      <trkpt lat="47.17724" lon="6.7152">
        <ele>917</ele>
        <time>2014-05-10T16:17:45.78</time>
      </trkpt>
      <trkpt lat="47.17717" lon="6.7153">
        <ele>919</ele>
        <time>2014-05-10T16:17:47.78</time>
      </trkpt>
      <trkpt lat="47.17709" lon="6.7154">
        <ele>919</ele>
        <time>2014-05-10T16:17:50.78</time>
      </trkpt>
      <trkpt lat="47.17701" lon="6.71546">
        <ele>921</ele>
        <time>2014-05-10T16:17:52.83</time>
      </trkpt>
      <trkpt lat="47.17692" lon="6.71555">
        <ele>920</ele>
        <time>2014-05-10T16:17:55.80</time>
      </trkpt>
      <trkpt lat="47.17686" lon="6.71561">
        <ele>926</ele>
        <time>2014-05-10T16:17:57.81</time>
      </trkpt>
      <trkpt lat="47.17678" lon="6.71568">
        <ele>917</ele>
        <time>2014-05-10T16:17:59.77</time>
      </trkpt>
      <trkpt lat="47.17669" lon="6.71574">
        <ele>920</ele>
        <time>2014-05-10T16:18:01.80</time>
      </trkpt>
      <trkpt lat="47.17659" lon="6.71581">
        <ele>922</ele>
        <time>2014-05-10T16:18:03.83</time>
      </trkpt>
      <trkpt lat="47.1765" lon="6.71591">
        <ele>928</ele>
        <time>2014-05-10T16:18:05.77</time>
      </trkpt>
      <trkpt lat="47.17643" lon="6.716">
        <ele>927</ele>
        <time>2014-05-10T16:18:07.76</time>
      </trkpt>
      <trkpt lat="47.17637" lon="6.71608">
        <ele>932</ele>
        <time>2014-05-10T16:18:09.78</time>
      </trkpt>
      <trkpt lat="47.17629" lon="6.71615">
        <ele>930</ele>
        <time>2014-05-10T16:18:11.76</time>
      </trkpt>
      <trkpt lat="47.17622" lon="6.71622">
        <ele>933</ele>
        <time>2014-05-10T16:18:13.78</time>
      </trkpt>
      <trkpt lat="47.17616" lon="6.7163">
        <ele>929</ele>
        <time>2014-05-10T16:18:15.76</time>
      </trkpt>
      <trkpt lat="47.17609" lon="6.71642">
        <ele>928</ele>
        <time>2014-05-10T16:18:17.76</time>
      </trkpt>
      <trkpt lat="47.17603" lon="6.7166">
        <ele>929</ele>
        <time>2014-05-10T16:18:19.80</time>
      </trkpt>
      <trkpt lat="47.176" lon="6.71671">
        <ele>930</ele>
        <time>2014-05-10T16:18:20.78</time>
      </trkpt>
      <trkpt lat="47.17599" lon="6.71681">
        <ele>930</ele>
        <time>2014-05-10T16:18:21.79</time>
      </trkpt>
      <trkpt lat="47.17598" lon="6.71703">
        <ele>932</ele>
        <time>2014-05-10T16:18:23.76</time>
      </trkpt>
      <trkpt lat="47.17599" lon="6.71715">
        <ele>932</ele>
        <time>2014-05-10T16:18:24.76</time>
      </trkpt>
      <trkpt lat="47.176" lon="6.71726">
        <ele>932</ele>
        <time>2014-05-10T16:18:25.74</time>
      </trkpt>
      <trkpt lat="47.17603" lon="6.71742">
        <ele>929</ele>
        <time>2014-05-10T16:18:26.76</time>
      </trkpt>
      <trkpt lat="47.17606" lon="6.71758">
        <ele>929</ele>
        <time>2014-05-10T16:18:27.78</time>
      </trkpt>
      <trkpt lat="47.17609" lon="6.71772">
        <ele>932</ele>
        <time>2014-05-10T16:18:28.75</time>
      </trkpt>
      <trkpt lat="47.17612" lon="6.71785">
        <ele>933</ele>
        <time>2014-05-10T16:18:29.75</time>
      </trkpt>
      <trkpt lat="47.17617" lon="6.71797">
        <ele>935</ele>
        <time>2014-05-10T16:18:30.74</time>
      </trkpt>
      <trkpt lat="47.17621" lon="6.7181">
        <ele>934</ele>
        <time>2014-05-10T16:18:31.75</time>
      </trkpt>
      <trkpt lat="47.17625" lon="6.71824">
        <ele>934</ele>
        <time>2014-05-10T16:18:32.75</time>
      </trkpt>
      <trkpt lat="47.1763" lon="6.71837">
        <ele>933</ele>
        <time>2014-05-10T16:18:33.77</time>
      </trkpt>
      <trkpt lat="47.17636" lon="6.7185">
        <ele>935</ele>
        <time>2014-05-10T16:18:34.77</time>
      </trkpt>
      <trkpt lat="47.17641" lon="6.71865">
        <ele>934</ele>
        <time>2014-05-10T16:18:35.78</time>
      </trkpt>
      <trkpt lat="47.17647" lon="6.71878">
        <ele>934</ele>
        <time>2014-05-10T16:18:36.76</time>
      </trkpt>
      <trkpt lat="47.17652" lon="6.71892">
        <ele>934</ele>
        <time>2014-05-10T16:18:37.77</time>
      </trkpt>
      <trkpt lat="47.17657" lon="6.71906">
        <ele>930</ele>
        <time>2014-05-10T16:18:38.80</time>
      </trkpt>
      <trkpt lat="47.17662" lon="6.71919">
        <ele>931</ele>
        <time>2014-05-10T16:18:39.72</time>
      </trkpt>
      <trkpt lat="47.17667" lon="6.71933">
        <ele>930</ele>
        <time>2014-05-10T16:18:40.75</time>
      </trkpt>
      <trkpt lat="47.17673" lon="6.71947">
        <ele>929</ele>
        <time>2014-05-10T16:18:41.72</time>
      </trkpt>
      <trkpt lat="47.17678" lon="6.7196">
        <ele>930</ele>
        <time>2014-05-10T16:18:42.76</time>
      </trkpt>
      <trkpt lat="47.17683" lon="6.71973">
        <ele>931</ele>
        <time>2014-05-10T16:18:43.77</time>
      </trkpt>
      <trkpt lat="47.17688" lon="6.71984">
        <ele>931</ele>
        <time>2014-05-10T16:18:44.74</time>
      </trkpt>
      <trkpt lat="47.17692" lon="6.71996">
        <ele>929</ele>
        <time>2014-05-10T16:18:45.76</time>
      </trkpt>
      <trkpt lat="47.17697" lon="6.72008">
        <ele>930</ele>
        <time>2014-05-10T16:18:46.74</time>
      </trkpt>
      <trkpt lat="47.17701" lon="6.72019">
        <ele>928</ele>
        <time>2014-05-10T16:18:47.75</time>
      </trkpt>
      <trkpt lat="47.17705" lon="6.7203">
        <ele>928</ele>
        <time>2014-05-10T16:18:48.78</time>
      </trkpt>
      <trkpt lat="47.17709" lon="6.72039">
        <ele>927</ele>
        <time>2014-05-10T16:18:49.74</time>
      </trkpt>
      <trkpt lat="47.17712" lon="6.72048">
        <ele>927</ele>
        <time>2014-05-10T16:18:50.74</time>
      </trkpt>
      <trkpt lat="47.17716" lon="6.72062">
        <ele>923</ele>
        <time>2014-05-10T16:18:52.76</time>
      </trkpt>
      <trkpt lat="47.17713" lon="6.72072">
        <ele>922</ele>
        <time>2014-05-10T16:18:55.78</time>
      </trkpt>
      <trkpt lat="47.17706" lon="6.72079">
        <ele>925</ele>
        <time>2014-05-10T16:18:58.74</time>
      </trkpt>
      <trkpt lat="47.17698" lon="6.72087">
        <ele>923</ele>
        <time>2014-05-10T16:19:04.75</time>
      </trkpt>
      <trkpt lat="47.17689" lon="6.72091">
        <ele>921</ele>
        <time>2014-05-10T16:19:07.80</time>
      </trkpt>
      <trkpt lat="47.17682" lon="6.72093">
        <ele>924</ele>
        <time>2014-05-10T16:19:10.77</time>
      </trkpt>
      <trkpt lat="47.17671" lon="6.72095">
        <ele>920</ele>
        <time>2014-05-10T16:19:13.75</time>
      </trkpt>
      <trkpt lat="47.17662" lon="6.72098">
        <ele>917</ele>
        <time>2014-05-10T16:19:16.77</time>
      </trkpt>
      <trkpt lat="47.17654" lon="6.721">
        <ele>915</ele>
        <time>2014-05-10T16:19:18.78</time>
      </trkpt>
      <trkpt lat="47.17636" lon="6.72102">
        <ele>917</ele>
        <time>2014-05-10T16:19:22.79</time>
      </trkpt>
      <trkpt lat="47.17624" lon="6.72101">
        <ele>912</ele>
        <time>2014-05-10T16:19:24.75</time>
      </trkpt>
      <trkpt lat="47.17611" lon="6.72098">
        <ele>910</ele>
        <time>2014-05-10T16:19:26.77</time>
      </trkpt>
      <trkpt lat="47.17601" lon="6.72098">
        <ele>909</ele>
        <time>2014-05-10T16:19:28.77</time>
      </trkpt>
      <trkpt lat="47.1759" lon="6.72097">
        <ele>905</ele>
        <time>2014-05-10T16:19:30.75</time>
      </trkpt>
      <trkpt lat="47.1758" lon="6.72097">
        <ele>905</ele>
        <time>2014-05-10T16:19:32.76</time>
      </trkpt>
      <trkpt lat="47.17572" lon="6.72097">
        <ele>912</ele>
        <time>2014-05-10T16:19:34.76</time>
      </trkpt>
      <trkpt lat="47.17564" lon="6.72098">
        <ele>908</ele>
        <time>2014-05-10T16:19:36.76</time>
      </trkpt>
      <trkpt lat="47.17555" lon="6.72102">
        <ele>909</ele>
        <time>2014-05-10T16:19:38.77</time>
      </trkpt>
      <trkpt lat="47.17546" lon="6.72105">
        <ele>910</ele>
        <time>2014-05-10T16:19:40.76</time>
      </trkpt>
      <trkpt lat="47.17537" lon="6.72108">
        <ele>911</ele>
        <time>2014-05-10T16:19:42.78</time>
      </trkpt>
      <trkpt lat="47.1753" lon="6.7211">
        <ele>912</ele>
        <time>2014-05-10T16:19:44.76</time>
      </trkpt>
      <trkpt lat="47.17521" lon="6.72111">
        <ele>912</ele>
        <time>2014-05-10T16:19:46.78</time>
      </trkpt>
      <trkpt lat="47.17513" lon="6.72111">
        <ele>911</ele>
        <time>2014-05-10T16:19:48.76</time>
      </trkpt>
      <trkpt lat="47.17505" lon="6.7211">
        <ele>912</ele>
        <time>2014-05-10T16:19:50.77</time>
      </trkpt>
      <trkpt lat="47.17496" lon="6.72111">
        <ele>911</ele>
        <time>2014-05-10T16:19:53.75</time>
      </trkpt>
      <trkpt lat="47.17488" lon="6.72113">
        <ele>913</ele>
        <time>2014-05-10T16:19:55.78</time>
      </trkpt>
      <trkpt lat="47.17477" lon="6.72116">
        <ele>912</ele>
        <time>2014-05-10T16:19:57.80</time>
      </trkpt>
      <trkpt lat="47.17467" lon="6.72118">
        <ele>913</ele>
        <time>2014-05-10T16:19:59.79</time>
      </trkpt>
      <trkpt lat="47.17458" lon="6.7212">
        <ele>911</ele>
        <time>2014-05-10T16:20:01.81</time>
      </trkpt>
      <trkpt lat="47.17451" lon="6.7212">
        <ele>916</ele>
        <time>2014-05-10T16:20:03.77</time>
      </trkpt>
      <trkpt lat="47.17441" lon="6.72121">
        <ele>913</ele>
        <time>2014-05-10T16:20:06.83</time>
      </trkpt>
      <trkpt lat="47.17432" lon="6.72124">
        <ele>914</ele>
        <time>2014-05-10T16:20:09.74</time>
      </trkpt>
      <trkpt lat="47.17425" lon="6.72127">
        <ele>916</ele>
        <time>2014-05-10T16:20:11.77</time>
      </trkpt>
      <trkpt lat="47.17414" lon="6.72129">
        <ele>916</ele>
        <time>2014-05-10T16:20:14.78</time>
      </trkpt>
      <trkpt lat="47.17404" lon="6.72127">
        <ele>916</ele>
        <time>2014-05-10T16:20:17.76</time>
      </trkpt>
      <trkpt lat="47.17396" lon="6.72126">
        <ele>916</ele>
        <time>2014-05-10T16:20:20.77</time>
      </trkpt>
      <trkpt lat="47.17389" lon="6.72125">
        <ele>917</ele>
        <time>2014-05-10T16:20:23.78</time>
      </trkpt>
      <trkpt lat="47.1738" lon="6.72124">
        <ele>913</ele>
        <time>2014-05-10T16:20:26.76</time>
      </trkpt>
      <trkpt lat="47.17371" lon="6.72122">
        <ele>912</ele>
        <time>2014-05-10T16:20:29.78</time>
      </trkpt>
      <trkpt lat="47.17362" lon="6.7212">
        <ele>915</ele>
        <time>2014-05-10T16:20:32.76</time>
      </trkpt>
      <trkpt lat="47.17354" lon="6.72118">
        <ele>917</ele>
        <time>2014-05-10T16:20:35.76</time>
      </trkpt>
      <trkpt lat="47.17346" lon="6.72117">
        <ele>915</ele>
        <time>2014-05-10T16:20:38.76</time>
      </trkpt>
      <trkpt lat="47.17338" lon="6.72115">
        <ele>914</ele>
        <time>2014-05-10T16:20:41.78</time>
      </trkpt>
      <trkpt lat="47.1733" lon="6.72113">
        <ele>915</ele>
        <time>2014-05-10T16:20:44.78</time>
      </trkpt>
      <trkpt lat="47.17321" lon="6.72112">
        <ele>915</ele>
        <time>2014-05-10T16:20:47.77</time>
      </trkpt>
      <trkpt lat="47.17313" lon="6.72111">
        <ele>914</ele>
        <time>2014-05-10T16:20:49.80</time>
      </trkpt>
      <trkpt lat="47.17306" lon="6.7211">
        <ele>915</ele>
        <time>2014-05-10T16:20:51.77</time>
      </trkpt>
      <trkpt lat="47.17294" lon="6.72108">
        <ele>914</ele>
        <time>2014-05-10T16:20:54.83</time>
      </trkpt>
      <trkpt lat="47.17285" lon="6.72106">
        <ele>913</ele>
        <time>2014-05-10T16:20:57.78</time>
      </trkpt>
      <trkpt lat="47.17277" lon="6.72106">
        <ele>916</ele>
        <time>2014-05-10T16:20:59.79</time>
      </trkpt>
      <trkpt lat="47.17267" lon="6.72104">
        <ele>914</ele>
        <time>2014-05-10T16:21:02.77</time>
      </trkpt>
      <trkpt lat="47.17258" lon="6.72104">
        <ele>912</ele>
        <time>2014-05-10T16:21:04.80</time>
      </trkpt>
      <trkpt lat="47.17251" lon="6.72106">
        <ele>911</ele>
        <time>2014-05-10T16:21:06.78</time>
      </trkpt>
      <trkpt lat="47.17242" lon="6.72106">
        <ele>912</ele>
        <time>2014-05-10T16:21:08.77</time>
      </trkpt>
      <trkpt lat="47.17234" lon="6.72107">
        <ele>911</ele>
        <time>2014-05-10T16:21:10.79</time>
      </trkpt>
      <trkpt lat="47.17224" lon="6.72109">
        <ele>910</ele>
        <time>2014-05-10T16:21:13.76</time>
      </trkpt>
      <trkpt lat="47.17213" lon="6.72111">
        <ele>910</ele>
        <time>2014-05-10T16:21:16.79</time>
      </trkpt>
      <trkpt lat="47.17205" lon="6.72112">
        <ele>910</ele>
        <time>2014-05-10T16:21:18.78</time>
      </trkpt>
      <trkpt lat="47.17196" lon="6.72113">
        <ele>911</ele>
        <time>2014-05-10T16:21:20.77</time>
      </trkpt>
      <trkpt lat="47.17188" lon="6.72114">
        <ele>912</ele>
        <time>2014-05-10T16:21:22.80</time>
      </trkpt>
      <trkpt lat="47.1718" lon="6.72115">
        <ele>913</ele>
        <time>2014-05-10T16:21:24.79</time>
      </trkpt>
      <trkpt lat="47.17172" lon="6.72116">
        <ele>916</ele>
        <time>2014-05-10T16:21:26.78</time>
      </trkpt>
      <trkpt lat="47.17165" lon="6.72116">
        <ele>914</ele>
        <time>2014-05-10T16:21:28.80</time>
      </trkpt>
      <trkpt lat="47.17157" lon="6.72117">
        <ele>913</ele>
        <time>2014-05-10T16:21:30.77</time>
      </trkpt>
      <trkpt lat="47.17148" lon="6.72118">
        <ele>913</ele>
        <time>2014-05-10T16:21:32.77</time>
      </trkpt>
      <trkpt lat="47.17139" lon="6.72119">
        <ele>914</ele>
        <time>2014-05-10T16:21:34.75</time>
      </trkpt>
      <trkpt lat="47.17131" lon="6.7212">
        <ele>913</ele>
        <time>2014-05-10T16:21:36.77</time>
      </trkpt>
      <trkpt lat="47.17124" lon="6.72123">
        <ele>913</ele>
        <time>2014-05-10T16:21:38.80</time>
      </trkpt>
      <trkpt lat="47.17114" lon="6.72125">
        <ele>915</ele>
        <time>2014-05-10T16:21:41.76</time>
      </trkpt>
      <trkpt lat="47.17106" lon="6.72126">
        <ele>917</ele>
        <time>2014-05-10T16:21:43.79</time>
      </trkpt>
      <trkpt lat="47.17098" lon="6.72128">
        <ele>917</ele>
        <time>2014-05-10T16:21:45.77</time>
      </trkpt>
      <trkpt lat="47.17091" lon="6.72131">
        <ele>917</ele>
        <time>2014-05-10T16:21:47.76</time>
      </trkpt>
      <trkpt lat="47.17081" lon="6.72133">
        <ele>915</ele>
        <time>2014-05-10T16:21:50.79</time>
      </trkpt>
      <trkpt lat="47.17073" lon="6.72136">
        <ele>914</ele>
        <time>2014-05-10T16:21:52.80</time>
      </trkpt>
      <trkpt lat="47.17063" lon="6.72139">
        <ele>914</ele>
        <time>2014-05-10T16:21:55.79</time>
      </trkpt>
      <trkpt lat="47.17053" lon="6.72141">
        <ele>916</ele>
        <time>2014-05-10T16:21:58.76</time>
      </trkpt>
      <trkpt lat="47.17045" lon="6.72141">
        <ele>917</ele>
        <time>2014-05-10T16:22:00.80</time>
      </trkpt>
      <trkpt lat="47.17036" lon="6.7214">
        <ele>916</ele>
        <time>2014-05-10T16:22:03.75</time>
      </trkpt>
      <trkpt lat="47.17025" lon="6.72142">
        <ele>917</ele>
        <time>2014-05-10T16:22:06.79</time>
      </trkpt>
      <trkpt lat="47.17018" lon="6.72142">
        <ele>917</ele>
        <time>2014-05-10T16:22:08.79</time>
      </trkpt>
      <trkpt lat="47.1701" lon="6.72143">
        <ele>918</ele>
        <time>2014-05-10T16:22:10.79</time>
      </trkpt>
      <trkpt lat="47.17002" lon="6.72143">
        <ele>918</ele>
        <time>2014-05-10T16:22:12.78</time>
      </trkpt>
      <trkpt lat="47.16994" lon="6.72143">
        <ele>917</ele>
        <time>2014-05-10T16:22:14.80</time>
      </trkpt>
      <trkpt lat="47.16986" lon="6.72144">
        <ele>919</ele>
        <time>2014-05-10T16:22:16.79</time>
      </trkpt>
      <trkpt lat="47.16977" lon="6.72145">
        <ele>919</ele>
        <time>2014-05-10T16:22:18.75</time>
      </trkpt>
      <trkpt lat="47.16969" lon="6.72145">
        <ele>919</ele>
        <time>2014-05-10T16:22:20.80</time>
      </trkpt>
      <trkpt lat="47.1696" lon="6.72145">
        <ele>920</ele>
        <time>2014-05-10T16:22:22.77</time>
      </trkpt>
      <trkpt lat="47.16951" lon="6.72147">
        <ele>917</ele>
        <time>2014-05-10T16:22:24.77</time>
      </trkpt>
      <trkpt lat="47.16942" lon="6.72149">
        <ele>921</ele>
        <time>2014-05-10T16:22:26.80</time>
      </trkpt>
      <trkpt lat="47.16934" lon="6.72151">
        <ele>919</ele>
        <time>2014-05-10T16:22:28.77</time>
      </trkpt>
      <trkpt lat="47.16926" lon="6.72154">
        <ele>918</ele>
        <time>2014-05-10T16:22:30.80</time>
      </trkpt>
      <trkpt lat="47.16918" lon="6.72157">
        <ele>919</ele>
        <time>2014-05-10T16:22:32.79</time>
      </trkpt>
      <trkpt lat="47.1691" lon="6.72159">
        <ele>917</ele>
        <time>2014-05-10T16:22:34.79</time>
      </trkpt>
      <trkpt lat="47.16903" lon="6.72162">
        <ele>918</ele>
        <time>2014-05-10T16:22:36.79</time>
      </trkpt>
      <trkpt lat="47.16896" lon="6.72166">
        <ele>918</ele>
        <time>2014-05-10T16:22:38.72</time>
      </trkpt>
      <trkpt lat="47.16886" lon="6.72171">
        <ele>920</ele>
        <time>2014-05-10T16:22:41.76</time>
      </trkpt>
      <trkpt lat="47.16879" lon="6.72178">
        <ele>917</ele>
        <time>2014-05-10T16:22:43.75</time>
      </trkpt>
      <trkpt lat="47.16872" lon="6.72183">
        <ele>917</ele>
        <time>2014-05-10T16:22:45.75</time>
      </trkpt>
      <trkpt lat="47.16866" lon="6.72188">
        <ele>917</ele>
        <time>2014-05-10T16:22:47.76</time>
      </trkpt>
      <trkpt lat="47.16859" lon="6.72193">
        <ele>918</ele>
        <time>2014-05-10T16:22:49.80</time>
      </trkpt>
      <trkpt lat="47.16853" lon="6.72199">
        <ele>919</ele>
        <time>2014-05-10T16:22:51.77</time>
      </trkpt>
      <trkpt lat="47.16847" lon="6.72206">
        <ele>919</ele>
        <time>2014-05-10T16:22:53.75</time>
      </trkpt>
      <trkpt lat="47.16841" lon="6.72213">
        <ele>918</ele>
        <time>2014-05-10T16:22:55.78</time>
      </trkpt>
      <trkpt lat="47.16835" lon="6.7222">
        <ele>919</ele>
        <time>2014-05-10T16:22:57.74</time>
      </trkpt>
      <trkpt lat="47.16828" lon="6.72227">
        <ele>919</ele>
        <time>2014-05-10T16:22:59.76</time>
      </trkpt>
      <trkpt lat="47.16823" lon="6.72234">
        <ele>919</ele>
        <time>2014-05-10T16:23:01.74</time>
      </trkpt>
      <trkpt lat="47.16816" lon="6.72241">
        <ele>917</ele>
        <time>2014-05-10T16:23:03.75</time>
      </trkpt>
      <trkpt lat="47.16809" lon="6.72247">
        <ele>915</ele>
        <time>2014-05-10T16:23:05.76</time>
      </trkpt>
      <trkpt lat="47.16801" lon="6.72253">
        <ele>914</ele>
        <time>2014-05-10T16:23:07.75</time>
      </trkpt>
      <trkpt lat="47.16793" lon="6.72258">
        <ele>918</ele>
        <time>2014-05-10T16:23:09.75</time>
      </trkpt>
      <trkpt lat="47.16786" lon="6.72261">
        <ele>919</ele>
        <time>2014-05-10T16:23:11.77</time>
      </trkpt>
      <trkpt lat="47.16778" lon="6.72265">
        <ele>919</ele>
        <time>2014-05-10T16:23:13.76</time>
      </trkpt>
      <trkpt lat="47.1677" lon="6.72267">
        <ele>918</ele>
        <time>2014-05-10T16:23:15.74</time>
      </trkpt>
      <trkpt lat="47.16762" lon="6.72269">
        <ele>919</ele>
        <time>2014-05-10T16:23:17.74</time>
      </trkpt>
      <trkpt lat="47.16753" lon="6.72271">
        <ele>919</ele>
        <time>2014-05-10T16:23:19.73</time>
      </trkpt>
      <trkpt lat="47.16745" lon="6.72274">
        <ele>921</ele>
        <time>2014-05-10T16:23:21.77</time>
      </trkpt>
      <trkpt lat="47.16738" lon="6.72277">
        <ele>920</ele>
        <time>2014-05-10T16:23:23.73</time>
      </trkpt>
      <trkpt lat="47.16729" lon="6.72281">
        <ele>921</ele>
        <time>2014-05-10T16:23:25.74</time>
      </trkpt>
      <trkpt lat="47.16721" lon="6.72285">
        <ele>923</ele>
        <time>2014-05-10T16:23:27.73</time>
      </trkpt>
      <trkpt lat="47.16713" lon="6.72289">
        <ele>922</ele>
        <time>2014-05-10T16:23:29.77</time>
      </trkpt>
      <trkpt lat="47.16707" lon="6.72294">
        <ele>921</ele>
        <time>2014-05-10T16:23:31.74</time>
      </trkpt>
      <trkpt lat="47.167" lon="6.72299">
        <ele>919</ele>
        <time>2014-05-10T16:23:33.74</time>
      </trkpt>
      <trkpt lat="47.16693" lon="6.72304">
        <ele>918</ele>
        <time>2014-05-10T16:23:35.74</time>
      </trkpt>
      <trkpt lat="47.16686" lon="6.72308">
        <ele>921</ele>
        <time>2014-05-10T16:23:37.78</time>
      </trkpt>
      <trkpt lat="47.16678" lon="6.72313">
        <ele>921</ele>
        <time>2014-05-10T16:23:39.74</time>
      </trkpt>
      <trkpt lat="47.16672" lon="6.7232">
        <ele>920</ele>
        <time>2014-05-10T16:23:41.79</time>
      </trkpt>
      <trkpt lat="47.16667" lon="6.72331">
        <ele>921</ele>
        <time>2014-05-10T16:23:43.74</time>
      </trkpt>
      <trkpt lat="47.16663" lon="6.72347">
        <ele>920</ele>
        <time>2014-05-10T16:23:45.74</time>
      </trkpt>
      <trkpt lat="47.16659" lon="6.72364">
        <ele>920</ele>
        <time>2014-05-10T16:23:47.73</time>
      </trkpt>
      <trkpt lat="47.16656" lon="6.72382">
        <ele>920</ele>
        <time>2014-05-10T16:23:49.75</time>
      </trkpt>
      <trkpt lat="47.16653" lon="6.72399">
        <ele>920</ele>
        <time>2014-05-10T16:23:51.74</time>
      </trkpt>
      <trkpt lat="47.16651" lon="6.72416">
        <ele>918</ele>
        <time>2014-05-10T16:23:53.77</time>
      </trkpt>
      <trkpt lat="47.16646" lon="6.72435">
        <ele>916</ele>
        <time>2014-05-10T16:23:55.74</time>
      </trkpt>
      <trkpt lat="47.16642" lon="6.72452">
        <ele>916</ele>
        <time>2014-05-10T16:23:57.78</time>
      </trkpt>
      <trkpt lat="47.16637" lon="6.72467">
        <ele>921</ele>
        <time>2014-05-10T16:23:59.75</time>
      </trkpt>
      <trkpt lat="47.16632" lon="6.72481">
        <ele>921</ele>
        <time>2014-05-10T16:24:01.77</time>
      </trkpt>
      <trkpt lat="47.16626" lon="6.72496">
        <ele>917</ele>
        <time>2014-05-10T16:24:03.79</time>
      </trkpt>
      <trkpt lat="47.16618" lon="6.72511">
        <ele>917</ele>
        <time>2014-05-10T16:24:05.77</time>
      </trkpt>
      <trkpt lat="47.16611" lon="6.72525">
        <ele>916</ele>
        <time>2014-05-10T16:24:07.74</time>
      </trkpt>
      <trkpt lat="47.16604" lon="6.72537">
        <ele>917</ele>
        <time>2014-05-10T16:24:09.74</time>
      </trkpt>
      <trkpt lat="47.16596" lon="6.72548">
        <ele>916</ele>
        <time>2014-05-10T16:24:11.75</time>
      </trkpt>
      <trkpt lat="47.16589" lon="6.72559">
        <ele>916</ele>
        <time>2014-05-10T16:24:13.76</time>
      </trkpt>
      <trkpt lat="47.16581" lon="6.7257">
        <ele>918</ele>
        <time>2014-05-10T16:24:15.80</time>
      </trkpt>
      <trkpt lat="47.16573" lon="6.72583">
        <ele>916</ele>
        <time>2014-05-10T16:24:17.77</time>
      </trkpt>
      <trkpt lat="47.16566" lon="6.72595">
        <ele>918</ele>
        <time>2014-05-10T16:24:19.76</time>
      </trkpt>
      <trkpt lat="47.16558" lon="6.72607">
        <ele>919</ele>
        <time>2014-05-10T16:24:21.74</time>
      </trkpt>
      <trkpt lat="47.16551" lon="6.72619">
        <ele>920</ele>
        <time>2014-05-10T16:24:23.74</time>
      </trkpt>
      <trkpt lat="47.16545" lon="6.72631">
        <ele>916</ele>
        <time>2014-05-10T16:24:25.73</time>
      </trkpt>
      <trkpt lat="47.16539" lon="6.7264">
        <ele>918</ele>
        <time>2014-05-10T16:24:27.73</time>
      </trkpt>
      <trkpt lat="47.16538" lon="6.72641">
        <ele>916</ele>
        <time>2014-05-10T16:24:34.76</time>
      </trkpt>
      <trkpt lat="47.16536" lon="6.72652">
        <ele>919</ele>
        <time>2014-05-10T16:24:35.77</time>
      </trkpt>
      <trkpt lat="47.1653" lon="6.72663">
        <ele>915</ele>
        <time>2014-05-10T16:24:39.75</time>
      </trkpt>
      <trkpt lat="47.16524" lon="6.72674">
        <ele>918</ele>
        <time>2014-05-10T16:24:43.72</time>
      </trkpt>
      <trkpt lat="47.1652" lon="6.72683">
        <ele>917</ele>
        <time>2014-05-10T16:24:46.76</time>
      </trkpt>
      <trkpt lat="47.16513" lon="6.72693">
        <ele>922</ele>
        <time>2014-05-10T16:24:50.72</time>
      </trkpt>
      <trkpt lat="47.16507" lon="6.72703">
        <ele>922</ele>
        <time>2014-05-10T16:24:53.97</time>
      </trkpt>
      <trkpt lat="47.16498" lon="6.72712">
        <ele>922</ele>
        <time>2014-05-10T16:24:56.94</time>
      </trkpt>
      <trkpt lat="47.16489" lon="6.72717">
        <ele>918</ele>
        <time>2014-05-10T16:24:59.84</time>
      </trkpt>
      <trkpt lat="47.1648" lon="6.7272">
        <ele>919</ele>
        <time>2014-05-10T16:25:02.80</time>
      </trkpt>
      <trkpt lat="47.16473" lon="6.72728">
        <ele>920</ele>
        <time>2014-05-10T16:25:06.68</time>
      </trkpt>
      <trkpt lat="47.16467" lon="6.72741">
        <ele>916</ele>
        <time>2014-05-10T16:25:08.89</time>
      </trkpt>
      <trkpt lat="47.16462" lon="6.72755">
        <ele>915</ele>
        <time>2014-05-10T16:25:11.72</time>
      </trkpt>
      <trkpt lat="47.16456" lon="6.72766">
        <ele>920</ele>
        <time>2014-05-10T16:25:14.68</time>
      </trkpt>
      <trkpt lat="47.16451" lon="6.72775">
        <ele>917</ele>
        <time>2014-05-10T16:25:17.67</time>
      </trkpt>
      <trkpt lat="47.16446" lon="6.72784">
        <ele>922</ele>
        <time>2014-05-10T16:25:20.67</time>
      </trkpt>
      <trkpt lat="47.1644" lon="6.72795">
        <ele>922</ele>
        <time>2014-05-10T16:25:23.64</time>
      </trkpt>
      <trkpt lat="47.16434" lon="6.72803">
        <ele>919</ele>
        <time>2014-05-10T16:25:25.67</time>
      </trkpt>
      <trkpt lat="47.16427" lon="6.72812">
        <ele>919</ele>
        <time>2014-05-10T16:25:28.67</time>
      </trkpt>
      <trkpt lat="47.16422" lon="6.7282">
        <ele>919</ele>
        <time>2014-05-10T16:25:30.66</time>
      </trkpt>
      <trkpt lat="47.16415" lon="6.7283">
        <ele>918</ele>
        <time>2014-05-10T16:25:33.70</time>
      </trkpt>
      <trkpt lat="47.16408" lon="6.7284">
        <ele>920</ele>
        <time>2014-05-10T16:25:36.68</time>
      </trkpt>
      <trkpt lat="47.16403" lon="6.72848">
        <ele>919</ele>
        <time>2014-05-10T16:25:38.68</time>
      </trkpt>
      <trkpt lat="47.16397" lon="6.72859">
        <ele>920</ele>
        <time>2014-05-10T16:25:41.67</time>
      </trkpt>
      <trkpt lat="47.16392" lon="6.72868">
        <ele>922</ele>
        <time>2014-05-10T16:25:44.68</time>
      </trkpt>
      <trkpt lat="47.16385" lon="6.72878">
        <ele>921</ele>
        <time>2014-05-10T16:25:47.70</time>
      </trkpt>
      <trkpt lat="47.16379" lon="6.72887">
        <ele>920</ele>
        <time>2014-05-10T16:25:50.68</time>
      </trkpt>
      <trkpt lat="47.16374" lon="6.72896">
        <ele>923</ele>
        <time>2014-05-10T16:25:53.68</time>
      </trkpt>
      <trkpt lat="47.16365" lon="6.72897">
        <ele>920</ele>
        <time>2014-05-10T16:25:59.66</time>
      </trkpt>
      <trkpt lat="47.16358" lon="6.72893">
        <ele>918</ele>
        <time>2014-05-10T16:26:02.71</time>
      </trkpt>
      <trkpt lat="47.16349" lon="6.72888">
        <ele>919</ele>
        <time>2014-05-10T16:26:06.70</time>
      </trkpt>
      <trkpt lat="47.16342" lon="6.72886">
        <ele>920</ele>
        <time>2014-05-10T16:26:09.69</time>
      </trkpt>
      <trkpt lat="47.16335" lon="6.72882">
        <ele>922</ele>
        <time>2014-05-10T16:26:12.66</time>
      </trkpt>
      <trkpt lat="47.16328" lon="6.72879">
        <ele>921</ele>
        <time>2014-05-10T16:26:15.69</time>
      </trkpt>
      <trkpt lat="47.1632" lon="6.72878">
        <ele>917</ele>
        <time>2014-05-10T16:26:18.68</time>
      </trkpt>
      <trkpt lat="47.16312" lon="6.72876">
        <ele>920</ele>
        <time>2014-05-10T16:26:21.70</time>
      </trkpt>
      <trkpt lat="47.16304" lon="6.72876">
        <ele>921</ele>
        <time>2014-05-10T16:26:24.66</time>
      </trkpt>
      <trkpt lat="47.16297" lon="6.72876">
        <ele>920</ele>
        <time>2014-05-10T16:26:27.67</time>
      </trkpt>
      <trkpt lat="47.1629" lon="6.72874">
        <ele>923</ele>
        <time>2014-05-10T16:26:31.69</time>
      </trkpt>
      <trkpt lat="47.16282" lon="6.72872">
        <ele>925</ele>
        <time>2014-05-10T16:26:36.68</time>
      </trkpt>
      <trkpt lat="47.16276" lon="6.72866">
        <ele>923</ele>
        <time>2014-05-10T16:26:43.68</time>
      </trkpt>
      <trkpt lat="47.16268" lon="6.72861">
        <ele>922</ele>
        <time>2014-05-10T16:26:46.66</time>
      </trkpt>
      <trkpt lat="47.16259" lon="6.72854">
        <ele>920</ele>
        <time>2014-05-10T16:26:49.66</time>
      </trkpt>
      <trkpt lat="47.16251" lon="6.72845">
        <ele>915</ele>
        <time>2014-05-10T16:26:52.70</time>
      </trkpt>
      <trkpt lat="47.16246" lon="6.72836">
        <ele>918</ele>
        <time>2014-05-10T16:26:54.67</time>
      </trkpt>
      <trkpt lat="47.1624" lon="6.72826">
        <ele>917</ele>
        <time>2014-05-10T16:26:56.67</time>
      </trkpt>
      <trkpt lat="47.16235" lon="6.72815">
        <ele>917</ele>
        <time>2014-05-10T16:26:58.68</time>
      </trkpt>
      <trkpt lat="47.16228" lon="6.72802">
        <ele>918</ele>
        <time>2014-05-10T16:27:00.69</time>
      </trkpt>
      <trkpt lat="47.16221" lon="6.72791">
        <ele>919</ele>
        <time>2014-05-10T16:27:02.72</time>
      </trkpt>
      <trkpt lat="47.16215" lon="6.72779">
        <ele>920</ele>
        <time>2014-05-10T16:27:04.67</time>
      </trkpt>
      <trkpt lat="47.16208" lon="6.72767">
        <ele>920</ele>
        <time>2014-05-10T16:27:06.67</time>
      </trkpt>
      <trkpt lat="47.16201" lon="6.72755">
        <ele>917</ele>
        <time>2014-05-10T16:27:08.69</time>
      </trkpt>
      <trkpt lat="47.16195" lon="6.72744">
        <ele>916</ele>
        <time>2014-05-10T16:27:10.71</time>
      </trkpt>
      <trkpt lat="47.16188" lon="6.72732">
        <ele>915</ele>
        <time>2014-05-10T16:27:12.68</time>
      </trkpt>
      <trkpt lat="47.16181" lon="6.7272">
        <ele>917</ele>
        <time>2014-05-10T16:27:14.67</time>
      </trkpt>
      <trkpt lat="47.16174" lon="6.72709">
        <ele>919</ele>
        <time>2014-05-10T16:27:16.68</time>
      </trkpt>
      <trkpt lat="47.16166" lon="6.72696">
        <ele>919</ele>
        <time>2014-05-10T16:27:18.69</time>
      </trkpt>
      <trkpt lat="47.16157" lon="6.72684">
        <ele>918</ele>
        <time>2014-05-10T16:27:20.69</time>
      </trkpt>
      <trkpt lat="47.16149" lon="6.72671">
        <ele>917</ele>
        <time>2014-05-10T16:27:22.72</time>
      </trkpt>
      <trkpt lat="47.16141" lon="6.7266">
        <ele>919</ele>
        <time>2014-05-10T16:27:24.69</time>
      </trkpt>
      <trkpt lat="47.16134" lon="6.7265">
        <ele>921</ele>
        <time>2014-05-10T16:27:26.66</time>
      </trkpt>
      <trkpt lat="47.16127" lon="6.7264">
        <ele>921</ele>
        <time>2014-05-10T16:27:28.67</time>
      </trkpt>
      <trkpt lat="47.16119" lon="6.72628">
        <ele>922</ele>
        <time>2014-05-10T16:27:30.66</time>
      </trkpt>
      <trkpt lat="47.16109" lon="6.72614">
        <ele>919</ele>
        <time>2014-05-10T16:27:32.71</time>
      </trkpt>
      <trkpt lat="47.16101" lon="6.72602">
        <ele>921</ele>
        <time>2014-05-10T16:27:34.75</time>
      </trkpt>
      <trkpt lat="47.16092" lon="6.72591">
        <ele>923</ele>
        <time>2014-05-10T16:27:36.67</time>
      </trkpt>
      <trkpt lat="47.16084" lon="6.72579">
        <ele>922</ele>
        <time>2014-05-10T16:27:38.71</time>
      </trkpt>
      <trkpt lat="47.16075" lon="6.72567">
        <ele>922</ele>
        <time>2014-05-10T16:27:40.66</time>
      </trkpt>
      <trkpt lat="47.16067" lon="6.72555">
        <ele>917</ele>
        <time>2014-05-10T16:27:42.67</time>
      </trkpt>
      <trkpt lat="47.16058" lon="6.72543">
        <ele>917</ele>
        <time>2014-05-10T16:27:44.72</time>
      </trkpt>
      <trkpt lat="47.16049" lon="6.72531">
        <ele>916</ele>
        <time>2014-05-10T16:27:46.68</time>
      </trkpt>
      <trkpt lat="47.1604" lon="6.7252">
        <ele>917</ele>
        <time>2014-05-10T16:27:48.68</time>
      </trkpt>
      <trkpt lat="47.16031" lon="6.7251">
        <ele>920</ele>
        <time>2014-05-10T16:27:50.67</time>
      </trkpt>
      <trkpt lat="47.16023" lon="6.72499">
        <ele>922</ele>
        <time>2014-05-10T16:27:52.69</time>
      </trkpt>
      <trkpt lat="47.16015" lon="6.72489">
        <ele>920</ele>
        <time>2014-05-10T16:27:54.70</time>
      </trkpt>
      <trkpt lat="47.16007" lon="6.72477">
        <ele>917</ele>
        <time>2014-05-10T16:27:56.68</time>
      </trkpt>
      <trkpt lat="47.15998" lon="6.72466">
        <ele>919</ele>
        <time>2014-05-10T16:27:58.70</time>
      </trkpt>
      <trkpt lat="47.15991" lon="6.72457">
        <ele>921</ele>
        <time>2014-05-10T16:28:00.67</time>
      </trkpt>
      <trkpt lat="47.15984" lon="6.72447">
        <ele>920</ele>
        <time>2014-05-10T16:28:02.66</time>
      </trkpt>
      <trkpt lat="47.15976" lon="6.72437">
        <ele>922</ele>
        <time>2014-05-10T16:28:04.67</time>
      </trkpt>
      <trkpt lat="47.15968" lon="6.72427">
        <ele>923</ele>
        <time>2014-05-10T16:28:06.72</time>
      </trkpt>
      <trkpt lat="47.15962" lon="6.72419">
        <ele>922</ele>
        <time>2014-05-10T16:28:08.69</time>
      </trkpt>
      <trkpt lat="47.15955" lon="6.72409">
        <ele>922</ele>
        <time>2014-05-10T16:28:10.69</time>
      </trkpt>
      <trkpt lat="47.15948" lon="6.724">
        <ele>922</ele>
        <time>2014-05-10T16:28:12.66</time>
      </trkpt>
      <trkpt lat="47.15941" lon="6.7239">
        <ele>922</ele>
        <time>2014-05-10T16:28:14.69</time>
      </trkpt>
      <trkpt lat="47.15934" lon="6.7238">
        <ele>921</ele>
        <time>2014-05-10T16:28:16.69</time>
      </trkpt>
      <trkpt lat="47.15927" lon="6.72371">
        <ele>919</ele>
        <time>2014-05-10T16:28:18.67</time>
      </trkpt>
      <trkpt lat="47.15921" lon="6.72361">
        <ele>920</ele>
        <time>2014-05-10T16:28:20.68</time>
      </trkpt>
      <trkpt lat="47.15914" lon="6.72351">
        <ele>922</ele>
        <time>2014-05-10T16:28:22.67</time>
      </trkpt>
      <trkpt lat="47.15907" lon="6.72342">
        <ele>922</ele>
        <time>2014-05-10T16:28:24.67</time>
      </trkpt>
      <trkpt lat="47.15899" lon="6.72332">
        <ele>920</ele>
        <time>2014-05-10T16:28:26.66</time>
      </trkpt>
      <trkpt lat="47.15892" lon="6.72322">
        <ele>921</ele>
        <time>2014-05-10T16:28:28.67</time>
      </trkpt>
      <trkpt lat="47.15885" lon="6.72313">
        <ele>923</ele>
        <time>2014-05-10T16:28:30.67</time>
      </trkpt>
      <trkpt lat="47.15878" lon="6.72301">
        <ele>920</ele>
        <time>2014-05-10T16:28:32.67</time>
      </trkpt>
      <trkpt lat="47.15872" lon="6.72293">
        <ele>922</ele>
        <time>2014-05-10T16:28:34.69</time>
      </trkpt>
      <trkpt lat="47.15866" lon="6.72284">
        <ele>923</ele>
        <time>2014-05-10T16:28:36.70</time>
      </trkpt>
      <trkpt lat="47.15858" lon="6.72272">
        <ele>922</ele>
        <time>2014-05-10T16:28:38.71</time>
      </trkpt>
      <trkpt lat="47.15851" lon="6.72261">
        <ele>922</ele>
        <time>2014-05-10T16:28:40.68</time>
      </trkpt>
      <trkpt lat="47.15845" lon="6.72253">
        <ele>924</ele>
        <time>2014-05-10T16:28:42.69</time>
      </trkpt>
      <trkpt lat="47.15838" lon="6.72245">
        <ele>921</ele>
        <time>2014-05-10T16:28:44.71</time>
      </trkpt>
      <trkpt lat="47.15831" lon="6.72237">
        <ele>923</ele>
        <time>2014-05-10T16:28:46.67</time>
      </trkpt>
      <trkpt lat="47.15824" lon="6.72228">
        <ele>925</ele>
        <time>2014-05-10T16:28:48.70</time>
      </trkpt>
      <trkpt lat="47.15818" lon="6.7222">
        <ele>926</ele>
        <time>2014-05-10T16:28:50.68</time>
      </trkpt>
      <trkpt lat="47.15812" lon="6.72211">
        <ele>925</ele>
        <time>2014-05-10T16:28:53.70</time>
      </trkpt>
      <trkpt lat="47.15809" lon="6.72203">
        <ele>927</ele>
        <time>2014-05-10T16:29:00.67</time>
      </trkpt>
      <trkpt lat="47.15811" lon="6.72201">
        <ele>927</ele>
        <time>2014-05-10T16:29:06.76</time>
      </trkpt>
      <trkpt lat="47.15817" lon="6.72189">
        <ele>931</ele>
        <time>2014-05-10T16:29:09.74</time>
      </trkpt>
      <trkpt lat="47.15825" lon="6.72179">
        <ele>931</ele>
        <time>2014-05-10T16:29:12.72</time>
      </trkpt>
      <trkpt lat="47.15829" lon="6.72171">
        <ele>928</ele>
        <time>2014-05-10T16:29:14.69</time>
      </trkpt>
      <trkpt lat="47.15834" lon="6.72161">
        <ele>926</ele>
        <time>2014-05-10T16:29:16.72</time>
      </trkpt>
      <trkpt lat="47.1584" lon="6.72152">
        <ele>928</ele>
        <time>2014-05-10T16:29:18.70</time>
      </trkpt>
      <trkpt lat="47.15846" lon="6.72142">
        <ele>929</ele>
        <time>2014-05-10T16:29:20.67</time>
      </trkpt>
      <trkpt lat="47.15851" lon="6.72132">
        <ele>929</ele>
        <time>2014-05-10T16:29:22.68</time>
      </trkpt>
      <trkpt lat="47.15855" lon="6.72123">
        <ele>931</ele>
        <time>2014-05-10T16:29:24.69</time>
      </trkpt>
      <trkpt lat="47.1586" lon="6.72114">
        <ele>929</ele>
        <time>2014-05-10T16:29:26.67</time>
      </trkpt>
      <trkpt lat="47.15866" lon="6.72103">
        <ele>930</ele>
        <time>2014-05-10T16:29:28.70</time>
      </trkpt>
      <trkpt lat="47.15873" lon="6.72092">
        <ele>925</ele>
        <time>2014-05-10T16:29:30.68</time>
      </trkpt>
      <trkpt lat="47.15879" lon="6.72082">
        <ele>930</ele>
        <time>2014-05-10T16:29:32.70</time>
      </trkpt>
      <trkpt lat="47.15887" lon="6.72071">
        <ele>933</ele>
        <time>2014-05-10T16:29:34.69</time>
      </trkpt>
      <trkpt lat="47.15893" lon="6.72061">
        <ele>933</ele>
        <time>2014-05-10T16:29:36.68</time>
      </trkpt>
      <trkpt lat="47.159" lon="6.7205">
        <ele>935</ele>
        <time>2014-05-10T16:29:38.72</time>
      </trkpt>
      <trkpt lat="47.15907" lon="6.72038">
        <ele>934</ele>
        <time>2014-05-10T16:29:40.68</time>
      </trkpt>
      <trkpt lat="47.15914" lon="6.72026">
        <ele>932</ele>
        <time>2014-05-10T16:29:42.72</time>
      </trkpt>
      <trkpt lat="47.1592" lon="6.72016">
        <ele>930</ele>
        <time>2014-05-10T16:29:44.71</time>
      </trkpt>
      <trkpt lat="47.15927" lon="6.72006">
        <ele>929</ele>
        <time>2014-05-10T16:29:46.71</time>
      </trkpt>
      <trkpt lat="47.15935" lon="6.71997">
        <ele>928</ele>
        <time>2014-05-10T16:29:48.71</time>
      </trkpt>
      <trkpt lat="47.15945" lon="6.71993">
        <ele>929</ele>
        <time>2014-05-10T16:29:50.70</time>
      </trkpt>
      <trkpt lat="47.15954" lon="6.71993">
        <ele>933</ele>
        <time>2014-05-10T16:29:52.71</time>
      </trkpt>
      <trkpt lat="47.15966" lon="6.72">
        <ele>933</ele>
        <time>2014-05-10T16:29:54.70</time>
      </trkpt>
      <trkpt lat="47.15972" lon="6.72007">
        <ele>933</ele>
        <time>2014-05-10T16:29:55.69</time>
      </trkpt>
      <trkpt lat="47.15978" lon="6.72013">
        <ele>930</ele>
        <time>2014-05-10T16:29:56.70</time>
      </trkpt>
      <trkpt lat="47.15984" lon="6.7202">
        <ele>931</ele>
        <time>2014-05-10T16:29:57.72</time>
      </trkpt>
      <trkpt lat="47.15989" lon="6.72027">
        <ele>932</ele>
        <time>2014-05-10T16:29:58.72</time>
      </trkpt>
      <trkpt lat="47.15995" lon="6.72036">
        <ele>933</ele>
        <time>2014-05-10T16:29:59.70</time>
      </trkpt>
      <trkpt lat="47.16" lon="6.72044">
        <ele>932</ele>
        <time>2014-05-10T16:30:00.71</time>
      </trkpt>
      <trkpt lat="47.16006" lon="6.72053">
        <ele>929</ele>
        <time>2014-05-10T16:30:01.71</time>
      </trkpt>
      <trkpt lat="47.16012" lon="6.72062">
        <ele>930</ele>
        <time>2014-05-10T16:30:02.69</time>
      </trkpt>
      <trkpt lat="47.16021" lon="6.72079">
        <ele>927</ele>
        <time>2014-05-10T16:30:04.70</time>
      </trkpt>
      <trkpt lat="47.16024" lon="6.72088">
        <ele>927</ele>
        <time>2014-05-10T16:30:05.69</time>
      </trkpt>
      <trkpt lat="47.16029" lon="6.72098">
        <ele>927</ele>
        <time>2014-05-10T16:30:06.74</time>
      </trkpt>
      <trkpt lat="47.16035" lon="6.72107">
        <ele>928</ele>
        <time>2014-05-10T16:30:07.69</time>
      </trkpt>
      <trkpt lat="47.16046" lon="6.7211">
        <ele>930</ele>
        <time>2014-05-10T16:30:09.72</time>
      </trkpt>
      <trkpt lat="47.16059" lon="6.72098">
        <ele>929</ele>
        <time>2014-05-10T16:30:11.69</time>
      </trkpt>
      <trkpt lat="47.16066" lon="6.7209">
        <ele>928</ele>
        <time>2014-05-10T16:30:12.67</time>
      </trkpt>
      <trkpt lat="47.16072" lon="6.72082">
        <ele>927</ele>
        <time>2014-05-10T16:30:13.69</time>
      </trkpt>
      <trkpt lat="47.16078" lon="6.72075">
        <ele>929</ele>
        <time>2014-05-10T16:30:15.68</time>
      </trkpt>
      <trkpt lat="47.16084" lon="6.72069">
        <ele>931</ele>
        <time>2014-05-10T16:30:22.74</time>
      </trkpt>
      <trkpt lat="47.1609" lon="6.72063">
        <ele>925</ele>
        <time>2014-05-10T16:30:28.69</time>
      </trkpt>
      <trkpt lat="47.16089" lon="6.72064">
        <ele>927</ele>
        <time>2014-05-10T16:30:35.71</time>
      </trkpt>
      <trkpt lat="47.16095" lon="6.72056">
        <ele>927</ele>
        <time>2014-05-10T16:30:41.69</time>
      </trkpt>
      <trkpt lat="47.16104" lon="6.72051">
        <ele>926</ele>
        <time>2014-05-10T16:30:44.69</time>
      </trkpt>
      <trkpt lat="47.16112" lon="6.72044">
        <ele>925</ele>
        <time>2014-05-10T16:30:46.72</time>
      </trkpt>
      <trkpt lat="47.16118" lon="6.72036">
        <ele>928</ele>
        <time>2014-05-10T16:30:48.68</time>
      </trkpt>
      <trkpt lat="47.16123" lon="6.72026">
        <ele>928</ele>
        <time>2014-05-10T16:30:50.67</time>
      </trkpt>
      <trkpt lat="47.16125" lon="6.72022">
        <ele>926</ele>
        <time>2014-05-10T16:30:57.69</time>
      </trkpt>
      <trkpt lat="47.16127" lon="6.7201">
        <ele>923</ele>
        <time>2014-05-10T16:30:59.67</time>
      </trkpt>
      <trkpt lat="47.1613" lon="6.71998">
        <ele>926</ele>
        <time>2014-05-10T16:31:03.64</time>
      </trkpt>
      <trkpt lat="47.16133" lon="6.71986">
        <ele>927</ele>
        <time>2014-05-10T16:31:07.64</time>
      </trkpt>
      <trkpt lat="47.16133" lon="6.71974">
        <ele>925</ele>
        <time>2014-05-10T16:31:13.64</time>
      </trkpt>
      <trkpt lat="47.16135" lon="6.71967">
        <ele>929</ele>
        <time>2014-05-10T16:31:20.64</time>
      </trkpt>
      <trkpt lat="47.16133" lon="6.71959">
        <ele>930</ele>
        <time>2014-05-10T16:31:27.64</time>
      </trkpt>
      <trkpt lat="47.16134" lon="6.71948">
        <ele>928</ele>
        <time>2014-05-10T16:31:34.64</time>
      </trkpt>
      <trkpt lat="47.16132" lon="6.71935">
        <ele>928</ele>
        <time>2014-05-10T16:31:37.66</time>
      </trkpt>
      <trkpt lat="47.16129" lon="6.71925">
        <ele>928</ele>
        <time>2014-05-10T16:31:40.67</time>
      </trkpt>
      <trkpt lat="47.16124" lon="6.71914">
        <ele>930</ele>
        <time>2014-05-10T16:31:44.64</time>
      </trkpt>
      <trkpt lat="47.16118" lon="6.71903">
        <ele>927</ele>
        <time>2014-05-10T16:31:48.66</time>
      </trkpt>
      <trkpt lat="47.16116" lon="6.71892">
        <ele>927</ele>
        <time>2014-05-10T16:31:53.71</time>
      </trkpt>
      <trkpt lat="47.16113" lon="6.71889">
        <ele>930</ele>
        <time>2014-05-10T16:32:00.66</time>
      </trkpt>
      <trkpt lat="47.16105" lon="6.71888">
        <ele>930</ele>
        <time>2014-05-10T16:32:06.64</time>
      </trkpt>
      <trkpt lat="47.16097" lon="6.71894">
        <ele>927</ele>
        <time>2014-05-10T16:32:09.67</time>
      </trkpt>
      <trkpt lat="47.1609" lon="6.719">
        <ele>928</ele>
        <time>2014-05-10T16:32:12.66</time>
      </trkpt>
      <trkpt lat="47.16081" lon="6.71909">
        <ele>931</ele>
        <time>2014-05-10T16:32:15.64</time>
      </trkpt>
      <trkpt lat="47.16072" lon="6.71918">
        <ele>928</ele>
        <time>2014-05-10T16:32:17.63</time>
      </trkpt>
      <trkpt lat="47.16064" lon="6.71927">
        <ele>926</ele>
        <time>2014-05-10T16:32:19.67</time>
      </trkpt>
      <trkpt lat="47.16057" lon="6.71935">
        <ele>926</ele>
        <time>2014-05-10T16:32:21.69</time>
      </trkpt>
      <trkpt lat="47.1605" lon="6.71943">
        <ele>927</ele>
        <time>2014-05-10T16:32:23.64</time>
      </trkpt>
      <trkpt lat="47.16043" lon="6.71952">
        <ele>925</ele>
        <time>2014-05-10T16:32:25.63</time>
      </trkpt>
      <trkpt lat="47.16036" lon="6.71958">
        <ele>924</ele>
        <time>2014-05-10T16:32:27.64</time>
      </trkpt>
      <trkpt lat="47.16032" lon="6.71969">
        <ele>923</ele>
        <time>2014-05-10T16:32:30.67</time>
      </trkpt>
      <trkpt lat="47.16036" lon="6.71983">
        <ele>926</ele>
        <time>2014-05-10T16:32:33.67</time>
      </trkpt>
      <trkpt lat="47.16042" lon="6.71993">
        <ele>925</ele>
        <time>2014-05-10T16:32:36.64</time>
      </trkpt>
      <trkpt lat="47.16046" lon="6.72003">
        <ele>926</ele>
        <time>2014-05-10T16:32:38.70</time>
      </trkpt>
      <trkpt lat="47.16054" lon="6.72004">
        <ele>927</ele>
        <time>2014-05-10T16:32:42.64</time>
      </trkpt>
      <trkpt lat="47.16061" lon="6.72004">
        <ele>924</ele>
        <time>2014-05-10T16:32:49.66</time>
      </trkpt>
      <trkpt lat="47.16063" lon="6.72011">
        <ele>926</ele>
        <time>2014-05-10T16:32:56.70</time>
      </trkpt>
      <trkpt lat="47.16063" lon="6.72011">
        <ele>926</ele>
        <time>2014-05-10T16:33:00.67</time>
      </trkpt>
    </trkseg>
  </trk>
</gpx>